<?xml version="1.0" encoding="UTF-8" standalone="no" ?>
<gpx xmlns="http://www.topografix.com/GPX/1/1" xmlns:xsi="http://www.w3.org/2001/XMLSchema-instance" xsi:schemaLocation="http://www.topografix.com/GPX/1/1 http://www.topografix.com/GPX/1/1/gpx.xsd" version="1.1" creator="VisuGPX - https://www.visugpx.com">
  <metadata>
    <name>2018-09-18 Bike ride VTT-Amberieux-Saone O Quincieux O</name>
    <desc><![CDATA[2018-09-18 Bike ride VTT-Amberieux-Saone O Quincieux O]]></desc>
  </metadata>
  <wpt lat="45.92465" lon="4.73723">
    <ele>174</ele>
    <name><![CDATA[2018-09-18 10:22 (Start)]]></name>
  </wpt>
  <wpt lat="45.92461" lon="4.73712">
    <ele>174</ele>
    <name><![CDATA[2018-09-18 10:22 (End)]]></name>
  </wpt>
  <trk>
    <name><![CDATA[2018-09-18 10:22]]></name>
    <trkseg>
      <trkpt lat="45.92465" lon="4.73723">
        <ele>174</ele>
        <time>2018-09-18T08:22:05.808Z</time>
      </trkpt>
      <trkpt lat="45.92465" lon="4.73723">
        <ele>174</ele>
        <time>2018-09-18T08:22:10.141Z</time>
      </trkpt>
      <trkpt lat="45.92464" lon="4.73722">
        <ele>174</ele>
        <time>2018-09-18T08:22:11.146Z</time>
      </trkpt>
      <trkpt lat="45.92465" lon="4.73718">
        <ele>174</ele>
        <time>2018-09-18T08:22:19.15Z</time>
      </trkpt>
      <trkpt lat="45.92463" lon="4.73719">
        <ele>174</ele>
        <time>2018-09-18T08:22:20.15Z</time>
      </trkpt>
      <trkpt lat="45.92463" lon="4.73719">
        <ele>174</ele>
        <time>2018-09-18T08:22:21.144Z</time>
      </trkpt>
      <trkpt lat="45.92461" lon="4.73712">
        <ele>174</ele>
        <time>2018-09-18T08:22:25.152Z</time>
      </trkpt>
      <trkpt lat="45.92459" lon="4.7371">
        <ele>174</ele>
        <time>2018-09-18T08:22:26.149Z</time>
      </trkpt>
      <trkpt lat="45.9246" lon="4.73709">
        <ele>174</ele>
        <time>2018-09-18T08:22:27Z</time>
      </trkpt>
      <trkpt lat="45.92466" lon="4.73702">
        <ele>174</ele>
        <time>2018-09-18T08:22:37Z</time>
      </trkpt>
      <trkpt lat="45.92467" lon="4.73698">
        <ele>174</ele>
        <time>2018-09-18T08:22:38Z</time>
      </trkpt>
      <trkpt lat="45.92471" lon="4.73688">
        <ele>174</ele>
        <time>2018-09-18T08:22:41Z</time>
      </trkpt>
      <trkpt lat="45.92472" lon="4.73685">
        <ele>174</ele>
        <time>2018-09-18T08:22:42Z</time>
      </trkpt>
      <trkpt lat="45.92472" lon="4.73673">
        <ele>174</ele>
        <time>2018-09-18T08:22:45Z</time>
      </trkpt>
      <trkpt lat="45.92473" lon="4.7367">
        <ele>174</ele>
        <time>2018-09-18T08:22:45.663Z</time>
      </trkpt>
      <trkpt lat="45.92473" lon="4.7366">
        <ele>174</ele>
        <time>2018-09-18T08:22:48Z</time>
      </trkpt>
      <trkpt lat="45.92474" lon="4.73655">
        <ele>174</ele>
        <time>2018-09-18T08:22:49Z</time>
      </trkpt>
      <trkpt lat="45.92477" lon="4.73645">
        <ele>174</ele>
        <time>2018-09-18T08:22:51Z</time>
      </trkpt>
      <trkpt lat="45.92485" lon="4.7364">
        <ele>174</ele>
        <time>2018-09-18T08:22:52Z</time>
      </trkpt>
      <trkpt lat="45.92489" lon="4.73641">
        <ele>174</ele>
        <time>2018-09-18T08:22:53Z</time>
      </trkpt>
      <trkpt lat="45.92494" lon="4.73642">
        <ele>174</ele>
        <time>2018-09-18T08:22:54Z</time>
      </trkpt>
      <trkpt lat="45.92499" lon="4.73643">
        <ele>174</ele>
        <time>2018-09-18T08:22:55.734Z</time>
      </trkpt>
      <trkpt lat="45.92504" lon="4.73644">
        <ele>174</ele>
        <time>2018-09-18T08:22:56Z</time>
      </trkpt>
      <trkpt lat="45.92512" lon="4.73645">
        <ele>174</ele>
        <time>2018-09-18T08:22:58Z</time>
      </trkpt>
      <trkpt lat="45.92519" lon="4.73646">
        <ele>174</ele>
        <time>2018-09-18T08:22:59Z</time>
      </trkpt>
      <trkpt lat="45.92523" lon="4.73646">
        <ele>173</ele>
        <time>2018-09-18T08:23:00Z</time>
      </trkpt>
      <trkpt lat="45.92528" lon="4.73646">
        <ele>173</ele>
        <time>2018-09-18T08:23:01Z</time>
      </trkpt>
      <trkpt lat="45.92534" lon="4.73646">
        <ele>173</ele>
        <time>2018-09-18T08:23:03Z</time>
      </trkpt>
      <trkpt lat="45.92541" lon="4.73646">
        <ele>173</ele>
        <time>2018-09-18T08:23:04Z</time>
      </trkpt>
      <trkpt lat="45.92546" lon="4.73643">
        <ele>173</ele>
        <time>2018-09-18T08:23:05Z</time>
      </trkpt>
      <trkpt lat="45.92551" lon="4.73641">
        <ele>173</ele>
        <time>2018-09-18T08:23:06Z</time>
      </trkpt>
      <trkpt lat="45.92556" lon="4.73642">
        <ele>173</ele>
        <time>2018-09-18T08:23:07Z</time>
      </trkpt>
      <trkpt lat="45.9256" lon="4.73641">
        <ele>173</ele>
        <time>2018-09-18T08:23:08Z</time>
      </trkpt>
      <trkpt lat="45.92566" lon="4.7364">
        <ele>173</ele>
        <time>2018-09-18T08:23:09Z</time>
      </trkpt>
      <trkpt lat="45.9257" lon="4.73637">
        <ele>173</ele>
        <time>2018-09-18T08:23:10Z</time>
      </trkpt>
      <trkpt lat="45.92574" lon="4.73636">
        <ele>172</ele>
        <time>2018-09-18T08:23:11Z</time>
      </trkpt>
      <trkpt lat="45.92579" lon="4.73631">
        <ele>173</ele>
        <time>2018-09-18T08:23:12Z</time>
      </trkpt>
      <trkpt lat="45.92585" lon="4.73627">
        <ele>172</ele>
        <time>2018-09-18T08:23:13Z</time>
      </trkpt>
      <trkpt lat="45.92588" lon="4.73625">
        <ele>172</ele>
        <time>2018-09-18T08:23:14Z</time>
      </trkpt>
      <trkpt lat="45.92596" lon="4.73622">
        <ele>173</ele>
        <time>2018-09-18T08:23:16Z</time>
      </trkpt>
      <trkpt lat="45.92598" lon="4.73623">
        <ele>173</ele>
        <time>2018-09-18T08:23:17Z</time>
      </trkpt>
      <trkpt lat="45.92603" lon="4.73621">
        <ele>173</ele>
        <time>2018-09-18T08:23:18Z</time>
      </trkpt>
      <trkpt lat="45.92607" lon="4.73621">
        <ele>173</ele>
        <time>2018-09-18T08:23:19Z</time>
      </trkpt>
      <trkpt lat="45.9261" lon="4.7362">
        <ele>173</ele>
        <time>2018-09-18T08:23:21Z</time>
      </trkpt>
      <trkpt lat="45.92621" lon="4.7364">
        <ele>173</ele>
        <time>2018-09-18T08:23:22Z</time>
      </trkpt>
      <trkpt lat="45.92623" lon="4.73645">
        <ele>173</ele>
        <time>2018-09-18T08:23:23Z</time>
      </trkpt>
      <trkpt lat="45.92627" lon="4.73653">
        <ele>173</ele>
        <time>2018-09-18T08:23:24Z</time>
      </trkpt>
      <trkpt lat="45.9263" lon="4.73659">
        <ele>173</ele>
        <time>2018-09-18T08:23:25Z</time>
      </trkpt>
      <trkpt lat="45.92635" lon="4.73667">
        <ele>173</ele>
        <time>2018-09-18T08:23:26Z</time>
      </trkpt>
      <trkpt lat="45.9264" lon="4.73677">
        <ele>173</ele>
        <time>2018-09-18T08:23:28Z</time>
      </trkpt>
      <trkpt lat="45.92645" lon="4.73683">
        <ele>173</ele>
        <time>2018-09-18T08:23:29Z</time>
      </trkpt>
      <trkpt lat="45.92648" lon="4.73689">
        <ele>173</ele>
        <time>2018-09-18T08:23:30Z</time>
      </trkpt>
      <trkpt lat="45.92653" lon="4.73692">
        <ele>173</ele>
        <time>2018-09-18T08:23:31Z</time>
      </trkpt>
      <trkpt lat="45.92657" lon="4.73697">
        <ele>173</ele>
        <time>2018-09-18T08:23:32Z</time>
      </trkpt>
      <trkpt lat="45.92661" lon="4.737">
        <ele>173</ele>
        <time>2018-09-18T08:23:33Z</time>
      </trkpt>
      <trkpt lat="45.92665" lon="4.73703">
        <ele>173</ele>
        <time>2018-09-18T08:23:34Z</time>
      </trkpt>
      <trkpt lat="45.92669" lon="4.73707">
        <ele>174</ele>
        <time>2018-09-18T08:23:35Z</time>
      </trkpt>
      <trkpt lat="45.92673" lon="4.7371">
        <ele>174</ele>
        <time>2018-09-18T08:23:36Z</time>
      </trkpt>
      <trkpt lat="45.92678" lon="4.73711">
        <ele>173</ele>
        <time>2018-09-18T08:23:37Z</time>
      </trkpt>
      <trkpt lat="45.92684" lon="4.73715">
        <ele>173</ele>
        <time>2018-09-18T08:23:39Z</time>
      </trkpt>
      <trkpt lat="45.92686" lon="4.73716">
        <ele>173</ele>
        <time>2018-09-18T08:23:40Z</time>
      </trkpt>
      <trkpt lat="45.92694" lon="4.7372">
        <ele>173</ele>
        <time>2018-09-18T08:23:41Z</time>
      </trkpt>
      <trkpt lat="45.92703" lon="4.73719">
        <ele>173</ele>
        <time>2018-09-18T08:23:42Z</time>
      </trkpt>
      <trkpt lat="45.92706" lon="4.73722">
        <ele>173</ele>
        <time>2018-09-18T08:23:43Z</time>
      </trkpt>
      <trkpt lat="45.92711" lon="4.73723">
        <ele>173</ele>
        <time>2018-09-18T08:23:44Z</time>
      </trkpt>
      <trkpt lat="45.92716" lon="4.73723">
        <ele>173</ele>
        <time>2018-09-18T08:23:45Z</time>
      </trkpt>
      <trkpt lat="45.92721" lon="4.73724">
        <ele>173</ele>
        <time>2018-09-18T08:23:46Z</time>
      </trkpt>
      <trkpt lat="45.92726" lon="4.73725">
        <ele>173</ele>
        <time>2018-09-18T08:23:47Z</time>
      </trkpt>
      <trkpt lat="45.92731" lon="4.73725">
        <ele>173</ele>
        <time>2018-09-18T08:23:48Z</time>
      </trkpt>
      <trkpt lat="45.92739" lon="4.73725">
        <ele>173</ele>
        <time>2018-09-18T08:23:50Z</time>
      </trkpt>
      <trkpt lat="45.92742" lon="4.73726">
        <ele>173</ele>
        <time>2018-09-18T08:23:51Z</time>
      </trkpt>
      <trkpt lat="45.92749" lon="4.73727">
        <ele>173</ele>
        <time>2018-09-18T08:23:53Z</time>
      </trkpt>
      <trkpt lat="45.92751" lon="4.73727">
        <ele>172</ele>
        <time>2018-09-18T08:23:54Z</time>
      </trkpt>
      <trkpt lat="45.92757" lon="4.7373">
        <ele>172</ele>
        <time>2018-09-18T08:23:57Z</time>
      </trkpt>
      <trkpt lat="45.92766" lon="4.73736">
        <ele>172</ele>
        <time>2018-09-18T08:23:58Z</time>
      </trkpt>
      <trkpt lat="45.92771" lon="4.73736">
        <ele>172</ele>
        <time>2018-09-18T08:23:59Z</time>
      </trkpt>
      <trkpt lat="45.92776" lon="4.73737">
        <ele>172</ele>
        <time>2018-09-18T08:24:00Z</time>
      </trkpt>
      <trkpt lat="45.92783" lon="4.73745">
        <ele>172</ele>
        <time>2018-09-18T08:24:04Z</time>
      </trkpt>
      <trkpt lat="45.92787" lon="4.73755">
        <ele>173</ele>
        <time>2018-09-18T08:24:05Z</time>
      </trkpt>
      <trkpt lat="45.9279" lon="4.73759">
        <ele>173</ele>
        <time>2018-09-18T08:24:06Z</time>
      </trkpt>
      <trkpt lat="45.92796" lon="4.73764">
        <ele>173</ele>
        <time>2018-09-18T08:24:07Z</time>
      </trkpt>
      <trkpt lat="45.92804" lon="4.73769">
        <ele>173</ele>
        <time>2018-09-18T08:24:09Z</time>
      </trkpt>
      <trkpt lat="45.92808" lon="4.73772">
        <ele>173</ele>
        <time>2018-09-18T08:24:10Z</time>
      </trkpt>
      <trkpt lat="45.92814" lon="4.73771">
        <ele>173</ele>
        <time>2018-09-18T08:24:11Z</time>
      </trkpt>
      <trkpt lat="45.92819" lon="4.73774">
        <ele>173</ele>
        <time>2018-09-18T08:24:12Z</time>
      </trkpt>
      <trkpt lat="45.92824" lon="4.73779">
        <ele>173</ele>
        <time>2018-09-18T08:24:13Z</time>
      </trkpt>
      <trkpt lat="45.92829" lon="4.73782">
        <ele>173</ele>
        <time>2018-09-18T08:24:14Z</time>
      </trkpt>
      <trkpt lat="45.92835" lon="4.73785">
        <ele>173</ele>
        <time>2018-09-18T08:24:15Z</time>
      </trkpt>
      <trkpt lat="45.92838" lon="4.73788">
        <ele>173</ele>
        <time>2018-09-18T08:24:16Z</time>
      </trkpt>
      <trkpt lat="45.92842" lon="4.73792">
        <ele>173</ele>
        <time>2018-09-18T08:24:17Z</time>
      </trkpt>
      <trkpt lat="45.92847" lon="4.73796">
        <ele>173</ele>
        <time>2018-09-18T08:24:18Z</time>
      </trkpt>
      <trkpt lat="45.92851" lon="4.738">
        <ele>173</ele>
        <time>2018-09-18T08:24:20Z</time>
      </trkpt>
      <trkpt lat="45.92855" lon="4.73803">
        <ele>173</ele>
        <time>2018-09-18T08:24:21Z</time>
      </trkpt>
      <trkpt lat="45.92857" lon="4.73813">
        <ele>173</ele>
        <time>2018-09-18T08:24:24Z</time>
      </trkpt>
      <trkpt lat="45.9286" lon="4.73822">
        <ele>173</ele>
        <time>2018-09-18T08:24:25Z</time>
      </trkpt>
      <trkpt lat="45.92862" lon="4.73826">
        <ele>173</ele>
        <time>2018-09-18T08:24:26Z</time>
      </trkpt>
      <trkpt lat="45.92863" lon="4.73834">
        <ele>173</ele>
        <time>2018-09-18T08:24:27Z</time>
      </trkpt>
      <trkpt lat="45.92866" lon="4.73844">
        <ele>173</ele>
        <time>2018-09-18T08:24:28Z</time>
      </trkpt>
      <trkpt lat="45.92868" lon="4.73851">
        <ele>173</ele>
        <time>2018-09-18T08:24:29Z</time>
      </trkpt>
      <trkpt lat="45.92872" lon="4.73864">
        <ele>173</ele>
        <time>2018-09-18T08:24:31Z</time>
      </trkpt>
      <trkpt lat="45.92879" lon="4.73882">
        <ele>173</ele>
        <time>2018-09-18T08:24:33Z</time>
      </trkpt>
      <trkpt lat="45.92883" lon="4.73896">
        <ele>173</ele>
        <time>2018-09-18T08:24:34Z</time>
      </trkpt>
      <trkpt lat="45.92887" lon="4.73902">
        <ele>173</ele>
        <time>2018-09-18T08:24:35Z</time>
      </trkpt>
      <trkpt lat="45.92886" lon="4.7391">
        <ele>173</ele>
        <time>2018-09-18T08:24:36Z</time>
      </trkpt>
      <trkpt lat="45.92888" lon="4.73919">
        <ele>172</ele>
        <time>2018-09-18T08:24:37Z</time>
      </trkpt>
      <trkpt lat="45.92889" lon="4.73925">
        <ele>172</ele>
        <time>2018-09-18T08:24:38Z</time>
      </trkpt>
      <trkpt lat="45.92889" lon="4.73933">
        <ele>172</ele>
        <time>2018-09-18T08:24:39Z</time>
      </trkpt>
      <trkpt lat="45.92889" lon="4.73942">
        <ele>172</ele>
        <time>2018-09-18T08:24:40Z</time>
      </trkpt>
      <trkpt lat="45.9289" lon="4.73949">
        <ele>172</ele>
        <time>2018-09-18T08:24:41Z</time>
      </trkpt>
      <trkpt lat="45.9289" lon="4.73955">
        <ele>172</ele>
        <time>2018-09-18T08:24:42Z</time>
      </trkpt>
      <trkpt lat="45.92891" lon="4.73962">
        <ele>172</ele>
        <time>2018-09-18T08:24:43Z</time>
      </trkpt>
      <trkpt lat="45.9289" lon="4.7397">
        <ele>172</ele>
        <time>2018-09-18T08:24:44Z</time>
      </trkpt>
      <trkpt lat="45.92889" lon="4.73976">
        <ele>172</ele>
        <time>2018-09-18T08:24:45Z</time>
      </trkpt>
      <trkpt lat="45.92886" lon="4.73982">
        <ele>172</ele>
        <time>2018-09-18T08:24:46Z</time>
      </trkpt>
      <trkpt lat="45.92886" lon="4.73991">
        <ele>172</ele>
        <time>2018-09-18T08:24:47Z</time>
      </trkpt>
      <trkpt lat="45.92885" lon="4.73998">
        <ele>172</ele>
        <time>2018-09-18T08:24:48Z</time>
      </trkpt>
      <trkpt lat="45.92884" lon="4.74006">
        <ele>172</ele>
        <time>2018-09-18T08:24:49Z</time>
      </trkpt>
      <trkpt lat="45.92883" lon="4.74011">
        <ele>172</ele>
        <time>2018-09-18T08:24:50Z</time>
      </trkpt>
      <trkpt lat="45.92883" lon="4.74018">
        <ele>172</ele>
        <time>2018-09-18T08:24:51Z</time>
      </trkpt>
      <trkpt lat="45.92883" lon="4.74027">
        <ele>172</ele>
        <time>2018-09-18T08:24:52Z</time>
      </trkpt>
      <trkpt lat="45.92886" lon="4.74034">
        <ele>172</ele>
        <time>2018-09-18T08:24:53Z</time>
      </trkpt>
      <trkpt lat="45.92892" lon="4.74036">
        <ele>172</ele>
        <time>2018-09-18T08:24:54Z</time>
      </trkpt>
      <trkpt lat="45.92895" lon="4.74039">
        <ele>172</ele>
        <time>2018-09-18T08:24:55Z</time>
      </trkpt>
      <trkpt lat="45.92901" lon="4.74043">
        <ele>172</ele>
        <time>2018-09-18T08:24:56Z</time>
      </trkpt>
      <trkpt lat="45.92906" lon="4.74045">
        <ele>172</ele>
        <time>2018-09-18T08:24:57Z</time>
      </trkpt>
      <trkpt lat="45.92911" lon="4.74051">
        <ele>172</ele>
        <time>2018-09-18T08:24:58Z</time>
      </trkpt>
      <trkpt lat="45.92915" lon="4.74055">
        <ele>172</ele>
        <time>2018-09-18T08:24:59Z</time>
      </trkpt>
      <trkpt lat="45.92919" lon="4.7406">
        <ele>172</ele>
        <time>2018-09-18T08:25:00Z</time>
      </trkpt>
      <trkpt lat="45.9292" lon="4.74067">
        <ele>172</ele>
        <time>2018-09-18T08:25:01Z</time>
      </trkpt>
      <trkpt lat="45.9292" lon="4.74073">
        <ele>172</ele>
        <time>2018-09-18T08:25:02Z</time>
      </trkpt>
      <trkpt lat="45.9292" lon="4.7408">
        <ele>173</ele>
        <time>2018-09-18T08:25:03Z</time>
      </trkpt>
      <trkpt lat="45.92919" lon="4.74088">
        <ele>173</ele>
        <time>2018-09-18T08:25:04Z</time>
      </trkpt>
      <trkpt lat="45.92917" lon="4.74097">
        <ele>172</ele>
        <time>2018-09-18T08:25:06Z</time>
      </trkpt>
      <trkpt lat="45.92915" lon="4.741">
        <ele>172</ele>
        <time>2018-09-18T08:25:07Z</time>
      </trkpt>
      <trkpt lat="45.9291" lon="4.74105">
        <ele>172</ele>
        <time>2018-09-18T08:25:09Z</time>
      </trkpt>
      <trkpt lat="45.92908" lon="4.74108">
        <ele>172</ele>
        <time>2018-09-18T08:25:10Z</time>
      </trkpt>
      <trkpt lat="45.92902" lon="4.74118">
        <ele>172</ele>
        <time>2018-09-18T08:25:13Z</time>
      </trkpt>
      <trkpt lat="45.929" lon="4.74121">
        <ele>172</ele>
        <time>2018-09-18T08:25:14Z</time>
      </trkpt>
      <trkpt lat="45.92896" lon="4.74128">
        <ele>172</ele>
        <time>2018-09-18T08:25:16Z</time>
      </trkpt>
      <trkpt lat="45.92894" lon="4.74132">
        <ele>172</ele>
        <time>2018-09-18T08:25:17Z</time>
      </trkpt>
      <trkpt lat="45.92891" lon="4.74141">
        <ele>172</ele>
        <time>2018-09-18T08:25:19Z</time>
      </trkpt>
      <trkpt lat="45.92891" lon="4.74146">
        <ele>172</ele>
        <time>2018-09-18T08:25:20Z</time>
      </trkpt>
      <trkpt lat="45.92891" lon="4.7416">
        <ele>172</ele>
        <time>2018-09-18T08:25:21Z</time>
      </trkpt>
      <trkpt lat="45.92894" lon="4.74168">
        <ele>172</ele>
        <time>2018-09-18T08:25:23Z</time>
      </trkpt>
      <trkpt lat="45.92896" lon="4.74172">
        <ele>172</ele>
        <time>2018-09-18T08:25:24Z</time>
      </trkpt>
      <trkpt lat="45.92903" lon="4.74179">
        <ele>172</ele>
        <time>2018-09-18T08:25:26Z</time>
      </trkpt>
      <trkpt lat="45.92907" lon="4.74182">
        <ele>172</ele>
        <time>2018-09-18T08:25:27Z</time>
      </trkpt>
      <trkpt lat="45.92914" lon="4.74186">
        <ele>172</ele>
        <time>2018-09-18T08:25:29Z</time>
      </trkpt>
      <trkpt lat="45.92918" lon="4.74188">
        <ele>171</ele>
        <time>2018-09-18T08:25:30Z</time>
      </trkpt>
      <trkpt lat="45.92926" lon="4.74193">
        <ele>171</ele>
        <time>2018-09-18T08:25:32Z</time>
      </trkpt>
      <trkpt lat="45.92929" lon="4.74194">
        <ele>170</ele>
        <time>2018-09-18T08:25:33Z</time>
      </trkpt>
      <trkpt lat="45.92937" lon="4.74198">
        <ele>170</ele>
        <time>2018-09-18T08:25:35Z</time>
      </trkpt>
      <trkpt lat="45.92941" lon="4.742">
        <ele>170</ele>
        <time>2018-09-18T08:25:36Z</time>
      </trkpt>
      <trkpt lat="45.92948" lon="4.74203">
        <ele>170</ele>
        <time>2018-09-18T08:25:38Z</time>
      </trkpt>
      <trkpt lat="45.92952" lon="4.74205">
        <ele>170</ele>
        <time>2018-09-18T08:25:39Z</time>
      </trkpt>
      <trkpt lat="45.92959" lon="4.74208">
        <ele>170</ele>
        <time>2018-09-18T08:25:41Z</time>
      </trkpt>
      <trkpt lat="45.92964" lon="4.74208">
        <ele>170</ele>
        <time>2018-09-18T08:25:42Z</time>
      </trkpt>
      <trkpt lat="45.92972" lon="4.74204">
        <ele>170</ele>
        <time>2018-09-18T08:25:44Z</time>
      </trkpt>
      <trkpt lat="45.92975" lon="4.74201">
        <ele>170</ele>
        <time>2018-09-18T08:25:45Z</time>
      </trkpt>
      <trkpt lat="45.92978" lon="4.74196">
        <ele>170</ele>
        <time>2018-09-18T08:25:46Z</time>
      </trkpt>
      <trkpt lat="45.92981" lon="4.7419">
        <ele>170</ele>
        <time>2018-09-18T08:25:47Z</time>
      </trkpt>
      <trkpt lat="45.92983" lon="4.74183">
        <ele>169</ele>
        <time>2018-09-18T08:25:48Z</time>
      </trkpt>
      <trkpt lat="45.92986" lon="4.74177">
        <ele>169</ele>
        <time>2018-09-18T08:25:49Z</time>
      </trkpt>
      <trkpt lat="45.92988" lon="4.7417">
        <ele>169</ele>
        <time>2018-09-18T08:25:50Z</time>
      </trkpt>
      <trkpt lat="45.9299" lon="4.74162">
        <ele>170</ele>
        <time>2018-09-18T08:25:51Z</time>
      </trkpt>
      <trkpt lat="45.92993" lon="4.74156">
        <ele>170</ele>
        <time>2018-09-18T08:25:52Z</time>
      </trkpt>
      <trkpt lat="45.92995" lon="4.74148">
        <ele>170</ele>
        <time>2018-09-18T08:25:53Z</time>
      </trkpt>
      <trkpt lat="45.92998" lon="4.7414">
        <ele>170</ele>
        <time>2018-09-18T08:25:54Z</time>
      </trkpt>
      <trkpt lat="45.93" lon="4.74132">
        <ele>171</ele>
        <time>2018-09-18T08:25:55Z</time>
      </trkpt>
      <trkpt lat="45.93003" lon="4.74124">
        <ele>170</ele>
        <time>2018-09-18T08:25:56Z</time>
      </trkpt>
      <trkpt lat="45.93004" lon="4.74116">
        <ele>170</ele>
        <time>2018-09-18T08:25:57Z</time>
      </trkpt>
      <trkpt lat="45.93006" lon="4.74108">
        <ele>170</ele>
        <time>2018-09-18T08:25:58Z</time>
      </trkpt>
      <trkpt lat="45.93007" lon="4.741">
        <ele>170</ele>
        <time>2018-09-18T08:25:59Z</time>
      </trkpt>
      <trkpt lat="45.93008" lon="4.74091">
        <ele>170</ele>
        <time>2018-09-18T08:26:00Z</time>
      </trkpt>
      <trkpt lat="45.93008" lon="4.74082">
        <ele>171</ele>
        <time>2018-09-18T08:26:01Z</time>
      </trkpt>
      <trkpt lat="45.93008" lon="4.74074">
        <ele>170</ele>
        <time>2018-09-18T08:26:02Z</time>
      </trkpt>
      <trkpt lat="45.93007" lon="4.74066">
        <ele>170</ele>
        <time>2018-09-18T08:26:03Z</time>
      </trkpt>
      <trkpt lat="45.93007" lon="4.74058">
        <ele>170</ele>
        <time>2018-09-18T08:26:04Z</time>
      </trkpt>
      <trkpt lat="45.93007" lon="4.74051">
        <ele>170</ele>
        <time>2018-09-18T08:26:05Z</time>
      </trkpt>
      <trkpt lat="45.93008" lon="4.74042">
        <ele>170</ele>
        <time>2018-09-18T08:26:06Z</time>
      </trkpt>
      <trkpt lat="45.93008" lon="4.74035">
        <ele>170</ele>
        <time>2018-09-18T08:26:07Z</time>
      </trkpt>
      <trkpt lat="45.9301" lon="4.74028">
        <ele>170</ele>
        <time>2018-09-18T08:26:08Z</time>
      </trkpt>
      <trkpt lat="45.93012" lon="4.74021">
        <ele>170</ele>
        <time>2018-09-18T08:26:09Z</time>
      </trkpt>
      <trkpt lat="45.93013" lon="4.74014">
        <ele>170</ele>
        <time>2018-09-18T08:26:10Z</time>
      </trkpt>
      <trkpt lat="45.93016" lon="4.74006">
        <ele>170</ele>
        <time>2018-09-18T08:26:11Z</time>
      </trkpt>
      <trkpt lat="45.9302" lon="4.74004">
        <ele>170</ele>
        <time>2018-09-18T08:26:12Z</time>
      </trkpt>
      <trkpt lat="45.93024" lon="4.74">
        <ele>169</ele>
        <time>2018-09-18T08:26:13Z</time>
      </trkpt>
      <trkpt lat="45.93029" lon="4.73998">
        <ele>169</ele>
        <time>2018-09-18T08:26:14Z</time>
      </trkpt>
      <trkpt lat="45.93033" lon="4.73999">
        <ele>169</ele>
        <time>2018-09-18T08:26:15Z</time>
      </trkpt>
      <trkpt lat="45.93038" lon="4.73999">
        <ele>169</ele>
        <time>2018-09-18T08:26:16Z</time>
      </trkpt>
      <trkpt lat="45.93043" lon="4.74001">
        <ele>169</ele>
        <time>2018-09-18T08:26:17Z</time>
      </trkpt>
      <trkpt lat="45.93047" lon="4.74004">
        <ele>169</ele>
        <time>2018-09-18T08:26:18Z</time>
      </trkpt>
      <trkpt lat="45.93052" lon="4.74006">
        <ele>169</ele>
        <time>2018-09-18T08:26:19Z</time>
      </trkpt>
      <trkpt lat="45.9306" lon="4.74009">
        <ele>169</ele>
        <time>2018-09-18T08:26:21Z</time>
      </trkpt>
      <trkpt lat="45.93065" lon="4.74011">
        <ele>169</ele>
        <time>2018-09-18T08:26:22Z</time>
      </trkpt>
      <trkpt lat="45.93074" lon="4.74013">
        <ele>169</ele>
        <time>2018-09-18T08:26:24Z</time>
      </trkpt>
      <trkpt lat="45.93079" lon="4.74014">
        <ele>169</ele>
        <time>2018-09-18T08:26:25Z</time>
      </trkpt>
      <trkpt lat="45.93085" lon="4.74014">
        <ele>168</ele>
        <time>2018-09-18T08:26:26Z</time>
      </trkpt>
      <trkpt lat="45.93089" lon="4.74015">
        <ele>168</ele>
        <time>2018-09-18T08:26:27Z</time>
      </trkpt>
      <trkpt lat="45.93094" lon="4.74014">
        <ele>168</ele>
        <time>2018-09-18T08:26:28Z</time>
      </trkpt>
      <trkpt lat="45.93099" lon="4.74015">
        <ele>168</ele>
        <time>2018-09-18T08:26:29Z</time>
      </trkpt>
      <trkpt lat="45.93105" lon="4.74017">
        <ele>168</ele>
        <time>2018-09-18T08:26:30Z</time>
      </trkpt>
      <trkpt lat="45.9311" lon="4.74018">
        <ele>168</ele>
        <time>2018-09-18T08:26:31Z</time>
      </trkpt>
      <trkpt lat="45.93115" lon="4.7402">
        <ele>168</ele>
        <time>2018-09-18T08:26:32Z</time>
      </trkpt>
      <trkpt lat="45.9312" lon="4.74022">
        <ele>168</ele>
        <time>2018-09-18T08:26:33Z</time>
      </trkpt>
      <trkpt lat="45.93125" lon="4.74023">
        <ele>168</ele>
        <time>2018-09-18T08:26:34Z</time>
      </trkpt>
      <trkpt lat="45.9313" lon="4.74025">
        <ele>168</ele>
        <time>2018-09-18T08:26:35Z</time>
      </trkpt>
      <trkpt lat="45.93134" lon="4.74028">
        <ele>168</ele>
        <time>2018-09-18T08:26:36Z</time>
      </trkpt>
      <trkpt lat="45.93141" lon="4.74029">
        <ele>168</ele>
        <time>2018-09-18T08:26:37Z</time>
      </trkpt>
      <trkpt lat="45.93148" lon="4.74035">
        <ele>168</ele>
        <time>2018-09-18T08:26:39Z</time>
      </trkpt>
      <trkpt lat="45.93152" lon="4.74038">
        <ele>168</ele>
        <time>2018-09-18T08:26:40Z</time>
      </trkpt>
      <trkpt lat="45.93157" lon="4.74041">
        <ele>168</ele>
        <time>2018-09-18T08:26:41Z</time>
      </trkpt>
      <trkpt lat="45.9316" lon="4.74046">
        <ele>168</ele>
        <time>2018-09-18T08:26:42Z</time>
      </trkpt>
      <trkpt lat="45.93165" lon="4.74051">
        <ele>168</ele>
        <time>2018-09-18T08:26:43Z</time>
      </trkpt>
      <trkpt lat="45.93168" lon="4.74056">
        <ele>168</ele>
        <time>2018-09-18T08:26:44Z</time>
      </trkpt>
      <trkpt lat="45.93172" lon="4.74061">
        <ele>168</ele>
        <time>2018-09-18T08:26:45Z</time>
      </trkpt>
      <trkpt lat="45.93176" lon="4.74066">
        <ele>168</ele>
        <time>2018-09-18T08:26:46Z</time>
      </trkpt>
      <trkpt lat="45.93183" lon="4.7407">
        <ele>168</ele>
        <time>2018-09-18T08:26:47Z</time>
      </trkpt>
      <trkpt lat="45.93187" lon="4.74076">
        <ele>168</ele>
        <time>2018-09-18T08:26:48Z</time>
      </trkpt>
      <trkpt lat="45.93192" lon="4.74081">
        <ele>168</ele>
        <time>2018-09-18T08:26:49Z</time>
      </trkpt>
      <trkpt lat="45.93196" lon="4.74086">
        <ele>167</ele>
        <time>2018-09-18T08:26:50Z</time>
      </trkpt>
      <trkpt lat="45.93201" lon="4.74091">
        <ele>167</ele>
        <time>2018-09-18T08:26:51Z</time>
      </trkpt>
      <trkpt lat="45.93206" lon="4.74096">
        <ele>167</ele>
        <time>2018-09-18T08:26:52Z</time>
      </trkpt>
      <trkpt lat="45.93211" lon="4.74101">
        <ele>167</ele>
        <time>2018-09-18T08:26:53Z</time>
      </trkpt>
      <trkpt lat="45.93216" lon="4.74105">
        <ele>167</ele>
        <time>2018-09-18T08:26:54Z</time>
      </trkpt>
      <trkpt lat="45.93221" lon="4.74109">
        <ele>167</ele>
        <time>2018-09-18T08:26:55Z</time>
      </trkpt>
      <trkpt lat="45.93226" lon="4.74112">
        <ele>167</ele>
        <time>2018-09-18T08:26:56Z</time>
      </trkpt>
      <trkpt lat="45.93235" lon="4.74114">
        <ele>167</ele>
        <time>2018-09-18T08:26:58Z</time>
      </trkpt>
      <trkpt lat="45.93237" lon="4.74114">
        <ele>167</ele>
        <time>2018-09-18T08:26:59Z</time>
      </trkpt>
      <trkpt lat="45.93244" lon="4.7411">
        <ele>167</ele>
        <time>2018-09-18T08:27:01Z</time>
      </trkpt>
      <trkpt lat="45.93248" lon="4.74104">
        <ele>167</ele>
        <time>2018-09-18T08:27:02Z</time>
      </trkpt>
      <trkpt lat="45.93252" lon="4.74097">
        <ele>167</ele>
        <time>2018-09-18T08:27:04Z</time>
      </trkpt>
      <trkpt lat="45.93255" lon="4.74093">
        <ele>167</ele>
        <time>2018-09-18T08:27:05Z</time>
      </trkpt>
      <trkpt lat="45.9326" lon="4.74083">
        <ele>167</ele>
        <time>2018-09-18T08:27:07Z</time>
      </trkpt>
      <trkpt lat="45.93263" lon="4.74078">
        <ele>167</ele>
        <time>2018-09-18T08:27:08Z</time>
      </trkpt>
      <trkpt lat="45.93264" lon="4.74072">
        <ele>167</ele>
        <time>2018-09-18T08:27:09Z</time>
      </trkpt>
      <trkpt lat="45.93267" lon="4.74066">
        <ele>167</ele>
        <time>2018-09-18T08:27:10Z</time>
      </trkpt>
      <trkpt lat="45.93272" lon="4.74057">
        <ele>168</ele>
        <time>2018-09-18T08:27:12Z</time>
      </trkpt>
      <trkpt lat="45.93275" lon="4.74053">
        <ele>168</ele>
        <time>2018-09-18T08:27:13Z</time>
      </trkpt>
      <trkpt lat="45.9328" lon="4.74042">
        <ele>168</ele>
        <time>2018-09-18T08:27:15Z</time>
      </trkpt>
      <trkpt lat="45.93284" lon="4.74035">
        <ele>168</ele>
        <time>2018-09-18T08:27:16Z</time>
      </trkpt>
      <trkpt lat="45.93287" lon="4.74028">
        <ele>168</ele>
        <time>2018-09-18T08:27:17Z</time>
      </trkpt>
      <trkpt lat="45.93289" lon="4.74021">
        <ele>168</ele>
        <time>2018-09-18T08:27:18Z</time>
      </trkpt>
      <trkpt lat="45.93294" lon="4.74012">
        <ele>168</ele>
        <time>2018-09-18T08:27:20Z</time>
      </trkpt>
      <trkpt lat="45.93297" lon="4.74008">
        <ele>168</ele>
        <time>2018-09-18T08:27:21Z</time>
      </trkpt>
      <trkpt lat="45.933" lon="4.74004">
        <ele>168</ele>
        <time>2018-09-18T08:27:22Z</time>
      </trkpt>
      <trkpt lat="45.93303" lon="4.73997">
        <ele>168</ele>
        <time>2018-09-18T08:27:23Z</time>
      </trkpt>
      <trkpt lat="45.93306" lon="4.73991">
        <ele>168</ele>
        <time>2018-09-18T08:27:24Z</time>
      </trkpt>
      <trkpt lat="45.93308" lon="4.73986">
        <ele>168</ele>
        <time>2018-09-18T08:27:25Z</time>
      </trkpt>
      <trkpt lat="45.93311" lon="4.7398">
        <ele>168</ele>
        <time>2018-09-18T08:27:26Z</time>
      </trkpt>
      <trkpt lat="45.93314" lon="4.73974">
        <ele>168</ele>
        <time>2018-09-18T08:27:27Z</time>
      </trkpt>
      <trkpt lat="45.93319" lon="4.73964">
        <ele>168</ele>
        <time>2018-09-18T08:27:29Z</time>
      </trkpt>
      <trkpt lat="45.93322" lon="4.73959">
        <ele>168</ele>
        <time>2018-09-18T08:27:30Z</time>
      </trkpt>
      <trkpt lat="45.93325" lon="4.73953">
        <ele>168</ele>
        <time>2018-09-18T08:27:32Z</time>
      </trkpt>
      <trkpt lat="45.93328" lon="4.73947">
        <ele>168</ele>
        <time>2018-09-18T08:27:33Z</time>
      </trkpt>
      <trkpt lat="45.93333" lon="4.73938">
        <ele>168</ele>
        <time>2018-09-18T08:27:35Z</time>
      </trkpt>
      <trkpt lat="45.93336" lon="4.73934">
        <ele>168</ele>
        <time>2018-09-18T08:27:36Z</time>
      </trkpt>
      <trkpt lat="45.93342" lon="4.73925">
        <ele>168</ele>
        <time>2018-09-18T08:27:38Z</time>
      </trkpt>
      <trkpt lat="45.93346" lon="4.73922">
        <ele>168</ele>
        <time>2018-09-18T08:27:39Z</time>
      </trkpt>
      <trkpt lat="45.93349" lon="4.73917">
        <ele>168</ele>
        <time>2018-09-18T08:27:40Z</time>
      </trkpt>
      <trkpt lat="45.93352" lon="4.73912">
        <ele>168</ele>
        <time>2018-09-18T08:27:41Z</time>
      </trkpt>
      <trkpt lat="45.93354" lon="4.73906">
        <ele>168</ele>
        <time>2018-09-18T08:27:42Z</time>
      </trkpt>
      <trkpt lat="45.93358" lon="4.73901">
        <ele>168</ele>
        <time>2018-09-18T08:27:43Z</time>
      </trkpt>
      <trkpt lat="45.93361" lon="4.73894">
        <ele>168</ele>
        <time>2018-09-18T08:27:44Z</time>
      </trkpt>
      <trkpt lat="45.93364" lon="4.7389">
        <ele>168</ele>
        <time>2018-09-18T08:27:45Z</time>
      </trkpt>
      <trkpt lat="45.93367" lon="4.73886">
        <ele>168</ele>
        <time>2018-09-18T08:27:46Z</time>
      </trkpt>
      <trkpt lat="45.93371" lon="4.73881">
        <ele>168</ele>
        <time>2018-09-18T08:27:47Z</time>
      </trkpt>
      <trkpt lat="45.93375" lon="4.73874">
        <ele>169</ele>
        <time>2018-09-18T08:27:48Z</time>
      </trkpt>
      <trkpt lat="45.93379" lon="4.7387">
        <ele>169</ele>
        <time>2018-09-18T08:27:49Z</time>
      </trkpt>
      <trkpt lat="45.93386" lon="4.73865">
        <ele>169</ele>
        <time>2018-09-18T08:27:51Z</time>
      </trkpt>
      <trkpt lat="45.9339" lon="4.73862">
        <ele>169</ele>
        <time>2018-09-18T08:27:52Z</time>
      </trkpt>
      <trkpt lat="45.93397" lon="4.73857">
        <ele>169</ele>
        <time>2018-09-18T08:27:54Z</time>
      </trkpt>
      <trkpt lat="45.93401" lon="4.73855">
        <ele>169</ele>
        <time>2018-09-18T08:27:55Z</time>
      </trkpt>
      <trkpt lat="45.9341" lon="4.73851">
        <ele>169</ele>
        <time>2018-09-18T08:27:57Z</time>
      </trkpt>
      <trkpt lat="45.93413" lon="4.73849">
        <ele>169</ele>
        <time>2018-09-18T08:27:58Z</time>
      </trkpt>
      <trkpt lat="45.93419" lon="4.73845">
        <ele>169</ele>
        <time>2018-09-18T08:28:00Z</time>
      </trkpt>
      <trkpt lat="45.93424" lon="4.73842">
        <ele>169</ele>
        <time>2018-09-18T08:28:01Z</time>
      </trkpt>
      <trkpt lat="45.93432" lon="4.73838">
        <ele>169</ele>
        <time>2018-09-18T08:28:03Z</time>
      </trkpt>
      <trkpt lat="45.93437" lon="4.73836">
        <ele>169</ele>
        <time>2018-09-18T08:28:04Z</time>
      </trkpt>
      <trkpt lat="45.93444" lon="4.73832">
        <ele>169</ele>
        <time>2018-09-18T08:28:06Z</time>
      </trkpt>
      <trkpt lat="45.93446" lon="4.7383">
        <ele>169</ele>
        <time>2018-09-18T08:28:07Z</time>
      </trkpt>
      <trkpt lat="45.93449" lon="4.73829">
        <ele>169</ele>
        <time>2018-09-18T08:28:08Z</time>
      </trkpt>
      <trkpt lat="45.93456" lon="4.73827">
        <ele>169</ele>
        <time>2018-09-18T08:28:09Z</time>
      </trkpt>
      <trkpt lat="45.93461" lon="4.73825">
        <ele>169</ele>
        <time>2018-09-18T08:28:10Z</time>
      </trkpt>
      <trkpt lat="45.93465" lon="4.73822">
        <ele>169</ele>
        <time>2018-09-18T08:28:11Z</time>
      </trkpt>
      <trkpt lat="45.93473" lon="4.73818">
        <ele>169</ele>
        <time>2018-09-18T08:28:13Z</time>
      </trkpt>
      <trkpt lat="45.93477" lon="4.73816">
        <ele>169</ele>
        <time>2018-09-18T08:28:14Z</time>
      </trkpt>
      <trkpt lat="45.93485" lon="4.73812">
        <ele>169</ele>
        <time>2018-09-18T08:28:16Z</time>
      </trkpt>
      <trkpt lat="45.93488" lon="4.7381">
        <ele>169</ele>
        <time>2018-09-18T08:28:17Z</time>
      </trkpt>
      <trkpt lat="45.93493" lon="4.73808">
        <ele>169</ele>
        <time>2018-09-18T08:28:18Z</time>
      </trkpt>
      <trkpt lat="45.93497" lon="4.73806">
        <ele>169</ele>
        <time>2018-09-18T08:28:19Z</time>
      </trkpt>
      <trkpt lat="45.93504" lon="4.73801">
        <ele>169</ele>
        <time>2018-09-18T08:28:21Z</time>
      </trkpt>
      <trkpt lat="45.93508" lon="4.73797">
        <ele>169</ele>
        <time>2018-09-18T08:28:22Z</time>
      </trkpt>
      <trkpt lat="45.93516" lon="4.73791">
        <ele>169</ele>
        <time>2018-09-18T08:28:24Z</time>
      </trkpt>
      <trkpt lat="45.93518" lon="4.73788">
        <ele>169</ele>
        <time>2018-09-18T08:28:25Z</time>
      </trkpt>
      <trkpt lat="45.93524" lon="4.73781">
        <ele>169</ele>
        <time>2018-09-18T08:28:27Z</time>
      </trkpt>
      <trkpt lat="45.93527" lon="4.73778">
        <ele>169</ele>
        <time>2018-09-18T08:28:28Z</time>
      </trkpt>
      <trkpt lat="45.93533" lon="4.73768">
        <ele>169</ele>
        <time>2018-09-18T08:28:30Z</time>
      </trkpt>
      <trkpt lat="45.93537" lon="4.73764">
        <ele>169</ele>
        <time>2018-09-18T08:28:31Z</time>
      </trkpt>
      <trkpt lat="45.9354" lon="4.73761">
        <ele>169</ele>
        <time>2018-09-18T08:28:32Z</time>
      </trkpt>
      <trkpt lat="45.93544" lon="4.73757">
        <ele>169</ele>
        <time>2018-09-18T08:28:33Z</time>
      </trkpt>
      <trkpt lat="45.93548" lon="4.73752">
        <ele>169</ele>
        <time>2018-09-18T08:28:34Z</time>
      </trkpt>
      <trkpt lat="45.93551" lon="4.73748">
        <ele>169</ele>
        <time>2018-09-18T08:28:35Z</time>
      </trkpt>
      <trkpt lat="45.93555" lon="4.73745">
        <ele>169</ele>
        <time>2018-09-18T08:28:36Z</time>
      </trkpt>
      <trkpt lat="45.9356" lon="4.7374">
        <ele>169</ele>
        <time>2018-09-18T08:28:37Z</time>
      </trkpt>
      <trkpt lat="45.93563" lon="4.73736">
        <ele>169</ele>
        <time>2018-09-18T08:28:38Z</time>
      </trkpt>
      <trkpt lat="45.93568" lon="4.73731">
        <ele>169</ele>
        <time>2018-09-18T08:28:39Z</time>
      </trkpt>
      <trkpt lat="45.93575" lon="4.73724">
        <ele>169</ele>
        <time>2018-09-18T08:28:41Z</time>
      </trkpt>
      <trkpt lat="45.93577" lon="4.7372">
        <ele>169</ele>
        <time>2018-09-18T08:28:42Z</time>
      </trkpt>
      <trkpt lat="45.9358" lon="4.73714">
        <ele>169</ele>
        <time>2018-09-18T08:28:43Z</time>
      </trkpt>
      <trkpt lat="45.93583" lon="4.73709">
        <ele>169</ele>
        <time>2018-09-18T08:28:44Z</time>
      </trkpt>
      <trkpt lat="45.93586" lon="4.73703">
        <ele>169</ele>
        <time>2018-09-18T08:28:45Z</time>
      </trkpt>
      <trkpt lat="45.93588" lon="4.73698">
        <ele>169</ele>
        <time>2018-09-18T08:28:46Z</time>
      </trkpt>
      <trkpt lat="45.93589" lon="4.73685">
        <ele>169</ele>
        <time>2018-09-18T08:28:48Z</time>
      </trkpt>
      <trkpt lat="45.93589" lon="4.73679">
        <ele>169</ele>
        <time>2018-09-18T08:28:49Z</time>
      </trkpt>
      <trkpt lat="45.93588" lon="4.73667">
        <ele>168</ele>
        <time>2018-09-18T08:28:51Z</time>
      </trkpt>
      <trkpt lat="45.93588" lon="4.73658">
        <ele>168</ele>
        <time>2018-09-18T08:28:52Z</time>
      </trkpt>
      <trkpt lat="45.93586" lon="4.73646">
        <ele>168</ele>
        <time>2018-09-18T08:28:54Z</time>
      </trkpt>
      <trkpt lat="45.93585" lon="4.7364">
        <ele>168</ele>
        <time>2018-09-18T08:28:55Z</time>
      </trkpt>
      <trkpt lat="45.93585" lon="4.73629">
        <ele>168</ele>
        <time>2018-09-18T08:28:57Z</time>
      </trkpt>
      <trkpt lat="45.93585" lon="4.73623">
        <ele>168</ele>
        <time>2018-09-18T08:28:58Z</time>
      </trkpt>
      <trkpt lat="45.93585" lon="4.73616">
        <ele>168</ele>
        <time>2018-09-18T08:28:59Z</time>
      </trkpt>
      <trkpt lat="45.93585" lon="4.73609">
        <ele>168</ele>
        <time>2018-09-18T08:29:00Z</time>
      </trkpt>
      <trkpt lat="45.93585" lon="4.73601">
        <ele>168</ele>
        <time>2018-09-18T08:29:01Z</time>
      </trkpt>
      <trkpt lat="45.93584" lon="4.73595">
        <ele>168</ele>
        <time>2018-09-18T08:29:02Z</time>
      </trkpt>
      <trkpt lat="45.93584" lon="4.73588">
        <ele>168</ele>
        <time>2018-09-18T08:29:03Z</time>
      </trkpt>
      <trkpt lat="45.93584" lon="4.73581">
        <ele>168</ele>
        <time>2018-09-18T08:29:04Z</time>
      </trkpt>
      <trkpt lat="45.93582" lon="4.73575">
        <ele>168</ele>
        <time>2018-09-18T08:29:05Z</time>
      </trkpt>
      <trkpt lat="45.93582" lon="4.73568">
        <ele>168</ele>
        <time>2018-09-18T08:29:06Z</time>
      </trkpt>
      <trkpt lat="45.93579" lon="4.73557">
        <ele>168</ele>
        <time>2018-09-18T08:29:08Z</time>
      </trkpt>
      <trkpt lat="45.93579" lon="4.73555">
        <ele>168</ele>
        <time>2018-09-18T08:29:09Z</time>
      </trkpt>
      <trkpt lat="45.93577" lon="4.73543">
        <ele>168</ele>
        <time>2018-09-18T08:29:12Z</time>
      </trkpt>
      <trkpt lat="45.93575" lon="4.73534">
        <ele>168</ele>
        <time>2018-09-18T08:29:13Z</time>
      </trkpt>
      <trkpt lat="45.93571" lon="4.73523">
        <ele>168</ele>
        <time>2018-09-18T08:29:15Z</time>
      </trkpt>
      <trkpt lat="45.93571" lon="4.73517">
        <ele>168</ele>
        <time>2018-09-18T08:29:16Z</time>
      </trkpt>
      <trkpt lat="45.93567" lon="4.73506">
        <ele>168</ele>
        <time>2018-09-18T08:29:18Z</time>
      </trkpt>
      <trkpt lat="45.93567" lon="4.73501">
        <ele>168</ele>
        <time>2018-09-18T08:29:19Z</time>
      </trkpt>
      <trkpt lat="45.93566" lon="4.73491">
        <ele>169</ele>
        <time>2018-09-18T08:29:21Z</time>
      </trkpt>
      <trkpt lat="45.93565" lon="4.73485">
        <ele>169</ele>
        <time>2018-09-18T08:29:22Z</time>
      </trkpt>
      <trkpt lat="45.93562" lon="4.73475">
        <ele>169</ele>
        <time>2018-09-18T08:29:24Z</time>
      </trkpt>
      <trkpt lat="45.93561" lon="4.73472">
        <ele>169</ele>
        <time>2018-09-18T08:29:25Z</time>
      </trkpt>
      <trkpt lat="45.93558" lon="4.73462">
        <ele>169</ele>
        <time>2018-09-18T08:29:28Z</time>
      </trkpt>
      <trkpt lat="45.93554" lon="4.7345">
        <ele>169</ele>
        <time>2018-09-18T08:29:29Z</time>
      </trkpt>
      <trkpt lat="45.93554" lon="4.7344">
        <ele>169</ele>
        <time>2018-09-18T08:29:31Z</time>
      </trkpt>
      <trkpt lat="45.93552" lon="4.73433">
        <ele>169</ele>
        <time>2018-09-18T08:29:32Z</time>
      </trkpt>
      <trkpt lat="45.9355" lon="4.73427">
        <ele>169</ele>
        <time>2018-09-18T08:29:33Z</time>
      </trkpt>
      <trkpt lat="45.93549" lon="4.73421">
        <ele>169</ele>
        <time>2018-09-18T08:29:34Z</time>
      </trkpt>
      <trkpt lat="45.93546" lon="4.73414">
        <ele>169</ele>
        <time>2018-09-18T08:29:35Z</time>
      </trkpt>
      <trkpt lat="45.93546" lon="4.73408">
        <ele>169</ele>
        <time>2018-09-18T08:29:36Z</time>
      </trkpt>
      <trkpt lat="45.93542" lon="4.73397">
        <ele>169</ele>
        <time>2018-09-18T08:29:38Z</time>
      </trkpt>
      <trkpt lat="45.9354" lon="4.7339">
        <ele>169</ele>
        <time>2018-09-18T08:29:39Z</time>
      </trkpt>
      <trkpt lat="45.93538" lon="4.7338">
        <ele>169</ele>
        <time>2018-09-18T08:29:42Z</time>
      </trkpt>
      <trkpt lat="45.93537" lon="4.73376">
        <ele>169</ele>
        <time>2018-09-18T08:29:43Z</time>
      </trkpt>
      <trkpt lat="45.93536" lon="4.73365">
        <ele>169</ele>
        <time>2018-09-18T08:29:44Z</time>
      </trkpt>
      <trkpt lat="45.93535" lon="4.73359">
        <ele>169</ele>
        <time>2018-09-18T08:29:45Z</time>
      </trkpt>
      <trkpt lat="45.93533" lon="4.73347">
        <ele>169</ele>
        <time>2018-09-18T08:29:47Z</time>
      </trkpt>
      <trkpt lat="45.93532" lon="4.7334">
        <ele>169</ele>
        <time>2018-09-18T08:29:48Z</time>
      </trkpt>
      <trkpt lat="45.9353" lon="4.73332">
        <ele>169</ele>
        <time>2018-09-18T08:29:49Z</time>
      </trkpt>
      <trkpt lat="45.93529" lon="4.73326">
        <ele>169</ele>
        <time>2018-09-18T08:29:50Z</time>
      </trkpt>
      <trkpt lat="45.93526" lon="4.73315">
        <ele>169</ele>
        <time>2018-09-18T08:29:52Z</time>
      </trkpt>
      <trkpt lat="45.93525" lon="4.73309">
        <ele>169</ele>
        <time>2018-09-18T08:29:53Z</time>
      </trkpt>
      <trkpt lat="45.93522" lon="4.73299">
        <ele>169</ele>
        <time>2018-09-18T08:29:55Z</time>
      </trkpt>
      <trkpt lat="45.93522" lon="4.73294">
        <ele>169</ele>
        <time>2018-09-18T08:29:56Z</time>
      </trkpt>
      <trkpt lat="45.93521" lon="4.73287">
        <ele>169</ele>
        <time>2018-09-18T08:29:57Z</time>
      </trkpt>
      <trkpt lat="45.93519" lon="4.7328">
        <ele>169</ele>
        <time>2018-09-18T08:29:58Z</time>
      </trkpt>
      <trkpt lat="45.93517" lon="4.73268">
        <ele>169</ele>
        <time>2018-09-18T08:30:00Z</time>
      </trkpt>
      <trkpt lat="45.93516" lon="4.73263">
        <ele>169</ele>
        <time>2018-09-18T08:30:01Z</time>
      </trkpt>
      <trkpt lat="45.93515" lon="4.73257">
        <ele>169</ele>
        <time>2018-09-18T08:30:03Z</time>
      </trkpt>
      <trkpt lat="45.93513" lon="4.73249">
        <ele>169</ele>
        <time>2018-09-18T08:30:04Z</time>
      </trkpt>
      <trkpt lat="45.93512" lon="4.73237">
        <ele>169</ele>
        <time>2018-09-18T08:30:06Z</time>
      </trkpt>
      <trkpt lat="45.9351" lon="4.73231">
        <ele>169</ele>
        <time>2018-09-18T08:30:07Z</time>
      </trkpt>
      <trkpt lat="45.93509" lon="4.73225">
        <ele>169</ele>
        <time>2018-09-18T08:30:08Z</time>
      </trkpt>
      <trkpt lat="45.93508" lon="4.73218">
        <ele>169</ele>
        <time>2018-09-18T08:30:09Z</time>
      </trkpt>
      <trkpt lat="45.93507" lon="4.73212">
        <ele>169</ele>
        <time>2018-09-18T08:30:10Z</time>
      </trkpt>
      <trkpt lat="45.93505" lon="4.73205">
        <ele>169</ele>
        <time>2018-09-18T08:30:11Z</time>
      </trkpt>
      <trkpt lat="45.93504" lon="4.73199">
        <ele>169</ele>
        <time>2018-09-18T08:30:12Z</time>
      </trkpt>
      <trkpt lat="45.93503" lon="4.73192">
        <ele>169</ele>
        <time>2018-09-18T08:30:13Z</time>
      </trkpt>
      <trkpt lat="45.935" lon="4.73181">
        <ele>169</ele>
        <time>2018-09-18T08:30:15Z</time>
      </trkpt>
      <trkpt lat="45.935" lon="4.73177">
        <ele>170</ele>
        <time>2018-09-18T08:30:16Z</time>
      </trkpt>
      <trkpt lat="45.93497" lon="4.73172">
        <ele>170</ele>
        <time>2018-09-18T08:30:18Z</time>
      </trkpt>
      <trkpt lat="45.93494" lon="4.73162">
        <ele>170</ele>
        <time>2018-09-18T08:30:19Z</time>
      </trkpt>
      <trkpt lat="45.9349" lon="4.73151">
        <ele>170</ele>
        <time>2018-09-18T08:30:21Z</time>
      </trkpt>
      <trkpt lat="45.9349" lon="4.73145">
        <ele>170</ele>
        <time>2018-09-18T08:30:22Z</time>
      </trkpt>
      <trkpt lat="45.93489" lon="4.73139">
        <ele>170</ele>
        <time>2018-09-18T08:30:23Z</time>
      </trkpt>
      <trkpt lat="45.93488" lon="4.73132">
        <ele>170</ele>
        <time>2018-09-18T08:30:24Z</time>
      </trkpt>
      <trkpt lat="45.93488" lon="4.73121">
        <ele>170</ele>
        <time>2018-09-18T08:30:26Z</time>
      </trkpt>
      <trkpt lat="45.93488" lon="4.73115">
        <ele>170</ele>
        <time>2018-09-18T08:30:27Z</time>
      </trkpt>
      <trkpt lat="45.93486" lon="4.73103">
        <ele>170</ele>
        <time>2018-09-18T08:30:30Z</time>
      </trkpt>
      <trkpt lat="45.93487" lon="4.73093">
        <ele>170</ele>
        <time>2018-09-18T08:30:31Z</time>
      </trkpt>
      <trkpt lat="45.93486" lon="4.73082">
        <ele>170</ele>
        <time>2018-09-18T08:30:33Z</time>
      </trkpt>
      <trkpt lat="45.93486" lon="4.73075">
        <ele>170</ele>
        <time>2018-09-18T08:30:34Z</time>
      </trkpt>
      <trkpt lat="45.93488" lon="4.73063">
        <ele>170</ele>
        <time>2018-09-18T08:30:36Z</time>
      </trkpt>
      <trkpt lat="45.93487" lon="4.73055">
        <ele>170</ele>
        <time>2018-09-18T08:30:37Z</time>
      </trkpt>
      <trkpt lat="45.93486" lon="4.73044">
        <ele>170</ele>
        <time>2018-09-18T08:30:39Z</time>
      </trkpt>
      <trkpt lat="45.93487" lon="4.73038">
        <ele>170</ele>
        <time>2018-09-18T08:30:40Z</time>
      </trkpt>
      <trkpt lat="45.93487" lon="4.73027">
        <ele>170</ele>
        <time>2018-09-18T08:30:42Z</time>
      </trkpt>
      <trkpt lat="45.93488" lon="4.73021">
        <ele>170</ele>
        <time>2018-09-18T08:30:43Z</time>
      </trkpt>
      <trkpt lat="45.9349" lon="4.73016">
        <ele>170</ele>
        <time>2018-09-18T08:30:44Z</time>
      </trkpt>
      <trkpt lat="45.93489" lon="4.73008">
        <ele>170</ele>
        <time>2018-09-18T08:30:45Z</time>
      </trkpt>
      <trkpt lat="45.93489" lon="4.73001">
        <ele>170</ele>
        <time>2018-09-18T08:30:46Z</time>
      </trkpt>
      <trkpt lat="45.93491" lon="4.72995">
        <ele>170</ele>
        <time>2018-09-18T08:30:47Z</time>
      </trkpt>
      <trkpt lat="45.93492" lon="4.72988">
        <ele>170</ele>
        <time>2018-09-18T08:30:48Z</time>
      </trkpt>
      <trkpt lat="45.93492" lon="4.72981">
        <ele>170</ele>
        <time>2018-09-18T08:30:49Z</time>
      </trkpt>
      <trkpt lat="45.93493" lon="4.72973">
        <ele>171</ele>
        <time>2018-09-18T08:30:50Z</time>
      </trkpt>
      <trkpt lat="45.93493" lon="4.72967">
        <ele>171</ele>
        <time>2018-09-18T08:30:51Z</time>
      </trkpt>
      <trkpt lat="45.93496" lon="4.72955">
        <ele>171</ele>
        <time>2018-09-18T08:30:53Z</time>
      </trkpt>
      <trkpt lat="45.93499" lon="4.72949">
        <ele>171</ele>
        <time>2018-09-18T08:30:54Z</time>
      </trkpt>
      <trkpt lat="45.93501" lon="4.72938">
        <ele>171</ele>
        <time>2018-09-18T08:30:56Z</time>
      </trkpt>
      <trkpt lat="45.93502" lon="4.72933">
        <ele>171</ele>
        <time>2018-09-18T08:30:57Z</time>
      </trkpt>
      <trkpt lat="45.93506" lon="4.72924">
        <ele>171</ele>
        <time>2018-09-18T08:30:59Z</time>
      </trkpt>
      <trkpt lat="45.93508" lon="4.7292">
        <ele>171</ele>
        <time>2018-09-18T08:31:00Z</time>
      </trkpt>
      <trkpt lat="45.93512" lon="4.72915">
        <ele>172</ele>
        <time>2018-09-18T08:31:01Z</time>
      </trkpt>
      <trkpt lat="45.93515" lon="4.72912">
        <ele>172</ele>
        <time>2018-09-18T08:31:02Z</time>
      </trkpt>
      <trkpt lat="45.93519" lon="4.72909">
        <ele>172</ele>
        <time>2018-09-18T08:31:03Z</time>
      </trkpt>
      <trkpt lat="45.93522" lon="4.72903">
        <ele>172</ele>
        <time>2018-09-18T08:31:04Z</time>
      </trkpt>
      <trkpt lat="45.93526" lon="4.72899">
        <ele>172</ele>
        <time>2018-09-18T08:31:05Z</time>
      </trkpt>
      <trkpt lat="45.93529" lon="4.72892">
        <ele>172</ele>
        <time>2018-09-18T08:31:06Z</time>
      </trkpt>
      <trkpt lat="45.93534" lon="4.72887">
        <ele>172</ele>
        <time>2018-09-18T08:31:07Z</time>
      </trkpt>
      <trkpt lat="45.93537" lon="4.72882">
        <ele>172</ele>
        <time>2018-09-18T08:31:08Z</time>
      </trkpt>
      <trkpt lat="45.93542" lon="4.72877">
        <ele>172</ele>
        <time>2018-09-18T08:31:09Z</time>
      </trkpt>
      <trkpt lat="45.93545" lon="4.72875">
        <ele>172</ele>
        <time>2018-09-18T08:31:10Z</time>
      </trkpt>
      <trkpt lat="45.9355" lon="4.72869">
        <ele>172</ele>
        <time>2018-09-18T08:31:11Z</time>
      </trkpt>
      <trkpt lat="45.93554" lon="4.72865">
        <ele>172</ele>
        <time>2018-09-18T08:31:12Z</time>
      </trkpt>
      <trkpt lat="45.93557" lon="4.7286">
        <ele>172</ele>
        <time>2018-09-18T08:31:13Z</time>
      </trkpt>
      <trkpt lat="45.93562" lon="4.72856">
        <ele>172</ele>
        <time>2018-09-18T08:31:14Z</time>
      </trkpt>
      <trkpt lat="45.93569" lon="4.7285">
        <ele>172</ele>
        <time>2018-09-18T08:31:16Z</time>
      </trkpt>
      <trkpt lat="45.93573" lon="4.72846">
        <ele>172</ele>
        <time>2018-09-18T08:31:17Z</time>
      </trkpt>
      <trkpt lat="45.93576" lon="4.72841">
        <ele>172</ele>
        <time>2018-09-18T08:31:18Z</time>
      </trkpt>
      <trkpt lat="45.93581" lon="4.72837">
        <ele>172</ele>
        <time>2018-09-18T08:31:19Z</time>
      </trkpt>
      <trkpt lat="45.93585" lon="4.72834">
        <ele>172</ele>
        <time>2018-09-18T08:31:20Z</time>
      </trkpt>
      <trkpt lat="45.93591" lon="4.7283">
        <ele>172</ele>
        <time>2018-09-18T08:31:21Z</time>
      </trkpt>
      <trkpt lat="45.93596" lon="4.72826">
        <ele>173</ele>
        <time>2018-09-18T08:31:22Z</time>
      </trkpt>
      <trkpt lat="45.93601" lon="4.72822">
        <ele>173</ele>
        <time>2018-09-18T08:31:23Z</time>
      </trkpt>
      <trkpt lat="45.93606" lon="4.72819">
        <ele>173</ele>
        <time>2018-09-18T08:31:24Z</time>
      </trkpt>
      <trkpt lat="45.9361" lon="4.72815">
        <ele>173</ele>
        <time>2018-09-18T08:31:25Z</time>
      </trkpt>
      <trkpt lat="45.93614" lon="4.72811">
        <ele>173</ele>
        <time>2018-09-18T08:31:26Z</time>
      </trkpt>
      <trkpt lat="45.93618" lon="4.72807">
        <ele>173</ele>
        <time>2018-09-18T08:31:27Z</time>
      </trkpt>
      <trkpt lat="45.93625" lon="4.72803">
        <ele>173</ele>
        <time>2018-09-18T08:31:29Z</time>
      </trkpt>
      <trkpt lat="45.93631" lon="4.72795">
        <ele>173</ele>
        <time>2018-09-18T08:31:30Z</time>
      </trkpt>
      <trkpt lat="45.93636" lon="4.72792">
        <ele>173</ele>
        <time>2018-09-18T08:31:31Z</time>
      </trkpt>
      <trkpt lat="45.9364" lon="4.72789">
        <ele>173</ele>
        <time>2018-09-18T08:31:32Z</time>
      </trkpt>
      <trkpt lat="45.93644" lon="4.72784">
        <ele>174</ele>
        <time>2018-09-18T08:31:33Z</time>
      </trkpt>
      <trkpt lat="45.93648" lon="4.72781">
        <ele>174</ele>
        <time>2018-09-18T08:31:34Z</time>
      </trkpt>
      <trkpt lat="45.93652" lon="4.72778">
        <ele>174</ele>
        <time>2018-09-18T08:31:35Z</time>
      </trkpt>
      <trkpt lat="45.93657" lon="4.72769">
        <ele>174</ele>
        <time>2018-09-18T08:31:36Z</time>
      </trkpt>
      <trkpt lat="45.93665" lon="4.72763">
        <ele>174</ele>
        <time>2018-09-18T08:31:38Z</time>
      </trkpt>
      <trkpt lat="45.93669" lon="4.72761">
        <ele>173</ele>
        <time>2018-09-18T08:31:39Z</time>
      </trkpt>
      <trkpt lat="45.93673" lon="4.72757">
        <ele>173</ele>
        <time>2018-09-18T08:31:40Z</time>
      </trkpt>
      <trkpt lat="45.93677" lon="4.72754">
        <ele>173</ele>
        <time>2018-09-18T08:31:41Z</time>
      </trkpt>
      <trkpt lat="45.93682" lon="4.72749">
        <ele>174</ele>
        <time>2018-09-18T08:31:42Z</time>
      </trkpt>
      <trkpt lat="45.93686" lon="4.72745">
        <ele>173</ele>
        <time>2018-09-18T08:31:43Z</time>
      </trkpt>
      <trkpt lat="45.9369" lon="4.72741">
        <ele>173</ele>
        <time>2018-09-18T08:31:44Z</time>
      </trkpt>
      <trkpt lat="45.93696" lon="4.72738">
        <ele>173</ele>
        <time>2018-09-18T08:31:45Z</time>
      </trkpt>
      <trkpt lat="45.937" lon="4.72735">
        <ele>173</ele>
        <time>2018-09-18T08:31:46Z</time>
      </trkpt>
      <trkpt lat="45.93706" lon="4.72732">
        <ele>173</ele>
        <time>2018-09-18T08:31:47Z</time>
      </trkpt>
      <trkpt lat="45.9371" lon="4.72727">
        <ele>173</ele>
        <time>2018-09-18T08:31:48Z</time>
      </trkpt>
      <trkpt lat="45.93716" lon="4.72724">
        <ele>173</ele>
        <time>2018-09-18T08:31:49Z</time>
      </trkpt>
      <trkpt lat="45.9372" lon="4.7272">
        <ele>173</ele>
        <time>2018-09-18T08:31:50Z</time>
      </trkpt>
      <trkpt lat="45.93724" lon="4.72716">
        <ele>173</ele>
        <time>2018-09-18T08:31:51Z</time>
      </trkpt>
      <trkpt lat="45.93728" lon="4.72713">
        <ele>173</ele>
        <time>2018-09-18T08:31:52Z</time>
      </trkpt>
      <trkpt lat="45.93732" lon="4.72709">
        <ele>173</ele>
        <time>2018-09-18T08:31:53Z</time>
      </trkpt>
      <trkpt lat="45.93736" lon="4.72705">
        <ele>173</ele>
        <time>2018-09-18T08:31:54Z</time>
      </trkpt>
      <trkpt lat="45.93741" lon="4.72701">
        <ele>173</ele>
        <time>2018-09-18T08:31:55Z</time>
      </trkpt>
      <trkpt lat="45.93747" lon="4.72698">
        <ele>173</ele>
        <time>2018-09-18T08:31:56Z</time>
      </trkpt>
      <trkpt lat="45.93752" lon="4.72694">
        <ele>172</ele>
        <time>2018-09-18T08:31:57Z</time>
      </trkpt>
      <trkpt lat="45.93757" lon="4.7269">
        <ele>172</ele>
        <time>2018-09-18T08:31:58Z</time>
      </trkpt>
      <trkpt lat="45.93761" lon="4.72685">
        <ele>173</ele>
        <time>2018-09-18T08:31:59Z</time>
      </trkpt>
      <trkpt lat="45.93764" lon="4.7268">
        <ele>173</ele>
        <time>2018-09-18T08:32:00Z</time>
      </trkpt>
      <trkpt lat="45.93768" lon="4.72675">
        <ele>173</ele>
        <time>2018-09-18T08:32:01Z</time>
      </trkpt>
      <trkpt lat="45.93771" lon="4.7267">
        <ele>173</ele>
        <time>2018-09-18T08:32:02Z</time>
      </trkpt>
      <trkpt lat="45.93775" lon="4.72666">
        <ele>173</ele>
        <time>2018-09-18T08:32:03Z</time>
      </trkpt>
      <trkpt lat="45.93779" lon="4.72661">
        <ele>173</ele>
        <time>2018-09-18T08:32:04Z</time>
      </trkpt>
      <trkpt lat="45.93783" lon="4.72656">
        <ele>173</ele>
        <time>2018-09-18T08:32:05Z</time>
      </trkpt>
      <trkpt lat="45.93788" lon="4.7265">
        <ele>173</ele>
        <time>2018-09-18T08:32:06Z</time>
      </trkpt>
      <trkpt lat="45.93791" lon="4.72645">
        <ele>173</ele>
        <time>2018-09-18T08:32:07Z</time>
      </trkpt>
      <trkpt lat="45.93795" lon="4.72641">
        <ele>173</ele>
        <time>2018-09-18T08:32:08Z</time>
      </trkpt>
      <trkpt lat="45.93797" lon="4.72634">
        <ele>173</ele>
        <time>2018-09-18T08:32:09Z</time>
      </trkpt>
      <trkpt lat="45.93801" lon="4.72629">
        <ele>173</ele>
        <time>2018-09-18T08:32:10Z</time>
      </trkpt>
      <trkpt lat="45.93804" lon="4.72624">
        <ele>173</ele>
        <time>2018-09-18T08:32:11Z</time>
      </trkpt>
      <trkpt lat="45.93808" lon="4.72619">
        <ele>173</ele>
        <time>2018-09-18T08:32:12Z</time>
      </trkpt>
      <trkpt lat="45.93811" lon="4.72614">
        <ele>173</ele>
        <time>2018-09-18T08:32:13Z</time>
      </trkpt>
      <trkpt lat="45.93816" lon="4.72605">
        <ele>173</ele>
        <time>2018-09-18T08:32:15Z</time>
      </trkpt>
      <trkpt lat="45.93818" lon="4.72602">
        <ele>173</ele>
        <time>2018-09-18T08:32:16Z</time>
      </trkpt>
      <trkpt lat="45.93821" lon="4.72592">
        <ele>174</ele>
        <time>2018-09-18T08:32:18Z</time>
      </trkpt>
      <trkpt lat="45.93818" lon="4.72588">
        <ele>174</ele>
        <time>2018-09-18T08:32:19Z</time>
      </trkpt>
      <trkpt lat="45.93816" lon="4.72583">
        <ele>174</ele>
        <time>2018-09-18T08:32:21Z</time>
      </trkpt>
      <trkpt lat="45.93811" lon="4.72576">
        <ele>174</ele>
        <time>2018-09-18T08:32:22Z</time>
      </trkpt>
      <trkpt lat="45.93808" lon="4.72572">
        <ele>174</ele>
        <time>2018-09-18T08:32:24Z</time>
      </trkpt>
      <trkpt lat="45.93788" lon="4.72545">
        <ele>173</ele>
        <time>2018-09-18T08:32:29Z</time>
      </trkpt>
      <trkpt lat="45.93765" lon="4.72544">
        <ele>173</ele>
        <time>2018-09-18T08:32:31Z</time>
      </trkpt>
      <trkpt lat="45.93763" lon="4.72536">
        <ele>173</ele>
        <time>2018-09-18T08:32:32.056Z</time>
      </trkpt>
      <trkpt lat="45.9376" lon="4.7253">
        <ele>173</ele>
        <time>2018-09-18T08:32:33Z</time>
      </trkpt>
      <trkpt lat="45.93753" lon="4.72524">
        <ele>172</ele>
        <time>2018-09-18T08:32:37Z</time>
      </trkpt>
      <trkpt lat="45.93749" lon="4.72522">
        <ele>171</ele>
        <time>2018-09-18T08:32:38Z</time>
      </trkpt>
      <trkpt lat="45.93745" lon="4.72515">
        <ele>171</ele>
        <time>2018-09-18T08:32:41Z</time>
      </trkpt>
      <trkpt lat="45.93737" lon="4.72507">
        <ele>171</ele>
        <time>2018-09-18T08:32:42Z</time>
      </trkpt>
      <trkpt lat="45.93732" lon="4.72505">
        <ele>171</ele>
        <time>2018-09-18T08:32:43Z</time>
      </trkpt>
      <trkpt lat="45.93726" lon="4.72502">
        <ele>171</ele>
        <time>2018-09-18T08:32:44Z</time>
      </trkpt>
      <trkpt lat="45.93722" lon="4.72498">
        <ele>171</ele>
        <time>2018-09-18T08:32:45Z</time>
      </trkpt>
      <trkpt lat="45.93717" lon="4.72495">
        <ele>171</ele>
        <time>2018-09-18T08:32:46Z</time>
      </trkpt>
      <trkpt lat="45.93711" lon="4.72488">
        <ele>171</ele>
        <time>2018-09-18T08:32:48Z</time>
      </trkpt>
      <trkpt lat="45.93706" lon="4.72484">
        <ele>171</ele>
        <time>2018-09-18T08:32:49Z</time>
      </trkpt>
      <trkpt lat="45.93703" lon="4.72481">
        <ele>171</ele>
        <time>2018-09-18T08:32:50Z</time>
      </trkpt>
      <trkpt lat="45.93698" lon="4.72475">
        <ele>171</ele>
        <time>2018-09-18T08:32:51Z</time>
      </trkpt>
      <trkpt lat="45.93691" lon="4.72467">
        <ele>171</ele>
        <time>2018-09-18T08:32:53.073Z</time>
      </trkpt>
      <trkpt lat="45.93687" lon="4.72463">
        <ele>171</ele>
        <time>2018-09-18T08:32:54Z</time>
      </trkpt>
      <trkpt lat="45.93682" lon="4.7246">
        <ele>171</ele>
        <time>2018-09-18T08:32:55Z</time>
      </trkpt>
      <trkpt lat="45.93678" lon="4.72456">
        <ele>171</ele>
        <time>2018-09-18T08:32:56Z</time>
      </trkpt>
      <trkpt lat="45.93672" lon="4.72448">
        <ele>171</ele>
        <time>2018-09-18T08:32:58Z</time>
      </trkpt>
      <trkpt lat="45.93668" lon="4.72445">
        <ele>171</ele>
        <time>2018-09-18T08:32:59Z</time>
      </trkpt>
      <trkpt lat="45.93666" lon="4.72441">
        <ele>172</ele>
        <time>2018-09-18T08:33:01Z</time>
      </trkpt>
      <trkpt lat="45.93664" lon="4.72433">
        <ele>172</ele>
        <time>2018-09-18T08:33:02Z</time>
      </trkpt>
      <trkpt lat="45.93661" lon="4.72423">
        <ele>172</ele>
        <time>2018-09-18T08:33:06Z</time>
      </trkpt>
      <trkpt lat="45.93659" lon="4.7242">
        <ele>172</ele>
        <time>2018-09-18T08:33:07Z</time>
      </trkpt>
      <trkpt lat="45.93656" lon="4.72416">
        <ele>172</ele>
        <time>2018-09-18T08:33:08Z</time>
      </trkpt>
      <trkpt lat="45.93649" lon="4.72409">
        <ele>172</ele>
        <time>2018-09-18T08:33:09Z</time>
      </trkpt>
      <trkpt lat="45.93643" lon="4.72405">
        <ele>172</ele>
        <time>2018-09-18T08:33:11Z</time>
      </trkpt>
      <trkpt lat="45.9364" lon="4.72404">
        <ele>172</ele>
        <time>2018-09-18T08:33:12Z</time>
      </trkpt>
      <trkpt lat="45.93635" lon="4.72396">
        <ele>172</ele>
        <time>2018-09-18T08:33:15Z</time>
      </trkpt>
      <trkpt lat="45.93633" lon="4.72392">
        <ele>172</ele>
        <time>2018-09-18T08:33:16Z</time>
      </trkpt>
      <trkpt lat="45.93628" lon="4.72384">
        <ele>172</ele>
        <time>2018-09-18T08:33:19Z</time>
      </trkpt>
      <trkpt lat="45.9362" lon="4.72372">
        <ele>172</ele>
        <time>2018-09-18T08:33:20Z</time>
      </trkpt>
      <trkpt lat="45.93613" lon="4.72366">
        <ele>172</ele>
        <time>2018-09-18T08:33:23Z</time>
      </trkpt>
      <trkpt lat="45.93612" lon="4.72364">
        <ele>172</ele>
        <time>2018-09-18T08:33:24Z</time>
      </trkpt>
      <trkpt lat="45.93608" lon="4.72357">
        <ele>172</ele>
        <time>2018-09-18T08:33:27Z</time>
      </trkpt>
      <trkpt lat="45.93606" lon="4.72354">
        <ele>172</ele>
        <time>2018-09-18T08:33:28Z</time>
      </trkpt>
      <trkpt lat="45.936" lon="4.72347">
        <ele>172</ele>
        <time>2018-09-18T08:33:31Z</time>
      </trkpt>
      <trkpt lat="45.93598" lon="4.72344">
        <ele>172</ele>
        <time>2018-09-18T08:33:32Z</time>
      </trkpt>
      <trkpt lat="45.93592" lon="4.72338">
        <ele>173</ele>
        <time>2018-09-18T08:33:35Z</time>
      </trkpt>
      <trkpt lat="45.9359" lon="4.72336">
        <ele>173</ele>
        <time>2018-09-18T08:33:36Z</time>
      </trkpt>
      <trkpt lat="45.93582" lon="4.72329">
        <ele>173</ele>
        <time>2018-09-18T08:33:39Z</time>
      </trkpt>
      <trkpt lat="45.9358" lon="4.72327">
        <ele>173</ele>
        <time>2018-09-18T08:33:40Z</time>
      </trkpt>
      <trkpt lat="45.93574" lon="4.72321">
        <ele>173</ele>
        <time>2018-09-18T08:33:43Z</time>
      </trkpt>
      <trkpt lat="45.93572" lon="4.72319">
        <ele>173</ele>
        <time>2018-09-18T08:33:44Z</time>
      </trkpt>
      <trkpt lat="45.93566" lon="4.72314">
        <ele>173</ele>
        <time>2018-09-18T08:33:47Z</time>
      </trkpt>
      <trkpt lat="45.93563" lon="4.72312">
        <ele>173</ele>
        <time>2018-09-18T08:33:48Z</time>
      </trkpt>
      <trkpt lat="45.93557" lon="4.7231">
        <ele>173</ele>
        <time>2018-09-18T08:33:50Z</time>
      </trkpt>
      <trkpt lat="45.93554" lon="4.7231">
        <ele>173</ele>
        <time>2018-09-18T08:33:51Z</time>
      </trkpt>
      <trkpt lat="45.93547" lon="4.72309">
        <ele>173</ele>
        <time>2018-09-18T08:33:53Z</time>
      </trkpt>
      <trkpt lat="45.93544" lon="4.7231">
        <ele>173</ele>
        <time>2018-09-18T08:33:54Z</time>
      </trkpt>
      <trkpt lat="45.93538" lon="4.72312">
        <ele>173</ele>
        <time>2018-09-18T08:33:56Z</time>
      </trkpt>
      <trkpt lat="45.93534" lon="4.72315">
        <ele>173</ele>
        <time>2018-09-18T08:33:57Z</time>
      </trkpt>
      <trkpt lat="45.93527" lon="4.72322">
        <ele>173</ele>
        <time>2018-09-18T08:34:01Z</time>
      </trkpt>
      <trkpt lat="45.93526" lon="4.72323">
        <ele>173</ele>
        <time>2018-09-18T08:34:02Z</time>
      </trkpt>
      <trkpt lat="45.93522" lon="4.72313">
        <ele>173</ele>
        <time>2018-09-18T08:34:14Z</time>
      </trkpt>
      <trkpt lat="45.93523" lon="4.72311">
        <ele>173</ele>
        <time>2018-09-18T08:34:15Z</time>
      </trkpt>
      <trkpt lat="45.93527" lon="4.72301">
        <ele>173</ele>
        <time>2018-09-18T08:34:16Z</time>
      </trkpt>
      <trkpt lat="45.93528" lon="4.72299">
        <ele>172</ele>
        <time>2018-09-18T08:34:17Z</time>
      </trkpt>
      <trkpt lat="45.93532" lon="4.72289">
        <ele>172</ele>
        <time>2018-09-18T08:34:21Z</time>
      </trkpt>
      <trkpt lat="45.93533" lon="4.72286">
        <ele>172</ele>
        <time>2018-09-18T08:34:22Z</time>
      </trkpt>
      <trkpt lat="45.93537" lon="4.72275">
        <ele>172</ele>
        <time>2018-09-18T08:34:25Z</time>
      </trkpt>
      <trkpt lat="45.93538" lon="4.72272">
        <ele>172</ele>
        <time>2018-09-18T08:34:26Z</time>
      </trkpt>
      <trkpt lat="45.93541" lon="4.72261">
        <ele>172</ele>
        <time>2018-09-18T08:34:29Z</time>
      </trkpt>
      <trkpt lat="45.93542" lon="4.72258">
        <ele>172</ele>
        <time>2018-09-18T08:34:30Z</time>
      </trkpt>
      <trkpt lat="45.93547" lon="4.72248">
        <ele>172</ele>
        <time>2018-09-18T08:34:33Z</time>
      </trkpt>
      <trkpt lat="45.93548" lon="4.72245">
        <ele>172</ele>
        <time>2018-09-18T08:34:34Z</time>
      </trkpt>
      <trkpt lat="45.93551" lon="4.72237">
        <ele>172</ele>
        <time>2018-09-18T08:34:36Z</time>
      </trkpt>
      <trkpt lat="45.93557" lon="4.72229">
        <ele>173</ele>
        <time>2018-09-18T08:34:37Z</time>
      </trkpt>
      <trkpt lat="45.93565" lon="4.72228">
        <ele>173</ele>
        <time>2018-09-18T08:34:39Z</time>
      </trkpt>
      <trkpt lat="45.93569" lon="4.72229">
        <ele>173</ele>
        <time>2018-09-18T08:34:40Z</time>
      </trkpt>
      <trkpt lat="45.93575" lon="4.72235">
        <ele>173</ele>
        <time>2018-09-18T08:34:43Z</time>
      </trkpt>
      <trkpt lat="45.93576" lon="4.72238">
        <ele>173</ele>
        <time>2018-09-18T08:34:44Z</time>
      </trkpt>
      <trkpt lat="45.93581" lon="4.72249">
        <ele>173</ele>
        <time>2018-09-18T08:34:48Z</time>
      </trkpt>
      <trkpt lat="45.93582" lon="4.72251">
        <ele>173</ele>
        <time>2018-09-18T08:34:49Z</time>
      </trkpt>
      <trkpt lat="45.93588" lon="4.72258">
        <ele>173</ele>
        <time>2018-09-18T08:34:52Z</time>
      </trkpt>
      <trkpt lat="45.93596" lon="4.72265">
        <ele>173</ele>
        <time>2018-09-18T08:34:53Z</time>
      </trkpt>
      <trkpt lat="45.93603" lon="4.72271">
        <ele>173</ele>
        <time>2018-09-18T08:34:56Z</time>
      </trkpt>
      <trkpt lat="45.93605" lon="4.72274">
        <ele>172</ele>
        <time>2018-09-18T08:34:57Z</time>
      </trkpt>
      <trkpt lat="45.9361" lon="4.72278">
        <ele>172</ele>
        <time>2018-09-18T08:34:59Z</time>
      </trkpt>
      <trkpt lat="45.93612" lon="4.72281">
        <ele>172</ele>
        <time>2018-09-18T08:35:00Z</time>
      </trkpt>
      <trkpt lat="45.93617" lon="4.72287">
        <ele>172</ele>
        <time>2018-09-18T08:35:02Z</time>
      </trkpt>
      <trkpt lat="45.93624" lon="4.72297">
        <ele>172</ele>
        <time>2018-09-18T08:35:03Z</time>
      </trkpt>
      <trkpt lat="45.9363" lon="4.72304">
        <ele>172</ele>
        <time>2018-09-18T08:35:06Z</time>
      </trkpt>
      <trkpt lat="45.93632" lon="4.72307">
        <ele>172</ele>
        <time>2018-09-18T08:35:07Z</time>
      </trkpt>
      <trkpt lat="45.93639" lon="4.72314">
        <ele>172</ele>
        <time>2018-09-18T08:35:10Z</time>
      </trkpt>
      <trkpt lat="45.93645" lon="4.72321">
        <ele>172</ele>
        <time>2018-09-18T08:35:11Z</time>
      </trkpt>
      <trkpt lat="45.9365" lon="4.72327">
        <ele>172</ele>
        <time>2018-09-18T08:35:14Z</time>
      </trkpt>
      <trkpt lat="45.93653" lon="4.72329">
        <ele>172</ele>
        <time>2018-09-18T08:35:15Z</time>
      </trkpt>
      <trkpt lat="45.93658" lon="4.72334">
        <ele>171</ele>
        <time>2018-09-18T08:35:17Z</time>
      </trkpt>
      <trkpt lat="45.9366" lon="4.72336">
        <ele>171</ele>
        <time>2018-09-18T08:35:18Z</time>
      </trkpt>
      <trkpt lat="45.93667" lon="4.72341">
        <ele>171</ele>
        <time>2018-09-18T08:35:21Z</time>
      </trkpt>
      <trkpt lat="45.93669" lon="4.72342">
        <ele>171</ele>
        <time>2018-09-18T08:35:22Z</time>
      </trkpt>
      <trkpt lat="45.93676" lon="4.72343">
        <ele>171</ele>
        <time>2018-09-18T08:35:25Z</time>
      </trkpt>
      <trkpt lat="45.93679" lon="4.72344">
        <ele>171</ele>
        <time>2018-09-18T08:35:26Z</time>
      </trkpt>
      <trkpt lat="45.93689" lon="4.72348">
        <ele>171</ele>
        <time>2018-09-18T08:35:27Z</time>
      </trkpt>
      <trkpt lat="45.93697" lon="4.72353">
        <ele>171</ele>
        <time>2018-09-18T08:35:29Z</time>
      </trkpt>
      <trkpt lat="45.93699" lon="4.72355">
        <ele>171</ele>
        <time>2018-09-18T08:35:30Z</time>
      </trkpt>
      <trkpt lat="45.93705" lon="4.72361">
        <ele>171</ele>
        <time>2018-09-18T08:35:32Z</time>
      </trkpt>
      <trkpt lat="45.93706" lon="4.72364">
        <ele>171</ele>
        <time>2018-09-18T08:35:33Z</time>
      </trkpt>
      <trkpt lat="45.9371" lon="4.72368">
        <ele>172</ele>
        <time>2018-09-18T08:35:35Z</time>
      </trkpt>
      <trkpt lat="45.93717" lon="4.72374">
        <ele>172</ele>
        <time>2018-09-18T08:35:36Z</time>
      </trkpt>
      <trkpt lat="45.93723" lon="4.72383">
        <ele>171</ele>
        <time>2018-09-18T08:35:38Z</time>
      </trkpt>
      <trkpt lat="45.93727" lon="4.72387">
        <ele>171</ele>
        <time>2018-09-18T08:35:39Z</time>
      </trkpt>
      <trkpt lat="45.9373" lon="4.72392">
        <ele>171</ele>
        <time>2018-09-18T08:35:40Z</time>
      </trkpt>
      <trkpt lat="45.93735" lon="4.72393">
        <ele>171</ele>
        <time>2018-09-18T08:35:41Z</time>
      </trkpt>
      <trkpt lat="45.93737" lon="4.72394">
        <ele>171</ele>
        <time>2018-09-18T08:35:42Z</time>
      </trkpt>
      <trkpt lat="45.93744" lon="4.72401">
        <ele>171</ele>
        <time>2018-09-18T08:35:43Z</time>
      </trkpt>
      <trkpt lat="45.93749" lon="4.72405">
        <ele>171</ele>
        <time>2018-09-18T08:35:45Z</time>
      </trkpt>
      <trkpt lat="45.93753" lon="4.72411">
        <ele>171</ele>
        <time>2018-09-18T08:35:46Z</time>
      </trkpt>
      <trkpt lat="45.93758" lon="4.72418">
        <ele>171</ele>
        <time>2018-09-18T08:35:48Z</time>
      </trkpt>
      <trkpt lat="45.93761" lon="4.72421">
        <ele>171</ele>
        <time>2018-09-18T08:35:49Z</time>
      </trkpt>
      <trkpt lat="45.93768" lon="4.72429">
        <ele>171</ele>
        <time>2018-09-18T08:35:51Z</time>
      </trkpt>
      <trkpt lat="45.93772" lon="4.72433">
        <ele>171</ele>
        <time>2018-09-18T08:35:52Z</time>
      </trkpt>
      <trkpt lat="45.93778" lon="4.72436">
        <ele>172</ele>
        <time>2018-09-18T08:35:53Z</time>
      </trkpt>
      <trkpt lat="45.93783" lon="4.72441">
        <ele>172</ele>
        <time>2018-09-18T08:35:54Z</time>
      </trkpt>
      <trkpt lat="45.93787" lon="4.72444">
        <ele>172</ele>
        <time>2018-09-18T08:35:55Z</time>
      </trkpt>
      <trkpt lat="45.93792" lon="4.72449">
        <ele>172</ele>
        <time>2018-09-18T08:35:56Z</time>
      </trkpt>
      <trkpt lat="45.938" lon="4.72453">
        <ele>172</ele>
        <time>2018-09-18T08:35:59Z</time>
      </trkpt>
      <trkpt lat="45.93801" lon="4.72453">
        <ele>172</ele>
        <time>2018-09-18T08:36:00Z</time>
      </trkpt>
      <trkpt lat="45.93811" lon="4.72457">
        <ele>172</ele>
        <time>2018-09-18T08:36:01Z</time>
      </trkpt>
      <trkpt lat="45.93815" lon="4.72466">
        <ele>172</ele>
        <time>2018-09-18T08:36:02Z</time>
      </trkpt>
      <trkpt lat="45.93819" lon="4.72469">
        <ele>172</ele>
        <time>2018-09-18T08:36:03Z</time>
      </trkpt>
      <trkpt lat="45.93823" lon="4.72472">
        <ele>172</ele>
        <time>2018-09-18T08:36:04Z</time>
      </trkpt>
      <trkpt lat="45.93826" lon="4.72476">
        <ele>173</ele>
        <time>2018-09-18T08:36:05Z</time>
      </trkpt>
      <trkpt lat="45.93833" lon="4.7248">
        <ele>173</ele>
        <time>2018-09-18T08:36:07Z</time>
      </trkpt>
      <trkpt lat="45.93836" lon="4.72482">
        <ele>173</ele>
        <time>2018-09-18T08:36:08Z</time>
      </trkpt>
      <trkpt lat="45.93843" lon="4.72488">
        <ele>173</ele>
        <time>2018-09-18T08:36:10Z</time>
      </trkpt>
      <trkpt lat="45.93847" lon="4.72491">
        <ele>173</ele>
        <time>2018-09-18T08:36:11Z</time>
      </trkpt>
      <trkpt lat="45.93852" lon="4.72497">
        <ele>173</ele>
        <time>2018-09-18T08:36:12Z</time>
      </trkpt>
      <trkpt lat="45.93861" lon="4.725">
        <ele>173</ele>
        <time>2018-09-18T08:36:13Z</time>
      </trkpt>
      <trkpt lat="45.93869" lon="4.72506">
        <ele>173</ele>
        <time>2018-09-18T08:36:14Z</time>
      </trkpt>
      <trkpt lat="45.93871" lon="4.72511">
        <ele>173</ele>
        <time>2018-09-18T08:36:15Z</time>
      </trkpt>
      <trkpt lat="45.93877" lon="4.72517">
        <ele>173</ele>
        <time>2018-09-18T08:36:18Z</time>
      </trkpt>
      <trkpt lat="45.93883" lon="4.72511">
        <ele>173</ele>
        <time>2018-09-18T08:36:19Z</time>
      </trkpt>
      <trkpt lat="45.93886" lon="4.72507">
        <ele>173</ele>
        <time>2018-09-18T08:36:20Z</time>
      </trkpt>
      <trkpt lat="45.9389" lon="4.72501">
        <ele>173</ele>
        <time>2018-09-18T08:36:21Z</time>
      </trkpt>
      <trkpt lat="45.93896" lon="4.72492">
        <ele>172</ele>
        <time>2018-09-18T08:36:23Z</time>
      </trkpt>
      <trkpt lat="45.93901" lon="4.72488">
        <ele>172</ele>
        <time>2018-09-18T08:36:24Z</time>
      </trkpt>
      <trkpt lat="45.93906" lon="4.72484">
        <ele>172</ele>
        <time>2018-09-18T08:36:25Z</time>
      </trkpt>
      <trkpt lat="45.93909" lon="4.7248">
        <ele>172</ele>
        <time>2018-09-18T08:36:26Z</time>
      </trkpt>
      <trkpt lat="45.93913" lon="4.72477">
        <ele>172</ele>
        <time>2018-09-18T08:36:27Z</time>
      </trkpt>
      <trkpt lat="45.93917" lon="4.72471">
        <ele>171</ele>
        <time>2018-09-18T08:36:28Z</time>
      </trkpt>
      <trkpt lat="45.93921" lon="4.72466">
        <ele>171</ele>
        <time>2018-09-18T08:36:29Z</time>
      </trkpt>
      <trkpt lat="45.93925" lon="4.72462">
        <ele>171</ele>
        <time>2018-09-18T08:36:30Z</time>
      </trkpt>
      <trkpt lat="45.93929" lon="4.72456">
        <ele>171</ele>
        <time>2018-09-18T08:36:31Z</time>
      </trkpt>
      <trkpt lat="45.93933" lon="4.72451">
        <ele>171</ele>
        <time>2018-09-18T08:36:32Z</time>
      </trkpt>
      <trkpt lat="45.93937" lon="4.72445">
        <ele>171</ele>
        <time>2018-09-18T08:36:33Z</time>
      </trkpt>
      <trkpt lat="45.93941" lon="4.7244">
        <ele>171</ele>
        <time>2018-09-18T08:36:34Z</time>
      </trkpt>
      <trkpt lat="45.93945" lon="4.72435">
        <ele>171</ele>
        <time>2018-09-18T08:36:35Z</time>
      </trkpt>
      <trkpt lat="45.93949" lon="4.72431">
        <ele>171</ele>
        <time>2018-09-18T08:36:36Z</time>
      </trkpt>
      <trkpt lat="45.93953" lon="4.72425">
        <ele>171</ele>
        <time>2018-09-18T08:36:37Z</time>
      </trkpt>
      <trkpt lat="45.93957" lon="4.7242">
        <ele>171</ele>
        <time>2018-09-18T08:36:38Z</time>
      </trkpt>
      <trkpt lat="45.93961" lon="4.72416">
        <ele>171</ele>
        <time>2018-09-18T08:36:39Z</time>
      </trkpt>
      <trkpt lat="45.93966" lon="4.72412">
        <ele>171</ele>
        <time>2018-09-18T08:36:40Z</time>
      </trkpt>
      <trkpt lat="45.9397" lon="4.72407">
        <ele>171</ele>
        <time>2018-09-18T08:36:41Z</time>
      </trkpt>
      <trkpt lat="45.93973" lon="4.72403">
        <ele>171</ele>
        <time>2018-09-18T08:36:42Z</time>
      </trkpt>
      <trkpt lat="45.93977" lon="4.72399">
        <ele>171</ele>
        <time>2018-09-18T08:36:43Z</time>
      </trkpt>
      <trkpt lat="45.93982" lon="4.72394">
        <ele>171</ele>
        <time>2018-09-18T08:36:44Z</time>
      </trkpt>
      <trkpt lat="45.93986" lon="4.7239">
        <ele>171</ele>
        <time>2018-09-18T08:36:45Z</time>
      </trkpt>
      <trkpt lat="45.93991" lon="4.72385">
        <ele>171</ele>
        <time>2018-09-18T08:36:46Z</time>
      </trkpt>
      <trkpt lat="45.93996" lon="4.7238">
        <ele>171</ele>
        <time>2018-09-18T08:36:47Z</time>
      </trkpt>
      <trkpt lat="45.94" lon="4.72375">
        <ele>171</ele>
        <time>2018-09-18T08:36:48Z</time>
      </trkpt>
      <trkpt lat="45.94005" lon="4.72369">
        <ele>171</ele>
        <time>2018-09-18T08:36:49Z</time>
      </trkpt>
      <trkpt lat="45.94007" lon="4.72361">
        <ele>171</ele>
        <time>2018-09-18T08:36:50Z</time>
      </trkpt>
      <trkpt lat="45.94011" lon="4.72355">
        <ele>171</ele>
        <time>2018-09-18T08:36:51Z</time>
      </trkpt>
      <trkpt lat="45.94014" lon="4.72351">
        <ele>171</ele>
        <time>2018-09-18T08:36:52Z</time>
      </trkpt>
      <trkpt lat="45.9402" lon="4.72342">
        <ele>171</ele>
        <time>2018-09-18T08:36:54Z</time>
      </trkpt>
      <trkpt lat="45.94022" lon="4.72338">
        <ele>171</ele>
        <time>2018-09-18T08:36:55Z</time>
      </trkpt>
      <trkpt lat="45.94026" lon="4.72333">
        <ele>171</ele>
        <time>2018-09-18T08:36:56Z</time>
      </trkpt>
      <trkpt lat="45.9403" lon="4.72328">
        <ele>171</ele>
        <time>2018-09-18T08:36:57Z</time>
      </trkpt>
      <trkpt lat="45.94034" lon="4.72323">
        <ele>171</ele>
        <time>2018-09-18T08:36:58Z</time>
      </trkpt>
      <trkpt lat="45.94037" lon="4.72318">
        <ele>171</ele>
        <time>2018-09-18T08:36:59Z</time>
      </trkpt>
      <trkpt lat="45.94041" lon="4.72314">
        <ele>171</ele>
        <time>2018-09-18T08:37:00Z</time>
      </trkpt>
      <trkpt lat="45.94045" lon="4.72309">
        <ele>171</ele>
        <time>2018-09-18T08:37:01Z</time>
      </trkpt>
      <trkpt lat="45.94049" lon="4.72305">
        <ele>171</ele>
        <time>2018-09-18T08:37:02Z</time>
      </trkpt>
      <trkpt lat="45.94053" lon="4.72299">
        <ele>171</ele>
        <time>2018-09-18T08:37:03Z</time>
      </trkpt>
      <trkpt lat="45.94058" lon="4.72294">
        <ele>171</ele>
        <time>2018-09-18T08:37:04Z</time>
      </trkpt>
      <trkpt lat="45.94061" lon="4.72288">
        <ele>171</ele>
        <time>2018-09-18T08:37:05Z</time>
      </trkpt>
      <trkpt lat="45.94065" lon="4.72283">
        <ele>171</ele>
        <time>2018-09-18T08:37:06Z</time>
      </trkpt>
      <trkpt lat="45.9407" lon="4.72279">
        <ele>171</ele>
        <time>2018-09-18T08:37:07Z</time>
      </trkpt>
      <trkpt lat="45.94075" lon="4.72276">
        <ele>171</ele>
        <time>2018-09-18T08:37:08Z</time>
      </trkpt>
      <trkpt lat="45.9408" lon="4.72274">
        <ele>171</ele>
        <time>2018-09-18T08:37:09Z</time>
      </trkpt>
      <trkpt lat="45.94084" lon="4.72273">
        <ele>171</ele>
        <time>2018-09-18T08:37:10Z</time>
      </trkpt>
      <trkpt lat="45.9409" lon="4.7227">
        <ele>171</ele>
        <time>2018-09-18T08:37:11Z</time>
      </trkpt>
      <trkpt lat="45.94095" lon="4.72269">
        <ele>171</ele>
        <time>2018-09-18T08:37:12Z</time>
      </trkpt>
      <trkpt lat="45.94101" lon="4.72267">
        <ele>171</ele>
        <time>2018-09-18T08:37:13Z</time>
      </trkpt>
      <trkpt lat="45.94108" lon="4.72268">
        <ele>171</ele>
        <time>2018-09-18T08:37:15Z</time>
      </trkpt>
      <trkpt lat="45.94112" lon="4.7227">
        <ele>171</ele>
        <time>2018-09-18T08:37:16Z</time>
      </trkpt>
      <trkpt lat="45.94119" lon="4.7227">
        <ele>171</ele>
        <time>2018-09-18T08:37:17Z</time>
      </trkpt>
      <trkpt lat="45.94124" lon="4.72274">
        <ele>171</ele>
        <time>2018-09-18T08:37:18Z</time>
      </trkpt>
      <trkpt lat="45.94129" lon="4.72277">
        <ele>171</ele>
        <time>2018-09-18T08:37:19Z</time>
      </trkpt>
      <trkpt lat="45.94133" lon="4.72281">
        <ele>171</ele>
        <time>2018-09-18T08:37:20Z</time>
      </trkpt>
      <trkpt lat="45.94138" lon="4.72283">
        <ele>171</ele>
        <time>2018-09-18T08:37:21Z</time>
      </trkpt>
      <trkpt lat="45.94144" lon="4.72285">
        <ele>171</ele>
        <time>2018-09-18T08:37:22Z</time>
      </trkpt>
      <trkpt lat="45.94148" lon="4.72287">
        <ele>171</ele>
        <time>2018-09-18T08:37:23Z</time>
      </trkpt>
      <trkpt lat="45.94153" lon="4.72287">
        <ele>171</ele>
        <time>2018-09-18T08:37:24Z</time>
      </trkpt>
      <trkpt lat="45.94155" lon="4.72288">
        <ele>171</ele>
        <time>2018-09-18T08:37:25Z</time>
      </trkpt>
      <trkpt lat="45.94163" lon="4.72292">
        <ele>171</ele>
        <time>2018-09-18T08:37:26Z</time>
      </trkpt>
      <trkpt lat="45.94172" lon="4.72292">
        <ele>171</ele>
        <time>2018-09-18T08:37:29Z</time>
      </trkpt>
      <trkpt lat="45.94179" lon="4.72292">
        <ele>171</ele>
        <time>2018-09-18T08:37:30Z</time>
      </trkpt>
      <trkpt lat="45.94187" lon="4.72294">
        <ele>171</ele>
        <time>2018-09-18T08:37:32Z</time>
      </trkpt>
      <trkpt lat="45.94191" lon="4.72295">
        <ele>171</ele>
        <time>2018-09-18T08:37:33Z</time>
      </trkpt>
      <trkpt lat="45.94195" lon="4.72295">
        <ele>171</ele>
        <time>2018-09-18T08:37:34Z</time>
      </trkpt>
      <trkpt lat="45.942" lon="4.72294">
        <ele>171</ele>
        <time>2018-09-18T08:37:35Z</time>
      </trkpt>
      <trkpt lat="45.94206" lon="4.72292">
        <ele>171</ele>
        <time>2018-09-18T08:37:36Z</time>
      </trkpt>
      <trkpt lat="45.9421" lon="4.72291">
        <ele>171</ele>
        <time>2018-09-18T08:37:37Z</time>
      </trkpt>
      <trkpt lat="45.94215" lon="4.72288">
        <ele>171</ele>
        <time>2018-09-18T08:37:38Z</time>
      </trkpt>
      <trkpt lat="45.9422" lon="4.72288">
        <ele>171</ele>
        <time>2018-09-18T08:37:39Z</time>
      </trkpt>
      <trkpt lat="45.94226" lon="4.72284">
        <ele>171</ele>
        <time>2018-09-18T08:37:40Z</time>
      </trkpt>
      <trkpt lat="45.9423" lon="4.72283">
        <ele>171</ele>
        <time>2018-09-18T08:37:41Z</time>
      </trkpt>
      <trkpt lat="45.94235" lon="4.72283">
        <ele>171</ele>
        <time>2018-09-18T08:37:42Z</time>
      </trkpt>
      <trkpt lat="45.94239" lon="4.72281">
        <ele>171</ele>
        <time>2018-09-18T08:37:43Z</time>
      </trkpt>
      <trkpt lat="45.94248" lon="4.72277">
        <ele>171</ele>
        <time>2018-09-18T08:37:45Z</time>
      </trkpt>
      <trkpt lat="45.94252" lon="4.72276">
        <ele>171</ele>
        <time>2018-09-18T08:37:46Z</time>
      </trkpt>
      <trkpt lat="45.94257" lon="4.72275">
        <ele>171</ele>
        <time>2018-09-18T08:37:47Z</time>
      </trkpt>
      <trkpt lat="45.94262" lon="4.72273">
        <ele>171</ele>
        <time>2018-09-18T08:37:48Z</time>
      </trkpt>
      <trkpt lat="45.94269" lon="4.7227">
        <ele>171</ele>
        <time>2018-09-18T08:37:50Z</time>
      </trkpt>
      <trkpt lat="45.94274" lon="4.72275">
        <ele>171</ele>
        <time>2018-09-18T08:37:51Z</time>
      </trkpt>
      <trkpt lat="45.9428" lon="4.72281">
        <ele>171</ele>
        <time>2018-09-18T08:37:53Z</time>
      </trkpt>
      <trkpt lat="45.94283" lon="4.72287">
        <ele>171</ele>
        <time>2018-09-18T08:37:54Z</time>
      </trkpt>
      <trkpt lat="45.94286" lon="4.72299">
        <ele>171</ele>
        <time>2018-09-18T08:37:56Z</time>
      </trkpt>
      <trkpt lat="45.9429" lon="4.72305">
        <ele>171</ele>
        <time>2018-09-18T08:37:57Z</time>
      </trkpt>
      <trkpt lat="45.94293" lon="4.72312">
        <ele>171</ele>
        <time>2018-09-18T08:37:58Z</time>
      </trkpt>
      <trkpt lat="45.94294" lon="4.72318">
        <ele>171</ele>
        <time>2018-09-18T08:37:59Z</time>
      </trkpt>
      <trkpt lat="45.94296" lon="4.72324">
        <ele>171</ele>
        <time>2018-09-18T08:38:00Z</time>
      </trkpt>
      <trkpt lat="45.94301" lon="4.72331">
        <ele>171</ele>
        <time>2018-09-18T08:38:01Z</time>
      </trkpt>
      <trkpt lat="45.94303" lon="4.72338">
        <ele>172</ele>
        <time>2018-09-18T08:38:02Z</time>
      </trkpt>
      <trkpt lat="45.94307" lon="4.72343">
        <ele>172</ele>
        <time>2018-09-18T08:38:03Z</time>
      </trkpt>
      <trkpt lat="45.9431" lon="4.7235">
        <ele>172</ele>
        <time>2018-09-18T08:38:04Z</time>
      </trkpt>
      <trkpt lat="45.94313" lon="4.72355">
        <ele>172</ele>
        <time>2018-09-18T08:38:05Z</time>
      </trkpt>
      <trkpt lat="45.94316" lon="4.7236">
        <ele>172</ele>
        <time>2018-09-18T08:38:06Z</time>
      </trkpt>
      <trkpt lat="45.94319" lon="4.72367">
        <ele>172</ele>
        <time>2018-09-18T08:38:07Z</time>
      </trkpt>
      <trkpt lat="45.94322" lon="4.72372">
        <ele>172</ele>
        <time>2018-09-18T08:38:08Z</time>
      </trkpt>
      <trkpt lat="45.94324" lon="4.7238">
        <ele>172</ele>
        <time>2018-09-18T08:38:09Z</time>
      </trkpt>
      <trkpt lat="45.94326" lon="4.72387">
        <ele>172</ele>
        <time>2018-09-18T08:38:10Z</time>
      </trkpt>
      <trkpt lat="45.94331" lon="4.72395">
        <ele>172</ele>
        <time>2018-09-18T08:38:11Z</time>
      </trkpt>
      <trkpt lat="45.94334" lon="4.724">
        <ele>173</ele>
        <time>2018-09-18T08:38:12Z</time>
      </trkpt>
      <trkpt lat="45.94337" lon="4.72407">
        <ele>173</ele>
        <time>2018-09-18T08:38:13Z</time>
      </trkpt>
      <trkpt lat="45.94338" lon="4.72413">
        <ele>173</ele>
        <time>2018-09-18T08:38:14Z</time>
      </trkpt>
      <trkpt lat="45.94341" lon="4.7242">
        <ele>173</ele>
        <time>2018-09-18T08:38:15Z</time>
      </trkpt>
      <trkpt lat="45.94346" lon="4.72427">
        <ele>173</ele>
        <time>2018-09-18T08:38:16Z</time>
      </trkpt>
      <trkpt lat="45.94349" lon="4.72434">
        <ele>173</ele>
        <time>2018-09-18T08:38:17Z</time>
      </trkpt>
      <trkpt lat="45.94351" lon="4.7244">
        <ele>173</ele>
        <time>2018-09-18T08:38:18Z</time>
      </trkpt>
      <trkpt lat="45.94354" lon="4.72446">
        <ele>173</ele>
        <time>2018-09-18T08:38:19Z</time>
      </trkpt>
      <trkpt lat="45.94356" lon="4.72452">
        <ele>173</ele>
        <time>2018-09-18T08:38:20Z</time>
      </trkpt>
      <trkpt lat="45.94359" lon="4.72458">
        <ele>173</ele>
        <time>2018-09-18T08:38:21Z</time>
      </trkpt>
      <trkpt lat="45.94364" lon="4.72469">
        <ele>173</ele>
        <time>2018-09-18T08:38:23Z</time>
      </trkpt>
      <trkpt lat="45.94366" lon="4.72475">
        <ele>173</ele>
        <time>2018-09-18T08:38:24Z</time>
      </trkpt>
      <trkpt lat="45.94368" lon="4.72481">
        <ele>173</ele>
        <time>2018-09-18T08:38:25Z</time>
      </trkpt>
      <trkpt lat="45.9437" lon="4.72488">
        <ele>173</ele>
        <time>2018-09-18T08:38:26Z</time>
      </trkpt>
      <trkpt lat="45.94372" lon="4.72494">
        <ele>173</ele>
        <time>2018-09-18T08:38:27Z</time>
      </trkpt>
      <trkpt lat="45.94376" lon="4.72498">
        <ele>173</ele>
        <time>2018-09-18T08:38:28Z</time>
      </trkpt>
      <trkpt lat="45.94381" lon="4.72505">
        <ele>174</ele>
        <time>2018-09-18T08:38:29Z</time>
      </trkpt>
      <trkpt lat="45.94382" lon="4.72513">
        <ele>174</ele>
        <time>2018-09-18T08:38:30Z</time>
      </trkpt>
      <trkpt lat="45.94385" lon="4.7252">
        <ele>174</ele>
        <time>2018-09-18T08:38:31Z</time>
      </trkpt>
      <trkpt lat="45.94387" lon="4.72528">
        <ele>174</ele>
        <time>2018-09-18T08:38:32Z</time>
      </trkpt>
      <trkpt lat="45.9439" lon="4.72539">
        <ele>174</ele>
        <time>2018-09-18T08:38:34Z</time>
      </trkpt>
      <trkpt lat="45.94389" lon="4.72545">
        <ele>173</ele>
        <time>2018-09-18T08:38:35Z</time>
      </trkpt>
      <trkpt lat="45.94389" lon="4.72552">
        <ele>173</ele>
        <time>2018-09-18T08:38:36Z</time>
      </trkpt>
      <trkpt lat="45.94391" lon="4.72561">
        <ele>173</ele>
        <time>2018-09-18T08:38:37Z</time>
      </trkpt>
      <trkpt lat="45.94392" lon="4.72569">
        <ele>173</ele>
        <time>2018-09-18T08:38:38Z</time>
      </trkpt>
      <trkpt lat="45.94393" lon="4.72578">
        <ele>173</ele>
        <time>2018-09-18T08:38:39Z</time>
      </trkpt>
      <trkpt lat="45.94395" lon="4.72586">
        <ele>173</ele>
        <time>2018-09-18T08:38:40Z</time>
      </trkpt>
      <trkpt lat="45.94397" lon="4.72593">
        <ele>173</ele>
        <time>2018-09-18T08:38:41Z</time>
      </trkpt>
      <trkpt lat="45.94399" lon="4.726">
        <ele>173</ele>
        <time>2018-09-18T08:38:42Z</time>
      </trkpt>
      <trkpt lat="45.94402" lon="4.72606">
        <ele>173</ele>
        <time>2018-09-18T08:38:43Z</time>
      </trkpt>
      <trkpt lat="45.94404" lon="4.72612">
        <ele>173</ele>
        <time>2018-09-18T08:38:44Z</time>
      </trkpt>
      <trkpt lat="45.94406" lon="4.72618">
        <ele>173</ele>
        <time>2018-09-18T08:38:45Z</time>
      </trkpt>
      <trkpt lat="45.94408" lon="4.7263">
        <ele>174</ele>
        <time>2018-09-18T08:38:54Z</time>
      </trkpt>
      <trkpt lat="45.94408" lon="4.72632">
        <ele>174</ele>
        <time>2018-09-18T08:38:55Z</time>
      </trkpt>
      <trkpt lat="45.94408" lon="4.72644">
        <ele>174</ele>
        <time>2018-09-18T08:39:00Z</time>
      </trkpt>
      <trkpt lat="45.94408" lon="4.72649">
        <ele>174</ele>
        <time>2018-09-18T08:39:01Z</time>
      </trkpt>
      <trkpt lat="45.94409" lon="4.72658">
        <ele>174</ele>
        <time>2018-09-18T08:39:03Z</time>
      </trkpt>
      <trkpt lat="45.94411" lon="4.72673">
        <ele>173</ele>
        <time>2018-09-18T08:39:04Z</time>
      </trkpt>
      <trkpt lat="45.94412" lon="4.72685">
        <ele>173</ele>
        <time>2018-09-18T08:39:06Z</time>
      </trkpt>
      <trkpt lat="45.94413" lon="4.72691">
        <ele>173</ele>
        <time>2018-09-18T08:39:07Z</time>
      </trkpt>
      <trkpt lat="45.94414" lon="4.727">
        <ele>172</ele>
        <time>2018-09-18T08:39:10Z</time>
      </trkpt>
      <trkpt lat="45.94415" lon="4.72703">
        <ele>172</ele>
        <time>2018-09-18T08:39:11Z</time>
      </trkpt>
      <trkpt lat="45.94413" lon="4.72716">
        <ele>172</ele>
        <time>2018-09-18T08:39:19Z</time>
      </trkpt>
      <trkpt lat="45.94412" lon="4.72717">
        <ele>172</ele>
        <time>2018-09-18T08:39:20Z</time>
      </trkpt>
      <trkpt lat="45.9441" lon="4.72727">
        <ele>172</ele>
        <time>2018-09-18T08:39:24Z</time>
      </trkpt>
      <trkpt lat="45.9441" lon="4.72731">
        <ele>172</ele>
        <time>2018-09-18T08:39:25Z</time>
      </trkpt>
      <trkpt lat="45.94411" lon="4.72735">
        <ele>172</ele>
        <time>2018-09-18T08:39:26Z</time>
      </trkpt>
      <trkpt lat="45.94412" lon="4.72749">
        <ele>171</ele>
        <time>2018-09-18T08:39:27Z</time>
      </trkpt>
      <trkpt lat="45.94415" lon="4.7276">
        <ele>170</ele>
        <time>2018-09-18T08:39:29Z</time>
      </trkpt>
      <trkpt lat="45.94416" lon="4.72766">
        <ele>170</ele>
        <time>2018-09-18T08:39:30Z</time>
      </trkpt>
      <trkpt lat="45.94418" lon="4.72777">
        <ele>168</ele>
        <time>2018-09-18T08:39:32Z</time>
      </trkpt>
      <trkpt lat="45.94419" lon="4.72784">
        <ele>168</ele>
        <time>2018-09-18T08:39:33Z</time>
      </trkpt>
      <trkpt lat="45.94421" lon="4.72794">
        <ele>168</ele>
        <time>2018-09-18T08:39:35Z</time>
      </trkpt>
      <trkpt lat="45.94424" lon="4.72802">
        <ele>167</ele>
        <time>2018-09-18T08:39:36Z</time>
      </trkpt>
      <trkpt lat="45.94424" lon="4.72813">
        <ele>167</ele>
        <time>2018-09-18T08:39:38Z</time>
      </trkpt>
      <trkpt lat="45.94426" lon="4.72819">
        <ele>167</ele>
        <time>2018-09-18T08:39:39Z</time>
      </trkpt>
      <trkpt lat="45.94427" lon="4.72826">
        <ele>167</ele>
        <time>2018-09-18T08:39:40Z</time>
      </trkpt>
      <trkpt lat="45.94428" lon="4.72832">
        <ele>166</ele>
        <time>2018-09-18T08:39:41Z</time>
      </trkpt>
      <trkpt lat="45.94429" lon="4.72838">
        <ele>166</ele>
        <time>2018-09-18T08:39:43Z</time>
      </trkpt>
      <trkpt lat="45.94431" lon="4.72848">
        <ele>166</ele>
        <time>2018-09-18T08:39:44Z</time>
      </trkpt>
      <trkpt lat="45.94434" lon="4.72861">
        <ele>166</ele>
        <time>2018-09-18T08:39:46Z</time>
      </trkpt>
      <trkpt lat="45.94434" lon="4.72866">
        <ele>166</ele>
        <time>2018-09-18T08:39:47Z</time>
      </trkpt>
      <trkpt lat="45.94436" lon="4.72878">
        <ele>166</ele>
        <time>2018-09-18T08:39:49Z</time>
      </trkpt>
      <trkpt lat="45.94437" lon="4.72884">
        <ele>166</ele>
        <time>2018-09-18T08:39:50Z</time>
      </trkpt>
      <trkpt lat="45.94438" lon="4.72896">
        <ele>166</ele>
        <time>2018-09-18T08:39:52Z</time>
      </trkpt>
      <trkpt lat="45.94439" lon="4.72898">
        <ele>166</ele>
        <time>2018-09-18T08:39:53Z</time>
      </trkpt>
      <trkpt lat="45.9444" lon="4.72907">
        <ele>166</ele>
        <time>2018-09-18T08:39:54Z</time>
      </trkpt>
      <trkpt lat="45.94442" lon="4.72912">
        <ele>166</ele>
        <time>2018-09-18T08:39:55Z</time>
      </trkpt>
      <trkpt lat="45.94442" lon="4.72922">
        <ele>167</ele>
        <time>2018-09-18T08:39:57Z</time>
      </trkpt>
      <trkpt lat="45.94444" lon="4.72927">
        <ele>167</ele>
        <time>2018-09-18T08:39:58Z</time>
      </trkpt>
      <trkpt lat="45.94445" lon="4.7294">
        <ele>167</ele>
        <time>2018-09-18T08:40:00Z</time>
      </trkpt>
      <trkpt lat="45.94446" lon="4.72946">
        <ele>167</ele>
        <time>2018-09-18T08:40:01Z</time>
      </trkpt>
      <trkpt lat="45.94447" lon="4.72953">
        <ele>167</ele>
        <time>2018-09-18T08:40:02Z</time>
      </trkpt>
      <trkpt lat="45.94447" lon="4.72959">
        <ele>167</ele>
        <time>2018-09-18T08:40:03Z</time>
      </trkpt>
      <trkpt lat="45.94447" lon="4.72966">
        <ele>167</ele>
        <time>2018-09-18T08:40:04Z</time>
      </trkpt>
      <trkpt lat="45.94448" lon="4.72972">
        <ele>167</ele>
        <time>2018-09-18T08:40:05Z</time>
      </trkpt>
      <trkpt lat="45.94452" lon="4.72984">
        <ele>167</ele>
        <time>2018-09-18T08:40:06Z</time>
      </trkpt>
      <trkpt lat="45.94453" lon="4.72992">
        <ele>167</ele>
        <time>2018-09-18T08:40:07Z</time>
      </trkpt>
      <trkpt lat="45.94454" lon="4.72999">
        <ele>168</ele>
        <time>2018-09-18T08:40:08Z</time>
      </trkpt>
      <trkpt lat="45.94455" lon="4.73007">
        <ele>169</ele>
        <time>2018-09-18T08:40:09Z</time>
      </trkpt>
      <trkpt lat="45.94456" lon="4.73015">
        <ele>169</ele>
        <time>2018-09-18T08:40:10Z</time>
      </trkpt>
      <trkpt lat="45.94456" lon="4.73023">
        <ele>169</ele>
        <time>2018-09-18T08:40:11Z</time>
      </trkpt>
      <trkpt lat="45.94457" lon="4.73032">
        <ele>169</ele>
        <time>2018-09-18T08:40:12Z</time>
      </trkpt>
      <trkpt lat="45.94457" lon="4.73042">
        <ele>169</ele>
        <time>2018-09-18T08:40:13Z</time>
      </trkpt>
      <trkpt lat="45.94458" lon="4.7305">
        <ele>170</ele>
        <time>2018-09-18T08:40:14Z</time>
      </trkpt>
      <trkpt lat="45.9446" lon="4.73058">
        <ele>170</ele>
        <time>2018-09-18T08:40:15Z</time>
      </trkpt>
      <trkpt lat="45.94461" lon="4.73065">
        <ele>170</ele>
        <time>2018-09-18T08:40:16Z</time>
      </trkpt>
      <trkpt lat="45.94463" lon="4.73073">
        <ele>170</ele>
        <time>2018-09-18T08:40:17Z</time>
      </trkpt>
      <trkpt lat="45.94467" lon="4.73076">
        <ele>170</ele>
        <time>2018-09-18T08:40:18Z</time>
      </trkpt>
      <trkpt lat="45.94472" lon="4.73078">
        <ele>170</ele>
        <time>2018-09-18T08:40:19Z</time>
      </trkpt>
      <trkpt lat="45.94476" lon="4.7308">
        <ele>170</ele>
        <time>2018-09-18T08:40:20Z</time>
      </trkpt>
      <trkpt lat="45.94481" lon="4.73082">
        <ele>171</ele>
        <time>2018-09-18T08:40:21Z</time>
      </trkpt>
      <trkpt lat="45.94485" lon="4.73086">
        <ele>172</ele>
        <time>2018-09-18T08:40:22Z</time>
      </trkpt>
      <trkpt lat="45.94491" lon="4.73089">
        <ele>172</ele>
        <time>2018-09-18T08:40:23Z</time>
      </trkpt>
      <trkpt lat="45.94497" lon="4.73091">
        <ele>172</ele>
        <time>2018-09-18T08:40:24Z</time>
      </trkpt>
      <trkpt lat="45.94503" lon="4.73095">
        <ele>172</ele>
        <time>2018-09-18T08:40:25Z</time>
      </trkpt>
      <trkpt lat="45.94508" lon="4.73097">
        <ele>172</ele>
        <time>2018-09-18T08:40:26Z</time>
      </trkpt>
      <trkpt lat="45.94514" lon="4.73099">
        <ele>172</ele>
        <time>2018-09-18T08:40:27Z</time>
      </trkpt>
      <trkpt lat="45.94519" lon="4.73101">
        <ele>173</ele>
        <time>2018-09-18T08:40:28Z</time>
      </trkpt>
      <trkpt lat="45.94524" lon="4.73103">
        <ele>173</ele>
        <time>2018-09-18T08:40:29Z</time>
      </trkpt>
      <trkpt lat="45.9453" lon="4.73104">
        <ele>173</ele>
        <time>2018-09-18T08:40:30Z</time>
      </trkpt>
      <trkpt lat="45.94535" lon="4.73106">
        <ele>173</ele>
        <time>2018-09-18T08:40:31Z</time>
      </trkpt>
      <trkpt lat="45.9454" lon="4.73107">
        <ele>173</ele>
        <time>2018-09-18T08:40:32Z</time>
      </trkpt>
      <trkpt lat="45.94548" lon="4.7311">
        <ele>173</ele>
        <time>2018-09-18T08:40:35Z</time>
      </trkpt>
      <trkpt lat="45.94549" lon="4.7311">
        <ele>173</ele>
        <time>2018-09-18T08:40:36Z</time>
      </trkpt>
      <trkpt lat="45.94554" lon="4.731">
        <ele>173</ele>
        <time>2018-09-18T08:40:42Z</time>
      </trkpt>
      <trkpt lat="45.94553" lon="4.73096">
        <ele>172</ele>
        <time>2018-09-18T08:40:43Z</time>
      </trkpt>
      <trkpt lat="45.94552" lon="4.73088">
        <ele>172</ele>
        <time>2018-09-18T08:40:45Z</time>
      </trkpt>
      <trkpt lat="45.94551" lon="4.73074">
        <ele>172</ele>
        <time>2018-09-18T08:40:46Z</time>
      </trkpt>
      <trkpt lat="45.94549" lon="4.73067">
        <ele>172</ele>
        <time>2018-09-18T08:40:47Z</time>
      </trkpt>
      <trkpt lat="45.94548" lon="4.73061">
        <ele>172</ele>
        <time>2018-09-18T08:40:48Z</time>
      </trkpt>
      <trkpt lat="45.94548" lon="4.73049">
        <ele>172</ele>
        <time>2018-09-18T08:40:50Z</time>
      </trkpt>
      <trkpt lat="45.94548" lon="4.73043">
        <ele>172</ele>
        <time>2018-09-18T08:40:51Z</time>
      </trkpt>
      <trkpt lat="45.94546" lon="4.7303">
        <ele>171</ele>
        <time>2018-09-18T08:40:55Z</time>
      </trkpt>
      <trkpt lat="45.94544" lon="4.73018">
        <ele>171</ele>
        <time>2018-09-18T08:40:56Z</time>
      </trkpt>
      <trkpt lat="45.9454" lon="4.7301">
        <ele>171</ele>
        <time>2018-09-18T08:40:59Z</time>
      </trkpt>
      <trkpt lat="45.94538" lon="4.73008">
        <ele>171</ele>
        <time>2018-09-18T08:41:00Z</time>
      </trkpt>
      <trkpt lat="45.94531" lon="4.73011">
        <ele>171</ele>
        <time>2018-09-18T08:41:11Z</time>
      </trkpt>
      <trkpt lat="45.94531" lon="4.73011">
        <ele>171</ele>
        <time>2018-09-18T08:41:12Z</time>
      </trkpt>
      <trkpt lat="45.9453" lon="4.73012">
        <ele>171</ele>
        <time>2018-09-18T08:41:13Z</time>
      </trkpt>
      <trkpt lat="45.94523" lon="4.73011">
        <ele>171</ele>
        <time>2018-09-18T08:41:19Z</time>
      </trkpt>
      <trkpt lat="45.94521" lon="4.73011">
        <ele>171</ele>
        <time>2018-09-18T08:41:20Z</time>
      </trkpt>
      <trkpt lat="45.94518" lon="4.73011">
        <ele>171</ele>
        <time>2018-09-18T08:41:21Z</time>
      </trkpt>
      <trkpt lat="45.94509" lon="4.73011">
        <ele>171</ele>
        <time>2018-09-18T08:41:22Z</time>
      </trkpt>
      <trkpt lat="45.94501" lon="4.73013">
        <ele>171</ele>
        <time>2018-09-18T08:41:24Z</time>
      </trkpt>
      <trkpt lat="45.94496" lon="4.73013">
        <ele>170</ele>
        <time>2018-09-18T08:41:25Z</time>
      </trkpt>
      <trkpt lat="45.94488" lon="4.73011">
        <ele>170</ele>
        <time>2018-09-18T08:41:27Z</time>
      </trkpt>
      <trkpt lat="45.94483" lon="4.73012">
        <ele>170</ele>
        <time>2018-09-18T08:41:28Z</time>
      </trkpt>
      <trkpt lat="45.94475" lon="4.73017">
        <ele>170</ele>
        <time>2018-09-18T08:41:31Z</time>
      </trkpt>
      <trkpt lat="45.94472" lon="4.73018">
        <ele>170</ele>
        <time>2018-09-18T08:41:32Z</time>
      </trkpt>
      <trkpt lat="45.94465" lon="4.73019">
        <ele>169</ele>
        <time>2018-09-18T08:41:35Z</time>
      </trkpt>
      <trkpt lat="45.94454" lon="4.73022">
        <ele>169</ele>
        <time>2018-09-18T08:41:36Z</time>
      </trkpt>
      <trkpt lat="45.94446" lon="4.73029">
        <ele>169</ele>
        <time>2018-09-18T08:41:38Z</time>
      </trkpt>
      <trkpt lat="45.94442" lon="4.73032">
        <ele>169</ele>
        <time>2018-09-18T08:41:39Z</time>
      </trkpt>
      <trkpt lat="45.94435" lon="4.73038">
        <ele>169</ele>
        <time>2018-09-18T08:41:41Z</time>
      </trkpt>
      <trkpt lat="45.94431" lon="4.73042">
        <ele>169</ele>
        <time>2018-09-18T08:41:42Z</time>
      </trkpt>
      <trkpt lat="45.94425" lon="4.7305">
        <ele>169</ele>
        <time>2018-09-18T08:41:44Z</time>
      </trkpt>
      <trkpt lat="45.94423" lon="4.73053">
        <ele>169</ele>
        <time>2018-09-18T08:41:45Z</time>
      </trkpt>
      <trkpt lat="45.94421" lon="4.73062">
        <ele>169</ele>
        <time>2018-09-18T08:41:46Z</time>
      </trkpt>
      <trkpt lat="45.94417" lon="4.73066">
        <ele>169</ele>
        <time>2018-09-18T08:41:47Z</time>
      </trkpt>
      <trkpt lat="45.9441" lon="4.73072">
        <ele>168</ele>
        <time>2018-09-18T08:41:49Z</time>
      </trkpt>
      <trkpt lat="45.94408" lon="4.73074">
        <ele>168</ele>
        <time>2018-09-18T08:41:50Z</time>
      </trkpt>
      <trkpt lat="45.94401" lon="4.7308">
        <ele>168</ele>
        <time>2018-09-18T08:41:52Z</time>
      </trkpt>
      <trkpt lat="45.94396" lon="4.73082">
        <ele>168</ele>
        <time>2018-09-18T08:41:53Z</time>
      </trkpt>
      <trkpt lat="45.94389" lon="4.73089">
        <ele>169</ele>
        <time>2018-09-18T08:41:55Z</time>
      </trkpt>
      <trkpt lat="45.94386" lon="4.73092">
        <ele>169</ele>
        <time>2018-09-18T08:41:56Z</time>
      </trkpt>
      <trkpt lat="45.94378" lon="4.73095">
        <ele>169</ele>
        <time>2018-09-18T08:41:58Z</time>
      </trkpt>
      <trkpt lat="45.94374" lon="4.73098">
        <ele>169</ele>
        <time>2018-09-18T08:41:59Z</time>
      </trkpt>
      <trkpt lat="45.9437" lon="4.73101">
        <ele>169</ele>
        <time>2018-09-18T08:42:00Z</time>
      </trkpt>
      <trkpt lat="45.94365" lon="4.73103">
        <ele>169</ele>
        <time>2018-09-18T08:42:01Z</time>
      </trkpt>
      <trkpt lat="45.94357" lon="4.7311">
        <ele>169</ele>
        <time>2018-09-18T08:42:03Z</time>
      </trkpt>
      <trkpt lat="45.94353" lon="4.73113">
        <ele>169</ele>
        <time>2018-09-18T08:42:04Z</time>
      </trkpt>
      <trkpt lat="45.94346" lon="4.73117">
        <ele>169</ele>
        <time>2018-09-18T08:42:06Z</time>
      </trkpt>
      <trkpt lat="45.9434" lon="4.73123">
        <ele>169</ele>
        <time>2018-09-18T08:42:07Z</time>
      </trkpt>
      <trkpt lat="45.94335" lon="4.73125">
        <ele>169</ele>
        <time>2018-09-18T08:42:08Z</time>
      </trkpt>
      <trkpt lat="45.94331" lon="4.73129">
        <ele>168</ele>
        <time>2018-09-18T08:42:09Z</time>
      </trkpt>
      <trkpt lat="45.94323" lon="4.73134">
        <ele>168</ele>
        <time>2018-09-18T08:42:11Z</time>
      </trkpt>
      <trkpt lat="45.9432" lon="4.73137">
        <ele>168</ele>
        <time>2018-09-18T08:42:12Z</time>
      </trkpt>
      <trkpt lat="45.94313" lon="4.73144">
        <ele>168</ele>
        <time>2018-09-18T08:42:15Z</time>
      </trkpt>
      <trkpt lat="45.94308" lon="4.73147">
        <ele>168</ele>
        <time>2018-09-18T08:42:16Z</time>
      </trkpt>
      <trkpt lat="45.943" lon="4.73153">
        <ele>168</ele>
        <time>2018-09-18T08:42:18Z</time>
      </trkpt>
      <trkpt lat="45.94295" lon="4.73156">
        <ele>167</ele>
        <time>2018-09-18T08:42:19Z</time>
      </trkpt>
      <trkpt lat="45.94289" lon="4.73162">
        <ele>167</ele>
        <time>2018-09-18T08:42:21Z</time>
      </trkpt>
      <trkpt lat="45.94286" lon="4.73167">
        <ele>170</ele>
        <time>2018-09-18T08:42:22Z</time>
      </trkpt>
      <trkpt lat="45.94279" lon="4.73175">
        <ele>169</ele>
        <time>2018-09-18T08:42:30Z</time>
      </trkpt>
      <trkpt lat="45.94278" lon="4.73175">
        <ele>169</ele>
        <time>2018-09-18T08:42:31Z</time>
      </trkpt>
      <trkpt lat="45.94272" lon="4.7318">
        <ele>169</ele>
        <time>2018-09-18T08:42:34Z</time>
      </trkpt>
      <trkpt lat="45.9427" lon="4.73182">
        <ele>169</ele>
        <time>2018-09-18T08:42:35Z</time>
      </trkpt>
      <trkpt lat="45.94266" lon="4.73189">
        <ele>169</ele>
        <time>2018-09-18T08:42:37Z</time>
      </trkpt>
      <trkpt lat="45.94263" lon="4.73192">
        <ele>169</ele>
        <time>2018-09-18T08:42:38Z</time>
      </trkpt>
      <trkpt lat="45.94259" lon="4.73198">
        <ele>170</ele>
        <time>2018-09-18T08:42:40Z</time>
      </trkpt>
      <trkpt lat="45.94256" lon="4.73201">
        <ele>170</ele>
        <time>2018-09-18T08:42:41Z</time>
      </trkpt>
      <trkpt lat="45.94248" lon="4.73209">
        <ele>169</ele>
        <time>2018-09-18T08:42:42Z</time>
      </trkpt>
      <trkpt lat="45.94241" lon="4.73214">
        <ele>169</ele>
        <time>2018-09-18T08:42:44Z</time>
      </trkpt>
      <trkpt lat="45.94237" lon="4.73217">
        <ele>169</ele>
        <time>2018-09-18T08:42:45Z</time>
      </trkpt>
      <trkpt lat="45.9423" lon="4.73222">
        <ele>169</ele>
        <time>2018-09-18T08:42:47Z</time>
      </trkpt>
      <trkpt lat="45.94227" lon="4.73226">
        <ele>169</ele>
        <time>2018-09-18T08:42:48Z</time>
      </trkpt>
      <trkpt lat="45.94221" lon="4.73226">
        <ele>169</ele>
        <time>2018-09-18T08:42:49Z</time>
      </trkpt>
      <trkpt lat="45.94215" lon="4.73232">
        <ele>169</ele>
        <time>2018-09-18T08:42:50Z</time>
      </trkpt>
      <trkpt lat="45.94209" lon="4.73238">
        <ele>169</ele>
        <time>2018-09-18T08:42:52Z</time>
      </trkpt>
      <trkpt lat="45.94205" lon="4.7324">
        <ele>169</ele>
        <time>2018-09-18T08:42:53Z</time>
      </trkpt>
      <trkpt lat="45.942" lon="4.73246">
        <ele>169</ele>
        <time>2018-09-18T08:42:55Z</time>
      </trkpt>
      <trkpt lat="45.94196" lon="4.73249">
        <ele>169</ele>
        <time>2018-09-18T08:42:56Z</time>
      </trkpt>
      <trkpt lat="45.94189" lon="4.73256">
        <ele>172</ele>
        <time>2018-09-18T08:42:58Z</time>
      </trkpt>
      <trkpt lat="45.94185" lon="4.73258">
        <ele>172</ele>
        <time>2018-09-18T08:42:59Z</time>
      </trkpt>
      <trkpt lat="45.94181" lon="4.73261">
        <ele>172</ele>
        <time>2018-09-18T08:43:00Z</time>
      </trkpt>
      <trkpt lat="45.94178" lon="4.73267">
        <ele>172</ele>
        <time>2018-09-18T08:43:01Z</time>
      </trkpt>
      <trkpt lat="45.94174" lon="4.7327">
        <ele>172</ele>
        <time>2018-09-18T08:43:02Z</time>
      </trkpt>
      <trkpt lat="45.9417" lon="4.73274">
        <ele>172</ele>
        <time>2018-09-18T08:43:03Z</time>
      </trkpt>
      <trkpt lat="45.94164" lon="4.73281">
        <ele>170</ele>
        <time>2018-09-18T08:43:05Z</time>
      </trkpt>
      <trkpt lat="45.94162" lon="4.73282">
        <ele>170</ele>
        <time>2018-09-18T08:43:06Z</time>
      </trkpt>
      <trkpt lat="45.94156" lon="4.73289">
        <ele>170</ele>
        <time>2018-09-18T08:43:09Z</time>
      </trkpt>
      <trkpt lat="45.94154" lon="4.73292">
        <ele>170</ele>
        <time>2018-09-18T08:43:10Z</time>
      </trkpt>
      <trkpt lat="45.94147" lon="4.73299">
        <ele>171</ele>
        <time>2018-09-18T08:43:11Z</time>
      </trkpt>
      <trkpt lat="45.94145" lon="4.73304">
        <ele>171</ele>
        <time>2018-09-18T08:43:12Z</time>
      </trkpt>
      <trkpt lat="45.94139" lon="4.73312">
        <ele>171</ele>
        <time>2018-09-18T08:43:14Z</time>
      </trkpt>
      <trkpt lat="45.94136" lon="4.73316">
        <ele>171</ele>
        <time>2018-09-18T08:43:15Z</time>
      </trkpt>
      <trkpt lat="45.9413" lon="4.73325">
        <ele>171</ele>
        <time>2018-09-18T08:43:17Z</time>
      </trkpt>
      <trkpt lat="45.94126" lon="4.73327">
        <ele>171</ele>
        <time>2018-09-18T08:43:18Z</time>
      </trkpt>
      <trkpt lat="45.94119" lon="4.73336">
        <ele>173</ele>
        <time>2018-09-18T08:43:20Z</time>
      </trkpt>
      <trkpt lat="45.94116" lon="4.73342">
        <ele>173</ele>
        <time>2018-09-18T08:43:21Z</time>
      </trkpt>
      <trkpt lat="45.9411" lon="4.7335">
        <ele>173</ele>
        <time>2018-09-18T08:43:23Z</time>
      </trkpt>
      <trkpt lat="45.94106" lon="4.73355">
        <ele>173</ele>
        <time>2018-09-18T08:43:24Z</time>
      </trkpt>
      <trkpt lat="45.94103" lon="4.7336">
        <ele>173</ele>
        <time>2018-09-18T08:43:26Z</time>
      </trkpt>
      <trkpt lat="45.94097" lon="4.73363">
        <ele>173</ele>
        <time>2018-09-18T08:43:27Z</time>
      </trkpt>
      <trkpt lat="45.9409" lon="4.73369">
        <ele>173</ele>
        <time>2018-09-18T08:43:29Z</time>
      </trkpt>
      <trkpt lat="45.94086" lon="4.73374">
        <ele>173</ele>
        <time>2018-09-18T08:43:30Z</time>
      </trkpt>
      <trkpt lat="45.94079" lon="4.73379">
        <ele>171</ele>
        <time>2018-09-18T08:43:32Z</time>
      </trkpt>
      <trkpt lat="45.94077" lon="4.73386">
        <ele>171</ele>
        <time>2018-09-18T08:43:33Z</time>
      </trkpt>
      <trkpt lat="45.94074" lon="4.73391">
        <ele>171</ele>
        <time>2018-09-18T08:43:34Z</time>
      </trkpt>
      <trkpt lat="45.94072" lon="4.73397">
        <ele>171</ele>
        <time>2018-09-18T08:43:35Z</time>
      </trkpt>
      <trkpt lat="45.94068" lon="4.73403">
        <ele>171</ele>
        <time>2018-09-18T08:43:36Z</time>
      </trkpt>
      <trkpt lat="45.94065" lon="4.73408">
        <ele>171</ele>
        <time>2018-09-18T08:43:37Z</time>
      </trkpt>
      <trkpt lat="45.94063" lon="4.73413">
        <ele>171</ele>
        <time>2018-09-18T08:43:38Z</time>
      </trkpt>
      <trkpt lat="45.94061" lon="4.7342">
        <ele>172</ele>
        <time>2018-09-18T08:43:39Z</time>
      </trkpt>
      <trkpt lat="45.94055" lon="4.73429">
        <ele>172</ele>
        <time>2018-09-18T08:43:41Z</time>
      </trkpt>
      <trkpt lat="45.94053" lon="4.73435">
        <ele>172</ele>
        <time>2018-09-18T08:43:42Z</time>
      </trkpt>
      <trkpt lat="45.94049" lon="4.7344">
        <ele>171</ele>
        <time>2018-09-18T08:43:43Z</time>
      </trkpt>
      <trkpt lat="45.94046" lon="4.73444">
        <ele>171</ele>
        <time>2018-09-18T08:43:44Z</time>
      </trkpt>
      <trkpt lat="45.94042" lon="4.7345">
        <ele>171</ele>
        <time>2018-09-18T08:43:45Z</time>
      </trkpt>
      <trkpt lat="45.9404" lon="4.73456">
        <ele>171</ele>
        <time>2018-09-18T08:43:46Z</time>
      </trkpt>
      <trkpt lat="45.94034" lon="4.73462">
        <ele>171</ele>
        <time>2018-09-18T08:43:48Z</time>
      </trkpt>
      <trkpt lat="45.94031" lon="4.73466">
        <ele>171</ele>
        <time>2018-09-18T08:43:49Z</time>
      </trkpt>
      <trkpt lat="45.94026" lon="4.73476">
        <ele>171</ele>
        <time>2018-09-18T08:43:51Z</time>
      </trkpt>
      <trkpt lat="45.94024" lon="4.73483">
        <ele>170</ele>
        <time>2018-09-18T08:43:52Z</time>
      </trkpt>
      <trkpt lat="45.94022" lon="4.73489">
        <ele>170</ele>
        <time>2018-09-18T08:43:53Z</time>
      </trkpt>
      <trkpt lat="45.94019" lon="4.73495">
        <ele>170</ele>
        <time>2018-09-18T08:43:54Z</time>
      </trkpt>
      <trkpt lat="45.94016" lon="4.735">
        <ele>170</ele>
        <time>2018-09-18T08:43:55Z</time>
      </trkpt>
      <trkpt lat="45.94013" lon="4.73506">
        <ele>170</ele>
        <time>2018-09-18T08:43:56Z</time>
      </trkpt>
      <trkpt lat="45.94011" lon="4.73512">
        <ele>170</ele>
        <time>2018-09-18T08:43:57Z</time>
      </trkpt>
      <trkpt lat="45.94009" lon="4.73518">
        <ele>171</ele>
        <time>2018-09-18T08:43:58Z</time>
      </trkpt>
      <trkpt lat="45.94005" lon="4.73529">
        <ele>171</ele>
        <time>2018-09-18T08:44:00Z</time>
      </trkpt>
      <trkpt lat="45.94004" lon="4.73535">
        <ele>171</ele>
        <time>2018-09-18T08:44:01Z</time>
      </trkpt>
      <trkpt lat="45.93999" lon="4.73544">
        <ele>168</ele>
        <time>2018-09-18T08:44:03Z</time>
      </trkpt>
      <trkpt lat="45.93997" lon="4.7355">
        <ele>168</ele>
        <time>2018-09-18T08:44:04Z</time>
      </trkpt>
      <trkpt lat="45.93995" lon="4.73555">
        <ele>168</ele>
        <time>2018-09-18T08:44:05Z</time>
      </trkpt>
      <trkpt lat="45.93992" lon="4.73561">
        <ele>168</ele>
        <time>2018-09-18T08:44:06Z</time>
      </trkpt>
      <trkpt lat="45.93991" lon="4.73568">
        <ele>168</ele>
        <time>2018-09-18T08:44:07Z</time>
      </trkpt>
      <trkpt lat="45.93989" lon="4.73574">
        <ele>168</ele>
        <time>2018-09-18T08:44:08Z</time>
      </trkpt>
      <trkpt lat="45.93988" lon="4.73584">
        <ele>169</ele>
        <time>2018-09-18T08:44:09Z</time>
      </trkpt>
      <trkpt lat="45.93985" lon="4.7359">
        <ele>169</ele>
        <time>2018-09-18T08:44:10Z</time>
      </trkpt>
      <trkpt lat="45.93983" lon="4.73596">
        <ele>169</ele>
        <time>2018-09-18T08:44:11Z</time>
      </trkpt>
      <trkpt lat="45.93981" lon="4.73602">
        <ele>169</ele>
        <time>2018-09-18T08:44:12Z</time>
      </trkpt>
      <trkpt lat="45.93979" lon="4.73613">
        <ele>170</ele>
        <time>2018-09-18T08:44:14Z</time>
      </trkpt>
      <trkpt lat="45.93978" lon="4.73618">
        <ele>170</ele>
        <time>2018-09-18T08:44:15Z</time>
      </trkpt>
      <trkpt lat="45.93976" lon="4.73624">
        <ele>170</ele>
        <time>2018-09-18T08:44:16Z</time>
      </trkpt>
      <trkpt lat="45.93974" lon="4.7363">
        <ele>170</ele>
        <time>2018-09-18T08:44:17Z</time>
      </trkpt>
      <trkpt lat="45.93973" lon="4.73638">
        <ele>170</ele>
        <time>2018-09-18T08:44:18Z</time>
      </trkpt>
      <trkpt lat="45.93972" lon="4.73644">
        <ele>170</ele>
        <time>2018-09-18T08:44:19Z</time>
      </trkpt>
      <trkpt lat="45.9397" lon="4.73651">
        <ele>170</ele>
        <time>2018-09-18T08:44:20Z</time>
      </trkpt>
      <trkpt lat="45.9397" lon="4.73659">
        <ele>171</ele>
        <time>2018-09-18T08:44:21Z</time>
      </trkpt>
      <trkpt lat="45.93968" lon="4.73671">
        <ele>172</ele>
        <time>2018-09-18T08:44:23Z</time>
      </trkpt>
      <trkpt lat="45.93966" lon="4.73677">
        <ele>172</ele>
        <time>2018-09-18T08:44:24Z</time>
      </trkpt>
      <trkpt lat="45.93965" lon="4.73683">
        <ele>172</ele>
        <time>2018-09-18T08:44:25Z</time>
      </trkpt>
      <trkpt lat="45.93964" lon="4.73691">
        <ele>172</ele>
        <time>2018-09-18T08:44:26Z</time>
      </trkpt>
      <trkpt lat="45.93964" lon="4.73703">
        <ele>172</ele>
        <time>2018-09-18T08:44:28Z</time>
      </trkpt>
      <trkpt lat="45.93964" lon="4.7371">
        <ele>172</ele>
        <time>2018-09-18T08:44:29Z</time>
      </trkpt>
      <trkpt lat="45.93964" lon="4.73722">
        <ele>172</ele>
        <time>2018-09-18T08:44:31Z</time>
      </trkpt>
      <trkpt lat="45.93963" lon="4.73729">
        <ele>172</ele>
        <time>2018-09-18T08:44:32Z</time>
      </trkpt>
      <trkpt lat="45.93962" lon="4.73736">
        <ele>172</ele>
        <time>2018-09-18T08:44:33Z</time>
      </trkpt>
      <trkpt lat="45.93961" lon="4.73743">
        <ele>172</ele>
        <time>2018-09-18T08:44:34Z</time>
      </trkpt>
      <trkpt lat="45.93961" lon="4.73749">
        <ele>172</ele>
        <time>2018-09-18T08:44:35Z</time>
      </trkpt>
      <trkpt lat="45.9396" lon="4.73756">
        <ele>172</ele>
        <time>2018-09-18T08:44:36Z</time>
      </trkpt>
      <trkpt lat="45.9396" lon="4.73762">
        <ele>172</ele>
        <time>2018-09-18T08:44:37Z</time>
      </trkpt>
      <trkpt lat="45.9396" lon="4.7377">
        <ele>172</ele>
        <time>2018-09-18T08:44:38Z</time>
      </trkpt>
      <trkpt lat="45.93959" lon="4.73776">
        <ele>172</ele>
        <time>2018-09-18T08:44:39Z</time>
      </trkpt>
      <trkpt lat="45.93958" lon="4.73783">
        <ele>172</ele>
        <time>2018-09-18T08:44:40Z</time>
      </trkpt>
      <trkpt lat="45.93956" lon="4.73789">
        <ele>172</ele>
        <time>2018-09-18T08:44:41Z</time>
      </trkpt>
      <trkpt lat="45.93956" lon="4.73795">
        <ele>172</ele>
        <time>2018-09-18T08:44:42Z</time>
      </trkpt>
      <trkpt lat="45.93955" lon="4.73802">
        <ele>172</ele>
        <time>2018-09-18T08:44:43Z</time>
      </trkpt>
      <trkpt lat="45.93955" lon="4.73809">
        <ele>172</ele>
        <time>2018-09-18T08:44:44Z</time>
      </trkpt>
      <trkpt lat="45.93953" lon="4.7382">
        <ele>172</ele>
        <time>2018-09-18T08:44:46Z</time>
      </trkpt>
      <trkpt lat="45.93952" lon="4.73827">
        <ele>172</ele>
        <time>2018-09-18T08:44:47Z</time>
      </trkpt>
      <trkpt lat="45.93951" lon="4.73834">
        <ele>172</ele>
        <time>2018-09-18T08:44:48Z</time>
      </trkpt>
      <trkpt lat="45.9395" lon="4.7384">
        <ele>172</ele>
        <time>2018-09-18T08:44:49Z</time>
      </trkpt>
      <trkpt lat="45.93953" lon="4.73846">
        <ele>172</ele>
        <time>2018-09-18T08:44:50Z</time>
      </trkpt>
      <trkpt lat="45.93952" lon="4.73853">
        <ele>172</ele>
        <time>2018-09-18T08:44:51Z</time>
      </trkpt>
      <trkpt lat="45.93952" lon="4.73862">
        <ele>172</ele>
        <time>2018-09-18T08:44:52Z</time>
      </trkpt>
      <trkpt lat="45.93951" lon="4.73868">
        <ele>172</ele>
        <time>2018-09-18T08:44:53Z</time>
      </trkpt>
      <trkpt lat="45.93948" lon="4.73878">
        <ele>172</ele>
        <time>2018-09-18T08:44:55Z</time>
      </trkpt>
      <trkpt lat="45.93947" lon="4.73884">
        <ele>172</ele>
        <time>2018-09-18T08:44:56Z</time>
      </trkpt>
      <trkpt lat="45.93946" lon="4.7389">
        <ele>172</ele>
        <time>2018-09-18T08:44:57Z</time>
      </trkpt>
      <trkpt lat="45.93946" lon="4.73897">
        <ele>172</ele>
        <time>2018-09-18T08:44:58Z</time>
      </trkpt>
      <trkpt lat="45.93945" lon="4.73904">
        <ele>172</ele>
        <time>2018-09-18T08:44:59Z</time>
      </trkpt>
      <trkpt lat="45.93945" lon="4.73911">
        <ele>172</ele>
        <time>2018-09-18T08:45:00Z</time>
      </trkpt>
      <trkpt lat="45.93944" lon="4.73922">
        <ele>172</ele>
        <time>2018-09-18T08:45:02Z</time>
      </trkpt>
      <trkpt lat="45.93943" lon="4.73927">
        <ele>172</ele>
        <time>2018-09-18T08:45:03Z</time>
      </trkpt>
      <trkpt lat="45.93941" lon="4.73937">
        <ele>172</ele>
        <time>2018-09-18T08:45:05Z</time>
      </trkpt>
      <trkpt lat="45.93939" lon="4.73943">
        <ele>172</ele>
        <time>2018-09-18T08:45:06Z</time>
      </trkpt>
      <trkpt lat="45.93936" lon="4.73952">
        <ele>172</ele>
        <time>2018-09-18T08:45:08Z</time>
      </trkpt>
      <trkpt lat="45.93935" lon="4.73957">
        <ele>172</ele>
        <time>2018-09-18T08:45:09Z</time>
      </trkpt>
      <trkpt lat="45.93935" lon="4.73967">
        <ele>172</ele>
        <time>2018-09-18T08:45:11Z</time>
      </trkpt>
      <trkpt lat="45.93935" lon="4.73973">
        <ele>172</ele>
        <time>2018-09-18T08:45:12Z</time>
      </trkpt>
      <trkpt lat="45.93934" lon="4.73984">
        <ele>172</ele>
        <time>2018-09-18T08:45:14Z</time>
      </trkpt>
      <trkpt lat="45.93933" lon="4.73987">
        <ele>172</ele>
        <time>2018-09-18T08:45:15Z</time>
      </trkpt>
      <trkpt lat="45.93932" lon="4.73995">
        <ele>172</ele>
        <time>2018-09-18T08:45:16Z</time>
      </trkpt>
      <trkpt lat="45.93931" lon="4.74002">
        <ele>171</ele>
        <time>2018-09-18T08:45:17Z</time>
      </trkpt>
      <trkpt lat="45.9393" lon="4.74009">
        <ele>171</ele>
        <time>2018-09-18T08:45:18Z</time>
      </trkpt>
      <trkpt lat="45.93928" lon="4.74014">
        <ele>171</ele>
        <time>2018-09-18T08:45:19Z</time>
      </trkpt>
      <trkpt lat="45.93926" lon="4.74022">
        <ele>171</ele>
        <time>2018-09-18T08:45:20Z</time>
      </trkpt>
      <trkpt lat="45.93926" lon="4.74027">
        <ele>171</ele>
        <time>2018-09-18T08:45:21Z</time>
      </trkpt>
      <trkpt lat="45.93926" lon="4.7404">
        <ele>171</ele>
        <time>2018-09-18T08:45:23Z</time>
      </trkpt>
      <trkpt lat="45.93925" lon="4.74045">
        <ele>171</ele>
        <time>2018-09-18T08:45:24Z</time>
      </trkpt>
      <trkpt lat="45.93925" lon="4.74056">
        <ele>171</ele>
        <time>2018-09-18T08:45:27Z</time>
      </trkpt>
      <trkpt lat="45.93922" lon="4.74065">
        <ele>170</ele>
        <time>2018-09-18T08:45:28Z</time>
      </trkpt>
      <trkpt lat="45.93922" lon="4.74074">
        <ele>170</ele>
        <time>2018-09-18T08:45:29Z</time>
      </trkpt>
      <trkpt lat="45.93922" lon="4.74081">
        <ele>170</ele>
        <time>2018-09-18T08:45:30Z</time>
      </trkpt>
      <trkpt lat="45.93921" lon="4.74092">
        <ele>170</ele>
        <time>2018-09-18T08:45:32Z</time>
      </trkpt>
      <trkpt lat="45.9392" lon="4.74099">
        <ele>169</ele>
        <time>2018-09-18T08:45:33Z</time>
      </trkpt>
      <trkpt lat="45.93921" lon="4.74111">
        <ele>169</ele>
        <time>2018-09-18T08:45:35Z</time>
      </trkpt>
      <trkpt lat="45.93922" lon="4.74118">
        <ele>169</ele>
        <time>2018-09-18T08:45:36Z</time>
      </trkpt>
      <trkpt lat="45.9392" lon="4.7413">
        <ele>169</ele>
        <time>2018-09-18T08:45:38Z</time>
      </trkpt>
      <trkpt lat="45.93919" lon="4.74136">
        <ele>169</ele>
        <time>2018-09-18T08:45:39Z</time>
      </trkpt>
      <trkpt lat="45.93918" lon="4.74142">
        <ele>169</ele>
        <time>2018-09-18T08:45:40Z</time>
      </trkpt>
      <trkpt lat="45.93917" lon="4.7415">
        <ele>169</ele>
        <time>2018-09-18T08:45:41Z</time>
      </trkpt>
      <trkpt lat="45.93916" lon="4.74157">
        <ele>169</ele>
        <time>2018-09-18T08:45:42Z</time>
      </trkpt>
      <trkpt lat="45.93916" lon="4.74164">
        <ele>168</ele>
        <time>2018-09-18T08:45:43Z</time>
      </trkpt>
      <trkpt lat="45.93916" lon="4.74175">
        <ele>168</ele>
        <time>2018-09-18T08:45:45Z</time>
      </trkpt>
      <trkpt lat="45.93915" lon="4.7418">
        <ele>169</ele>
        <time>2018-09-18T08:45:46Z</time>
      </trkpt>
      <trkpt lat="45.93914" lon="4.74191">
        <ele>169</ele>
        <time>2018-09-18T08:45:48Z</time>
      </trkpt>
      <trkpt lat="45.93914" lon="4.74198">
        <ele>169</ele>
        <time>2018-09-18T08:45:49Z</time>
      </trkpt>
      <trkpt lat="45.93913" lon="4.74205">
        <ele>169</ele>
        <time>2018-09-18T08:45:50Z</time>
      </trkpt>
      <trkpt lat="45.93913" lon="4.74211">
        <ele>169</ele>
        <time>2018-09-18T08:45:51Z</time>
      </trkpt>
      <trkpt lat="45.93912" lon="4.74223">
        <ele>170</ele>
        <time>2018-09-18T08:45:53Z</time>
      </trkpt>
      <trkpt lat="45.93911" lon="4.74228">
        <ele>170</ele>
        <time>2018-09-18T08:45:54Z</time>
      </trkpt>
      <trkpt lat="45.9391" lon="4.7424">
        <ele>170</ele>
        <time>2018-09-18T08:45:56Z</time>
      </trkpt>
      <trkpt lat="45.93909" lon="4.74246">
        <ele>170</ele>
        <time>2018-09-18T08:45:57Z</time>
      </trkpt>
      <trkpt lat="45.93908" lon="4.74254">
        <ele>170</ele>
        <time>2018-09-18T08:45:59Z</time>
      </trkpt>
      <trkpt lat="45.93908" lon="4.7426">
        <ele>170</ele>
        <time>2018-09-18T08:46:00Z</time>
      </trkpt>
      <trkpt lat="45.93908" lon="4.74266">
        <ele>170</ele>
        <time>2018-09-18T08:46:01Z</time>
      </trkpt>
      <trkpt lat="45.93908" lon="4.74273">
        <ele>170</ele>
        <time>2018-09-18T08:46:02Z</time>
      </trkpt>
      <trkpt lat="45.93909" lon="4.74283">
        <ele>170</ele>
        <time>2018-09-18T08:46:03Z</time>
      </trkpt>
      <trkpt lat="45.93908" lon="4.74289">
        <ele>170</ele>
        <time>2018-09-18T08:46:04Z</time>
      </trkpt>
      <trkpt lat="45.93909" lon="4.74301">
        <ele>170</ele>
        <time>2018-09-18T08:46:06Z</time>
      </trkpt>
      <trkpt lat="45.93909" lon="4.74307">
        <ele>170</ele>
        <time>2018-09-18T08:46:07Z</time>
      </trkpt>
      <trkpt lat="45.93908" lon="4.74318">
        <ele>170</ele>
        <time>2018-09-18T08:46:10Z</time>
      </trkpt>
      <trkpt lat="45.93908" lon="4.74326">
        <ele>170</ele>
        <time>2018-09-18T08:46:11Z</time>
      </trkpt>
      <trkpt lat="45.93909" lon="4.74337">
        <ele>170</ele>
        <time>2018-09-18T08:46:13Z</time>
      </trkpt>
      <trkpt lat="45.93909" lon="4.74343">
        <ele>170</ele>
        <time>2018-09-18T08:46:14Z</time>
      </trkpt>
      <trkpt lat="45.93909" lon="4.74355">
        <ele>171</ele>
        <time>2018-09-18T08:46:16Z</time>
      </trkpt>
      <trkpt lat="45.93909" lon="4.74362">
        <ele>171</ele>
        <time>2018-09-18T08:46:17Z</time>
      </trkpt>
      <trkpt lat="45.93909" lon="4.74373">
        <ele>171</ele>
        <time>2018-09-18T08:46:19Z</time>
      </trkpt>
      <trkpt lat="45.93909" lon="4.74376">
        <ele>171</ele>
        <time>2018-09-18T08:46:20Z</time>
      </trkpt>
      <trkpt lat="45.93909" lon="4.74379">
        <ele>171</ele>
        <time>2018-09-18T08:46:21Z</time>
      </trkpt>
      <trkpt lat="45.9391" lon="4.74389">
        <ele>171</ele>
        <time>2018-09-18T08:46:22Z</time>
      </trkpt>
      <trkpt lat="45.93913" lon="4.74401">
        <ele>171</ele>
        <time>2018-09-18T08:46:24Z</time>
      </trkpt>
      <trkpt lat="45.93913" lon="4.74407">
        <ele>171</ele>
        <time>2018-09-18T08:46:25Z</time>
      </trkpt>
      <trkpt lat="45.93914" lon="4.7442">
        <ele>171</ele>
        <time>2018-09-18T08:46:27Z</time>
      </trkpt>
      <trkpt lat="45.93914" lon="4.74425">
        <ele>171</ele>
        <time>2018-09-18T08:46:28Z</time>
      </trkpt>
      <trkpt lat="45.93914" lon="4.74435">
        <ele>171</ele>
        <time>2018-09-18T08:46:30Z</time>
      </trkpt>
      <trkpt lat="45.93915" lon="4.74443">
        <ele>171</ele>
        <time>2018-09-18T08:46:31Z</time>
      </trkpt>
      <trkpt lat="45.93916" lon="4.74455">
        <ele>171</ele>
        <time>2018-09-18T08:46:33Z</time>
      </trkpt>
      <trkpt lat="45.93915" lon="4.74462">
        <ele>171</ele>
        <time>2018-09-18T08:46:34Z</time>
      </trkpt>
      <trkpt lat="45.93914" lon="4.74474">
        <ele>171</ele>
        <time>2018-09-18T08:46:36Z</time>
      </trkpt>
      <trkpt lat="45.93914" lon="4.7448">
        <ele>171</ele>
        <time>2018-09-18T08:46:37Z</time>
      </trkpt>
      <trkpt lat="45.93914" lon="4.74491">
        <ele>170</ele>
        <time>2018-09-18T08:46:39Z</time>
      </trkpt>
      <trkpt lat="45.93913" lon="4.74496">
        <ele>170</ele>
        <time>2018-09-18T08:46:40Z</time>
      </trkpt>
      <trkpt lat="45.93913" lon="4.74507">
        <ele>170</ele>
        <time>2018-09-18T08:46:42Z</time>
      </trkpt>
      <trkpt lat="45.93912" lon="4.74511">
        <ele>170</ele>
        <time>2018-09-18T08:46:43Z</time>
      </trkpt>
      <trkpt lat="45.93912" lon="4.7452">
        <ele>170</ele>
        <time>2018-09-18T08:46:45Z</time>
      </trkpt>
      <trkpt lat="45.93912" lon="4.74528">
        <ele>170</ele>
        <time>2018-09-18T08:46:46Z</time>
      </trkpt>
      <trkpt lat="45.93911" lon="4.7454">
        <ele>170</ele>
        <time>2018-09-18T08:46:48Z</time>
      </trkpt>
      <trkpt lat="45.93911" lon="4.74547">
        <ele>170</ele>
        <time>2018-09-18T08:46:49Z</time>
      </trkpt>
      <trkpt lat="45.9391" lon="4.74559">
        <ele>170</ele>
        <time>2018-09-18T08:46:51Z</time>
      </trkpt>
      <trkpt lat="45.93909" lon="4.74568">
        <ele>170</ele>
        <time>2018-09-18T08:46:52Z</time>
      </trkpt>
      <trkpt lat="45.93909" lon="4.74574">
        <ele>170</ele>
        <time>2018-09-18T08:46:53Z</time>
      </trkpt>
      <trkpt lat="45.93905" lon="4.74582">
        <ele>170</ele>
        <time>2018-09-18T08:46:54Z</time>
      </trkpt>
      <trkpt lat="45.93903" lon="4.74588">
        <ele>170</ele>
        <time>2018-09-18T08:46:55Z</time>
      </trkpt>
      <trkpt lat="45.93901" lon="4.74595">
        <ele>170</ele>
        <time>2018-09-18T08:46:56Z</time>
      </trkpt>
      <trkpt lat="45.93898" lon="4.74604">
        <ele>170</ele>
        <time>2018-09-18T08:46:58Z</time>
      </trkpt>
      <trkpt lat="45.93898" lon="4.74609">
        <ele>170</ele>
        <time>2018-09-18T08:46:59Z</time>
      </trkpt>
      <trkpt lat="45.93894" lon="4.74621">
        <ele>170</ele>
        <time>2018-09-18T08:47:01Z</time>
      </trkpt>
      <trkpt lat="45.93892" lon="4.74627">
        <ele>170</ele>
        <time>2018-09-18T08:47:02Z</time>
      </trkpt>
      <trkpt lat="45.9389" lon="4.74633">
        <ele>170</ele>
        <time>2018-09-18T08:47:03Z</time>
      </trkpt>
      <trkpt lat="45.93888" lon="4.7464">
        <ele>170</ele>
        <time>2018-09-18T08:47:04Z</time>
      </trkpt>
      <trkpt lat="45.93886" lon="4.74647">
        <ele>170</ele>
        <time>2018-09-18T08:47:05Z</time>
      </trkpt>
      <trkpt lat="45.93884" lon="4.74653">
        <ele>170</ele>
        <time>2018-09-18T08:47:06Z</time>
      </trkpt>
      <trkpt lat="45.93881" lon="4.74664">
        <ele>170</ele>
        <time>2018-09-18T08:47:08Z</time>
      </trkpt>
      <trkpt lat="45.93878" lon="4.74671">
        <ele>170</ele>
        <time>2018-09-18T08:47:09Z</time>
      </trkpt>
      <trkpt lat="45.93876" lon="4.74677">
        <ele>170</ele>
        <time>2018-09-18T08:47:10Z</time>
      </trkpt>
      <trkpt lat="45.93873" lon="4.74684">
        <ele>170</ele>
        <time>2018-09-18T08:47:11Z</time>
      </trkpt>
      <trkpt lat="45.93871" lon="4.7469">
        <ele>170</ele>
        <time>2018-09-18T08:47:12Z</time>
      </trkpt>
      <trkpt lat="45.93868" lon="4.74695">
        <ele>169</ele>
        <time>2018-09-18T08:47:13Z</time>
      </trkpt>
      <trkpt lat="45.93865" lon="4.74706">
        <ele>169</ele>
        <time>2018-09-18T08:47:15Z</time>
      </trkpt>
      <trkpt lat="45.93862" lon="4.74711">
        <ele>169</ele>
        <time>2018-09-18T08:47:16Z</time>
      </trkpt>
      <trkpt lat="45.93858" lon="4.74721">
        <ele>169</ele>
        <time>2018-09-18T08:47:18Z</time>
      </trkpt>
      <trkpt lat="45.93857" lon="4.74726">
        <ele>169</ele>
        <time>2018-09-18T08:47:19Z</time>
      </trkpt>
      <trkpt lat="45.93855" lon="4.74732">
        <ele>169</ele>
        <time>2018-09-18T08:47:20Z</time>
      </trkpt>
      <trkpt lat="45.9385" lon="4.74737">
        <ele>169</ele>
        <time>2018-09-18T08:47:21Z</time>
      </trkpt>
      <trkpt lat="45.93848" lon="4.74744">
        <ele>169</ele>
        <time>2018-09-18T08:47:22Z</time>
      </trkpt>
      <trkpt lat="45.93845" lon="4.7475">
        <ele>168</ele>
        <time>2018-09-18T08:47:23Z</time>
      </trkpt>
      <trkpt lat="45.93842" lon="4.74756">
        <ele>168</ele>
        <time>2018-09-18T08:47:24Z</time>
      </trkpt>
      <trkpt lat="45.9384" lon="4.74761">
        <ele>168</ele>
        <time>2018-09-18T08:47:25Z</time>
      </trkpt>
      <trkpt lat="45.93837" lon="4.74768">
        <ele>168</ele>
        <time>2018-09-18T08:47:27Z</time>
      </trkpt>
      <trkpt lat="45.93834" lon="4.74778">
        <ele>168</ele>
        <time>2018-09-18T08:47:28Z</time>
      </trkpt>
      <trkpt lat="45.93831" lon="4.74782">
        <ele>167</ele>
        <time>2018-09-18T08:47:29Z</time>
      </trkpt>
      <trkpt lat="45.93827" lon="4.74789">
        <ele>167</ele>
        <time>2018-09-18T08:47:30Z</time>
      </trkpt>
      <trkpt lat="45.93823" lon="4.74799">
        <ele>167</ele>
        <time>2018-09-18T08:47:32Z</time>
      </trkpt>
      <trkpt lat="45.9382" lon="4.74804">
        <ele>167</ele>
        <time>2018-09-18T08:47:33Z</time>
      </trkpt>
      <trkpt lat="45.93814" lon="4.74812">
        <ele>167</ele>
        <time>2018-09-18T08:47:35Z</time>
      </trkpt>
      <trkpt lat="45.93811" lon="4.74817">
        <ele>167</ele>
        <time>2018-09-18T08:47:36Z</time>
      </trkpt>
      <trkpt lat="45.93804" lon="4.74823">
        <ele>167</ele>
        <time>2018-09-18T08:47:38Z</time>
      </trkpt>
      <trkpt lat="45.93801" lon="4.74828">
        <ele>167</ele>
        <time>2018-09-18T08:47:39Z</time>
      </trkpt>
      <trkpt lat="45.93796" lon="4.74838">
        <ele>168</ele>
        <time>2018-09-18T08:47:41Z</time>
      </trkpt>
      <trkpt lat="45.93793" lon="4.74845">
        <ele>168</ele>
        <time>2018-09-18T08:47:42Z</time>
      </trkpt>
      <trkpt lat="45.9379" lon="4.74851">
        <ele>168</ele>
        <time>2018-09-18T08:47:43Z</time>
      </trkpt>
      <trkpt lat="45.93787" lon="4.74855">
        <ele>168</ele>
        <time>2018-09-18T08:47:44Z</time>
      </trkpt>
      <trkpt lat="45.93783" lon="4.74863">
        <ele>168</ele>
        <time>2018-09-18T08:47:46Z</time>
      </trkpt>
      <trkpt lat="45.93782" lon="4.74866">
        <ele>168</ele>
        <time>2018-09-18T08:47:47Z</time>
      </trkpt>
      <trkpt lat="45.93778" lon="4.74872">
        <ele>168</ele>
        <time>2018-09-18T08:47:48Z</time>
      </trkpt>
      <trkpt lat="45.93776" lon="4.74877">
        <ele>169</ele>
        <time>2018-09-18T08:47:49Z</time>
      </trkpt>
      <trkpt lat="45.93771" lon="4.74888">
        <ele>169</ele>
        <time>2018-09-18T08:47:51Z</time>
      </trkpt>
      <trkpt lat="45.93769" lon="4.74893">
        <ele>169</ele>
        <time>2018-09-18T08:47:52Z</time>
      </trkpt>
      <trkpt lat="45.93765" lon="4.74903">
        <ele>170</ele>
        <time>2018-09-18T08:47:54Z</time>
      </trkpt>
      <trkpt lat="45.93763" lon="4.74909">
        <ele>170</ele>
        <time>2018-09-18T08:47:55Z</time>
      </trkpt>
      <trkpt lat="45.93758" lon="4.74917">
        <ele>171</ele>
        <time>2018-09-18T08:47:57Z</time>
      </trkpt>
      <trkpt lat="45.93755" lon="4.74922">
        <ele>171</ele>
        <time>2018-09-18T08:47:58Z</time>
      </trkpt>
      <trkpt lat="45.93749" lon="4.74932">
        <ele>170</ele>
        <time>2018-09-18T08:48:00Z</time>
      </trkpt>
      <trkpt lat="45.93749" lon="4.74941">
        <ele>169</ele>
        <time>2018-09-18T08:48:01Z</time>
      </trkpt>
      <trkpt lat="45.93744" lon="4.7495">
        <ele>169</ele>
        <time>2018-09-18T08:48:03Z</time>
      </trkpt>
      <trkpt lat="45.93742" lon="4.74954">
        <ele>169</ele>
        <time>2018-09-18T08:48:04Z</time>
      </trkpt>
      <trkpt lat="45.93738" lon="4.74964">
        <ele>169</ele>
        <time>2018-09-18T08:48:06Z</time>
      </trkpt>
      <trkpt lat="45.93734" lon="4.74968">
        <ele>168</ele>
        <time>2018-09-18T08:48:07Z</time>
      </trkpt>
      <trkpt lat="45.93731" lon="4.74973">
        <ele>168</ele>
        <time>2018-09-18T08:48:08Z</time>
      </trkpt>
      <trkpt lat="45.93728" lon="4.74978">
        <ele>168</ele>
        <time>2018-09-18T08:48:09Z</time>
      </trkpt>
      <trkpt lat="45.93723" lon="4.74988">
        <ele>168</ele>
        <time>2018-09-18T08:48:11Z</time>
      </trkpt>
      <trkpt lat="45.9372" lon="4.74995">
        <ele>168</ele>
        <time>2018-09-18T08:48:12Z</time>
      </trkpt>
      <trkpt lat="45.93716" lon="4.75006">
        <ele>168</ele>
        <time>2018-09-18T08:48:14Z</time>
      </trkpt>
      <trkpt lat="45.93715" lon="4.75012">
        <ele>167</ele>
        <time>2018-09-18T08:48:15Z</time>
      </trkpt>
      <trkpt lat="45.93713" lon="4.75019">
        <ele>167</ele>
        <time>2018-09-18T08:48:16Z</time>
      </trkpt>
      <trkpt lat="45.93711" lon="4.75024">
        <ele>167</ele>
        <time>2018-09-18T08:48:17Z</time>
      </trkpt>
      <trkpt lat="45.93707" lon="4.75035">
        <ele>167</ele>
        <time>2018-09-18T08:48:19Z</time>
      </trkpt>
      <trkpt lat="45.93705" lon="4.7504">
        <ele>167</ele>
        <time>2018-09-18T08:48:20Z</time>
      </trkpt>
      <trkpt lat="45.937" lon="4.75049">
        <ele>167</ele>
        <time>2018-09-18T08:48:23Z</time>
      </trkpt>
      <trkpt lat="45.93699" lon="4.75052">
        <ele>167</ele>
        <time>2018-09-18T08:48:24Z</time>
      </trkpt>
      <trkpt lat="45.93694" lon="4.75062">
        <ele>167</ele>
        <time>2018-09-18T08:48:25Z</time>
      </trkpt>
      <trkpt lat="45.93691" lon="4.75068">
        <ele>167</ele>
        <time>2018-09-18T08:48:26Z</time>
      </trkpt>
      <trkpt lat="45.93688" lon="4.75075">
        <ele>167</ele>
        <time>2018-09-18T08:48:27Z</time>
      </trkpt>
      <trkpt lat="45.93685" lon="4.7508">
        <ele>167</ele>
        <time>2018-09-18T08:48:28Z</time>
      </trkpt>
      <trkpt lat="45.93681" lon="4.7509">
        <ele>168</ele>
        <time>2018-09-18T08:48:30Z</time>
      </trkpt>
      <trkpt lat="45.93678" lon="4.75094">
        <ele>168</ele>
        <time>2018-09-18T08:48:31Z</time>
      </trkpt>
      <trkpt lat="45.93672" lon="4.75102">
        <ele>168</ele>
        <time>2018-09-18T08:48:33Z</time>
      </trkpt>
      <trkpt lat="45.93669" lon="4.75107">
        <ele>168</ele>
        <time>2018-09-18T08:48:34Z</time>
      </trkpt>
      <trkpt lat="45.93667" lon="4.75113">
        <ele>167</ele>
        <time>2018-09-18T08:48:35Z</time>
      </trkpt>
      <trkpt lat="45.93664" lon="4.75119">
        <ele>168</ele>
        <time>2018-09-18T08:48:36Z</time>
      </trkpt>
      <trkpt lat="45.93661" lon="4.75125">
        <ele>168</ele>
        <time>2018-09-18T08:48:37Z</time>
      </trkpt>
      <trkpt lat="45.93658" lon="4.75132">
        <ele>168</ele>
        <time>2018-09-18T08:48:38Z</time>
      </trkpt>
      <trkpt lat="45.93657" lon="4.75139">
        <ele>168</ele>
        <time>2018-09-18T08:48:39Z</time>
      </trkpt>
      <trkpt lat="45.93655" lon="4.75146">
        <ele>168</ele>
        <time>2018-09-18T08:48:40Z</time>
      </trkpt>
      <trkpt lat="45.9365" lon="4.75155">
        <ele>168</ele>
        <time>2018-09-18T08:48:43Z</time>
      </trkpt>
      <trkpt lat="45.93647" lon="4.75167">
        <ele>169</ele>
        <time>2018-09-18T08:48:44Z</time>
      </trkpt>
      <trkpt lat="45.93642" lon="4.75177">
        <ele>168</ele>
        <time>2018-09-18T08:48:46Z</time>
      </trkpt>
      <trkpt lat="45.93639" lon="4.75183">
        <ele>168</ele>
        <time>2018-09-18T08:48:47Z</time>
      </trkpt>
      <trkpt lat="45.93634" lon="4.75194">
        <ele>168</ele>
        <time>2018-09-18T08:48:49Z</time>
      </trkpt>
      <trkpt lat="45.93632" lon="4.75201">
        <ele>168</ele>
        <time>2018-09-18T08:48:50Z</time>
      </trkpt>
      <trkpt lat="45.93629" lon="4.75212">
        <ele>168</ele>
        <time>2018-09-18T08:48:52Z</time>
      </trkpt>
      <trkpt lat="45.93627" lon="4.75218">
        <ele>167</ele>
        <time>2018-09-18T08:48:53Z</time>
      </trkpt>
      <trkpt lat="45.93622" lon="4.75228">
        <ele>167</ele>
        <time>2018-09-18T08:48:55Z</time>
      </trkpt>
      <trkpt lat="45.9362" lon="4.75233">
        <ele>167</ele>
        <time>2018-09-18T08:48:56Z</time>
      </trkpt>
      <trkpt lat="45.93618" lon="4.75244">
        <ele>167</ele>
        <time>2018-09-18T08:48:59Z</time>
      </trkpt>
      <trkpt lat="45.93617" lon="4.75247">
        <ele>167</ele>
        <time>2018-09-18T08:49:00Z</time>
      </trkpt>
      <trkpt lat="45.93615" lon="4.75257">
        <ele>168</ele>
        <time>2018-09-18T08:49:01Z</time>
      </trkpt>
      <trkpt lat="45.93613" lon="4.75262">
        <ele>168</ele>
        <time>2018-09-18T08:49:02Z</time>
      </trkpt>
      <trkpt lat="45.93612" lon="4.75273">
        <ele>168</ele>
        <time>2018-09-18T08:49:03Z</time>
      </trkpt>
      <trkpt lat="45.93611" lon="4.75281">
        <ele>168</ele>
        <time>2018-09-18T08:49:04Z</time>
      </trkpt>
      <trkpt lat="45.93611" lon="4.75289">
        <ele>168</ele>
        <time>2018-09-18T08:49:05Z</time>
      </trkpt>
      <trkpt lat="45.93609" lon="4.75296">
        <ele>168</ele>
        <time>2018-09-18T08:49:06Z</time>
      </trkpt>
      <trkpt lat="45.93607" lon="4.75303">
        <ele>168</ele>
        <time>2018-09-18T08:49:07Z</time>
      </trkpt>
      <trkpt lat="45.93607" lon="4.75309">
        <ele>169</ele>
        <time>2018-09-18T08:49:08Z</time>
      </trkpt>
      <trkpt lat="45.93606" lon="4.75314">
        <ele>169</ele>
        <time>2018-09-18T08:49:10Z</time>
      </trkpt>
      <trkpt lat="45.93604" lon="4.75328">
        <ele>169</ele>
        <time>2018-09-18T08:49:11Z</time>
      </trkpt>
      <trkpt lat="45.93604" lon="4.7533">
        <ele>169</ele>
        <time>2018-09-18T08:49:12Z</time>
      </trkpt>
      <trkpt lat="45.93602" lon="4.7534">
        <ele>169</ele>
        <time>2018-09-18T08:49:13Z</time>
      </trkpt>
      <trkpt lat="45.93601" lon="4.75348">
        <ele>169</ele>
        <time>2018-09-18T08:49:15Z</time>
      </trkpt>
      <trkpt lat="45.93599" lon="4.75359">
        <ele>169</ele>
        <time>2018-09-18T08:49:16Z</time>
      </trkpt>
      <trkpt lat="45.93598" lon="4.75365">
        <ele>169</ele>
        <time>2018-09-18T08:49:17Z</time>
      </trkpt>
      <trkpt lat="45.93596" lon="4.75372">
        <ele>169</ele>
        <time>2018-09-18T08:49:18Z</time>
      </trkpt>
      <trkpt lat="45.93596" lon="4.75379">
        <ele>169</ele>
        <time>2018-09-18T08:49:19Z</time>
      </trkpt>
      <trkpt lat="45.93596" lon="4.75387">
        <ele>169</ele>
        <time>2018-09-18T08:49:20Z</time>
      </trkpt>
      <trkpt lat="45.93594" lon="4.75394">
        <ele>169</ele>
        <time>2018-09-18T08:49:21Z</time>
      </trkpt>
      <trkpt lat="45.93593" lon="4.75399">
        <ele>169</ele>
        <time>2018-09-18T08:49:22Z</time>
      </trkpt>
      <trkpt lat="45.9359" lon="4.75406">
        <ele>168</ele>
        <time>2018-09-18T08:49:23Z</time>
      </trkpt>
      <trkpt lat="45.93588" lon="4.75411">
        <ele>168</ele>
        <time>2018-09-18T08:49:24Z</time>
      </trkpt>
      <trkpt lat="45.93586" lon="4.7542">
        <ele>168</ele>
        <time>2018-09-18T08:49:26Z</time>
      </trkpt>
      <trkpt lat="45.93584" lon="4.75427">
        <ele>168</ele>
        <time>2018-09-18T08:49:27Z</time>
      </trkpt>
      <trkpt lat="45.93579" lon="4.75433">
        <ele>168</ele>
        <time>2018-09-18T08:49:29Z</time>
      </trkpt>
      <trkpt lat="45.93579" lon="4.75443">
        <ele>168</ele>
        <time>2018-09-18T08:49:30Z</time>
      </trkpt>
      <trkpt lat="45.93575" lon="4.75455">
        <ele>168</ele>
        <time>2018-09-18T08:49:32Z</time>
      </trkpt>
      <trkpt lat="45.93573" lon="4.75461">
        <ele>168</ele>
        <time>2018-09-18T08:49:33Z</time>
      </trkpt>
      <trkpt lat="45.93571" lon="4.75472">
        <ele>168</ele>
        <time>2018-09-18T08:49:36Z</time>
      </trkpt>
      <trkpt lat="45.9357" lon="4.75475">
        <ele>168</ele>
        <time>2018-09-18T08:49:37Z</time>
      </trkpt>
      <trkpt lat="45.93568" lon="4.75489">
        <ele>169</ele>
        <time>2018-09-18T08:49:38Z</time>
      </trkpt>
      <trkpt lat="45.93568" lon="4.75496">
        <ele>169</ele>
        <time>2018-09-18T08:49:39Z</time>
      </trkpt>
      <trkpt lat="45.93569" lon="4.75504">
        <ele>169</ele>
        <time>2018-09-18T08:49:40Z</time>
      </trkpt>
      <trkpt lat="45.93568" lon="4.75511">
        <ele>169</ele>
        <time>2018-09-18T08:49:41Z</time>
      </trkpt>
      <trkpt lat="45.93567" lon="4.75517">
        <ele>169</ele>
        <time>2018-09-18T08:49:42Z</time>
      </trkpt>
      <trkpt lat="45.93566" lon="4.75522">
        <ele>169</ele>
        <time>2018-09-18T08:49:43Z</time>
      </trkpt>
      <trkpt lat="45.93564" lon="4.75531">
        <ele>169</ele>
        <time>2018-09-18T08:49:44Z</time>
      </trkpt>
      <trkpt lat="45.93563" lon="4.75535">
        <ele>169</ele>
        <time>2018-09-18T08:49:45Z</time>
      </trkpt>
      <trkpt lat="45.93562" lon="4.75545">
        <ele>169</ele>
        <time>2018-09-18T08:49:46Z</time>
      </trkpt>
      <trkpt lat="45.9356" lon="4.75549">
        <ele>169</ele>
        <time>2018-09-18T08:49:47Z</time>
      </trkpt>
      <trkpt lat="45.93558" lon="4.75558">
        <ele>169</ele>
        <time>2018-09-18T08:49:48Z</time>
      </trkpt>
      <trkpt lat="45.93556" lon="4.75565">
        <ele>169</ele>
        <time>2018-09-18T08:49:49Z</time>
      </trkpt>
      <trkpt lat="45.93555" lon="4.75573">
        <ele>169</ele>
        <time>2018-09-18T08:49:50Z</time>
      </trkpt>
      <trkpt lat="45.93554" lon="4.75581">
        <ele>169</ele>
        <time>2018-09-18T08:49:51Z</time>
      </trkpt>
      <trkpt lat="45.93553" lon="4.75589">
        <ele>170</ele>
        <time>2018-09-18T08:49:52Z</time>
      </trkpt>
      <trkpt lat="45.93551" lon="4.75601">
        <ele>170</ele>
        <time>2018-09-18T08:49:54Z</time>
      </trkpt>
      <trkpt lat="45.9355" lon="4.75606">
        <ele>170</ele>
        <time>2018-09-18T08:49:55Z</time>
      </trkpt>
      <trkpt lat="45.9355" lon="4.75619">
        <ele>170</ele>
        <time>2018-09-18T08:49:57Z</time>
      </trkpt>
      <trkpt lat="45.93549" lon="4.75627">
        <ele>170</ele>
        <time>2018-09-18T08:49:58Z</time>
      </trkpt>
      <trkpt lat="45.93548" lon="4.75634">
        <ele>170</ele>
        <time>2018-09-18T08:49:59Z</time>
      </trkpt>
      <trkpt lat="45.93548" lon="4.75642">
        <ele>170</ele>
        <time>2018-09-18T08:50:00Z</time>
      </trkpt>
      <trkpt lat="45.93547" lon="4.75648">
        <ele>170</ele>
        <time>2018-09-18T08:50:01Z</time>
      </trkpt>
      <trkpt lat="45.93546" lon="4.75656">
        <ele>170</ele>
        <time>2018-09-18T08:50:02Z</time>
      </trkpt>
      <trkpt lat="45.93546" lon="4.75662">
        <ele>170</ele>
        <time>2018-09-18T08:50:03Z</time>
      </trkpt>
      <trkpt lat="45.93545" lon="4.75669">
        <ele>170</ele>
        <time>2018-09-18T08:50:04Z</time>
      </trkpt>
      <trkpt lat="45.93544" lon="4.75676">
        <ele>170</ele>
        <time>2018-09-18T08:50:05Z</time>
      </trkpt>
      <trkpt lat="45.93545" lon="4.75682">
        <ele>170</ele>
        <time>2018-09-18T08:50:06Z</time>
      </trkpt>
      <trkpt lat="45.93545" lon="4.75689">
        <ele>170</ele>
        <time>2018-09-18T08:50:08Z</time>
      </trkpt>
      <trkpt lat="45.93541" lon="4.75695">
        <ele>170</ele>
        <time>2018-09-18T08:50:09Z</time>
      </trkpt>
      <trkpt lat="45.9354" lon="4.75705">
        <ele>170</ele>
        <time>2018-09-18T08:50:11Z</time>
      </trkpt>
      <trkpt lat="45.9354" lon="4.75713">
        <ele>170</ele>
        <time>2018-09-18T08:50:12Z</time>
      </trkpt>
      <trkpt lat="45.93539" lon="4.75723">
        <ele>170</ele>
        <time>2018-09-18T08:50:13Z</time>
      </trkpt>
      <trkpt lat="45.93537" lon="4.75729">
        <ele>170</ele>
        <time>2018-09-18T08:50:14Z</time>
      </trkpt>
      <trkpt lat="45.93535" lon="4.75735">
        <ele>170</ele>
        <time>2018-09-18T08:50:15Z</time>
      </trkpt>
      <trkpt lat="45.93534" lon="4.75743">
        <ele>169</ele>
        <time>2018-09-18T08:50:16Z</time>
      </trkpt>
      <trkpt lat="45.93535" lon="4.75753">
        <ele>169</ele>
        <time>2018-09-18T08:50:17Z</time>
      </trkpt>
      <trkpt lat="45.93532" lon="4.7576">
        <ele>169</ele>
        <time>2018-09-18T08:50:18Z</time>
      </trkpt>
      <trkpt lat="45.9353" lon="4.75766">
        <ele>169</ele>
        <time>2018-09-18T08:50:19Z</time>
      </trkpt>
      <trkpt lat="45.93531" lon="4.75773">
        <ele>169</ele>
        <time>2018-09-18T08:50:20Z</time>
      </trkpt>
      <trkpt lat="45.9353" lon="4.75783">
        <ele>169</ele>
        <time>2018-09-18T08:50:22Z</time>
      </trkpt>
      <trkpt lat="45.93526" lon="4.7579">
        <ele>169</ele>
        <time>2018-09-18T08:50:23Z</time>
      </trkpt>
      <trkpt lat="45.93525" lon="4.75797">
        <ele>169</ele>
        <time>2018-09-18T08:50:24Z</time>
      </trkpt>
      <trkpt lat="45.93523" lon="4.75802">
        <ele>169</ele>
        <time>2018-09-18T08:50:25Z</time>
      </trkpt>
      <trkpt lat="45.93523" lon="4.7581">
        <ele>169</ele>
        <time>2018-09-18T08:50:26Z</time>
      </trkpt>
      <trkpt lat="45.93524" lon="4.75816">
        <ele>169</ele>
        <time>2018-09-18T08:50:27Z</time>
      </trkpt>
      <trkpt lat="45.93523" lon="4.75825">
        <ele>168</ele>
        <time>2018-09-18T08:50:28Z</time>
      </trkpt>
      <trkpt lat="45.93524" lon="4.7583">
        <ele>168</ele>
        <time>2018-09-18T08:50:29Z</time>
      </trkpt>
      <trkpt lat="45.93527" lon="4.75838">
        <ele>168</ele>
        <time>2018-09-18T08:50:30Z</time>
      </trkpt>
      <trkpt lat="45.93527" lon="4.75844">
        <ele>168</ele>
        <time>2018-09-18T08:50:31Z</time>
      </trkpt>
      <trkpt lat="45.93528" lon="4.75853">
        <ele>168</ele>
        <time>2018-09-18T08:50:33Z</time>
      </trkpt>
      <trkpt lat="45.93531" lon="4.75861">
        <ele>168</ele>
        <time>2018-09-18T08:50:34Z</time>
      </trkpt>
      <trkpt lat="45.93533" lon="4.75871">
        <ele>168</ele>
        <time>2018-09-18T08:50:36Z</time>
      </trkpt>
      <trkpt lat="45.93536" lon="4.75876">
        <ele>169</ele>
        <time>2018-09-18T08:50:37Z</time>
      </trkpt>
      <trkpt lat="45.93539" lon="4.75888">
        <ele>169</ele>
        <time>2018-09-18T08:50:39Z</time>
      </trkpt>
      <trkpt lat="45.9354" lon="4.75894">
        <ele>169</ele>
        <time>2018-09-18T08:50:40Z</time>
      </trkpt>
      <trkpt lat="45.93543" lon="4.75901">
        <ele>169</ele>
        <time>2018-09-18T08:50:42Z</time>
      </trkpt>
      <trkpt lat="45.93544" lon="4.75908">
        <ele>169</ele>
        <time>2018-09-18T08:50:43Z</time>
      </trkpt>
      <trkpt lat="45.93544" lon="4.7592">
        <ele>168</ele>
        <time>2018-09-18T08:50:45Z</time>
      </trkpt>
      <trkpt lat="45.93545" lon="4.75925">
        <ele>168</ele>
        <time>2018-09-18T08:50:46Z</time>
      </trkpt>
      <trkpt lat="45.93549" lon="4.75935">
        <ele>169</ele>
        <time>2018-09-18T08:50:48Z</time>
      </trkpt>
      <trkpt lat="45.93551" lon="4.7594">
        <ele>169</ele>
        <time>2018-09-18T08:50:49Z</time>
      </trkpt>
      <trkpt lat="45.93555" lon="4.7595">
        <ele>169</ele>
        <time>2018-09-18T08:50:51Z</time>
      </trkpt>
      <trkpt lat="45.93556" lon="4.75954">
        <ele>169</ele>
        <time>2018-09-18T08:50:52Z</time>
      </trkpt>
      <trkpt lat="45.9356" lon="4.75962">
        <ele>169</ele>
        <time>2018-09-18T08:50:54Z</time>
      </trkpt>
      <trkpt lat="45.93563" lon="4.7597">
        <ele>169</ele>
        <time>2018-09-18T08:50:55Z</time>
      </trkpt>
      <trkpt lat="45.93564" lon="4.75975">
        <ele>169</ele>
        <time>2018-09-18T08:50:57Z</time>
      </trkpt>
      <trkpt lat="45.93566" lon="4.75984">
        <ele>170</ele>
        <time>2018-09-18T08:50:58Z</time>
      </trkpt>
      <trkpt lat="45.93569" lon="4.75995">
        <ele>170</ele>
        <time>2018-09-18T08:51:00Z</time>
      </trkpt>
      <trkpt lat="45.9357" lon="4.76">
        <ele>171</ele>
        <time>2018-09-18T08:51:01Z</time>
      </trkpt>
      <trkpt lat="45.93574" lon="4.76011">
        <ele>170</ele>
        <time>2018-09-18T08:51:04Z</time>
      </trkpt>
      <trkpt lat="45.93577" lon="4.7602">
        <ele>170</ele>
        <time>2018-09-18T08:51:05Z</time>
      </trkpt>
      <trkpt lat="45.93581" lon="4.76031">
        <ele>170</ele>
        <time>2018-09-18T08:51:07Z</time>
      </trkpt>
      <trkpt lat="45.93582" lon="4.76036">
        <ele>170</ele>
        <time>2018-09-18T08:51:08Z</time>
      </trkpt>
      <trkpt lat="45.93586" lon="4.76047">
        <ele>170</ele>
        <time>2018-09-18T08:51:10Z</time>
      </trkpt>
      <trkpt lat="45.93587" lon="4.76053">
        <ele>170</ele>
        <time>2018-09-18T08:51:11Z</time>
      </trkpt>
      <trkpt lat="45.9359" lon="4.76065">
        <ele>170</ele>
        <time>2018-09-18T08:51:13Z</time>
      </trkpt>
      <trkpt lat="45.93592" lon="4.76071">
        <ele>170</ele>
        <time>2018-09-18T08:51:14Z</time>
      </trkpt>
      <trkpt lat="45.93595" lon="4.76077">
        <ele>170</ele>
        <time>2018-09-18T08:51:15Z</time>
      </trkpt>
      <trkpt lat="45.93597" lon="4.76082">
        <ele>170</ele>
        <time>2018-09-18T08:51:16Z</time>
      </trkpt>
      <trkpt lat="45.936" lon="4.76087">
        <ele>170</ele>
        <time>2018-09-18T08:51:17Z</time>
      </trkpt>
      <trkpt lat="45.93603" lon="4.76092">
        <ele>170</ele>
        <time>2018-09-18T08:51:18Z</time>
      </trkpt>
      <trkpt lat="45.93605" lon="4.76098">
        <ele>170</ele>
        <time>2018-09-18T08:51:19Z</time>
      </trkpt>
      <trkpt lat="45.93608" lon="4.76105">
        <ele>170</ele>
        <time>2018-09-18T08:51:20Z</time>
      </trkpt>
      <trkpt lat="45.93609" lon="4.7611">
        <ele>169</ele>
        <time>2018-09-18T08:51:22Z</time>
      </trkpt>
      <trkpt lat="45.93611" lon="4.76119">
        <ele>169</ele>
        <time>2018-09-18T08:51:23Z</time>
      </trkpt>
      <trkpt lat="45.93613" lon="4.76129">
        <ele>169</ele>
        <time>2018-09-18T08:51:25Z</time>
      </trkpt>
      <trkpt lat="45.93616" lon="4.76134">
        <ele>169</ele>
        <time>2018-09-18T08:51:26Z</time>
      </trkpt>
      <trkpt lat="45.93619" lon="4.76144">
        <ele>169</ele>
        <time>2018-09-18T08:51:28Z</time>
      </trkpt>
      <trkpt lat="45.93621" lon="4.76148">
        <ele>169</ele>
        <time>2018-09-18T08:51:29Z</time>
      </trkpt>
      <trkpt lat="45.93626" lon="4.76157">
        <ele>169</ele>
        <time>2018-09-18T08:51:31Z</time>
      </trkpt>
      <trkpt lat="45.93626" lon="4.7616">
        <ele>169</ele>
        <time>2018-09-18T08:51:32Z</time>
      </trkpt>
      <trkpt lat="45.93627" lon="4.76164">
        <ele>169</ele>
        <time>2018-09-18T08:51:33Z</time>
      </trkpt>
      <trkpt lat="45.93629" lon="4.76174">
        <ele>169</ele>
        <time>2018-09-18T08:51:34Z</time>
      </trkpt>
      <trkpt lat="45.93632" lon="4.7618">
        <ele>169</ele>
        <time>2018-09-18T08:51:35Z</time>
      </trkpt>
      <trkpt lat="45.93635" lon="4.76185">
        <ele>169</ele>
        <time>2018-09-18T08:51:36Z</time>
      </trkpt>
      <trkpt lat="45.93637" lon="4.76192">
        <ele>169</ele>
        <time>2018-09-18T08:51:37Z</time>
      </trkpt>
      <trkpt lat="45.93639" lon="4.76198">
        <ele>169</ele>
        <time>2018-09-18T08:51:38Z</time>
      </trkpt>
      <trkpt lat="45.93642" lon="4.7621">
        <ele>169</ele>
        <time>2018-09-18T08:51:40Z</time>
      </trkpt>
      <trkpt lat="45.93644" lon="4.76217">
        <ele>169</ele>
        <time>2018-09-18T08:51:41Z</time>
      </trkpt>
      <trkpt lat="45.93646" lon="4.76224">
        <ele>169</ele>
        <time>2018-09-18T08:51:42Z</time>
      </trkpt>
      <trkpt lat="45.93647" lon="4.7623">
        <ele>169</ele>
        <time>2018-09-18T08:51:43Z</time>
      </trkpt>
      <trkpt lat="45.93652" lon="4.76239">
        <ele>169</ele>
        <time>2018-09-18T08:51:45Z</time>
      </trkpt>
      <trkpt lat="45.93654" lon="4.76243">
        <ele>169</ele>
        <time>2018-09-18T08:51:46Z</time>
      </trkpt>
      <trkpt lat="45.93654" lon="4.76252">
        <ele>169</ele>
        <time>2018-09-18T08:51:48Z</time>
      </trkpt>
      <trkpt lat="45.93656" lon="4.76259">
        <ele>169</ele>
        <time>2018-09-18T08:51:49Z</time>
      </trkpt>
      <trkpt lat="45.9366" lon="4.76269">
        <ele>169</ele>
        <time>2018-09-18T08:51:52Z</time>
      </trkpt>
      <trkpt lat="45.93664" lon="4.76278">
        <ele>169</ele>
        <time>2018-09-18T08:51:53Z</time>
      </trkpt>
      <trkpt lat="45.93667" lon="4.76289">
        <ele>169</ele>
        <time>2018-09-18T08:51:55Z</time>
      </trkpt>
      <trkpt lat="45.93669" lon="4.76296">
        <ele>170</ele>
        <time>2018-09-18T08:51:56Z</time>
      </trkpt>
      <trkpt lat="45.93673" lon="4.76307">
        <ele>170</ele>
        <time>2018-09-18T08:51:58Z</time>
      </trkpt>
      <trkpt lat="45.93677" lon="4.76315">
        <ele>170</ele>
        <time>2018-09-18T08:51:59Z</time>
      </trkpt>
      <trkpt lat="45.93682" lon="4.76322">
        <ele>170</ele>
        <time>2018-09-18T08:52:00Z</time>
      </trkpt>
      <trkpt lat="45.93683" lon="4.76327">
        <ele>170</ele>
        <time>2018-09-18T08:52:01Z</time>
      </trkpt>
      <trkpt lat="45.93688" lon="4.76336">
        <ele>169</ele>
        <time>2018-09-18T08:52:03Z</time>
      </trkpt>
      <trkpt lat="45.93689" lon="4.76342">
        <ele>169</ele>
        <time>2018-09-18T08:52:04Z</time>
      </trkpt>
      <trkpt lat="45.9369" lon="4.76351">
        <ele>169</ele>
        <time>2018-09-18T08:52:07Z</time>
      </trkpt>
      <trkpt lat="45.93692" lon="4.76362">
        <ele>169</ele>
        <time>2018-09-18T08:52:08Z</time>
      </trkpt>
      <trkpt lat="45.93695" lon="4.76369">
        <ele>169</ele>
        <time>2018-09-18T08:52:09Z</time>
      </trkpt>
      <trkpt lat="45.93697" lon="4.76375">
        <ele>169</ele>
        <time>2018-09-18T08:52:10Z</time>
      </trkpt>
      <trkpt lat="45.93699" lon="4.76381">
        <ele>169</ele>
        <time>2018-09-18T08:52:11Z</time>
      </trkpt>
      <trkpt lat="45.93702" lon="4.76386">
        <ele>169</ele>
        <time>2018-09-18T08:52:12Z</time>
      </trkpt>
      <trkpt lat="45.93703" lon="4.76393">
        <ele>169</ele>
        <time>2018-09-18T08:52:13Z</time>
      </trkpt>
      <trkpt lat="45.93705" lon="4.76398">
        <ele>169</ele>
        <time>2018-09-18T08:52:14Z</time>
      </trkpt>
      <trkpt lat="45.93708" lon="4.76406">
        <ele>169</ele>
        <time>2018-09-18T08:52:15Z</time>
      </trkpt>
      <trkpt lat="45.93711" lon="4.76412">
        <ele>169</ele>
        <time>2018-09-18T08:52:16Z</time>
      </trkpt>
      <trkpt lat="45.93715" lon="4.76422">
        <ele>169</ele>
        <time>2018-09-18T08:52:18Z</time>
      </trkpt>
      <trkpt lat="45.93715" lon="4.76425">
        <ele>169</ele>
        <time>2018-09-18T08:52:19Z</time>
      </trkpt>
      <trkpt lat="45.93717" lon="4.76433">
        <ele>169</ele>
        <time>2018-09-18T08:52:20Z</time>
      </trkpt>
      <trkpt lat="45.93719" lon="4.76438">
        <ele>169</ele>
        <time>2018-09-18T08:52:21Z</time>
      </trkpt>
      <trkpt lat="45.93722" lon="4.76448">
        <ele>169</ele>
        <time>2018-09-18T08:52:23Z</time>
      </trkpt>
      <trkpt lat="45.93724" lon="4.7645">
        <ele>169</ele>
        <time>2018-09-18T08:52:24Z</time>
      </trkpt>
      <trkpt lat="45.93727" lon="4.76458">
        <ele>169</ele>
        <time>2018-09-18T08:52:25Z</time>
      </trkpt>
      <trkpt lat="45.93729" lon="4.76464">
        <ele>169</ele>
        <time>2018-09-18T08:52:26Z</time>
      </trkpt>
      <trkpt lat="45.93733" lon="4.76475">
        <ele>169</ele>
        <time>2018-09-18T08:52:28Z</time>
      </trkpt>
      <trkpt lat="45.93735" lon="4.76482">
        <ele>169</ele>
        <time>2018-09-18T08:52:29Z</time>
      </trkpt>
      <trkpt lat="45.93737" lon="4.76488">
        <ele>169</ele>
        <time>2018-09-18T08:52:30Z</time>
      </trkpt>
      <trkpt lat="45.93739" lon="4.76494">
        <ele>169</ele>
        <time>2018-09-18T08:52:31Z</time>
      </trkpt>
      <trkpt lat="45.93743" lon="4.76503">
        <ele>169</ele>
        <time>2018-09-18T08:52:33Z</time>
      </trkpt>
      <trkpt lat="45.93745" lon="4.76512">
        <ele>169</ele>
        <time>2018-09-18T08:52:34Z</time>
      </trkpt>
      <trkpt lat="45.93748" lon="4.76517">
        <ele>169</ele>
        <time>2018-09-18T08:52:35Z</time>
      </trkpt>
      <trkpt lat="45.9375" lon="4.76525">
        <ele>169</ele>
        <time>2018-09-18T08:52:36Z</time>
      </trkpt>
      <trkpt lat="45.93753" lon="4.76535">
        <ele>170</ele>
        <time>2018-09-18T08:52:38Z</time>
      </trkpt>
      <trkpt lat="45.93754" lon="4.7654">
        <ele>170</ele>
        <time>2018-09-18T08:52:39Z</time>
      </trkpt>
      <trkpt lat="45.93758" lon="4.76545">
        <ele>170</ele>
        <time>2018-09-18T08:52:40Z</time>
      </trkpt>
      <trkpt lat="45.9376" lon="4.76551">
        <ele>170</ele>
        <time>2018-09-18T08:52:41Z</time>
      </trkpt>
      <trkpt lat="45.93764" lon="4.7656">
        <ele>170</ele>
        <time>2018-09-18T08:52:43Z</time>
      </trkpt>
      <trkpt lat="45.93766" lon="4.76565">
        <ele>170</ele>
        <time>2018-09-18T08:52:44Z</time>
      </trkpt>
      <trkpt lat="45.93769" lon="4.76577">
        <ele>170</ele>
        <time>2018-09-18T08:52:46Z</time>
      </trkpt>
      <trkpt lat="45.9377" lon="4.76582">
        <ele>170</ele>
        <time>2018-09-18T08:52:47Z</time>
      </trkpt>
      <trkpt lat="45.93774" lon="4.76593">
        <ele>169</ele>
        <time>2018-09-18T08:52:49Z</time>
      </trkpt>
      <trkpt lat="45.93776" lon="4.76598">
        <ele>169</ele>
        <time>2018-09-18T08:52:50Z</time>
      </trkpt>
      <trkpt lat="45.9378" lon="4.76609">
        <ele>169</ele>
        <time>2018-09-18T08:52:52Z</time>
      </trkpt>
      <trkpt lat="45.93782" lon="4.76615">
        <ele>169</ele>
        <time>2018-09-18T08:52:53Z</time>
      </trkpt>
      <trkpt lat="45.93785" lon="4.76621">
        <ele>169</ele>
        <time>2018-09-18T08:52:54Z</time>
      </trkpt>
      <trkpt lat="45.93787" lon="4.76628">
        <ele>169</ele>
        <time>2018-09-18T08:52:55Z</time>
      </trkpt>
      <trkpt lat="45.93792" lon="4.76638">
        <ele>169</ele>
        <time>2018-09-18T08:52:57Z</time>
      </trkpt>
      <trkpt lat="45.93793" lon="4.76644">
        <ele>169</ele>
        <time>2018-09-18T08:52:58Z</time>
      </trkpt>
      <trkpt lat="45.93795" lon="4.7665">
        <ele>169</ele>
        <time>2018-09-18T08:52:59Z</time>
      </trkpt>
      <trkpt lat="45.93797" lon="4.76656">
        <ele>169</ele>
        <time>2018-09-18T08:53:00Z</time>
      </trkpt>
      <trkpt lat="45.93802" lon="4.7666">
        <ele>169</ele>
        <time>2018-09-18T08:53:01Z</time>
      </trkpt>
      <trkpt lat="45.93804" lon="4.76666">
        <ele>169</ele>
        <time>2018-09-18T08:53:02Z</time>
      </trkpt>
      <trkpt lat="45.93808" lon="4.76677">
        <ele>170</ele>
        <time>2018-09-18T08:53:04Z</time>
      </trkpt>
      <trkpt lat="45.9381" lon="4.76682">
        <ele>170</ele>
        <time>2018-09-18T08:53:05Z</time>
      </trkpt>
      <trkpt lat="45.93816" lon="4.76689">
        <ele>170</ele>
        <time>2018-09-18T08:53:07Z</time>
      </trkpt>
      <trkpt lat="45.93819" lon="4.76693">
        <ele>170</ele>
        <time>2018-09-18T08:53:08Z</time>
      </trkpt>
      <trkpt lat="45.93824" lon="4.76702">
        <ele>170</ele>
        <time>2018-09-18T08:53:10Z</time>
      </trkpt>
      <trkpt lat="45.93827" lon="4.76708">
        <ele>170</ele>
        <time>2018-09-18T08:53:11Z</time>
      </trkpt>
      <trkpt lat="45.93833" lon="4.76717">
        <ele>170</ele>
        <time>2018-09-18T08:53:13Z</time>
      </trkpt>
      <trkpt lat="45.93836" lon="4.76722">
        <ele>172</ele>
        <time>2018-09-18T08:53:14Z</time>
      </trkpt>
      <trkpt lat="45.93841" lon="4.76732">
        <ele>173</ele>
        <time>2018-09-18T08:53:16Z</time>
      </trkpt>
      <trkpt lat="45.93844" lon="4.76735">
        <ele>173</ele>
        <time>2018-09-18T08:53:17Z</time>
      </trkpt>
      <trkpt lat="45.9385" lon="4.76742">
        <ele>173</ele>
        <time>2018-09-18T08:53:19Z</time>
      </trkpt>
      <trkpt lat="45.93853" lon="4.76748">
        <ele>173</ele>
        <time>2018-09-18T08:53:20Z</time>
      </trkpt>
      <trkpt lat="45.93859" lon="4.76756">
        <ele>172</ele>
        <time>2018-09-18T08:53:22Z</time>
      </trkpt>
      <trkpt lat="45.93862" lon="4.76763">
        <ele>172</ele>
        <time>2018-09-18T08:53:23Z</time>
      </trkpt>
      <trkpt lat="45.93866" lon="4.76768">
        <ele>171</ele>
        <time>2018-09-18T08:53:24Z</time>
      </trkpt>
      <trkpt lat="45.93869" lon="4.76774">
        <ele>171</ele>
        <time>2018-09-18T08:53:25Z</time>
      </trkpt>
      <trkpt lat="45.93872" lon="4.7678">
        <ele>171</ele>
        <time>2018-09-18T08:53:26Z</time>
      </trkpt>
      <trkpt lat="45.93875" lon="4.76784">
        <ele>171</ele>
        <time>2018-09-18T08:53:27Z</time>
      </trkpt>
      <trkpt lat="45.93879" lon="4.7679">
        <ele>171</ele>
        <time>2018-09-18T08:53:28Z</time>
      </trkpt>
      <trkpt lat="45.93883" lon="4.76793">
        <ele>171</ele>
        <time>2018-09-18T08:53:29Z</time>
      </trkpt>
      <trkpt lat="45.93886" lon="4.76799">
        <ele>171</ele>
        <time>2018-09-18T08:53:30Z</time>
      </trkpt>
      <trkpt lat="45.93889" lon="4.76803">
        <ele>171</ele>
        <time>2018-09-18T08:53:31Z</time>
      </trkpt>
      <trkpt lat="45.93895" lon="4.76812">
        <ele>171</ele>
        <time>2018-09-18T08:53:33Z</time>
      </trkpt>
      <trkpt lat="45.93897" lon="4.76817">
        <ele>171</ele>
        <time>2018-09-18T08:53:34Z</time>
      </trkpt>
      <trkpt lat="45.939" lon="4.76821">
        <ele>172</ele>
        <time>2018-09-18T08:53:35Z</time>
      </trkpt>
      <trkpt lat="45.93903" lon="4.76825">
        <ele>172</ele>
        <time>2018-09-18T08:53:36Z</time>
      </trkpt>
      <trkpt lat="45.93906" lon="4.7683">
        <ele>172</ele>
        <time>2018-09-18T08:53:37Z</time>
      </trkpt>
      <trkpt lat="45.93909" lon="4.76837">
        <ele>172</ele>
        <time>2018-09-18T08:53:38Z</time>
      </trkpt>
      <trkpt lat="45.93913" lon="4.76842">
        <ele>172</ele>
        <time>2018-09-18T08:53:39Z</time>
      </trkpt>
      <trkpt lat="45.93916" lon="4.76847">
        <ele>172</ele>
        <time>2018-09-18T08:53:40Z</time>
      </trkpt>
      <trkpt lat="45.93923" lon="4.76855">
        <ele>172</ele>
        <time>2018-09-18T08:53:42Z</time>
      </trkpt>
      <trkpt lat="45.93925" lon="4.7686">
        <ele>172</ele>
        <time>2018-09-18T08:53:43Z</time>
      </trkpt>
      <trkpt lat="45.9393" lon="4.76869">
        <ele>172</ele>
        <time>2018-09-18T08:53:45Z</time>
      </trkpt>
      <trkpt lat="45.93933" lon="4.76874">
        <ele>172</ele>
        <time>2018-09-18T08:53:46Z</time>
      </trkpt>
      <trkpt lat="45.93937" lon="4.76882">
        <ele>172</ele>
        <time>2018-09-18T08:53:49Z</time>
      </trkpt>
      <trkpt lat="45.93938" lon="4.76886">
        <ele>172</ele>
        <time>2018-09-18T08:53:50Z</time>
      </trkpt>
      <trkpt lat="45.9394" lon="4.76893">
        <ele>172</ele>
        <time>2018-09-18T08:53:52Z</time>
      </trkpt>
      <trkpt lat="45.93943" lon="4.76904">
        <ele>172</ele>
        <time>2018-09-18T08:53:53Z</time>
      </trkpt>
      <trkpt lat="45.93947" lon="4.76915">
        <ele>172</ele>
        <time>2018-09-18T08:53:55Z</time>
      </trkpt>
      <trkpt lat="45.93948" lon="4.7692">
        <ele>171</ele>
        <time>2018-09-18T08:53:56Z</time>
      </trkpt>
      <trkpt lat="45.9395" lon="4.76928">
        <ele>171</ele>
        <time>2018-09-18T08:53:57Z</time>
      </trkpt>
      <trkpt lat="45.93953" lon="4.76934">
        <ele>171</ele>
        <time>2018-09-18T08:53:58Z</time>
      </trkpt>
      <trkpt lat="45.93954" lon="4.76941">
        <ele>171</ele>
        <time>2018-09-18T08:53:59Z</time>
      </trkpt>
      <trkpt lat="45.93956" lon="4.76947">
        <ele>170</ele>
        <time>2018-09-18T08:54:00Z</time>
      </trkpt>
      <trkpt lat="45.93958" lon="4.76959">
        <ele>170</ele>
        <time>2018-09-18T08:54:02Z</time>
      </trkpt>
      <trkpt lat="45.9396" lon="4.76965">
        <ele>170</ele>
        <time>2018-09-18T08:54:03Z</time>
      </trkpt>
      <trkpt lat="45.93961" lon="4.76971">
        <ele>170</ele>
        <time>2018-09-18T08:54:04Z</time>
      </trkpt>
      <trkpt lat="45.93963" lon="4.76977">
        <ele>170</ele>
        <time>2018-09-18T08:54:05Z</time>
      </trkpt>
      <trkpt lat="45.93965" lon="4.76987">
        <ele>170</ele>
        <time>2018-09-18T08:54:08Z</time>
      </trkpt>
      <trkpt lat="45.93966" lon="4.76991">
        <ele>170</ele>
        <time>2018-09-18T08:54:09Z</time>
      </trkpt>
      <trkpt lat="45.9397" lon="4.77001">
        <ele>169</ele>
        <time>2018-09-18T08:54:12Z</time>
      </trkpt>
      <trkpt lat="45.93971" lon="4.77006">
        <ele>169</ele>
        <time>2018-09-18T08:54:13Z</time>
      </trkpt>
      <trkpt lat="45.93975" lon="4.77017">
        <ele>169</ele>
        <time>2018-09-18T08:54:16Z</time>
      </trkpt>
      <trkpt lat="45.93976" lon="4.77021">
        <ele>169</ele>
        <time>2018-09-18T08:54:17Z</time>
      </trkpt>
      <trkpt lat="45.93979" lon="4.77031">
        <ele>169</ele>
        <time>2018-09-18T08:54:20Z</time>
      </trkpt>
      <trkpt lat="45.9398" lon="4.77033">
        <ele>169</ele>
        <time>2018-09-18T08:54:21Z</time>
      </trkpt>
      <trkpt lat="45.93984" lon="4.77043">
        <ele>170</ele>
        <time>2018-09-18T08:54:25Z</time>
      </trkpt>
      <trkpt lat="45.93985" lon="4.77047">
        <ele>170</ele>
        <time>2018-09-18T08:54:26Z</time>
      </trkpt>
      <trkpt lat="45.93987" lon="4.77058">
        <ele>170</ele>
        <time>2018-09-18T08:54:29Z</time>
      </trkpt>
      <trkpt lat="45.93988" lon="4.77062">
        <ele>170</ele>
        <time>2018-09-18T08:54:30Z</time>
      </trkpt>
      <trkpt lat="45.9399" lon="4.77074">
        <ele>171</ele>
        <time>2018-09-18T08:54:33Z</time>
      </trkpt>
      <trkpt lat="45.9399" lon="4.77078">
        <ele>171</ele>
        <time>2018-09-18T08:54:34Z</time>
      </trkpt>
      <trkpt lat="45.93992" lon="4.77086">
        <ele>171</ele>
        <time>2018-09-18T08:54:36Z</time>
      </trkpt>
      <trkpt lat="45.93994" lon="4.771">
        <ele>171</ele>
        <time>2018-09-18T08:54:37Z</time>
      </trkpt>
      <trkpt lat="45.93996" lon="4.77108">
        <ele>170</ele>
        <time>2018-09-18T08:54:39Z</time>
      </trkpt>
      <trkpt lat="45.93998" lon="4.77115">
        <ele>170</ele>
        <time>2018-09-18T08:54:40Z</time>
      </trkpt>
      <trkpt lat="45.94002" lon="4.77125">
        <ele>174</ele>
        <time>2018-09-18T08:54:42Z</time>
      </trkpt>
      <trkpt lat="45.94004" lon="4.77131">
        <ele>174</ele>
        <time>2018-09-18T08:54:43Z</time>
      </trkpt>
      <trkpt lat="45.94006" lon="4.77141">
        <ele>174</ele>
        <time>2018-09-18T08:54:45Z</time>
      </trkpt>
      <trkpt lat="45.94006" lon="4.77144">
        <ele>174</ele>
        <time>2018-09-18T08:54:46Z</time>
      </trkpt>
      <trkpt lat="45.94006" lon="4.77155">
        <ele>173</ele>
        <time>2018-09-18T08:54:49Z</time>
      </trkpt>
      <trkpt lat="45.94006" lon="4.77159">
        <ele>173</ele>
        <time>2018-09-18T08:54:50Z</time>
      </trkpt>
      <trkpt lat="45.94006" lon="4.77164">
        <ele>173</ele>
        <time>2018-09-18T08:54:51Z</time>
      </trkpt>
      <trkpt lat="45.94005" lon="4.77179">
        <ele>173</ele>
        <time>2018-09-18T08:54:52Z</time>
      </trkpt>
      <trkpt lat="45.94005" lon="4.77189">
        <ele>174</ele>
        <time>2018-09-18T08:54:54Z</time>
      </trkpt>
      <trkpt lat="45.94006" lon="4.77196">
        <ele>174</ele>
        <time>2018-09-18T08:54:55Z</time>
      </trkpt>
      <trkpt lat="45.9401" lon="4.77206">
        <ele>174</ele>
        <time>2018-09-18T08:55:00Z</time>
      </trkpt>
      <trkpt lat="45.94011" lon="4.77206">
        <ele>174</ele>
        <time>2018-09-18T08:55:01Z</time>
      </trkpt>
      <trkpt lat="45.9401" lon="4.77208">
        <ele>174</ele>
        <time>2018-09-18T08:57:53Z</time>
      </trkpt>
      <trkpt lat="45.9401" lon="4.77209">
        <ele>174</ele>
        <time>2018-09-18T08:57:54Z</time>
      </trkpt>
      <trkpt lat="45.9401" lon="4.77209">
        <ele>174</ele>
        <time>2018-09-18T08:57:57Z</time>
      </trkpt>
      <trkpt lat="45.9401" lon="4.7721">
        <ele>174</ele>
        <time>2018-09-18T08:57:58Z</time>
      </trkpt>
      <trkpt lat="45.94013" lon="4.77219">
        <ele>174</ele>
        <time>2018-09-18T09:00:46Z</time>
      </trkpt>
      <trkpt lat="45.94013" lon="4.77219">
        <ele>174</ele>
        <time>2018-09-18T09:00:47Z</time>
      </trkpt>
      <trkpt lat="45.94008" lon="4.77229">
        <ele>173</ele>
        <time>2018-09-18T09:00:59Z</time>
      </trkpt>
      <trkpt lat="45.94007" lon="4.7723">
        <ele>173</ele>
        <time>2018-09-18T09:01:00Z</time>
      </trkpt>
      <trkpt lat="45.94007" lon="4.77218">
        <ele>174</ele>
        <time>2018-09-18T09:01:16Z</time>
      </trkpt>
      <trkpt lat="45.94008" lon="4.77217">
        <ele>174</ele>
        <time>2018-09-18T09:01:17Z</time>
      </trkpt>
      <trkpt lat="45.94006" lon="4.77228">
        <ele>173</ele>
        <time>2018-09-18T09:13:04Z</time>
      </trkpt>
      <trkpt lat="45.94006" lon="4.7723">
        <ele>173</ele>
        <time>2018-09-18T09:13:05Z</time>
      </trkpt>
      <trkpt lat="45.9401" lon="4.77221">
        <ele>174</ele>
        <time>2018-09-18T09:13:18Z</time>
      </trkpt>
      <trkpt lat="45.94011" lon="4.77218">
        <ele>174</ele>
        <time>2018-09-18T09:13:19Z</time>
      </trkpt>
      <trkpt lat="45.94019" lon="4.7722">
        <ele>174</ele>
        <time>2018-09-18T09:13:28Z</time>
      </trkpt>
      <trkpt lat="45.94019" lon="4.77223">
        <ele>174</ele>
        <time>2018-09-18T09:13:29Z</time>
      </trkpt>
      <trkpt lat="45.94018" lon="4.77235">
        <ele>173</ele>
        <time>2018-09-18T09:13:33Z</time>
      </trkpt>
      <trkpt lat="45.94017" lon="4.77239">
        <ele>173</ele>
        <time>2018-09-18T09:13:34Z</time>
      </trkpt>
      <trkpt lat="45.94016" lon="4.7725">
        <ele>173</ele>
        <time>2018-09-18T09:13:38Z</time>
      </trkpt>
      <trkpt lat="45.94014" lon="4.77252">
        <ele>173</ele>
        <time>2018-09-18T09:13:39Z</time>
      </trkpt>
      <trkpt lat="45.94006" lon="4.77254">
        <ele>172</ele>
        <time>2018-09-18T09:13:43Z</time>
      </trkpt>
      <trkpt lat="45.94004" lon="4.77253">
        <ele>171</ele>
        <time>2018-09-18T09:13:44Z</time>
      </trkpt>
      <trkpt lat="45.93997" lon="4.77252">
        <ele>170</ele>
        <time>2018-09-18T09:13:47Z</time>
      </trkpt>
      <trkpt lat="45.93994" lon="4.77251">
        <ele>170</ele>
        <time>2018-09-18T09:13:48Z</time>
      </trkpt>
      <trkpt lat="45.93987" lon="4.77249">
        <ele>169</ele>
        <time>2018-09-18T09:13:51Z</time>
      </trkpt>
      <trkpt lat="45.93984" lon="4.77248">
        <ele>169</ele>
        <time>2018-09-18T09:13:52Z</time>
      </trkpt>
      <trkpt lat="45.93976" lon="4.77246">
        <ele>169</ele>
        <time>2018-09-18T09:13:55Z</time>
      </trkpt>
      <trkpt lat="45.93973" lon="4.77246">
        <ele>169</ele>
        <time>2018-09-18T09:13:56Z</time>
      </trkpt>
      <trkpt lat="45.93967" lon="4.77245">
        <ele>169</ele>
        <time>2018-09-18T09:13:58Z</time>
      </trkpt>
      <trkpt lat="45.93964" lon="4.77245">
        <ele>169</ele>
        <time>2018-09-18T09:13:59Z</time>
      </trkpt>
      <trkpt lat="45.93955" lon="4.77243">
        <ele>168</ele>
        <time>2018-09-18T09:14:02Z</time>
      </trkpt>
      <trkpt lat="45.93952" lon="4.77243">
        <ele>168</ele>
        <time>2018-09-18T09:14:03Z</time>
      </trkpt>
      <trkpt lat="45.93945" lon="4.77241">
        <ele>168</ele>
        <time>2018-09-18T09:14:05Z</time>
      </trkpt>
      <trkpt lat="45.93943" lon="4.77241">
        <ele>168</ele>
        <time>2018-09-18T09:14:06Z</time>
      </trkpt>
      <trkpt lat="45.93935" lon="4.77239">
        <ele>167</ele>
        <time>2018-09-18T09:14:09Z</time>
      </trkpt>
      <trkpt lat="45.93927" lon="4.77238">
        <ele>167</ele>
        <time>2018-09-18T09:14:10Z</time>
      </trkpt>
      <trkpt lat="45.93919" lon="4.77235">
        <ele>167</ele>
        <time>2018-09-18T09:14:14Z</time>
      </trkpt>
      <trkpt lat="45.93918" lon="4.77235">
        <ele>167</ele>
        <time>2018-09-18T09:14:15Z</time>
      </trkpt>
      <trkpt lat="45.93909" lon="4.77231">
        <ele>167</ele>
        <time>2018-09-18T09:16:45Z</time>
      </trkpt>
      <trkpt lat="45.93908" lon="4.7723">
        <ele>167</ele>
        <time>2018-09-18T09:16:46Z</time>
      </trkpt>
      <trkpt lat="45.939" lon="4.77227">
        <ele>167</ele>
        <time>2018-09-18T09:16:50Z</time>
      </trkpt>
      <trkpt lat="45.93898" lon="4.77226">
        <ele>167</ele>
        <time>2018-09-18T09:16:51Z</time>
      </trkpt>
      <trkpt lat="45.9389" lon="4.77224">
        <ele>167</ele>
        <time>2018-09-18T09:16:54Z</time>
      </trkpt>
      <trkpt lat="45.93887" lon="4.77223">
        <ele>167</ele>
        <time>2018-09-18T09:16:55Z</time>
      </trkpt>
      <trkpt lat="45.9388" lon="4.77222">
        <ele>168</ele>
        <time>2018-09-18T09:16:57Z</time>
      </trkpt>
      <trkpt lat="45.93877" lon="4.77221">
        <ele>168</ele>
        <time>2018-09-18T09:16:58Z</time>
      </trkpt>
      <trkpt lat="45.9387" lon="4.77219">
        <ele>168</ele>
        <time>2018-09-18T09:17:00Z</time>
      </trkpt>
      <trkpt lat="45.93867" lon="4.77218">
        <ele>168</ele>
        <time>2018-09-18T09:17:01Z</time>
      </trkpt>
      <trkpt lat="45.93858" lon="4.77216">
        <ele>168</ele>
        <time>2018-09-18T09:17:04Z</time>
      </trkpt>
      <trkpt lat="45.93856" lon="4.77215">
        <ele>168</ele>
        <time>2018-09-18T09:17:05Z</time>
      </trkpt>
      <trkpt lat="45.93848" lon="4.77214">
        <ele>168</ele>
        <time>2018-09-18T09:17:08Z</time>
      </trkpt>
      <trkpt lat="45.93846" lon="4.77214">
        <ele>168</ele>
        <time>2018-09-18T09:17:09Z</time>
      </trkpt>
      <trkpt lat="45.93837" lon="4.7721">
        <ele>168</ele>
        <time>2018-09-18T09:17:14Z</time>
      </trkpt>
      <trkpt lat="45.93836" lon="4.7721">
        <ele>168</ele>
        <time>2018-09-18T09:17:15Z</time>
      </trkpt>
      <trkpt lat="45.93829" lon="4.77208">
        <ele>170</ele>
        <time>2018-09-18T09:17:18Z</time>
      </trkpt>
      <trkpt lat="45.93826" lon="4.77207">
        <ele>170</ele>
        <time>2018-09-18T09:17:19Z</time>
      </trkpt>
      <trkpt lat="45.93819" lon="4.77205">
        <ele>170</ele>
        <time>2018-09-18T09:17:22Z</time>
      </trkpt>
      <trkpt lat="45.93817" lon="4.77203">
        <ele>169</ele>
        <time>2018-09-18T09:17:23Z</time>
      </trkpt>
      <trkpt lat="45.93815" lon="4.77193">
        <ele>169</ele>
        <time>2018-09-18T09:17:26Z</time>
      </trkpt>
      <trkpt lat="45.93816" lon="4.77189">
        <ele>169</ele>
        <time>2018-09-18T09:17:27Z</time>
      </trkpt>
      <trkpt lat="45.93816" lon="4.77178">
        <ele>168</ele>
        <time>2018-09-18T09:17:30Z</time>
      </trkpt>
      <trkpt lat="45.93816" lon="4.77174">
        <ele>168</ele>
        <time>2018-09-18T09:17:31Z</time>
      </trkpt>
      <trkpt lat="45.93816" lon="4.77171">
        <ele>168</ele>
        <time>2018-09-18T09:17:32Z</time>
      </trkpt>
      <trkpt lat="45.93815" lon="4.77157">
        <ele>168</ele>
        <time>2018-09-18T09:17:33Z</time>
      </trkpt>
      <trkpt lat="45.93816" lon="4.77145">
        <ele>168</ele>
        <time>2018-09-18T09:17:36Z</time>
      </trkpt>
      <trkpt lat="45.93816" lon="4.77136">
        <ele>168</ele>
        <time>2018-09-18T09:17:37Z</time>
      </trkpt>
      <trkpt lat="45.93814" lon="4.77126">
        <ele>168</ele>
        <time>2018-09-18T09:17:39Z</time>
      </trkpt>
      <trkpt lat="45.93812" lon="4.77118">
        <ele>168</ele>
        <time>2018-09-18T09:17:40Z</time>
      </trkpt>
      <trkpt lat="45.93809" lon="4.7711">
        <ele>168</ele>
        <time>2018-09-18T09:17:41Z</time>
      </trkpt>
      <trkpt lat="45.93809" lon="4.77104">
        <ele>168</ele>
        <time>2018-09-18T09:17:42Z</time>
      </trkpt>
      <trkpt lat="45.93808" lon="4.77098">
        <ele>168</ele>
        <time>2018-09-18T09:17:43Z</time>
      </trkpt>
      <trkpt lat="45.93808" lon="4.77091">
        <ele>168</ele>
        <time>2018-09-18T09:17:44Z</time>
      </trkpt>
      <trkpt lat="45.93801" lon="4.77083">
        <ele>168</ele>
        <time>2018-09-18T09:17:45Z</time>
      </trkpt>
      <trkpt lat="45.938" lon="4.77076">
        <ele>168</ele>
        <time>2018-09-18T09:17:46Z</time>
      </trkpt>
      <trkpt lat="45.93798" lon="4.77068">
        <ele>168</ele>
        <time>2018-09-18T09:17:47Z</time>
      </trkpt>
      <trkpt lat="45.93796" lon="4.77063">
        <ele>168</ele>
        <time>2018-09-18T09:17:48Z</time>
      </trkpt>
      <trkpt lat="45.93795" lon="4.77058">
        <ele>168</ele>
        <time>2018-09-18T09:17:49Z</time>
      </trkpt>
      <trkpt lat="45.93791" lon="4.7705">
        <ele>168</ele>
        <time>2018-09-18T09:17:50Z</time>
      </trkpt>
      <trkpt lat="45.93786" lon="4.77043">
        <ele>168</ele>
        <time>2018-09-18T09:17:51Z</time>
      </trkpt>
      <trkpt lat="45.93784" lon="4.77036">
        <ele>168</ele>
        <time>2018-09-18T09:17:52Z</time>
      </trkpt>
      <trkpt lat="45.93783" lon="4.7703">
        <ele>168</ele>
        <time>2018-09-18T09:17:53Z</time>
      </trkpt>
      <trkpt lat="45.93781" lon="4.77024">
        <ele>168</ele>
        <time>2018-09-18T09:17:54Z</time>
      </trkpt>
      <trkpt lat="45.93777" lon="4.77014">
        <ele>168</ele>
        <time>2018-09-18T09:17:56Z</time>
      </trkpt>
      <trkpt lat="45.93774" lon="4.7701">
        <ele>168</ele>
        <time>2018-09-18T09:17:57Z</time>
      </trkpt>
      <trkpt lat="45.93769" lon="4.76999">
        <ele>168</ele>
        <time>2018-09-18T09:18:01Z</time>
      </trkpt>
      <trkpt lat="45.93766" lon="4.76996">
        <ele>168</ele>
        <time>2018-09-18T09:18:02Z</time>
      </trkpt>
      <trkpt lat="45.93759" lon="4.76987">
        <ele>168</ele>
        <time>2018-09-18T09:18:03Z</time>
      </trkpt>
      <trkpt lat="45.93756" lon="4.76977">
        <ele>168</ele>
        <time>2018-09-18T09:18:06Z</time>
      </trkpt>
      <trkpt lat="45.93755" lon="4.76974">
        <ele>168</ele>
        <time>2018-09-18T09:18:07Z</time>
      </trkpt>
      <trkpt lat="45.93751" lon="4.76964">
        <ele>168</ele>
        <time>2018-09-18T09:18:10Z</time>
      </trkpt>
      <trkpt lat="45.9375" lon="4.76961">
        <ele>168</ele>
        <time>2018-09-18T09:18:11Z</time>
      </trkpt>
      <trkpt lat="45.93749" lon="4.76957">
        <ele>169</ele>
        <time>2018-09-18T09:18:12Z</time>
      </trkpt>
      <trkpt lat="45.93745" lon="4.76943">
        <ele>169</ele>
        <time>2018-09-18T09:18:13Z</time>
      </trkpt>
      <trkpt lat="45.9374" lon="4.76933">
        <ele>169</ele>
        <time>2018-09-18T09:18:17Z</time>
      </trkpt>
      <trkpt lat="45.93739" lon="4.7693">
        <ele>169</ele>
        <time>2018-09-18T09:18:18Z</time>
      </trkpt>
      <trkpt lat="45.93734" lon="4.76922">
        <ele>169</ele>
        <time>2018-09-18T09:18:21Z</time>
      </trkpt>
      <trkpt lat="45.93732" lon="4.76919">
        <ele>169</ele>
        <time>2018-09-18T09:18:22Z</time>
      </trkpt>
      <trkpt lat="45.93729" lon="4.76907">
        <ele>168</ele>
        <time>2018-09-18T09:18:25Z</time>
      </trkpt>
      <trkpt lat="45.93727" lon="4.76903">
        <ele>168</ele>
        <time>2018-09-18T09:18:26Z</time>
      </trkpt>
      <trkpt lat="45.93722" lon="4.76889">
        <ele>168</ele>
        <time>2018-09-18T09:18:27Z</time>
      </trkpt>
      <trkpt lat="45.93719" lon="4.76884">
        <ele>167</ele>
        <time>2018-09-18T09:18:28Z</time>
      </trkpt>
      <trkpt lat="45.93716" lon="4.76879">
        <ele>167</ele>
        <time>2018-09-18T09:18:29Z</time>
      </trkpt>
      <trkpt lat="45.93711" lon="4.76872">
        <ele>167</ele>
        <time>2018-09-18T09:18:32Z</time>
      </trkpt>
      <trkpt lat="45.93709" lon="4.76869">
        <ele>167</ele>
        <time>2018-09-18T09:18:33Z</time>
      </trkpt>
      <trkpt lat="45.93703" lon="4.7686">
        <ele>167</ele>
        <time>2018-09-18T09:18:36Z</time>
      </trkpt>
      <trkpt lat="45.93702" lon="4.76857">
        <ele>167</ele>
        <time>2018-09-18T09:18:37Z</time>
      </trkpt>
      <trkpt lat="45.93697" lon="4.76848">
        <ele>167</ele>
        <time>2018-09-18T09:18:40Z</time>
      </trkpt>
      <trkpt lat="45.93696" lon="4.76846">
        <ele>167</ele>
        <time>2018-09-18T09:18:41Z</time>
      </trkpt>
      <trkpt lat="45.93692" lon="4.76837">
        <ele>167</ele>
        <time>2018-09-18T09:18:44Z</time>
      </trkpt>
      <trkpt lat="45.93691" lon="4.76833">
        <ele>167</ele>
        <time>2018-09-18T09:18:45Z</time>
      </trkpt>
      <trkpt lat="45.93686" lon="4.76823">
        <ele>166</ele>
        <time>2018-09-18T09:18:48Z</time>
      </trkpt>
      <trkpt lat="45.93685" lon="4.7682">
        <ele>166</ele>
        <time>2018-09-18T09:18:49Z</time>
      </trkpt>
      <trkpt lat="45.9368" lon="4.76813">
        <ele>166</ele>
        <time>2018-09-18T09:18:51Z</time>
      </trkpt>
      <trkpt lat="45.93678" lon="4.76809">
        <ele>166</ele>
        <time>2018-09-18T09:18:52Z</time>
      </trkpt>
      <trkpt lat="45.93672" lon="4.768">
        <ele>166</ele>
        <time>2018-09-18T09:18:55Z</time>
      </trkpt>
      <trkpt lat="45.93671" lon="4.76797">
        <ele>166</ele>
        <time>2018-09-18T09:18:56Z</time>
      </trkpt>
      <trkpt lat="45.93664" lon="4.76785">
        <ele>167</ele>
        <time>2018-09-18T09:18:57Z</time>
      </trkpt>
      <trkpt lat="45.93658" lon="4.76777">
        <ele>167</ele>
        <time>2018-09-18T09:19:00Z</time>
      </trkpt>
      <trkpt lat="45.93657" lon="4.76774">
        <ele>167</ele>
        <time>2018-09-18T09:19:01Z</time>
      </trkpt>
      <trkpt lat="45.93654" lon="4.76763">
        <ele>167</ele>
        <time>2018-09-18T09:19:02Z</time>
      </trkpt>
      <trkpt lat="45.93651" lon="4.76758">
        <ele>167</ele>
        <time>2018-09-18T09:19:03Z</time>
      </trkpt>
      <trkpt lat="45.93645" lon="4.76751">
        <ele>167</ele>
        <time>2018-09-18T09:19:05Z</time>
      </trkpt>
      <trkpt lat="45.93643" lon="4.76749">
        <ele>168</ele>
        <time>2018-09-18T09:19:06Z</time>
      </trkpt>
      <trkpt lat="45.93636" lon="4.76743">
        <ele>168</ele>
        <time>2018-09-18T09:19:09Z</time>
      </trkpt>
      <trkpt lat="45.93633" lon="4.7674">
        <ele>168</ele>
        <time>2018-09-18T09:19:10Z</time>
      </trkpt>
      <trkpt lat="45.93628" lon="4.76733">
        <ele>168</ele>
        <time>2018-09-18T09:19:12Z</time>
      </trkpt>
      <trkpt lat="45.93626" lon="4.7673">
        <ele>168</ele>
        <time>2018-09-18T09:19:13Z</time>
      </trkpt>
      <trkpt lat="45.93623" lon="4.76725">
        <ele>169</ele>
        <time>2018-09-18T09:19:15Z</time>
      </trkpt>
      <trkpt lat="45.93616" lon="4.76713">
        <ele>169</ele>
        <time>2018-09-18T09:19:16Z</time>
      </trkpt>
      <trkpt lat="45.93613" lon="4.76708">
        <ele>169</ele>
        <time>2018-09-18T09:19:17Z</time>
      </trkpt>
      <trkpt lat="45.93608" lon="4.767">
        <ele>169</ele>
        <time>2018-09-18T09:19:18Z</time>
      </trkpt>
      <trkpt lat="45.93604" lon="4.76695">
        <ele>169</ele>
        <time>2018-09-18T09:19:19Z</time>
      </trkpt>
      <trkpt lat="45.936" lon="4.76692">
        <ele>169</ele>
        <time>2018-09-18T09:19:20Z</time>
      </trkpt>
      <trkpt lat="45.93595" lon="4.76682">
        <ele>170</ele>
        <time>2018-09-18T09:19:23Z</time>
      </trkpt>
      <trkpt lat="45.93594" lon="4.7668">
        <ele>170</ele>
        <time>2018-09-18T09:19:24Z</time>
      </trkpt>
      <trkpt lat="45.93584" lon="4.7667">
        <ele>171</ele>
        <time>2018-09-18T09:19:25Z</time>
      </trkpt>
      <trkpt lat="45.93584" lon="4.76664">
        <ele>171</ele>
        <time>2018-09-18T09:19:27Z</time>
      </trkpt>
      <trkpt lat="45.93581" lon="4.76658">
        <ele>170</ele>
        <time>2018-09-18T09:19:28Z</time>
      </trkpt>
      <trkpt lat="45.93577" lon="4.76648">
        <ele>170</ele>
        <time>2018-09-18T09:19:32Z</time>
      </trkpt>
      <trkpt lat="45.93576" lon="4.76645">
        <ele>170</ele>
        <time>2018-09-18T09:19:33Z</time>
      </trkpt>
      <trkpt lat="45.93571" lon="4.76634">
        <ele>170</ele>
        <time>2018-09-18T09:19:34Z</time>
      </trkpt>
      <trkpt lat="45.9357" lon="4.76632">
        <ele>169</ele>
        <time>2018-09-18T09:19:35Z</time>
      </trkpt>
      <trkpt lat="45.93564" lon="4.76623">
        <ele>169</ele>
        <time>2018-09-18T09:19:39Z</time>
      </trkpt>
      <trkpt lat="45.93563" lon="4.7662">
        <ele>169</ele>
        <time>2018-09-18T09:19:40Z</time>
      </trkpt>
      <trkpt lat="45.93558" lon="4.7661">
        <ele>169</ele>
        <time>2018-09-18T09:19:46Z</time>
      </trkpt>
      <trkpt lat="45.93557" lon="4.76608">
        <ele>169</ele>
        <time>2018-09-18T09:19:47Z</time>
      </trkpt>
      <trkpt lat="45.93553" lon="4.76603">
        <ele>169</ele>
        <time>2018-09-18T09:19:50Z</time>
      </trkpt>
      <trkpt lat="45.93549" lon="4.766">
        <ele>169</ele>
        <time>2018-09-18T09:19:51Z</time>
      </trkpt>
      <trkpt lat="45.93544" lon="4.76594">
        <ele>169</ele>
        <time>2018-09-18T09:19:53Z</time>
      </trkpt>
      <trkpt lat="45.93542" lon="4.7659">
        <ele>169</ele>
        <time>2018-09-18T09:19:54Z</time>
      </trkpt>
      <trkpt lat="45.93536" lon="4.76581">
        <ele>168</ele>
        <time>2018-09-18T09:19:57Z</time>
      </trkpt>
      <trkpt lat="45.93534" lon="4.76578">
        <ele>168</ele>
        <time>2018-09-18T09:19:58Z</time>
      </trkpt>
      <trkpt lat="45.93529" lon="4.76572">
        <ele>168</ele>
        <time>2018-09-18T09:20:00Z</time>
      </trkpt>
      <trkpt lat="45.93521" lon="4.76562">
        <ele>168</ele>
        <time>2018-09-18T09:20:01Z</time>
      </trkpt>
      <trkpt lat="45.93516" lon="4.76556">
        <ele>168</ele>
        <time>2018-09-18T09:20:03Z</time>
      </trkpt>
      <trkpt lat="45.93511" lon="4.7655">
        <ele>168</ele>
        <time>2018-09-18T09:20:04Z</time>
      </trkpt>
      <trkpt lat="45.93508" lon="4.76545">
        <ele>167</ele>
        <time>2018-09-18T09:20:05Z</time>
      </trkpt>
      <trkpt lat="45.93503" lon="4.7654">
        <ele>167</ele>
        <time>2018-09-18T09:20:06Z</time>
      </trkpt>
      <trkpt lat="45.93498" lon="4.76536">
        <ele>168</ele>
        <time>2018-09-18T09:20:07Z</time>
      </trkpt>
      <trkpt lat="45.93494" lon="4.7653">
        <ele>168</ele>
        <time>2018-09-18T09:20:08Z</time>
      </trkpt>
      <trkpt lat="45.93487" lon="4.76522">
        <ele>168</ele>
        <time>2018-09-18T09:20:12Z</time>
      </trkpt>
      <trkpt lat="45.93486" lon="4.7652">
        <ele>168</ele>
        <time>2018-09-18T09:20:13Z</time>
      </trkpt>
      <trkpt lat="45.93479" lon="4.76514">
        <ele>168</ele>
        <time>2018-09-18T09:20:18Z</time>
      </trkpt>
      <trkpt lat="45.93478" lon="4.76513">
        <ele>168</ele>
        <time>2018-09-18T09:20:19Z</time>
      </trkpt>
      <trkpt lat="45.93473" lon="4.76508">
        <ele>168</ele>
        <time>2018-09-18T09:20:22Z</time>
      </trkpt>
      <trkpt lat="45.93468" lon="4.76501">
        <ele>168</ele>
        <time>2018-09-18T09:20:23Z</time>
      </trkpt>
      <trkpt lat="45.93464" lon="4.76492">
        <ele>167</ele>
        <time>2018-09-18T09:20:27Z</time>
      </trkpt>
      <trkpt lat="45.93462" lon="4.76489">
        <ele>167</ele>
        <time>2018-09-18T09:20:28Z</time>
      </trkpt>
      <trkpt lat="45.93458" lon="4.76483">
        <ele>167</ele>
        <time>2018-09-18T09:20:30Z</time>
      </trkpt>
      <trkpt lat="45.93456" lon="4.7648">
        <ele>167</ele>
        <time>2018-09-18T09:20:31Z</time>
      </trkpt>
      <trkpt lat="45.93451" lon="4.76473">
        <ele>167</ele>
        <time>2018-09-18T09:20:33Z</time>
      </trkpt>
      <trkpt lat="45.93443" lon="4.76461">
        <ele>167</ele>
        <time>2018-09-18T09:20:34Z</time>
      </trkpt>
      <trkpt lat="45.93436" lon="4.76453">
        <ele>167</ele>
        <time>2018-09-18T09:20:36Z</time>
      </trkpt>
      <trkpt lat="45.93433" lon="4.76449">
        <ele>167</ele>
        <time>2018-09-18T09:20:37Z</time>
      </trkpt>
      <trkpt lat="45.93426" lon="4.76441">
        <ele>167</ele>
        <time>2018-09-18T09:20:39Z</time>
      </trkpt>
      <trkpt lat="45.93422" lon="4.76436">
        <ele>167</ele>
        <time>2018-09-18T09:20:40Z</time>
      </trkpt>
      <trkpt lat="45.93417" lon="4.76426">
        <ele>166</ele>
        <time>2018-09-18T09:20:45Z</time>
      </trkpt>
      <trkpt lat="45.93416" lon="4.76424">
        <ele>167</ele>
        <time>2018-09-18T09:20:46Z</time>
      </trkpt>
      <trkpt lat="45.93409" lon="4.76416">
        <ele>166</ele>
        <time>2018-09-18T09:20:50Z</time>
      </trkpt>
      <trkpt lat="45.93407" lon="4.76415">
        <ele>167</ele>
        <time>2018-09-18T09:20:51Z</time>
      </trkpt>
      <trkpt lat="45.934" lon="4.76409">
        <ele>167</ele>
        <time>2018-09-18T09:20:54Z</time>
      </trkpt>
      <trkpt lat="45.93392" lon="4.76401">
        <ele>167</ele>
        <time>2018-09-18T09:20:55Z</time>
      </trkpt>
      <trkpt lat="45.93387" lon="4.76392">
        <ele>167</ele>
        <time>2018-09-18T09:20:59Z</time>
      </trkpt>
      <trkpt lat="45.93386" lon="4.7639">
        <ele>168</ele>
        <time>2018-09-18T09:21:00Z</time>
      </trkpt>
      <trkpt lat="45.93383" lon="4.76379">
        <ele>168</ele>
        <time>2018-09-18T09:21:05Z</time>
      </trkpt>
      <trkpt lat="45.93381" lon="4.76376">
        <ele>168</ele>
        <time>2018-09-18T09:21:06Z</time>
      </trkpt>
      <trkpt lat="45.93377" lon="4.76366">
        <ele>168</ele>
        <time>2018-09-18T09:21:11Z</time>
      </trkpt>
      <trkpt lat="45.93376" lon="4.76364">
        <ele>168</ele>
        <time>2018-09-18T09:21:12Z</time>
      </trkpt>
      <trkpt lat="45.93372" lon="4.76354">
        <ele>168</ele>
        <time>2018-09-18T09:21:18Z</time>
      </trkpt>
      <trkpt lat="45.93372" lon="4.76352">
        <ele>168</ele>
        <time>2018-09-18T09:21:19Z</time>
      </trkpt>
      <trkpt lat="45.93366" lon="4.76342">
        <ele>168</ele>
        <time>2018-09-18T09:21:23Z</time>
      </trkpt>
      <trkpt lat="45.93365" lon="4.7634">
        <ele>168</ele>
        <time>2018-09-18T09:21:24Z</time>
      </trkpt>
      <trkpt lat="45.93361" lon="4.76333">
        <ele>169</ele>
        <time>2018-09-18T09:21:26Z</time>
      </trkpt>
      <trkpt lat="45.93358" lon="4.7633">
        <ele>169</ele>
        <time>2018-09-18T09:21:27Z</time>
      </trkpt>
      <trkpt lat="45.9335" lon="4.76319">
        <ele>169</ele>
        <time>2018-09-18T09:21:28Z</time>
      </trkpt>
      <trkpt lat="45.93343" lon="4.76313">
        <ele>169</ele>
        <time>2018-09-18T09:21:30Z</time>
      </trkpt>
      <trkpt lat="45.93341" lon="4.76311">
        <ele>169</ele>
        <time>2018-09-18T09:21:31Z</time>
      </trkpt>
      <trkpt lat="45.93332" lon="4.76306">
        <ele>168</ele>
        <time>2018-09-18T09:21:34Z</time>
      </trkpt>
      <trkpt lat="45.9333" lon="4.76305">
        <ele>168</ele>
        <time>2018-09-18T09:21:35Z</time>
      </trkpt>
      <trkpt lat="45.93324" lon="4.76301">
        <ele>168</ele>
        <time>2018-09-18T09:21:37Z</time>
      </trkpt>
      <trkpt lat="45.93321" lon="4.763">
        <ele>168</ele>
        <time>2018-09-18T09:21:38Z</time>
      </trkpt>
      <trkpt lat="45.93313" lon="4.76296">
        <ele>168</ele>
        <time>2018-09-18T09:21:41Z</time>
      </trkpt>
      <trkpt lat="45.9331" lon="4.76295">
        <ele>168</ele>
        <time>2018-09-18T09:21:42Z</time>
      </trkpt>
      <trkpt lat="45.93302" lon="4.76293">
        <ele>168</ele>
        <time>2018-09-18T09:21:45Z</time>
      </trkpt>
      <trkpt lat="45.933" lon="4.76292">
        <ele>168</ele>
        <time>2018-09-18T09:21:46Z</time>
      </trkpt>
      <trkpt lat="45.93292" lon="4.76288">
        <ele>168</ele>
        <time>2018-09-18T09:21:50Z</time>
      </trkpt>
      <trkpt lat="45.9329" lon="4.76288">
        <ele>168</ele>
        <time>2018-09-18T09:21:51Z</time>
      </trkpt>
      <trkpt lat="45.93282" lon="4.76287">
        <ele>168</ele>
        <time>2018-09-18T09:21:54Z</time>
      </trkpt>
      <trkpt lat="45.93279" lon="4.76287">
        <ele>168</ele>
        <time>2018-09-18T09:21:55Z</time>
      </trkpt>
      <trkpt lat="45.93271" lon="4.76289">
        <ele>168</ele>
        <time>2018-09-18T09:21:58Z</time>
      </trkpt>
      <trkpt lat="45.93269" lon="4.76289">
        <ele>168</ele>
        <time>2018-09-18T09:21:59Z</time>
      </trkpt>
      <trkpt lat="45.93261" lon="4.76287">
        <ele>169</ele>
        <time>2018-09-18T09:22:03Z</time>
      </trkpt>
      <trkpt lat="45.93259" lon="4.76286">
        <ele>169</ele>
        <time>2018-09-18T09:22:04Z</time>
      </trkpt>
      <trkpt lat="45.93251" lon="4.76281">
        <ele>169</ele>
        <time>2018-09-18T09:22:08Z</time>
      </trkpt>
      <trkpt lat="45.9325" lon="4.76281">
        <ele>169</ele>
        <time>2018-09-18T09:22:09Z</time>
      </trkpt>
      <trkpt lat="45.93241" lon="4.76281">
        <ele>169</ele>
        <time>2018-09-18T09:22:13Z</time>
      </trkpt>
      <trkpt lat="45.93239" lon="4.76282">
        <ele>169</ele>
        <time>2018-09-18T09:22:14Z</time>
      </trkpt>
      <trkpt lat="45.93234" lon="4.76289">
        <ele>169</ele>
        <time>2018-09-18T09:22:17Z</time>
      </trkpt>
      <trkpt lat="45.93232" lon="4.76292">
        <ele>169</ele>
        <time>2018-09-18T09:22:18Z</time>
      </trkpt>
      <trkpt lat="45.9323" lon="4.76304">
        <ele>169</ele>
        <time>2018-09-18T09:22:22Z</time>
      </trkpt>
      <trkpt lat="45.93229" lon="4.76307">
        <ele>169</ele>
        <time>2018-09-18T09:22:23Z</time>
      </trkpt>
      <trkpt lat="45.93229" lon="4.76317">
        <ele>169</ele>
        <time>2018-09-18T09:22:27Z</time>
      </trkpt>
      <trkpt lat="45.93229" lon="4.7632">
        <ele>169</ele>
        <time>2018-09-18T09:22:28Z</time>
      </trkpt>
      <trkpt lat="45.93228" lon="4.76332">
        <ele>168</ele>
        <time>2018-09-18T09:22:29Z</time>
      </trkpt>
      <trkpt lat="45.93228" lon="4.76339">
        <ele>168</ele>
        <time>2018-09-18T09:22:30Z</time>
      </trkpt>
      <trkpt lat="45.93228" lon="4.76351">
        <ele>168</ele>
        <time>2018-09-18T09:22:32Z</time>
      </trkpt>
      <trkpt lat="45.93228" lon="4.76354">
        <ele>168</ele>
        <time>2018-09-18T09:22:33Z</time>
      </trkpt>
      <trkpt lat="45.93228" lon="4.76364">
        <ele>168</ele>
        <time>2018-09-18T09:22:36Z</time>
      </trkpt>
      <trkpt lat="45.93228" lon="4.76368">
        <ele>168</ele>
        <time>2018-09-18T09:22:37Z</time>
      </trkpt>
      <trkpt lat="45.93228" lon="4.76379">
        <ele>168</ele>
        <time>2018-09-18T09:22:38Z</time>
      </trkpt>
      <trkpt lat="45.93228" lon="4.76385">
        <ele>168</ele>
        <time>2018-09-18T09:22:39Z</time>
      </trkpt>
      <trkpt lat="45.93227" lon="4.76397">
        <ele>168</ele>
        <time>2018-09-18T09:22:41Z</time>
      </trkpt>
      <trkpt lat="45.93227" lon="4.76402">
        <ele>168</ele>
        <time>2018-09-18T09:22:42Z</time>
      </trkpt>
      <trkpt lat="45.93227" lon="4.76409">
        <ele>168</ele>
        <time>2018-09-18T09:22:44Z</time>
      </trkpt>
      <trkpt lat="45.93226" lon="4.76418">
        <ele>168</ele>
        <time>2018-09-18T09:22:45Z</time>
      </trkpt>
      <trkpt lat="45.93225" lon="4.7643">
        <ele>168</ele>
        <time>2018-09-18T09:22:47Z</time>
      </trkpt>
      <trkpt lat="45.93225" lon="4.76436">
        <ele>168</ele>
        <time>2018-09-18T09:22:48Z</time>
      </trkpt>
      <trkpt lat="45.93224" lon="4.76448">
        <ele>168</ele>
        <time>2018-09-18T09:22:50Z</time>
      </trkpt>
      <trkpt lat="45.93224" lon="4.76453">
        <ele>168</ele>
        <time>2018-09-18T09:22:51Z</time>
      </trkpt>
      <trkpt lat="45.93224" lon="4.76463">
        <ele>169</ele>
        <time>2018-09-18T09:22:53Z</time>
      </trkpt>
      <trkpt lat="45.93224" lon="4.76469">
        <ele>169</ele>
        <time>2018-09-18T09:22:54Z</time>
      </trkpt>
      <trkpt lat="45.93223" lon="4.76479">
        <ele>169</ele>
        <time>2018-09-18T09:22:56Z</time>
      </trkpt>
      <trkpt lat="45.93222" lon="4.76486">
        <ele>169</ele>
        <time>2018-09-18T09:22:57Z</time>
      </trkpt>
      <trkpt lat="45.9322" lon="4.76498">
        <ele>169</ele>
        <time>2018-09-18T09:22:59Z</time>
      </trkpt>
      <trkpt lat="45.93221" lon="4.76503">
        <ele>169</ele>
        <time>2018-09-18T09:23:00Z</time>
      </trkpt>
      <trkpt lat="45.93219" lon="4.76512">
        <ele>169</ele>
        <time>2018-09-18T09:23:02Z</time>
      </trkpt>
      <trkpt lat="45.93218" lon="4.76519">
        <ele>169</ele>
        <time>2018-09-18T09:23:03Z</time>
      </trkpt>
      <trkpt lat="45.93215" lon="4.7653">
        <ele>169</ele>
        <time>2018-09-18T09:23:05Z</time>
      </trkpt>
      <trkpt lat="45.93214" lon="4.76535">
        <ele>169</ele>
        <time>2018-09-18T09:23:06Z</time>
      </trkpt>
      <trkpt lat="45.93213" lon="4.76547">
        <ele>169</ele>
        <time>2018-09-18T09:23:08Z</time>
      </trkpt>
      <trkpt lat="45.93212" lon="4.76553">
        <ele>169</ele>
        <time>2018-09-18T09:23:09Z</time>
      </trkpt>
      <trkpt lat="45.9321" lon="4.76564">
        <ele>169</ele>
        <time>2018-09-18T09:23:11Z</time>
      </trkpt>
      <trkpt lat="45.93209" lon="4.7657">
        <ele>169</ele>
        <time>2018-09-18T09:23:12Z</time>
      </trkpt>
      <trkpt lat="45.93206" lon="4.76579">
        <ele>169</ele>
        <time>2018-09-18T09:23:15Z</time>
      </trkpt>
      <trkpt lat="45.93205" lon="4.76582">
        <ele>169</ele>
        <time>2018-09-18T09:23:16Z</time>
      </trkpt>
      <trkpt lat="45.932" lon="4.76591">
        <ele>170</ele>
        <time>2018-09-18T09:23:19Z</time>
      </trkpt>
      <trkpt lat="45.93198" lon="4.76592">
        <ele>170</ele>
        <time>2018-09-18T09:23:20Z</time>
      </trkpt>
      <trkpt lat="45.9319" lon="4.76592">
        <ele>170</ele>
        <time>2018-09-18T09:23:21Z</time>
      </trkpt>
      <trkpt lat="45.93186" lon="4.76588">
        <ele>171</ele>
        <time>2018-09-18T09:23:22Z</time>
      </trkpt>
      <trkpt lat="45.93182" lon="4.76583">
        <ele>170</ele>
        <time>2018-09-18T09:23:23Z</time>
      </trkpt>
      <trkpt lat="45.93178" lon="4.7658">
        <ele>170</ele>
        <time>2018-09-18T09:23:24Z</time>
      </trkpt>
      <trkpt lat="45.9317" lon="4.76573">
        <ele>170</ele>
        <time>2018-09-18T09:23:26Z</time>
      </trkpt>
      <trkpt lat="45.93166" lon="4.7657">
        <ele>170</ele>
        <time>2018-09-18T09:23:27Z</time>
      </trkpt>
      <trkpt lat="45.93159" lon="4.76566">
        <ele>170</ele>
        <time>2018-09-18T09:23:29Z</time>
      </trkpt>
      <trkpt lat="45.93156" lon="4.76562">
        <ele>170</ele>
        <time>2018-09-18T09:23:30Z</time>
      </trkpt>
      <trkpt lat="45.9315" lon="4.76556">
        <ele>170</ele>
        <time>2018-09-18T09:23:32Z</time>
      </trkpt>
      <trkpt lat="45.93146" lon="4.76552">
        <ele>170</ele>
        <time>2018-09-18T09:23:33Z</time>
      </trkpt>
      <trkpt lat="45.93139" lon="4.76545">
        <ele>170</ele>
        <time>2018-09-18T09:23:35Z</time>
      </trkpt>
      <trkpt lat="45.93135" lon="4.76541">
        <ele>170</ele>
        <time>2018-09-18T09:23:36Z</time>
      </trkpt>
      <trkpt lat="45.93131" lon="4.76535">
        <ele>170</ele>
        <time>2018-09-18T09:23:38Z</time>
      </trkpt>
      <trkpt lat="45.93123" lon="4.76531">
        <ele>170</ele>
        <time>2018-09-18T09:23:39Z</time>
      </trkpt>
      <trkpt lat="45.93118" lon="4.76524">
        <ele>170</ele>
        <time>2018-09-18T09:23:41Z</time>
      </trkpt>
      <trkpt lat="45.93114" lon="4.7652">
        <ele>170</ele>
        <time>2018-09-18T09:23:42Z</time>
      </trkpt>
      <trkpt lat="45.93108" lon="4.76513">
        <ele>170</ele>
        <time>2018-09-18T09:23:44Z</time>
      </trkpt>
      <trkpt lat="45.93104" lon="4.76509">
        <ele>170</ele>
        <time>2018-09-18T09:23:45Z</time>
      </trkpt>
      <trkpt lat="45.93099" lon="4.76502">
        <ele>170</ele>
        <time>2018-09-18T09:23:47Z</time>
      </trkpt>
      <trkpt lat="45.93095" lon="4.76496">
        <ele>170</ele>
        <time>2018-09-18T09:23:48Z</time>
      </trkpt>
      <trkpt lat="45.93091" lon="4.76492">
        <ele>170</ele>
        <time>2018-09-18T09:23:49Z</time>
      </trkpt>
      <trkpt lat="45.93087" lon="4.76489">
        <ele>170</ele>
        <time>2018-09-18T09:23:50Z</time>
      </trkpt>
      <trkpt lat="45.9308" lon="4.76483">
        <ele>169</ele>
        <time>2018-09-18T09:23:52Z</time>
      </trkpt>
      <trkpt lat="45.93076" lon="4.76479">
        <ele>169</ele>
        <time>2018-09-18T09:23:53Z</time>
      </trkpt>
      <trkpt lat="45.9307" lon="4.76475">
        <ele>169</ele>
        <time>2018-09-18T09:23:54Z</time>
      </trkpt>
      <trkpt lat="45.93066" lon="4.7647">
        <ele>169</ele>
        <time>2018-09-18T09:23:55Z</time>
      </trkpt>
      <trkpt lat="45.93062" lon="4.76467">
        <ele>169</ele>
        <time>2018-09-18T09:23:56Z</time>
      </trkpt>
      <trkpt lat="45.93054" lon="4.76461">
        <ele>169</ele>
        <time>2018-09-18T09:23:57Z</time>
      </trkpt>
      <trkpt lat="45.93052" lon="4.76457">
        <ele>169</ele>
        <time>2018-09-18T09:23:58Z</time>
      </trkpt>
      <trkpt lat="45.93045" lon="4.76452">
        <ele>169</ele>
        <time>2018-09-18T09:23:59Z</time>
      </trkpt>
      <trkpt lat="45.93042" lon="4.76448">
        <ele>169</ele>
        <time>2018-09-18T09:24:00Z</time>
      </trkpt>
      <trkpt lat="45.93032" lon="4.76443">
        <ele>169</ele>
        <time>2018-09-18T09:24:01Z</time>
      </trkpt>
      <trkpt lat="45.93027" lon="4.76438">
        <ele>169</ele>
        <time>2018-09-18T09:24:02Z</time>
      </trkpt>
      <trkpt lat="45.93022" lon="4.76434">
        <ele>169</ele>
        <time>2018-09-18T09:24:03Z</time>
      </trkpt>
      <trkpt lat="45.93018" lon="4.7643">
        <ele>169</ele>
        <time>2018-09-18T09:24:04Z</time>
      </trkpt>
      <trkpt lat="45.93011" lon="4.76426">
        <ele>169</ele>
        <time>2018-09-18T09:24:05Z</time>
      </trkpt>
      <trkpt lat="45.93005" lon="4.76422">
        <ele>169</ele>
        <time>2018-09-18T09:24:06Z</time>
      </trkpt>
      <trkpt lat="45.93002" lon="4.76417">
        <ele>169</ele>
        <time>2018-09-18T09:24:07Z</time>
      </trkpt>
      <trkpt lat="45.92996" lon="4.76412">
        <ele>169</ele>
        <time>2018-09-18T09:24:08Z</time>
      </trkpt>
      <trkpt lat="45.9299" lon="4.76408">
        <ele>169</ele>
        <time>2018-09-18T09:24:09Z</time>
      </trkpt>
      <trkpt lat="45.92989" lon="4.76406">
        <ele>169</ele>
        <time>2018-09-18T09:24:10Z</time>
      </trkpt>
      <trkpt lat="45.92982" lon="4.76396">
        <ele>169</ele>
        <time>2018-09-18T09:24:11Z</time>
      </trkpt>
      <trkpt lat="45.92978" lon="4.76388">
        <ele>169</ele>
        <time>2018-09-18T09:24:12Z</time>
      </trkpt>
      <trkpt lat="45.92973" lon="4.76384">
        <ele>169</ele>
        <time>2018-09-18T09:24:13Z</time>
      </trkpt>
      <trkpt lat="45.92968" lon="4.76379">
        <ele>169</ele>
        <time>2018-09-18T09:24:14Z</time>
      </trkpt>
      <trkpt lat="45.92964" lon="4.76375">
        <ele>169</ele>
        <time>2018-09-18T09:24:15Z</time>
      </trkpt>
      <trkpt lat="45.92959" lon="4.76365">
        <ele>169</ele>
        <time>2018-09-18T09:24:17Z</time>
      </trkpt>
      <trkpt lat="45.92955" lon="4.76362">
        <ele>169</ele>
        <time>2018-09-18T09:24:18Z</time>
      </trkpt>
      <trkpt lat="45.92951" lon="4.76358">
        <ele>169</ele>
        <time>2018-09-18T09:24:19Z</time>
      </trkpt>
      <trkpt lat="45.92947" lon="4.76353">
        <ele>169</ele>
        <time>2018-09-18T09:24:20Z</time>
      </trkpt>
      <trkpt lat="45.92944" lon="4.76348">
        <ele>169</ele>
        <time>2018-09-18T09:24:21Z</time>
      </trkpt>
      <trkpt lat="45.9294" lon="4.76343">
        <ele>169</ele>
        <time>2018-09-18T09:24:22Z</time>
      </trkpt>
      <trkpt lat="45.92932" lon="4.76338">
        <ele>169</ele>
        <time>2018-09-18T09:24:24Z</time>
      </trkpt>
      <trkpt lat="45.92929" lon="4.76333">
        <ele>169</ele>
        <time>2018-09-18T09:24:25Z</time>
      </trkpt>
      <trkpt lat="45.92923" lon="4.7633">
        <ele>169</ele>
        <time>2018-09-18T09:24:26Z</time>
      </trkpt>
      <trkpt lat="45.92918" lon="4.76326">
        <ele>169</ele>
        <time>2018-09-18T09:24:27Z</time>
      </trkpt>
      <trkpt lat="45.92911" lon="4.76318">
        <ele>169</ele>
        <time>2018-09-18T09:24:29Z</time>
      </trkpt>
      <trkpt lat="45.92907" lon="4.76313">
        <ele>169</ele>
        <time>2018-09-18T09:24:30Z</time>
      </trkpt>
      <trkpt lat="45.92903" lon="4.76309">
        <ele>169</ele>
        <time>2018-09-18T09:24:31Z</time>
      </trkpt>
      <trkpt lat="45.92898" lon="4.76302">
        <ele>169</ele>
        <time>2018-09-18T09:24:32Z</time>
      </trkpt>
      <trkpt lat="45.9289" lon="4.76296">
        <ele>169</ele>
        <time>2018-09-18T09:24:34Z</time>
      </trkpt>
      <trkpt lat="45.92886" lon="4.76294">
        <ele>169</ele>
        <time>2018-09-18T09:24:35Z</time>
      </trkpt>
      <trkpt lat="45.9288" lon="4.76298">
        <ele>169</ele>
        <time>2018-09-18T09:24:37Z</time>
      </trkpt>
      <trkpt lat="45.92875" lon="4.76303">
        <ele>169</ele>
        <time>2018-09-18T09:24:38Z</time>
      </trkpt>
      <trkpt lat="45.92871" lon="4.76307">
        <ele>169</ele>
        <time>2018-09-18T09:24:39Z</time>
      </trkpt>
      <trkpt lat="45.92866" lon="4.76314">
        <ele>169</ele>
        <time>2018-09-18T09:24:40Z</time>
      </trkpt>
      <trkpt lat="45.92862" lon="4.76319">
        <ele>169</ele>
        <time>2018-09-18T09:24:41Z</time>
      </trkpt>
      <trkpt lat="45.9286" lon="4.76324">
        <ele>169</ele>
        <time>2018-09-18T09:24:42Z</time>
      </trkpt>
      <trkpt lat="45.92855" lon="4.76328">
        <ele>169</ele>
        <time>2018-09-18T09:24:43Z</time>
      </trkpt>
      <trkpt lat="45.92851" lon="4.76332">
        <ele>170</ele>
        <time>2018-09-18T09:24:44Z</time>
      </trkpt>
      <trkpt lat="45.92844" lon="4.7634">
        <ele>170</ele>
        <time>2018-09-18T09:24:46Z</time>
      </trkpt>
      <trkpt lat="45.9284" lon="4.76343">
        <ele>170</ele>
        <time>2018-09-18T09:24:47Z</time>
      </trkpt>
      <trkpt lat="45.92836" lon="4.76352">
        <ele>170</ele>
        <time>2018-09-18T09:24:50Z</time>
      </trkpt>
      <trkpt lat="45.9283" lon="4.76359">
        <ele>169</ele>
        <time>2018-09-18T09:24:51Z</time>
      </trkpt>
      <trkpt lat="45.92825" lon="4.76365">
        <ele>169</ele>
        <time>2018-09-18T09:24:52Z</time>
      </trkpt>
      <trkpt lat="45.92823" lon="4.7637">
        <ele>169</ele>
        <time>2018-09-18T09:24:53Z</time>
      </trkpt>
      <trkpt lat="45.92817" lon="4.76376">
        <ele>169</ele>
        <time>2018-09-18T09:24:54Z</time>
      </trkpt>
      <trkpt lat="45.92813" lon="4.76381">
        <ele>169</ele>
        <time>2018-09-18T09:24:55Z</time>
      </trkpt>
      <trkpt lat="45.92805" lon="4.76385">
        <ele>169</ele>
        <time>2018-09-18T09:24:57Z</time>
      </trkpt>
      <trkpt lat="45.92804" lon="4.76385">
        <ele>169</ele>
        <time>2018-09-18T09:24:58Z</time>
      </trkpt>
      <trkpt lat="45.92799" lon="4.76381">
        <ele>169</ele>
        <time>2018-09-18T09:24:59Z</time>
      </trkpt>
      <trkpt lat="45.92795" lon="4.76378">
        <ele>169</ele>
        <time>2018-09-18T09:25:00Z</time>
      </trkpt>
      <trkpt lat="45.92787" lon="4.76374">
        <ele>169</ele>
        <time>2018-09-18T09:25:02Z</time>
      </trkpt>
      <trkpt lat="45.92777" lon="4.76374">
        <ele>169</ele>
        <time>2018-09-18T09:25:03Z</time>
      </trkpt>
      <trkpt lat="45.9277" lon="4.76371">
        <ele>169</ele>
        <time>2018-09-18T09:25:04Z</time>
      </trkpt>
      <trkpt lat="45.92765" lon="4.76368">
        <ele>169</ele>
        <time>2018-09-18T09:25:05Z</time>
      </trkpt>
      <trkpt lat="45.9276" lon="4.76368">
        <ele>169</ele>
        <time>2018-09-18T09:25:06Z</time>
      </trkpt>
      <trkpt lat="45.92755" lon="4.76367">
        <ele>169</ele>
        <time>2018-09-18T09:25:07Z</time>
      </trkpt>
      <trkpt lat="45.92747" lon="4.76365">
        <ele>169</ele>
        <time>2018-09-18T09:25:09Z</time>
      </trkpt>
      <trkpt lat="45.92743" lon="4.76363">
        <ele>169</ele>
        <time>2018-09-18T09:25:10Z</time>
      </trkpt>
      <trkpt lat="45.92735" lon="4.76361">
        <ele>169</ele>
        <time>2018-09-18T09:25:12Z</time>
      </trkpt>
      <trkpt lat="45.9273" lon="4.76359">
        <ele>169</ele>
        <time>2018-09-18T09:25:13Z</time>
      </trkpt>
      <trkpt lat="45.92723" lon="4.76357">
        <ele>169</ele>
        <time>2018-09-18T09:25:15Z</time>
      </trkpt>
      <trkpt lat="45.92718" lon="4.76355">
        <ele>169</ele>
        <time>2018-09-18T09:25:16Z</time>
      </trkpt>
      <trkpt lat="45.92713" lon="4.76352">
        <ele>169</ele>
        <time>2018-09-18T09:25:17Z</time>
      </trkpt>
      <trkpt lat="45.92707" lon="4.76354">
        <ele>168</ele>
        <time>2018-09-18T09:25:18Z</time>
      </trkpt>
      <trkpt lat="45.92702" lon="4.76352">
        <ele>168</ele>
        <time>2018-09-18T09:25:19Z</time>
      </trkpt>
      <trkpt lat="45.92698" lon="4.76349">
        <ele>168</ele>
        <time>2018-09-18T09:25:20Z</time>
      </trkpt>
      <trkpt lat="45.92691" lon="4.76345">
        <ele>168</ele>
        <time>2018-09-18T09:25:22Z</time>
      </trkpt>
      <trkpt lat="45.92686" lon="4.76342">
        <ele>168</ele>
        <time>2018-09-18T09:25:23Z</time>
      </trkpt>
      <trkpt lat="45.92681" lon="4.76341">
        <ele>168</ele>
        <time>2018-09-18T09:25:24Z</time>
      </trkpt>
      <trkpt lat="45.92677" lon="4.7634">
        <ele>168</ele>
        <time>2018-09-18T09:25:25Z</time>
      </trkpt>
      <trkpt lat="45.92671" lon="4.76338">
        <ele>168</ele>
        <time>2018-09-18T09:25:26Z</time>
      </trkpt>
      <trkpt lat="45.92667" lon="4.76336">
        <ele>168</ele>
        <time>2018-09-18T09:25:27Z</time>
      </trkpt>
      <trkpt lat="45.92661" lon="4.76333">
        <ele>168</ele>
        <time>2018-09-18T09:25:28Z</time>
      </trkpt>
      <trkpt lat="45.92657" lon="4.76332">
        <ele>168</ele>
        <time>2018-09-18T09:25:29Z</time>
      </trkpt>
      <trkpt lat="45.92654" lon="4.76329">
        <ele>168</ele>
        <time>2018-09-18T09:25:30Z</time>
      </trkpt>
      <trkpt lat="45.92649" lon="4.76327">
        <ele>168</ele>
        <time>2018-09-18T09:25:31Z</time>
      </trkpt>
      <trkpt lat="45.92643" lon="4.76325">
        <ele>168</ele>
        <time>2018-09-18T09:25:32Z</time>
      </trkpt>
      <trkpt lat="45.92638" lon="4.76322">
        <ele>168</ele>
        <time>2018-09-18T09:25:33Z</time>
      </trkpt>
      <trkpt lat="45.92634" lon="4.76319">
        <ele>168</ele>
        <time>2018-09-18T09:25:34Z</time>
      </trkpt>
      <trkpt lat="45.92629" lon="4.76316">
        <ele>168</ele>
        <time>2018-09-18T09:25:35Z</time>
      </trkpt>
      <trkpt lat="45.9262" lon="4.76312">
        <ele>167</ele>
        <time>2018-09-18T09:25:37Z</time>
      </trkpt>
      <trkpt lat="45.92616" lon="4.76309">
        <ele>167</ele>
        <time>2018-09-18T09:25:38Z</time>
      </trkpt>
      <trkpt lat="45.92612" lon="4.76307">
        <ele>167</ele>
        <time>2018-09-18T09:25:39Z</time>
      </trkpt>
      <trkpt lat="45.92607" lon="4.76305">
        <ele>167</ele>
        <time>2018-09-18T09:25:40Z</time>
      </trkpt>
      <trkpt lat="45.92602" lon="4.76303">
        <ele>167</ele>
        <time>2018-09-18T09:25:41Z</time>
      </trkpt>
      <trkpt lat="45.92596" lon="4.76304">
        <ele>167</ele>
        <time>2018-09-18T09:25:42Z</time>
      </trkpt>
      <trkpt lat="45.92588" lon="4.763">
        <ele>167</ele>
        <time>2018-09-18T09:25:44Z</time>
      </trkpt>
      <trkpt lat="45.92584" lon="4.76298">
        <ele>167</ele>
        <time>2018-09-18T09:25:45Z</time>
      </trkpt>
      <trkpt lat="45.92577" lon="4.76295">
        <ele>168</ele>
        <time>2018-09-18T09:25:47Z</time>
      </trkpt>
      <trkpt lat="45.92572" lon="4.76292">
        <ele>168</ele>
        <time>2018-09-18T09:25:48Z</time>
      </trkpt>
      <trkpt lat="45.92569" lon="4.7629">
        <ele>168</ele>
        <time>2018-09-18T09:25:49Z</time>
      </trkpt>
      <trkpt lat="45.92563" lon="4.76287">
        <ele>168</ele>
        <time>2018-09-18T09:25:50Z</time>
      </trkpt>
      <trkpt lat="45.92559" lon="4.76283">
        <ele>168</ele>
        <time>2018-09-18T09:25:51Z</time>
      </trkpt>
      <trkpt lat="45.92554" lon="4.76281">
        <ele>168</ele>
        <time>2018-09-18T09:25:52Z</time>
      </trkpt>
      <trkpt lat="45.92546" lon="4.76276">
        <ele>168</ele>
        <time>2018-09-18T09:25:54Z</time>
      </trkpt>
      <trkpt lat="45.92542" lon="4.76275">
        <ele>168</ele>
        <time>2018-09-18T09:25:55Z</time>
      </trkpt>
      <trkpt lat="45.92533" lon="4.76271">
        <ele>168</ele>
        <time>2018-09-18T09:25:57Z</time>
      </trkpt>
      <trkpt lat="45.92529" lon="4.76267">
        <ele>168</ele>
        <time>2018-09-18T09:25:58Z</time>
      </trkpt>
      <trkpt lat="45.92525" lon="4.76265">
        <ele>168</ele>
        <time>2018-09-18T09:25:59Z</time>
      </trkpt>
      <trkpt lat="45.9252" lon="4.76264">
        <ele>168</ele>
        <time>2018-09-18T09:26:00Z</time>
      </trkpt>
      <trkpt lat="45.92512" lon="4.76262">
        <ele>168</ele>
        <time>2018-09-18T09:26:02Z</time>
      </trkpt>
      <trkpt lat="45.92508" lon="4.7626">
        <ele>168</ele>
        <time>2018-09-18T09:26:03Z</time>
      </trkpt>
      <trkpt lat="45.925" lon="4.76261">
        <ele>168</ele>
        <time>2018-09-18T09:26:05Z</time>
      </trkpt>
      <trkpt lat="45.92496" lon="4.76264">
        <ele>169</ele>
        <time>2018-09-18T09:26:06Z</time>
      </trkpt>
      <trkpt lat="45.92491" lon="4.76266">
        <ele>169</ele>
        <time>2018-09-18T09:26:07Z</time>
      </trkpt>
      <trkpt lat="45.92485" lon="4.7627">
        <ele>169</ele>
        <time>2018-09-18T09:26:08Z</time>
      </trkpt>
      <trkpt lat="45.9248" lon="4.76272">
        <ele>169</ele>
        <time>2018-09-18T09:26:09Z</time>
      </trkpt>
      <trkpt lat="45.92475" lon="4.76274">
        <ele>169</ele>
        <time>2018-09-18T09:26:10Z</time>
      </trkpt>
      <trkpt lat="45.92467" lon="4.76277">
        <ele>169</ele>
        <time>2018-09-18T09:26:12Z</time>
      </trkpt>
      <trkpt lat="45.92463" lon="4.7628">
        <ele>169</ele>
        <time>2018-09-18T09:26:13Z</time>
      </trkpt>
      <trkpt lat="45.92459" lon="4.76288">
        <ele>169</ele>
        <time>2018-09-18T09:26:14Z</time>
      </trkpt>
      <trkpt lat="45.92456" lon="4.76292">
        <ele>169</ele>
        <time>2018-09-18T09:26:15Z</time>
      </trkpt>
      <trkpt lat="45.92452" lon="4.76299">
        <ele>169</ele>
        <time>2018-09-18T09:26:17Z</time>
      </trkpt>
      <trkpt lat="45.92451" lon="4.76304">
        <ele>169</ele>
        <time>2018-09-18T09:26:18Z</time>
      </trkpt>
      <trkpt lat="45.92449" lon="4.7631">
        <ele>169</ele>
        <time>2018-09-18T09:26:19Z</time>
      </trkpt>
      <trkpt lat="45.92447" lon="4.76318">
        <ele>169</ele>
        <time>2018-09-18T09:26:20Z</time>
      </trkpt>
      <trkpt lat="45.92442" lon="4.76329">
        <ele>170</ele>
        <time>2018-09-18T09:26:22Z</time>
      </trkpt>
      <trkpt lat="45.9244" lon="4.76336">
        <ele>170</ele>
        <time>2018-09-18T09:26:23Z</time>
      </trkpt>
      <trkpt lat="45.92437" lon="4.76341">
        <ele>170</ele>
        <time>2018-09-18T09:26:24Z</time>
      </trkpt>
      <trkpt lat="45.92434" lon="4.76346">
        <ele>170</ele>
        <time>2018-09-18T09:26:25Z</time>
      </trkpt>
      <trkpt lat="45.9243" lon="4.76357">
        <ele>170</ele>
        <time>2018-09-18T09:26:27Z</time>
      </trkpt>
      <trkpt lat="45.92428" lon="4.76361">
        <ele>170</ele>
        <time>2018-09-18T09:26:28Z</time>
      </trkpt>
      <trkpt lat="45.92425" lon="4.76372">
        <ele>170</ele>
        <time>2018-09-18T09:26:30Z</time>
      </trkpt>
      <trkpt lat="45.92424" lon="4.76374">
        <ele>170</ele>
        <time>2018-09-18T09:26:31Z</time>
      </trkpt>
      <trkpt lat="45.9242" lon="4.76383">
        <ele>169</ele>
        <time>2018-09-18T09:26:34Z</time>
      </trkpt>
      <trkpt lat="45.92418" lon="4.76385">
        <ele>169</ele>
        <time>2018-09-18T09:26:35Z</time>
      </trkpt>
      <trkpt lat="45.92416" lon="4.76386">
        <ele>169</ele>
        <time>2018-09-18T09:26:36Z</time>
      </trkpt>
      <trkpt lat="45.92407" lon="4.76387">
        <ele>169</ele>
        <time>2018-09-18T09:26:37Z</time>
      </trkpt>
      <trkpt lat="45.924" lon="4.76382">
        <ele>169</ele>
        <time>2018-09-18T09:26:39Z</time>
      </trkpt>
      <trkpt lat="45.92369" lon="4.76351">
        <ele>168</ele>
        <time>2018-09-18T09:26:49Z</time>
      </trkpt>
      <trkpt lat="45.92363" lon="4.76346">
        <ele>168</ele>
        <time>2018-09-18T09:26:52Z</time>
      </trkpt>
      <trkpt lat="45.92361" lon="4.76345">
        <ele>168</ele>
        <time>2018-09-18T09:26:53Z</time>
      </trkpt>
      <trkpt lat="45.92357" lon="4.76343">
        <ele>168</ele>
        <time>2018-09-18T09:26:55Z</time>
      </trkpt>
      <trkpt lat="45.9235" lon="4.76341">
        <ele>168</ele>
        <time>2018-09-18T09:26:56Z</time>
      </trkpt>
      <trkpt lat="45.92343" lon="4.76347">
        <ele>168</ele>
        <time>2018-09-18T09:26:58Z</time>
      </trkpt>
      <trkpt lat="45.92342" lon="4.76347">
        <ele>168</ele>
        <time>2018-09-18T09:26:59Z</time>
      </trkpt>
      <trkpt lat="45.92337" lon="4.76351">
        <ele>168</ele>
        <time>2018-09-18T09:27:01Z</time>
      </trkpt>
      <trkpt lat="45.92332" lon="4.76354">
        <ele>167</ele>
        <time>2018-09-18T09:27:02Z</time>
      </trkpt>
      <trkpt lat="45.92325" lon="4.76358">
        <ele>167</ele>
        <time>2018-09-18T09:27:04Z</time>
      </trkpt>
      <trkpt lat="45.92321" lon="4.7636">
        <ele>167</ele>
        <time>2018-09-18T09:27:05Z</time>
      </trkpt>
      <trkpt lat="45.92314" lon="4.76364">
        <ele>167</ele>
        <time>2018-09-18T09:27:07Z</time>
      </trkpt>
      <trkpt lat="45.92312" lon="4.76365">
        <ele>167</ele>
        <time>2018-09-18T09:27:08Z</time>
      </trkpt>
      <trkpt lat="45.92307" lon="4.76368">
        <ele>167</ele>
        <time>2018-09-18T09:27:09Z</time>
      </trkpt>
      <trkpt lat="45.92303" lon="4.76369">
        <ele>167</ele>
        <time>2018-09-18T09:27:10Z</time>
      </trkpt>
      <trkpt lat="45.92295" lon="4.76373">
        <ele>167</ele>
        <time>2018-09-18T09:27:12Z</time>
      </trkpt>
      <trkpt lat="45.92293" lon="4.76373">
        <ele>167</ele>
        <time>2018-09-18T09:27:13Z</time>
      </trkpt>
      <trkpt lat="45.92287" lon="4.76375">
        <ele>167</ele>
        <time>2018-09-18T09:27:14Z</time>
      </trkpt>
      <trkpt lat="45.92283" lon="4.76376">
        <ele>167</ele>
        <time>2018-09-18T09:27:15Z</time>
      </trkpt>
      <trkpt lat="45.92275" lon="4.76376">
        <ele>167</ele>
        <time>2018-09-18T09:27:17Z</time>
      </trkpt>
      <trkpt lat="45.92271" lon="4.76377">
        <ele>167</ele>
        <time>2018-09-18T09:27:18Z</time>
      </trkpt>
      <trkpt lat="45.92265" lon="4.7638">
        <ele>167</ele>
        <time>2018-09-18T09:27:19Z</time>
      </trkpt>
      <trkpt lat="45.9226" lon="4.76382">
        <ele>167</ele>
        <time>2018-09-18T09:27:20Z</time>
      </trkpt>
      <trkpt lat="45.92253" lon="4.76382">
        <ele>167</ele>
        <time>2018-09-18T09:27:22Z</time>
      </trkpt>
      <trkpt lat="45.92249" lon="4.76383">
        <ele>168</ele>
        <time>2018-09-18T09:27:23Z</time>
      </trkpt>
      <trkpt lat="45.9224" lon="4.76385">
        <ele>168</ele>
        <time>2018-09-18T09:27:25Z</time>
      </trkpt>
      <trkpt lat="45.92235" lon="4.76383">
        <ele>168</ele>
        <time>2018-09-18T09:27:26Z</time>
      </trkpt>
      <trkpt lat="45.92227" lon="4.7638">
        <ele>168</ele>
        <time>2018-09-18T09:27:28Z</time>
      </trkpt>
      <trkpt lat="45.92223" lon="4.76378">
        <ele>168</ele>
        <time>2018-09-18T09:27:29Z</time>
      </trkpt>
      <trkpt lat="45.92218" lon="4.76377">
        <ele>168</ele>
        <time>2018-09-18T09:27:30Z</time>
      </trkpt>
      <trkpt lat="45.92213" lon="4.76374">
        <ele>168</ele>
        <time>2018-09-18T09:27:31Z</time>
      </trkpt>
      <trkpt lat="45.92207" lon="4.7637">
        <ele>168</ele>
        <time>2018-09-18T09:27:33Z</time>
      </trkpt>
      <trkpt lat="45.92203" lon="4.76366">
        <ele>168</ele>
        <time>2018-09-18T09:27:34Z</time>
      </trkpt>
      <trkpt lat="45.92196" lon="4.76361">
        <ele>168</ele>
        <time>2018-09-18T09:27:36Z</time>
      </trkpt>
      <trkpt lat="45.92191" lon="4.7636">
        <ele>168</ele>
        <time>2018-09-18T09:27:37Z</time>
      </trkpt>
      <trkpt lat="45.92183" lon="4.76355">
        <ele>168</ele>
        <time>2018-09-18T09:27:39Z</time>
      </trkpt>
      <trkpt lat="45.92178" lon="4.76352">
        <ele>168</ele>
        <time>2018-09-18T09:27:40Z</time>
      </trkpt>
      <trkpt lat="45.92173" lon="4.76349">
        <ele>169</ele>
        <time>2018-09-18T09:27:41Z</time>
      </trkpt>
      <trkpt lat="45.92168" lon="4.76345">
        <ele>169</ele>
        <time>2018-09-18T09:27:42Z</time>
      </trkpt>
      <trkpt lat="45.92164" lon="4.76342">
        <ele>169</ele>
        <time>2018-09-18T09:27:43Z</time>
      </trkpt>
      <trkpt lat="45.9216" lon="4.76339">
        <ele>169</ele>
        <time>2018-09-18T09:27:44Z</time>
      </trkpt>
      <trkpt lat="45.92151" lon="4.76337">
        <ele>169</ele>
        <time>2018-09-18T09:27:46Z</time>
      </trkpt>
      <trkpt lat="45.92147" lon="4.76334">
        <ele>169</ele>
        <time>2018-09-18T09:27:47Z</time>
      </trkpt>
      <trkpt lat="45.92143" lon="4.7633">
        <ele>169</ele>
        <time>2018-09-18T09:27:48Z</time>
      </trkpt>
      <trkpt lat="45.92139" lon="4.76328">
        <ele>169</ele>
        <time>2018-09-18T09:27:49Z</time>
      </trkpt>
      <trkpt lat="45.92131" lon="4.76323">
        <ele>169</ele>
        <time>2018-09-18T09:27:51Z</time>
      </trkpt>
      <trkpt lat="45.92127" lon="4.76319">
        <ele>169</ele>
        <time>2018-09-18T09:27:52Z</time>
      </trkpt>
      <trkpt lat="45.92123" lon="4.76316">
        <ele>169</ele>
        <time>2018-09-18T09:27:53Z</time>
      </trkpt>
      <trkpt lat="45.92119" lon="4.76313">
        <ele>169</ele>
        <time>2018-09-18T09:27:54Z</time>
      </trkpt>
      <trkpt lat="45.92113" lon="4.7631">
        <ele>169</ele>
        <time>2018-09-18T09:27:55Z</time>
      </trkpt>
      <trkpt lat="45.92108" lon="4.76313">
        <ele>169</ele>
        <time>2018-09-18T09:27:56Z</time>
      </trkpt>
      <trkpt lat="45.921" lon="4.76311">
        <ele>169</ele>
        <time>2018-09-18T09:27:58Z</time>
      </trkpt>
      <trkpt lat="45.92098" lon="4.76306">
        <ele>169</ele>
        <time>2018-09-18T09:27:59Z</time>
      </trkpt>
      <trkpt lat="45.92091" lon="4.76302">
        <ele>169</ele>
        <time>2018-09-18T09:28:01Z</time>
      </trkpt>
      <trkpt lat="45.92087" lon="4.76299">
        <ele>169</ele>
        <time>2018-09-18T09:28:02Z</time>
      </trkpt>
      <trkpt lat="45.92081" lon="4.76292">
        <ele>169</ele>
        <time>2018-09-18T09:28:04Z</time>
      </trkpt>
      <trkpt lat="45.92078" lon="4.76289">
        <ele>169</ele>
        <time>2018-09-18T09:28:05Z</time>
      </trkpt>
      <trkpt lat="45.92073" lon="4.76286">
        <ele>169</ele>
        <time>2018-09-18T09:28:06Z</time>
      </trkpt>
      <trkpt lat="45.92068" lon="4.76284">
        <ele>169</ele>
        <time>2018-09-18T09:28:07Z</time>
      </trkpt>
      <trkpt lat="45.92064" lon="4.76282">
        <ele>169</ele>
        <time>2018-09-18T09:28:08Z</time>
      </trkpt>
      <trkpt lat="45.92058" lon="4.76279">
        <ele>169</ele>
        <time>2018-09-18T09:28:09Z</time>
      </trkpt>
      <trkpt lat="45.92052" lon="4.76273">
        <ele>169</ele>
        <time>2018-09-18T09:28:11Z</time>
      </trkpt>
      <trkpt lat="45.92048" lon="4.76271">
        <ele>169</ele>
        <time>2018-09-18T09:28:12Z</time>
      </trkpt>
      <trkpt lat="45.92043" lon="4.76265">
        <ele>169</ele>
        <time>2018-09-18T09:28:13Z</time>
      </trkpt>
      <trkpt lat="45.92038" lon="4.76267">
        <ele>169</ele>
        <time>2018-09-18T09:28:14Z</time>
      </trkpt>
      <trkpt lat="45.9203" lon="4.76265">
        <ele>169</ele>
        <time>2018-09-18T09:28:16Z</time>
      </trkpt>
      <trkpt lat="45.92025" lon="4.76261">
        <ele>169</ele>
        <time>2018-09-18T09:28:17Z</time>
      </trkpt>
      <trkpt lat="45.92021" lon="4.76258">
        <ele>169</ele>
        <time>2018-09-18T09:28:18Z</time>
      </trkpt>
      <trkpt lat="45.92017" lon="4.76257">
        <ele>169</ele>
        <time>2018-09-18T09:28:19Z</time>
      </trkpt>
      <trkpt lat="45.92012" lon="4.76253">
        <ele>169</ele>
        <time>2018-09-18T09:28:20Z</time>
      </trkpt>
      <trkpt lat="45.92006" lon="4.76253">
        <ele>170</ele>
        <time>2018-09-18T09:28:21Z</time>
      </trkpt>
      <trkpt lat="45.92002" lon="4.76252">
        <ele>170</ele>
        <time>2018-09-18T09:28:22Z</time>
      </trkpt>
      <trkpt lat="45.91997" lon="4.76249">
        <ele>170</ele>
        <time>2018-09-18T09:28:23Z</time>
      </trkpt>
      <trkpt lat="45.91988" lon="4.76247">
        <ele>170</ele>
        <time>2018-09-18T09:28:25Z</time>
      </trkpt>
      <trkpt lat="45.91983" lon="4.76245">
        <ele>170</ele>
        <time>2018-09-18T09:28:26Z</time>
      </trkpt>
      <trkpt lat="45.91979" lon="4.76243">
        <ele>170</ele>
        <time>2018-09-18T09:28:27Z</time>
      </trkpt>
      <trkpt lat="45.91975" lon="4.7624">
        <ele>171</ele>
        <time>2018-09-18T09:28:28Z</time>
      </trkpt>
      <trkpt lat="45.9197" lon="4.76238">
        <ele>171</ele>
        <time>2018-09-18T09:28:29Z</time>
      </trkpt>
      <trkpt lat="45.91966" lon="4.76235">
        <ele>171</ele>
        <time>2018-09-18T09:28:30Z</time>
      </trkpt>
      <trkpt lat="45.91962" lon="4.76233">
        <ele>171</ele>
        <time>2018-09-18T09:28:31Z</time>
      </trkpt>
      <trkpt lat="45.91957" lon="4.76229">
        <ele>171</ele>
        <time>2018-09-18T09:28:32Z</time>
      </trkpt>
      <trkpt lat="45.91952" lon="4.76227">
        <ele>171</ele>
        <time>2018-09-18T09:28:33Z</time>
      </trkpt>
      <trkpt lat="45.91948" lon="4.76225">
        <ele>171</ele>
        <time>2018-09-18T09:28:34Z</time>
      </trkpt>
      <trkpt lat="45.91943" lon="4.76223">
        <ele>171</ele>
        <time>2018-09-18T09:28:35Z</time>
      </trkpt>
      <trkpt lat="45.91938" lon="4.76219">
        <ele>171</ele>
        <time>2018-09-18T09:28:36Z</time>
      </trkpt>
      <trkpt lat="45.91934" lon="4.76217">
        <ele>171</ele>
        <time>2018-09-18T09:28:37Z</time>
      </trkpt>
      <trkpt lat="45.91929" lon="4.76214">
        <ele>171</ele>
        <time>2018-09-18T09:28:38Z</time>
      </trkpt>
      <trkpt lat="45.91924" lon="4.76212">
        <ele>171</ele>
        <time>2018-09-18T09:28:39Z</time>
      </trkpt>
      <trkpt lat="45.9192" lon="4.76208">
        <ele>171</ele>
        <time>2018-09-18T09:28:40Z</time>
      </trkpt>
      <trkpt lat="45.91912" lon="4.76203">
        <ele>172</ele>
        <time>2018-09-18T09:28:42Z</time>
      </trkpt>
      <trkpt lat="45.91907" lon="4.762">
        <ele>172</ele>
        <time>2018-09-18T09:28:43Z</time>
      </trkpt>
      <trkpt lat="45.91902" lon="4.76198">
        <ele>172</ele>
        <time>2018-09-18T09:28:44Z</time>
      </trkpt>
      <trkpt lat="45.91897" lon="4.76195">
        <ele>172</ele>
        <time>2018-09-18T09:28:45Z</time>
      </trkpt>
      <trkpt lat="45.91892" lon="4.76193">
        <ele>172</ele>
        <time>2018-09-18T09:28:46Z</time>
      </trkpt>
      <trkpt lat="45.91887" lon="4.76191">
        <ele>172</ele>
        <time>2018-09-18T09:28:47Z</time>
      </trkpt>
      <trkpt lat="45.91883" lon="4.76189">
        <ele>172</ele>
        <time>2018-09-18T09:28:48Z</time>
      </trkpt>
      <trkpt lat="45.9188" lon="4.76184">
        <ele>172</ele>
        <time>2018-09-18T09:28:49Z</time>
      </trkpt>
      <trkpt lat="45.91872" lon="4.76178">
        <ele>172</ele>
        <time>2018-09-18T09:28:51Z</time>
      </trkpt>
      <trkpt lat="45.9187" lon="4.76176">
        <ele>172</ele>
        <time>2018-09-18T09:28:52Z</time>
      </trkpt>
      <trkpt lat="45.91862" lon="4.76171">
        <ele>172</ele>
        <time>2018-09-18T09:28:56Z</time>
      </trkpt>
      <trkpt lat="45.9186" lon="4.76171">
        <ele>172</ele>
        <time>2018-09-18T09:28:57Z</time>
      </trkpt>
      <trkpt lat="45.91858" lon="4.76171">
        <ele>172</ele>
        <time>2018-09-18T09:28:58Z</time>
      </trkpt>
      <trkpt lat="45.91849" lon="4.76175">
        <ele>172</ele>
        <time>2018-09-18T09:28:59Z</time>
      </trkpt>
      <trkpt lat="45.91846" lon="4.76179">
        <ele>172</ele>
        <time>2018-09-18T09:29:00Z</time>
      </trkpt>
      <trkpt lat="45.91844" lon="4.76185">
        <ele>172</ele>
        <time>2018-09-18T09:29:01Z</time>
      </trkpt>
      <trkpt lat="45.91842" lon="4.76191">
        <ele>172</ele>
        <time>2018-09-18T09:29:02Z</time>
      </trkpt>
      <trkpt lat="45.91841" lon="4.76197">
        <ele>172</ele>
        <time>2018-09-18T09:29:03Z</time>
      </trkpt>
      <trkpt lat="45.91839" lon="4.76208">
        <ele>172</ele>
        <time>2018-09-18T09:29:05Z</time>
      </trkpt>
      <trkpt lat="45.91838" lon="4.76213">
        <ele>172</ele>
        <time>2018-09-18T09:29:06Z</time>
      </trkpt>
      <trkpt lat="45.91837" lon="4.76219">
        <ele>172</ele>
        <time>2018-09-18T09:29:08Z</time>
      </trkpt>
      <trkpt lat="45.91836" lon="4.76228">
        <ele>172</ele>
        <time>2018-09-18T09:29:09Z</time>
      </trkpt>
      <trkpt lat="45.91834" lon="4.7624">
        <ele>173</ele>
        <time>2018-09-18T09:29:11Z</time>
      </trkpt>
      <trkpt lat="45.91834" lon="4.76245">
        <ele>173</ele>
        <time>2018-09-18T09:29:12Z</time>
      </trkpt>
      <trkpt lat="45.91831" lon="4.76257">
        <ele>173</ele>
        <time>2018-09-18T09:29:14Z</time>
      </trkpt>
      <trkpt lat="45.9183" lon="4.76262">
        <ele>174</ele>
        <time>2018-09-18T09:29:15Z</time>
      </trkpt>
      <trkpt lat="45.91828" lon="4.76268">
        <ele>174</ele>
        <time>2018-09-18T09:29:16Z</time>
      </trkpt>
      <trkpt lat="45.91826" lon="4.76275">
        <ele>174</ele>
        <time>2018-09-18T09:29:17Z</time>
      </trkpt>
      <trkpt lat="45.91823" lon="4.76287">
        <ele>174</ele>
        <time>2018-09-18T09:29:19Z</time>
      </trkpt>
      <trkpt lat="45.91821" lon="4.76294">
        <ele>174</ele>
        <time>2018-09-18T09:29:20Z</time>
      </trkpt>
      <trkpt lat="45.91819" lon="4.76305">
        <ele>174</ele>
        <time>2018-09-18T09:29:22Z</time>
      </trkpt>
      <trkpt lat="45.91818" lon="4.76307">
        <ele>174</ele>
        <time>2018-09-18T09:29:23Z</time>
      </trkpt>
      <trkpt lat="45.91815" lon="4.76317">
        <ele>174</ele>
        <time>2018-09-18T09:29:26Z</time>
      </trkpt>
      <trkpt lat="45.91815" lon="4.76319">
        <ele>174</ele>
        <time>2018-09-18T09:29:27Z</time>
      </trkpt>
      <trkpt lat="45.91811" lon="4.7633">
        <ele>174</ele>
        <time>2018-09-18T09:29:30Z</time>
      </trkpt>
      <trkpt lat="45.91809" lon="4.76332">
        <ele>174</ele>
        <time>2018-09-18T09:29:31Z</time>
      </trkpt>
      <trkpt lat="45.91801" lon="4.76331">
        <ele>174</ele>
        <time>2018-09-18T09:29:35Z</time>
      </trkpt>
      <trkpt lat="45.91799" lon="4.76331">
        <ele>174</ele>
        <time>2018-09-18T09:29:36Z</time>
      </trkpt>
      <trkpt lat="45.91791" lon="4.76328">
        <ele>175</ele>
        <time>2018-09-18T09:29:40Z</time>
      </trkpt>
      <trkpt lat="45.9179" lon="4.76326">
        <ele>175</ele>
        <time>2018-09-18T09:29:41Z</time>
      </trkpt>
      <trkpt lat="45.91782" lon="4.76321">
        <ele>175</ele>
        <time>2018-09-18T09:29:45Z</time>
      </trkpt>
      <trkpt lat="45.9178" lon="4.7632">
        <ele>175</ele>
        <time>2018-09-18T09:29:46Z</time>
      </trkpt>
      <trkpt lat="45.91774" lon="4.76316">
        <ele>175</ele>
        <time>2018-09-18T09:29:49Z</time>
      </trkpt>
      <trkpt lat="45.91772" lon="4.76314">
        <ele>175</ele>
        <time>2018-09-18T09:29:50Z</time>
      </trkpt>
      <trkpt lat="45.91764" lon="4.76312">
        <ele>175</ele>
        <time>2018-09-18T09:29:53Z</time>
      </trkpt>
      <trkpt lat="45.91762" lon="4.76313">
        <ele>175</ele>
        <time>2018-09-18T09:29:54Z</time>
      </trkpt>
      <trkpt lat="45.91754" lon="4.76316">
        <ele>175</ele>
        <time>2018-09-18T09:29:57Z</time>
      </trkpt>
      <trkpt lat="45.91751" lon="4.76318">
        <ele>176</ele>
        <time>2018-09-18T09:29:58Z</time>
      </trkpt>
      <trkpt lat="45.91745" lon="4.7632">
        <ele>177</ele>
        <time>2018-09-18T09:30:00Z</time>
      </trkpt>
      <trkpt lat="45.91742" lon="4.76322">
        <ele>177</ele>
        <time>2018-09-18T09:30:01Z</time>
      </trkpt>
      <trkpt lat="45.91735" lon="4.76325">
        <ele>177</ele>
        <time>2018-09-18T09:30:04Z</time>
      </trkpt>
      <trkpt lat="45.91732" lon="4.76327">
        <ele>177</ele>
        <time>2018-09-18T09:30:05Z</time>
      </trkpt>
      <trkpt lat="45.91724" lon="4.76332">
        <ele>177</ele>
        <time>2018-09-18T09:30:08Z</time>
      </trkpt>
      <trkpt lat="45.91721" lon="4.76333">
        <ele>177</ele>
        <time>2018-09-18T09:30:09Z</time>
      </trkpt>
      <trkpt lat="45.91715" lon="4.76336">
        <ele>176</ele>
        <time>2018-09-18T09:30:11Z</time>
      </trkpt>
      <trkpt lat="45.91712" lon="4.76338">
        <ele>176</ele>
        <time>2018-09-18T09:30:12Z</time>
      </trkpt>
      <trkpt lat="45.91704" lon="4.76341">
        <ele>177</ele>
        <time>2018-09-18T09:30:16Z</time>
      </trkpt>
      <trkpt lat="45.91702" lon="4.76343">
        <ele>177</ele>
        <time>2018-09-18T09:30:17Z</time>
      </trkpt>
      <trkpt lat="45.91695" lon="4.76347">
        <ele>177</ele>
        <time>2018-09-18T09:30:20Z</time>
      </trkpt>
      <trkpt lat="45.91693" lon="4.76348">
        <ele>177</ele>
        <time>2018-09-18T09:30:21Z</time>
      </trkpt>
      <trkpt lat="45.91684" lon="4.76349">
        <ele>177</ele>
        <time>2018-09-18T09:30:24Z</time>
      </trkpt>
      <trkpt lat="45.91682" lon="4.76349">
        <ele>177</ele>
        <time>2018-09-18T09:30:25Z</time>
      </trkpt>
      <trkpt lat="45.91674" lon="4.76347">
        <ele>177</ele>
        <time>2018-09-18T09:30:28Z</time>
      </trkpt>
      <trkpt lat="45.91672" lon="4.76347">
        <ele>177</ele>
        <time>2018-09-18T09:30:29Z</time>
      </trkpt>
      <trkpt lat="45.91664" lon="4.76345">
        <ele>177</ele>
        <time>2018-09-18T09:30:32Z</time>
      </trkpt>
      <trkpt lat="45.91661" lon="4.76344">
        <ele>177</ele>
        <time>2018-09-18T09:30:33Z</time>
      </trkpt>
      <trkpt lat="45.91653" lon="4.76342">
        <ele>177</ele>
        <time>2018-09-18T09:30:36Z</time>
      </trkpt>
      <trkpt lat="45.9165" lon="4.76342">
        <ele>177</ele>
        <time>2018-09-18T09:30:37Z</time>
      </trkpt>
      <trkpt lat="45.91643" lon="4.76341">
        <ele>177</ele>
        <time>2018-09-18T09:30:39Z</time>
      </trkpt>
      <trkpt lat="45.9164" lon="4.7634">
        <ele>177</ele>
        <time>2018-09-18T09:30:40Z</time>
      </trkpt>
      <trkpt lat="45.91633" lon="4.76338">
        <ele>176</ele>
        <time>2018-09-18T09:30:43Z</time>
      </trkpt>
      <trkpt lat="45.91631" lon="4.76338">
        <ele>176</ele>
        <time>2018-09-18T09:30:44Z</time>
      </trkpt>
      <trkpt lat="45.91623" lon="4.76336">
        <ele>176</ele>
        <time>2018-09-18T09:30:47Z</time>
      </trkpt>
      <trkpt lat="45.9162" lon="4.76335">
        <ele>176</ele>
        <time>2018-09-18T09:30:48Z</time>
      </trkpt>
      <trkpt lat="45.91611" lon="4.76332">
        <ele>176</ele>
        <time>2018-09-18T09:30:51Z</time>
      </trkpt>
      <trkpt lat="45.91609" lon="4.76331">
        <ele>176</ele>
        <time>2018-09-18T09:30:52Z</time>
      </trkpt>
      <trkpt lat="45.91601" lon="4.76327">
        <ele>176</ele>
        <time>2018-09-18T09:30:55Z</time>
      </trkpt>
      <trkpt lat="45.91599" lon="4.76325">
        <ele>176</ele>
        <time>2018-09-18T09:30:56Z</time>
      </trkpt>
      <trkpt lat="45.91591" lon="4.76322">
        <ele>176</ele>
        <time>2018-09-18T09:30:59Z</time>
      </trkpt>
      <trkpt lat="45.91589" lon="4.7632">
        <ele>176</ele>
        <time>2018-09-18T09:31:00Z</time>
      </trkpt>
      <trkpt lat="45.9158" lon="4.76317">
        <ele>176</ele>
        <time>2018-09-18T09:31:03Z</time>
      </trkpt>
      <trkpt lat="45.91578" lon="4.76316">
        <ele>176</ele>
        <time>2018-09-18T09:31:04Z</time>
      </trkpt>
      <trkpt lat="45.91571" lon="4.76316">
        <ele>176</ele>
        <time>2018-09-18T09:31:06Z</time>
      </trkpt>
      <trkpt lat="45.91568" lon="4.76316">
        <ele>176</ele>
        <time>2018-09-18T09:31:07Z</time>
      </trkpt>
      <trkpt lat="45.9156" lon="4.76317">
        <ele>176</ele>
        <time>2018-09-18T09:31:10Z</time>
      </trkpt>
      <trkpt lat="45.91558" lon="4.76318">
        <ele>176</ele>
        <time>2018-09-18T09:31:11Z</time>
      </trkpt>
      <trkpt lat="45.91549" lon="4.76321">
        <ele>177</ele>
        <time>2018-09-18T09:31:15Z</time>
      </trkpt>
      <trkpt lat="45.91546" lon="4.76321">
        <ele>177</ele>
        <time>2018-09-18T09:31:16Z</time>
      </trkpt>
      <trkpt lat="45.91538" lon="4.76324">
        <ele>177</ele>
        <time>2018-09-18T09:31:20Z</time>
      </trkpt>
      <trkpt lat="45.91536" lon="4.76325">
        <ele>177</ele>
        <time>2018-09-18T09:31:21Z</time>
      </trkpt>
      <trkpt lat="45.9153" lon="4.76333">
        <ele>177</ele>
        <time>2018-09-18T09:31:26Z</time>
      </trkpt>
      <trkpt lat="45.91528" lon="4.76335">
        <ele>176</ele>
        <time>2018-09-18T09:31:27Z</time>
      </trkpt>
      <trkpt lat="45.91527" lon="4.76338">
        <ele>176</ele>
        <time>2018-09-18T09:31:28Z</time>
      </trkpt>
      <trkpt lat="45.91522" lon="4.76346">
        <ele>176</ele>
        <time>2018-09-18T09:31:29Z</time>
      </trkpt>
      <trkpt lat="45.91518" lon="4.76357">
        <ele>176</ele>
        <time>2018-09-18T09:31:34Z</time>
      </trkpt>
      <trkpt lat="45.91517" lon="4.76359">
        <ele>176</ele>
        <time>2018-09-18T09:31:35Z</time>
      </trkpt>
      <trkpt lat="45.91513" lon="4.76365">
        <ele>176</ele>
        <time>2018-09-18T09:31:37Z</time>
      </trkpt>
      <trkpt lat="45.91508" lon="4.76374">
        <ele>176</ele>
        <time>2018-09-18T09:31:38Z</time>
      </trkpt>
      <trkpt lat="45.91504" lon="4.7638">
        <ele>176</ele>
        <time>2018-09-18T09:31:41Z</time>
      </trkpt>
      <trkpt lat="45.91499" lon="4.7639">
        <ele>176</ele>
        <time>2018-09-18T09:31:42Z</time>
      </trkpt>
      <trkpt lat="45.91495" lon="4.76397">
        <ele>176</ele>
        <time>2018-09-18T09:31:45Z</time>
      </trkpt>
      <trkpt lat="45.91494" lon="4.764">
        <ele>176</ele>
        <time>2018-09-18T09:31:46Z</time>
      </trkpt>
      <trkpt lat="45.91489" lon="4.7641">
        <ele>176</ele>
        <time>2018-09-18T09:31:47Z</time>
      </trkpt>
      <trkpt lat="45.91488" lon="4.76412">
        <ele>176</ele>
        <time>2018-09-18T09:31:48Z</time>
      </trkpt>
      <trkpt lat="45.91486" lon="4.76417">
        <ele>176</ele>
        <time>2018-09-18T09:31:50Z</time>
      </trkpt>
      <trkpt lat="45.9148" lon="4.76426">
        <ele>176</ele>
        <time>2018-09-18T09:31:51Z</time>
      </trkpt>
      <trkpt lat="45.91477" lon="4.76434">
        <ele>176</ele>
        <time>2018-09-18T09:31:54Z</time>
      </trkpt>
      <trkpt lat="45.91476" lon="4.76437">
        <ele>176</ele>
        <time>2018-09-18T09:31:55Z</time>
      </trkpt>
      <trkpt lat="45.91472" lon="4.76446">
        <ele>176</ele>
        <time>2018-09-18T09:31:58Z</time>
      </trkpt>
      <trkpt lat="45.91471" lon="4.7645">
        <ele>177</ele>
        <time>2018-09-18T09:31:59Z</time>
      </trkpt>
      <trkpt lat="45.91468" lon="4.76457">
        <ele>177</ele>
        <time>2018-09-18T09:32:01Z</time>
      </trkpt>
      <trkpt lat="45.91462" lon="4.76469">
        <ele>177</ele>
        <time>2018-09-18T09:32:02Z</time>
      </trkpt>
      <trkpt lat="45.91458" lon="4.7648">
        <ele>177</ele>
        <time>2018-09-18T09:32:05Z</time>
      </trkpt>
      <trkpt lat="45.91456" lon="4.76482">
        <ele>177</ele>
        <time>2018-09-18T09:32:06Z</time>
      </trkpt>
      <trkpt lat="45.91453" lon="4.76486">
        <ele>177</ele>
        <time>2018-09-18T09:32:08Z</time>
      </trkpt>
      <trkpt lat="45.91446" lon="4.76492">
        <ele>177</ele>
        <time>2018-09-18T09:32:09Z</time>
      </trkpt>
      <trkpt lat="45.91441" lon="4.76498">
        <ele>177</ele>
        <time>2018-09-18T09:32:11Z</time>
      </trkpt>
      <trkpt lat="45.91436" lon="4.76503">
        <ele>177</ele>
        <time>2018-09-18T09:32:12Z</time>
      </trkpt>
      <trkpt lat="45.91431" lon="4.76511">
        <ele>177</ele>
        <time>2018-09-18T09:32:14Z</time>
      </trkpt>
      <trkpt lat="45.91428" lon="4.76516">
        <ele>177</ele>
        <time>2018-09-18T09:32:15Z</time>
      </trkpt>
      <trkpt lat="45.91424" lon="4.76525">
        <ele>177</ele>
        <time>2018-09-18T09:32:17Z</time>
      </trkpt>
      <trkpt lat="45.91423" lon="4.76527">
        <ele>177</ele>
        <time>2018-09-18T09:32:18Z</time>
      </trkpt>
      <trkpt lat="45.9142" lon="4.76534">
        <ele>177</ele>
        <time>2018-09-18T09:32:19Z</time>
      </trkpt>
      <trkpt lat="45.91417" lon="4.76538">
        <ele>177</ele>
        <time>2018-09-18T09:32:20Z</time>
      </trkpt>
      <trkpt lat="45.91414" lon="4.76541">
        <ele>177</ele>
        <time>2018-09-18T09:32:22Z</time>
      </trkpt>
      <trkpt lat="45.91409" lon="4.76548">
        <ele>177</ele>
        <time>2018-09-18T09:32:23Z</time>
      </trkpt>
      <trkpt lat="45.91403" lon="4.76557">
        <ele>177</ele>
        <time>2018-09-18T09:32:25Z</time>
      </trkpt>
      <trkpt lat="45.914" lon="4.76561">
        <ele>177</ele>
        <time>2018-09-18T09:32:26Z</time>
      </trkpt>
      <trkpt lat="45.91395" lon="4.7657">
        <ele>177</ele>
        <time>2018-09-18T09:32:29Z</time>
      </trkpt>
      <trkpt lat="45.91393" lon="4.76573">
        <ele>177</ele>
        <time>2018-09-18T09:32:30Z</time>
      </trkpt>
      <trkpt lat="45.91389" lon="4.76582">
        <ele>177</ele>
        <time>2018-09-18T09:32:31Z</time>
      </trkpt>
      <trkpt lat="45.91387" lon="4.76587">
        <ele>176</ele>
        <time>2018-09-18T09:32:32Z</time>
      </trkpt>
      <trkpt lat="45.91382" lon="4.76598">
        <ele>176</ele>
        <time>2018-09-18T09:32:34Z</time>
      </trkpt>
      <trkpt lat="45.91378" lon="4.76603">
        <ele>176</ele>
        <time>2018-09-18T09:32:35Z</time>
      </trkpt>
      <trkpt lat="45.91376" lon="4.76606">
        <ele>176</ele>
        <time>2018-09-18T09:32:36Z</time>
      </trkpt>
      <trkpt lat="45.91371" lon="4.76614">
        <ele>176</ele>
        <time>2018-09-18T09:32:38Z</time>
      </trkpt>
      <trkpt lat="45.91368" lon="4.76621">
        <ele>176</ele>
        <time>2018-09-18T09:32:41Z</time>
      </trkpt>
      <trkpt lat="45.91366" lon="4.7663">
        <ele>176</ele>
        <time>2018-09-18T09:32:42Z</time>
      </trkpt>
      <trkpt lat="45.91363" lon="4.76642">
        <ele>176</ele>
        <time>2018-09-18T09:32:44Z</time>
      </trkpt>
      <trkpt lat="45.9136" lon="4.76644">
        <ele>176</ele>
        <time>2018-09-18T09:32:45Z</time>
      </trkpt>
      <trkpt lat="45.91357" lon="4.7665">
        <ele>176</ele>
        <time>2018-09-18T09:32:46Z</time>
      </trkpt>
      <trkpt lat="45.91354" lon="4.76657">
        <ele>176</ele>
        <time>2018-09-18T09:32:47Z</time>
      </trkpt>
      <trkpt lat="45.91351" lon="4.7666">
        <ele>176</ele>
        <time>2018-09-18T09:32:48Z</time>
      </trkpt>
      <trkpt lat="45.91348" lon="4.76667">
        <ele>176</ele>
        <time>2018-09-18T09:32:49Z</time>
      </trkpt>
      <trkpt lat="45.91342" lon="4.76677">
        <ele>176</ele>
        <time>2018-09-18T09:32:51Z</time>
      </trkpt>
      <trkpt lat="45.9134" lon="4.7668">
        <ele>176</ele>
        <time>2018-09-18T09:32:52Z</time>
      </trkpt>
      <trkpt lat="45.91336" lon="4.7669">
        <ele>176</ele>
        <time>2018-09-18T09:32:54Z</time>
      </trkpt>
      <trkpt lat="45.91335" lon="4.76692">
        <ele>176</ele>
        <time>2018-09-18T09:32:55Z</time>
      </trkpt>
      <trkpt lat="45.9133" lon="4.76702">
        <ele>176</ele>
        <time>2018-09-18T09:32:57Z</time>
      </trkpt>
      <trkpt lat="45.91328" lon="4.76708">
        <ele>176</ele>
        <time>2018-09-18T09:32:58Z</time>
      </trkpt>
      <trkpt lat="45.91326" lon="4.76718">
        <ele>176</ele>
        <time>2018-09-18T09:33:01Z</time>
      </trkpt>
      <trkpt lat="45.91325" lon="4.76721">
        <ele>176</ele>
        <time>2018-09-18T09:33:02Z</time>
      </trkpt>
      <trkpt lat="45.91323" lon="4.7673">
        <ele>176</ele>
        <time>2018-09-18T09:33:03Z</time>
      </trkpt>
      <trkpt lat="45.91325" lon="4.7674">
        <ele>176</ele>
        <time>2018-09-18T09:33:04Z</time>
      </trkpt>
      <trkpt lat="45.91326" lon="4.76748">
        <ele>176</ele>
        <time>2018-09-18T09:33:05Z</time>
      </trkpt>
      <trkpt lat="45.91325" lon="4.76756">
        <ele>176</ele>
        <time>2018-09-18T09:33:06Z</time>
      </trkpt>
      <trkpt lat="45.91324" lon="4.76764">
        <ele>176</ele>
        <time>2018-09-18T09:33:07Z</time>
      </trkpt>
      <trkpt lat="45.91324" lon="4.76771">
        <ele>176</ele>
        <time>2018-09-18T09:33:08Z</time>
      </trkpt>
      <trkpt lat="45.91323" lon="4.76779">
        <ele>176</ele>
        <time>2018-09-18T09:33:09Z</time>
      </trkpt>
      <trkpt lat="45.91324" lon="4.76785">
        <ele>175</ele>
        <time>2018-09-18T09:33:10Z</time>
      </trkpt>
      <trkpt lat="45.91323" lon="4.76791">
        <ele>175</ele>
        <time>2018-09-18T09:33:11Z</time>
      </trkpt>
      <trkpt lat="45.91323" lon="4.76799">
        <ele>175</ele>
        <time>2018-09-18T09:33:12Z</time>
      </trkpt>
      <trkpt lat="45.91324" lon="4.76811">
        <ele>175</ele>
        <time>2018-09-18T09:33:14Z</time>
      </trkpt>
      <trkpt lat="45.91323" lon="4.76818">
        <ele>175</ele>
        <time>2018-09-18T09:33:15Z</time>
      </trkpt>
      <trkpt lat="45.91323" lon="4.7683">
        <ele>175</ele>
        <time>2018-09-18T09:33:17Z</time>
      </trkpt>
      <trkpt lat="45.91322" lon="4.76836">
        <ele>174</ele>
        <time>2018-09-18T09:33:18Z</time>
      </trkpt>
      <trkpt lat="45.9132" lon="4.76842">
        <ele>175</ele>
        <time>2018-09-18T09:33:19Z</time>
      </trkpt>
      <trkpt lat="45.9132" lon="4.76849">
        <ele>175</ele>
        <time>2018-09-18T09:33:20Z</time>
      </trkpt>
      <trkpt lat="45.91319" lon="4.76857">
        <ele>175</ele>
        <time>2018-09-18T09:33:21Z</time>
      </trkpt>
      <trkpt lat="45.91318" lon="4.76862">
        <ele>175</ele>
        <time>2018-09-18T09:33:22Z</time>
      </trkpt>
      <trkpt lat="45.91319" lon="4.76871">
        <ele>175</ele>
        <time>2018-09-18T09:33:23Z</time>
      </trkpt>
      <trkpt lat="45.9132" lon="4.76879">
        <ele>175</ele>
        <time>2018-09-18T09:33:24Z</time>
      </trkpt>
      <trkpt lat="45.9132" lon="4.76885">
        <ele>175</ele>
        <time>2018-09-18T09:33:25Z</time>
      </trkpt>
      <trkpt lat="45.91319" lon="4.76894">
        <ele>175</ele>
        <time>2018-09-18T09:33:26Z</time>
      </trkpt>
      <trkpt lat="45.91319" lon="4.76903">
        <ele>175</ele>
        <time>2018-09-18T09:33:27Z</time>
      </trkpt>
      <trkpt lat="45.91318" lon="4.76912">
        <ele>175</ele>
        <time>2018-09-18T09:33:28Z</time>
      </trkpt>
      <trkpt lat="45.91319" lon="4.7692">
        <ele>175</ele>
        <time>2018-09-18T09:33:29Z</time>
      </trkpt>
      <trkpt lat="45.91318" lon="4.76927">
        <ele>175</ele>
        <time>2018-09-18T09:33:30Z</time>
      </trkpt>
      <trkpt lat="45.91318" lon="4.76935">
        <ele>175</ele>
        <time>2018-09-18T09:33:31Z</time>
      </trkpt>
      <trkpt lat="45.91318" lon="4.76941">
        <ele>175</ele>
        <time>2018-09-18T09:33:32Z</time>
      </trkpt>
      <trkpt lat="45.91319" lon="4.76953">
        <ele>175</ele>
        <time>2018-09-18T09:33:34Z</time>
      </trkpt>
      <trkpt lat="45.91319" lon="4.76959">
        <ele>175</ele>
        <time>2018-09-18T09:33:35Z</time>
      </trkpt>
      <trkpt lat="45.91319" lon="4.76966">
        <ele>175</ele>
        <time>2018-09-18T09:33:36Z</time>
      </trkpt>
      <trkpt lat="45.9132" lon="4.76973">
        <ele>175</ele>
        <time>2018-09-18T09:33:37Z</time>
      </trkpt>
      <trkpt lat="45.9132" lon="4.7698">
        <ele>175</ele>
        <time>2018-09-18T09:33:38Z</time>
      </trkpt>
      <trkpt lat="45.91323" lon="4.76988">
        <ele>175</ele>
        <time>2018-09-18T09:33:39Z</time>
      </trkpt>
      <trkpt lat="45.91325" lon="4.76994">
        <ele>176</ele>
        <time>2018-09-18T09:33:40Z</time>
      </trkpt>
      <trkpt lat="45.91324" lon="4.77002">
        <ele>176</ele>
        <time>2018-09-18T09:33:41Z</time>
      </trkpt>
      <trkpt lat="45.91325" lon="4.77004">
        <ele>176</ele>
        <time>2018-09-18T09:33:42Z</time>
      </trkpt>
      <trkpt lat="45.91329" lon="4.77013">
        <ele>176</ele>
        <time>2018-09-18T09:33:43Z</time>
      </trkpt>
      <trkpt lat="45.91334" lon="4.77022">
        <ele>176</ele>
        <time>2018-09-18T09:33:46Z</time>
      </trkpt>
      <trkpt lat="45.91335" lon="4.77024">
        <ele>176</ele>
        <time>2018-09-18T09:33:47Z</time>
      </trkpt>
      <trkpt lat="45.91332" lon="4.77015">
        <ele>176</ele>
        <time>2018-09-18T09:34:02Z</time>
      </trkpt>
      <trkpt lat="45.91332" lon="4.77015">
        <ele>176</ele>
        <time>2018-09-18T09:34:03Z</time>
      </trkpt>
      <trkpt lat="45.91338" lon="4.77014">
        <ele>176</ele>
        <time>2018-09-18T09:34:27Z</time>
      </trkpt>
      <trkpt lat="45.91338" lon="4.77014">
        <ele>176</ele>
        <time>2018-09-18T09:34:28Z</time>
      </trkpt>
      <trkpt lat="45.91337" lon="4.77014">
        <ele>176</ele>
        <time>2018-09-18T09:34:31Z</time>
      </trkpt>
      <trkpt lat="45.91336" lon="4.77014">
        <ele>176</ele>
        <time>2018-09-18T09:34:32Z</time>
      </trkpt>
      <trkpt lat="45.91336" lon="4.77014">
        <ele>176</ele>
        <time>2018-09-18T09:34:33Z</time>
      </trkpt>
      <trkpt lat="45.91335" lon="4.77013">
        <ele>176</ele>
        <time>2018-09-18T09:34:37Z</time>
      </trkpt>
      <trkpt lat="45.91335" lon="4.77013">
        <ele>176</ele>
        <time>2018-09-18T09:34:38Z</time>
      </trkpt>
      <trkpt lat="45.91335" lon="4.77013">
        <ele>176</ele>
        <time>2018-09-18T09:34:39Z</time>
      </trkpt>
      <trkpt lat="45.91336" lon="4.77024">
        <ele>176</ele>
        <time>2018-09-18T09:36:39Z</time>
      </trkpt>
      <trkpt lat="45.91337" lon="4.77027">
        <ele>176</ele>
        <time>2018-09-18T09:36:40Z</time>
      </trkpt>
      <trkpt lat="45.91338" lon="4.7703">
        <ele>176</ele>
        <time>2018-09-18T09:36:41Z</time>
      </trkpt>
      <trkpt lat="45.91341" lon="4.77041">
        <ele>176</ele>
        <time>2018-09-18T09:36:42Z</time>
      </trkpt>
      <trkpt lat="45.91343" lon="4.77046">
        <ele>176</ele>
        <time>2018-09-18T09:36:44Z</time>
      </trkpt>
      <trkpt lat="45.91346" lon="4.77056">
        <ele>176</ele>
        <time>2018-09-18T09:36:45Z</time>
      </trkpt>
      <trkpt lat="45.91349" lon="4.77067">
        <ele>176</ele>
        <time>2018-09-18T09:36:48Z</time>
      </trkpt>
      <trkpt lat="45.91349" lon="4.7707">
        <ele>176</ele>
        <time>2018-09-18T09:36:49Z</time>
      </trkpt>
      <trkpt lat="45.9135" lon="4.77073">
        <ele>176</ele>
        <time>2018-09-18T09:36:50Z</time>
      </trkpt>
      <trkpt lat="45.91353" lon="4.77083">
        <ele>176</ele>
        <time>2018-09-18T09:36:51Z</time>
      </trkpt>
      <trkpt lat="45.91355" lon="4.77094">
        <ele>177</ele>
        <time>2018-09-18T09:36:53Z</time>
      </trkpt>
      <trkpt lat="45.91356" lon="4.771">
        <ele>177</ele>
        <time>2018-09-18T09:36:54Z</time>
      </trkpt>
      <trkpt lat="45.91357" lon="4.77112">
        <ele>177</ele>
        <time>2018-09-18T09:36:56Z</time>
      </trkpt>
      <trkpt lat="45.91357" lon="4.77117">
        <ele>177</ele>
        <time>2018-09-18T09:36:57Z</time>
      </trkpt>
      <trkpt lat="45.91358" lon="4.77124">
        <ele>177</ele>
        <time>2018-09-18T09:36:58Z</time>
      </trkpt>
      <trkpt lat="45.9136" lon="4.77129">
        <ele>177</ele>
        <time>2018-09-18T09:36:59Z</time>
      </trkpt>
      <trkpt lat="45.91361" lon="4.77141">
        <ele>177</ele>
        <time>2018-09-18T09:37:01Z</time>
      </trkpt>
      <trkpt lat="45.91361" lon="4.77147">
        <ele>177</ele>
        <time>2018-09-18T09:37:02Z</time>
      </trkpt>
      <trkpt lat="45.91363" lon="4.77158">
        <ele>177</ele>
        <time>2018-09-18T09:37:04Z</time>
      </trkpt>
      <trkpt lat="45.91364" lon="4.77164">
        <ele>177</ele>
        <time>2018-09-18T09:37:05Z</time>
      </trkpt>
      <trkpt lat="45.91364" lon="4.77169">
        <ele>176</ele>
        <time>2018-09-18T09:37:06Z</time>
      </trkpt>
      <trkpt lat="45.91368" lon="4.77176">
        <ele>176</ele>
        <time>2018-09-18T09:37:07Z</time>
      </trkpt>
      <trkpt lat="45.9137" lon="4.77187">
        <ele>176</ele>
        <time>2018-09-18T09:37:09Z</time>
      </trkpt>
      <trkpt lat="45.91371" lon="4.77194">
        <ele>176</ele>
        <time>2018-09-18T09:37:10Z</time>
      </trkpt>
      <trkpt lat="45.91373" lon="4.772">
        <ele>176</ele>
        <time>2018-09-18T09:37:11Z</time>
      </trkpt>
      <trkpt lat="45.91374" lon="4.77207">
        <ele>176</ele>
        <time>2018-09-18T09:37:12Z</time>
      </trkpt>
      <trkpt lat="45.91375" lon="4.77214">
        <ele>176</ele>
        <time>2018-09-18T09:37:13Z</time>
      </trkpt>
      <trkpt lat="45.91376" lon="4.77221">
        <ele>176</ele>
        <time>2018-09-18T09:37:14Z</time>
      </trkpt>
      <trkpt lat="45.91378" lon="4.77228">
        <ele>176</ele>
        <time>2018-09-18T09:37:15Z</time>
      </trkpt>
      <trkpt lat="45.91379" lon="4.77235">
        <ele>176</ele>
        <time>2018-09-18T09:37:16Z</time>
      </trkpt>
      <trkpt lat="45.9138" lon="4.77243">
        <ele>176</ele>
        <time>2018-09-18T09:37:17Z</time>
      </trkpt>
      <trkpt lat="45.91381" lon="4.77249">
        <ele>176</ele>
        <time>2018-09-18T09:37:18Z</time>
      </trkpt>
      <trkpt lat="45.91382" lon="4.77254">
        <ele>175</ele>
        <time>2018-09-18T09:37:19Z</time>
      </trkpt>
      <trkpt lat="45.91383" lon="4.77262">
        <ele>175</ele>
        <time>2018-09-18T09:37:20Z</time>
      </trkpt>
      <trkpt lat="45.91384" lon="4.77269">
        <ele>175</ele>
        <time>2018-09-18T09:37:21Z</time>
      </trkpt>
      <trkpt lat="45.91385" lon="4.77275">
        <ele>175</ele>
        <time>2018-09-18T09:37:22Z</time>
      </trkpt>
      <trkpt lat="45.91386" lon="4.77282">
        <ele>175</ele>
        <time>2018-09-18T09:37:23Z</time>
      </trkpt>
      <trkpt lat="45.91386" lon="4.77291">
        <ele>175</ele>
        <time>2018-09-18T09:37:24Z</time>
      </trkpt>
      <trkpt lat="45.91386" lon="4.77298">
        <ele>175</ele>
        <time>2018-09-18T09:37:25Z</time>
      </trkpt>
      <trkpt lat="45.91386" lon="4.77305">
        <ele>175</ele>
        <time>2018-09-18T09:37:26Z</time>
      </trkpt>
      <trkpt lat="45.91386" lon="4.77312">
        <ele>175</ele>
        <time>2018-09-18T09:37:27Z</time>
      </trkpt>
      <trkpt lat="45.91386" lon="4.77319">
        <ele>175</ele>
        <time>2018-09-18T09:37:28Z</time>
      </trkpt>
      <trkpt lat="45.91386" lon="4.77324">
        <ele>175</ele>
        <time>2018-09-18T09:37:29Z</time>
      </trkpt>
      <trkpt lat="45.91387" lon="4.77332">
        <ele>175</ele>
        <time>2018-09-18T09:37:30Z</time>
      </trkpt>
      <trkpt lat="45.91387" lon="4.7734">
        <ele>174</ele>
        <time>2018-09-18T09:37:31Z</time>
      </trkpt>
      <trkpt lat="45.91389" lon="4.77347">
        <ele>174</ele>
        <time>2018-09-18T09:37:32Z</time>
      </trkpt>
      <trkpt lat="45.91388" lon="4.77355">
        <ele>174</ele>
        <time>2018-09-18T09:37:33Z</time>
      </trkpt>
      <trkpt lat="45.91388" lon="4.77364">
        <ele>174</ele>
        <time>2018-09-18T09:37:34Z</time>
      </trkpt>
      <trkpt lat="45.91388" lon="4.77372">
        <ele>174</ele>
        <time>2018-09-18T09:37:35Z</time>
      </trkpt>
      <trkpt lat="45.91389" lon="4.77379">
        <ele>174</ele>
        <time>2018-09-18T09:37:36Z</time>
      </trkpt>
      <trkpt lat="45.91389" lon="4.77387">
        <ele>174</ele>
        <time>2018-09-18T09:37:37Z</time>
      </trkpt>
      <trkpt lat="45.91389" lon="4.77394">
        <ele>174</ele>
        <time>2018-09-18T09:37:38Z</time>
      </trkpt>
      <trkpt lat="45.91389" lon="4.77407">
        <ele>174</ele>
        <time>2018-09-18T09:37:40Z</time>
      </trkpt>
      <trkpt lat="45.91388" lon="4.77412">
        <ele>174</ele>
        <time>2018-09-18T09:37:41Z</time>
      </trkpt>
      <trkpt lat="45.91388" lon="4.77419">
        <ele>174</ele>
        <time>2018-09-18T09:37:42Z</time>
      </trkpt>
      <trkpt lat="45.91388" lon="4.77426">
        <ele>174</ele>
        <time>2018-09-18T09:37:43Z</time>
      </trkpt>
      <trkpt lat="45.91389" lon="4.77433">
        <ele>174</ele>
        <time>2018-09-18T09:37:44Z</time>
      </trkpt>
      <trkpt lat="45.9139" lon="4.77439">
        <ele>174</ele>
        <time>2018-09-18T09:37:45Z</time>
      </trkpt>
      <trkpt lat="45.9139" lon="4.77452">
        <ele>174</ele>
        <time>2018-09-18T09:37:47Z</time>
      </trkpt>
      <trkpt lat="45.91391" lon="4.77458">
        <ele>174</ele>
        <time>2018-09-18T09:37:48Z</time>
      </trkpt>
      <trkpt lat="45.91391" lon="4.77469">
        <ele>174</ele>
        <time>2018-09-18T09:37:50Z</time>
      </trkpt>
      <trkpt lat="45.91391" lon="4.77475">
        <ele>174</ele>
        <time>2018-09-18T09:37:51Z</time>
      </trkpt>
      <trkpt lat="45.91392" lon="4.77482">
        <ele>174</ele>
        <time>2018-09-18T09:37:52Z</time>
      </trkpt>
      <trkpt lat="45.91392" lon="4.7749">
        <ele>174</ele>
        <time>2018-09-18T09:37:53Z</time>
      </trkpt>
      <trkpt lat="45.91393" lon="4.77497">
        <ele>174</ele>
        <time>2018-09-18T09:37:54Z</time>
      </trkpt>
      <trkpt lat="45.91394" lon="4.77504">
        <ele>174</ele>
        <time>2018-09-18T09:37:55Z</time>
      </trkpt>
      <trkpt lat="45.91395" lon="4.77516">
        <ele>174</ele>
        <time>2018-09-18T09:37:57Z</time>
      </trkpt>
      <trkpt lat="45.91396" lon="4.77522">
        <ele>174</ele>
        <time>2018-09-18T09:37:58Z</time>
      </trkpt>
      <trkpt lat="45.91397" lon="4.77533">
        <ele>174</ele>
        <time>2018-09-18T09:38:00Z</time>
      </trkpt>
      <trkpt lat="45.91397" lon="4.77538">
        <ele>174</ele>
        <time>2018-09-18T09:38:01Z</time>
      </trkpt>
      <trkpt lat="45.91398" lon="4.7755">
        <ele>174</ele>
        <time>2018-09-18T09:38:03Z</time>
      </trkpt>
      <trkpt lat="45.91398" lon="4.77555">
        <ele>174</ele>
        <time>2018-09-18T09:38:04Z</time>
      </trkpt>
      <trkpt lat="45.91398" lon="4.77565">
        <ele>174</ele>
        <time>2018-09-18T09:38:06Z</time>
      </trkpt>
      <trkpt lat="45.91399" lon="4.77571">
        <ele>174</ele>
        <time>2018-09-18T09:38:07Z</time>
      </trkpt>
      <trkpt lat="45.91401" lon="4.77581">
        <ele>174</ele>
        <time>2018-09-18T09:38:09Z</time>
      </trkpt>
      <trkpt lat="45.91403" lon="4.77587">
        <ele>174</ele>
        <time>2018-09-18T09:38:10Z</time>
      </trkpt>
      <trkpt lat="45.91405" lon="4.77598">
        <ele>174</ele>
        <time>2018-09-18T09:38:12Z</time>
      </trkpt>
      <trkpt lat="45.91404" lon="4.77602">
        <ele>174</ele>
        <time>2018-09-18T09:38:13Z</time>
      </trkpt>
      <trkpt lat="45.91406" lon="4.77614">
        <ele>175</ele>
        <time>2018-09-18T09:38:16Z</time>
      </trkpt>
      <trkpt lat="45.91406" lon="4.77618">
        <ele>175</ele>
        <time>2018-09-18T09:38:17Z</time>
      </trkpt>
      <trkpt lat="45.91406" lon="4.7763">
        <ele>175</ele>
        <time>2018-09-18T09:38:18Z</time>
      </trkpt>
      <trkpt lat="45.91407" lon="4.77636">
        <ele>175</ele>
        <time>2018-09-18T09:38:19Z</time>
      </trkpt>
      <trkpt lat="45.91408" lon="4.77648">
        <ele>175</ele>
        <time>2018-09-18T09:38:23Z</time>
      </trkpt>
      <trkpt lat="45.91408" lon="4.77652">
        <ele>175</ele>
        <time>2018-09-18T09:38:24Z</time>
      </trkpt>
      <trkpt lat="45.91409" lon="4.77664">
        <ele>176</ele>
        <time>2018-09-18T09:38:25Z</time>
      </trkpt>
      <trkpt lat="45.91409" lon="4.77667">
        <ele>176</ele>
        <time>2018-09-18T09:38:26Z</time>
      </trkpt>
      <trkpt lat="45.91412" lon="4.77676">
        <ele>176</ele>
        <time>2018-09-18T09:38:29Z</time>
      </trkpt>
      <trkpt lat="45.91413" lon="4.7768">
        <ele>176</ele>
        <time>2018-09-18T09:38:30Z</time>
      </trkpt>
      <trkpt lat="45.91417" lon="4.77691">
        <ele>177</ele>
        <time>2018-09-18T09:38:33Z</time>
      </trkpt>
      <trkpt lat="45.91418" lon="4.77695">
        <ele>177</ele>
        <time>2018-09-18T09:38:34Z</time>
      </trkpt>
      <trkpt lat="45.91418" lon="4.77707">
        <ele>177</ele>
        <time>2018-09-18T09:38:38Z</time>
      </trkpt>
      <trkpt lat="45.91417" lon="4.77709">
        <ele>177</ele>
        <time>2018-09-18T09:38:39Z</time>
      </trkpt>
      <trkpt lat="45.91419" lon="4.7772">
        <ele>177</ele>
        <time>2018-09-18T09:38:50Z</time>
      </trkpt>
      <trkpt lat="45.91421" lon="4.77721">
        <ele>177</ele>
        <time>2018-09-18T09:38:51Z</time>
      </trkpt>
      <trkpt lat="45.91429" lon="4.77722">
        <ele>177</ele>
        <time>2018-09-18T09:38:52Z</time>
      </trkpt>
      <trkpt lat="45.91434" lon="4.77728">
        <ele>177</ele>
        <time>2018-09-18T09:38:53Z</time>
      </trkpt>
      <trkpt lat="45.91439" lon="4.77736">
        <ele>178</ele>
        <time>2018-09-18T09:38:55Z</time>
      </trkpt>
      <trkpt lat="45.91441" lon="4.77744">
        <ele>178</ele>
        <time>2018-09-18T09:38:56Z</time>
      </trkpt>
      <trkpt lat="45.91445" lon="4.77751">
        <ele>179</ele>
        <time>2018-09-18T09:38:59Z</time>
      </trkpt>
      <trkpt lat="45.91446" lon="4.77754">
        <ele>179</ele>
        <time>2018-09-18T09:39:00Z</time>
      </trkpt>
      <trkpt lat="45.91451" lon="4.77763">
        <ele>179</ele>
        <time>2018-09-18T09:39:03Z</time>
      </trkpt>
      <trkpt lat="45.91452" lon="4.77766">
        <ele>179</ele>
        <time>2018-09-18T09:39:04Z</time>
      </trkpt>
      <trkpt lat="45.91453" lon="4.7777">
        <ele>179</ele>
        <time>2018-09-18T09:39:05Z</time>
      </trkpt>
      <trkpt lat="45.91457" lon="4.77779">
        <ele>179</ele>
        <time>2018-09-18T09:39:06Z</time>
      </trkpt>
      <trkpt lat="45.91462" lon="4.77788">
        <ele>179</ele>
        <time>2018-09-18T09:39:10Z</time>
      </trkpt>
      <trkpt lat="45.91464" lon="4.7779">
        <ele>179</ele>
        <time>2018-09-18T09:39:11Z</time>
      </trkpt>
      <trkpt lat="45.91471" lon="4.77794">
        <ele>179</ele>
        <time>2018-09-18T09:39:15Z</time>
      </trkpt>
      <trkpt lat="45.91472" lon="4.77795">
        <ele>179</ele>
        <time>2018-09-18T09:39:16Z</time>
      </trkpt>
      <trkpt lat="45.91476" lon="4.77804">
        <ele>179</ele>
        <time>2018-09-18T09:39:20Z</time>
      </trkpt>
      <trkpt lat="45.91476" lon="4.77808">
        <ele>179</ele>
        <time>2018-09-18T09:39:21Z</time>
      </trkpt>
      <trkpt lat="45.91475" lon="4.77819">
        <ele>180</ele>
        <time>2018-09-18T09:39:24Z</time>
      </trkpt>
      <trkpt lat="45.91474" lon="4.77822">
        <ele>180</ele>
        <time>2018-09-18T09:39:25Z</time>
      </trkpt>
      <trkpt lat="45.91474" lon="4.77834">
        <ele>180</ele>
        <time>2018-09-18T09:39:29Z</time>
      </trkpt>
      <trkpt lat="45.91474" lon="4.77837">
        <ele>180</ele>
        <time>2018-09-18T09:39:30Z</time>
      </trkpt>
      <trkpt lat="45.91479" lon="4.77847">
        <ele>180</ele>
        <time>2018-09-18T09:39:37Z</time>
      </trkpt>
      <trkpt lat="45.9148" lon="4.77848">
        <ele>180</ele>
        <time>2018-09-18T09:39:38Z</time>
      </trkpt>
      <trkpt lat="45.91486" lon="4.77856">
        <ele>180</ele>
        <time>2018-09-18T09:40:19Z</time>
      </trkpt>
      <trkpt lat="45.91487" lon="4.77857">
        <ele>180</ele>
        <time>2018-09-18T09:40:20Z</time>
      </trkpt>
      <trkpt lat="45.91491" lon="4.77868">
        <ele>180</ele>
        <time>2018-09-18T09:40:30Z</time>
      </trkpt>
      <trkpt lat="45.91491" lon="4.77868">
        <ele>180</ele>
        <time>2018-09-18T09:40:31Z</time>
      </trkpt>
      <trkpt lat="45.91491" lon="4.77856">
        <ele>180</ele>
        <time>2018-09-18T09:41:47Z</time>
      </trkpt>
      <trkpt lat="45.91491" lon="4.77855">
        <ele>180</ele>
        <time>2018-09-18T09:41:48Z</time>
      </trkpt>
      <trkpt lat="45.91486" lon="4.77856">
        <ele>180</ele>
        <time>2018-09-18T09:42:20Z</time>
      </trkpt>
      <trkpt lat="45.91486" lon="4.77856">
        <ele>180</ele>
        <time>2018-09-18T09:42:21Z</time>
      </trkpt>
      <trkpt lat="45.91486" lon="4.77855">
        <ele>180</ele>
        <time>2018-09-18T09:42:32Z</time>
      </trkpt>
      <trkpt lat="45.91486" lon="4.77855">
        <ele>180</ele>
        <time>2018-09-18T09:42:33Z</time>
      </trkpt>
      <trkpt lat="45.91486" lon="4.77855">
        <ele>180</ele>
        <time>2018-09-18T09:42:35Z</time>
      </trkpt>
      <trkpt lat="45.91486" lon="4.77855">
        <ele>180</ele>
        <time>2018-09-18T09:42:36Z</time>
      </trkpt>
      <trkpt lat="45.91486" lon="4.77854">
        <ele>180</ele>
        <time>2018-09-18T09:42:45Z</time>
      </trkpt>
      <trkpt lat="45.91486" lon="4.77853">
        <ele>180</ele>
        <time>2018-09-18T09:42:46Z</time>
      </trkpt>
      <trkpt lat="45.91485" lon="4.77843">
        <ele>180</ele>
        <time>2018-09-18T09:42:52Z</time>
      </trkpt>
      <trkpt lat="45.91485" lon="4.7784">
        <ele>180</ele>
        <time>2018-09-18T09:42:53Z</time>
      </trkpt>
      <trkpt lat="45.91484" lon="4.7783">
        <ele>180</ele>
        <time>2018-09-18T09:42:57Z</time>
      </trkpt>
      <trkpt lat="45.91484" lon="4.77826">
        <ele>180</ele>
        <time>2018-09-18T09:42:58Z</time>
      </trkpt>
      <trkpt lat="45.91484" lon="4.77814">
        <ele>180</ele>
        <time>2018-09-18T09:43:01Z</time>
      </trkpt>
      <trkpt lat="45.91484" lon="4.77809">
        <ele>179</ele>
        <time>2018-09-18T09:43:02Z</time>
      </trkpt>
      <trkpt lat="45.91484" lon="4.77796">
        <ele>179</ele>
        <time>2018-09-18T09:43:05Z</time>
      </trkpt>
      <trkpt lat="45.91483" lon="4.77793">
        <ele>179</ele>
        <time>2018-09-18T09:43:06Z</time>
      </trkpt>
      <trkpt lat="45.91474" lon="4.77789">
        <ele>179</ele>
        <time>2018-09-18T09:43:10Z</time>
      </trkpt>
      <trkpt lat="45.91472" lon="4.77789">
        <ele>179</ele>
        <time>2018-09-18T09:43:11Z</time>
      </trkpt>
      <trkpt lat="45.91468" lon="4.7779">
        <ele>179</ele>
        <time>2018-09-18T09:43:13Z</time>
      </trkpt>
      <trkpt lat="45.91463" lon="4.77785">
        <ele>179</ele>
        <time>2018-09-18T09:43:14Z</time>
      </trkpt>
      <trkpt lat="45.91461" lon="4.77775">
        <ele>179</ele>
        <time>2018-09-18T09:43:19Z</time>
      </trkpt>
      <trkpt lat="45.91459" lon="4.77772">
        <ele>179</ele>
        <time>2018-09-18T09:43:20Z</time>
      </trkpt>
      <trkpt lat="45.91454" lon="4.77764">
        <ele>179</ele>
        <time>2018-09-18T09:43:23Z</time>
      </trkpt>
      <trkpt lat="45.91453" lon="4.77762">
        <ele>179</ele>
        <time>2018-09-18T09:43:24Z</time>
      </trkpt>
      <trkpt lat="45.91449" lon="4.77754">
        <ele>179</ele>
        <time>2018-09-18T09:43:27Z</time>
      </trkpt>
      <trkpt lat="45.91447" lon="4.77752">
        <ele>179</ele>
        <time>2018-09-18T09:43:28Z</time>
      </trkpt>
      <trkpt lat="45.91442" lon="4.77744">
        <ele>178</ele>
        <time>2018-09-18T09:43:31Z</time>
      </trkpt>
      <trkpt lat="45.9144" lon="4.77741">
        <ele>178</ele>
        <time>2018-09-18T09:43:32Z</time>
      </trkpt>
      <trkpt lat="45.91436" lon="4.77732">
        <ele>178</ele>
        <time>2018-09-18T09:43:35Z</time>
      </trkpt>
      <trkpt lat="45.91434" lon="4.7773">
        <ele>178</ele>
        <time>2018-09-18T09:43:36Z</time>
      </trkpt>
      <trkpt lat="45.91429" lon="4.77722">
        <ele>177</ele>
        <time>2018-09-18T09:43:39Z</time>
      </trkpt>
      <trkpt lat="45.91428" lon="4.7772">
        <ele>177</ele>
        <time>2018-09-18T09:43:40Z</time>
      </trkpt>
      <trkpt lat="45.91424" lon="4.77715">
        <ele>177</ele>
        <time>2018-09-18T09:43:42Z</time>
      </trkpt>
      <trkpt lat="45.91415" lon="4.77714">
        <ele>177</ele>
        <time>2018-09-18T09:43:43Z</time>
      </trkpt>
      <trkpt lat="45.91406" lon="4.77716">
        <ele>177</ele>
        <time>2018-09-18T09:43:46Z</time>
      </trkpt>
      <trkpt lat="45.91399" lon="4.77717">
        <ele>177</ele>
        <time>2018-09-18T09:43:47Z</time>
      </trkpt>
      <trkpt lat="45.91391" lon="4.77714">
        <ele>176</ele>
        <time>2018-09-18T09:43:49Z</time>
      </trkpt>
      <trkpt lat="45.91388" lon="4.77712">
        <ele>176</ele>
        <time>2018-09-18T09:43:50Z</time>
      </trkpt>
      <trkpt lat="45.91381" lon="4.77715">
        <ele>176</ele>
        <time>2018-09-18T09:43:52Z</time>
      </trkpt>
      <trkpt lat="45.91376" lon="4.77717">
        <ele>176</ele>
        <time>2018-09-18T09:43:53Z</time>
      </trkpt>
      <trkpt lat="45.91371" lon="4.77717">
        <ele>176</ele>
        <time>2018-09-18T09:43:55Z</time>
      </trkpt>
      <trkpt lat="45.91365" lon="4.77716">
        <ele>176</ele>
        <time>2018-09-18T09:43:56Z</time>
      </trkpt>
      <trkpt lat="45.9136" lon="4.77717">
        <ele>176</ele>
        <time>2018-09-18T09:43:57Z</time>
      </trkpt>
      <trkpt lat="45.91354" lon="4.77717">
        <ele>176</ele>
        <time>2018-09-18T09:43:58Z</time>
      </trkpt>
      <trkpt lat="45.91349" lon="4.77717">
        <ele>176</ele>
        <time>2018-09-18T09:43:59Z</time>
      </trkpt>
      <trkpt lat="45.91344" lon="4.77717">
        <ele>176</ele>
        <time>2018-09-18T09:44:00Z</time>
      </trkpt>
      <trkpt lat="45.91339" lon="4.77718">
        <ele>176</ele>
        <time>2018-09-18T09:44:01Z</time>
      </trkpt>
      <trkpt lat="45.91333" lon="4.77715">
        <ele>176</ele>
        <time>2018-09-18T09:44:02Z</time>
      </trkpt>
      <trkpt lat="45.91328" lon="4.77715">
        <ele>176</ele>
        <time>2018-09-18T09:44:03Z</time>
      </trkpt>
      <trkpt lat="45.91322" lon="4.77714">
        <ele>176</ele>
        <time>2018-09-18T09:44:04Z</time>
      </trkpt>
      <trkpt lat="45.91316" lon="4.77709">
        <ele>176</ele>
        <time>2018-09-18T09:44:06Z</time>
      </trkpt>
      <trkpt lat="45.91312" lon="4.77708">
        <ele>176</ele>
        <time>2018-09-18T09:44:07Z</time>
      </trkpt>
      <trkpt lat="45.91307" lon="4.77706">
        <ele>176</ele>
        <time>2018-09-18T09:44:08Z</time>
      </trkpt>
      <trkpt lat="45.91302" lon="4.77704">
        <ele>176</ele>
        <time>2018-09-18T09:44:09Z</time>
      </trkpt>
      <trkpt lat="45.91294" lon="4.777">
        <ele>176</ele>
        <time>2018-09-18T09:44:11Z</time>
      </trkpt>
      <trkpt lat="45.91293" lon="4.77699">
        <ele>176</ele>
        <time>2018-09-18T09:44:12Z</time>
      </trkpt>
      <trkpt lat="45.91287" lon="4.77695">
        <ele>176</ele>
        <time>2018-09-18T09:44:14Z</time>
      </trkpt>
      <trkpt lat="45.91283" lon="4.77692">
        <ele>176</ele>
        <time>2018-09-18T09:44:15Z</time>
      </trkpt>
      <trkpt lat="45.91279" lon="4.7769">
        <ele>176</ele>
        <time>2018-09-18T09:44:16Z</time>
      </trkpt>
      <trkpt lat="45.91274" lon="4.77686">
        <ele>176</ele>
        <time>2018-09-18T09:44:17Z</time>
      </trkpt>
      <trkpt lat="45.91269" lon="4.77683">
        <ele>176</ele>
        <time>2018-09-18T09:44:18Z</time>
      </trkpt>
      <trkpt lat="45.91264" lon="4.77682">
        <ele>176</ele>
        <time>2018-09-18T09:44:19Z</time>
      </trkpt>
      <trkpt lat="45.91258" lon="4.7768">
        <ele>175</ele>
        <time>2018-09-18T09:44:20Z</time>
      </trkpt>
      <trkpt lat="45.91253" lon="4.7768">
        <ele>175</ele>
        <time>2018-09-18T09:44:21Z</time>
      </trkpt>
      <trkpt lat="45.91248" lon="4.7768">
        <ele>176</ele>
        <time>2018-09-18T09:44:22Z</time>
      </trkpt>
      <trkpt lat="45.91243" lon="4.77682">
        <ele>176</ele>
        <time>2018-09-18T09:44:23Z</time>
      </trkpt>
      <trkpt lat="45.91238" lon="4.77682">
        <ele>176</ele>
        <time>2018-09-18T09:44:24Z</time>
      </trkpt>
      <trkpt lat="45.91233" lon="4.77685">
        <ele>176</ele>
        <time>2018-09-18T09:44:25Z</time>
      </trkpt>
      <trkpt lat="45.91226" lon="4.77686">
        <ele>176</ele>
        <time>2018-09-18T09:44:27Z</time>
      </trkpt>
      <trkpt lat="45.91222" lon="4.77689">
        <ele>176</ele>
        <time>2018-09-18T09:44:28Z</time>
      </trkpt>
      <trkpt lat="45.91213" lon="4.7769">
        <ele>176</ele>
        <time>2018-09-18T09:44:30Z</time>
      </trkpt>
      <trkpt lat="45.91209" lon="4.77691">
        <ele>176</ele>
        <time>2018-09-18T09:44:31Z</time>
      </trkpt>
      <trkpt lat="45.91203" lon="4.77694">
        <ele>176</ele>
        <time>2018-09-18T09:44:32Z</time>
      </trkpt>
      <trkpt lat="45.91198" lon="4.77695">
        <ele>176</ele>
        <time>2018-09-18T09:44:33Z</time>
      </trkpt>
      <trkpt lat="45.91194" lon="4.77697">
        <ele>176</ele>
        <time>2018-09-18T09:44:34Z</time>
      </trkpt>
      <trkpt lat="45.91189" lon="4.77699">
        <ele>176</ele>
        <time>2018-09-18T09:44:35Z</time>
      </trkpt>
      <trkpt lat="45.9118" lon="4.77701">
        <ele>176</ele>
        <time>2018-09-18T09:44:37Z</time>
      </trkpt>
      <trkpt lat="45.91179" lon="4.77701">
        <ele>176</ele>
        <time>2018-09-18T09:44:38Z</time>
      </trkpt>
      <trkpt lat="45.91171" lon="4.77705">
        <ele>176</ele>
        <time>2018-09-18T09:44:40Z</time>
      </trkpt>
      <trkpt lat="45.91166" lon="4.77707">
        <ele>177</ele>
        <time>2018-09-18T09:44:41Z</time>
      </trkpt>
      <trkpt lat="45.91159" lon="4.77712">
        <ele>177</ele>
        <time>2018-09-18T09:44:43Z</time>
      </trkpt>
      <trkpt lat="45.91156" lon="4.77714">
        <ele>177</ele>
        <time>2018-09-18T09:44:44Z</time>
      </trkpt>
      <trkpt lat="45.91148" lon="4.77718">
        <ele>177</ele>
        <time>2018-09-18T09:44:46Z</time>
      </trkpt>
      <trkpt lat="45.91144" lon="4.77718">
        <ele>177</ele>
        <time>2018-09-18T09:44:47Z</time>
      </trkpt>
      <trkpt lat="45.91136" lon="4.77721">
        <ele>177</ele>
        <time>2018-09-18T09:44:49Z</time>
      </trkpt>
      <trkpt lat="45.91131" lon="4.77723">
        <ele>177</ele>
        <time>2018-09-18T09:44:50Z</time>
      </trkpt>
      <trkpt lat="45.91123" lon="4.77726">
        <ele>178</ele>
        <time>2018-09-18T09:44:52Z</time>
      </trkpt>
      <trkpt lat="45.91122" lon="4.77727">
        <ele>178</ele>
        <time>2018-09-18T09:44:53Z</time>
      </trkpt>
      <trkpt lat="45.91114" lon="4.77729">
        <ele>178</ele>
        <time>2018-09-18T09:44:54Z</time>
      </trkpt>
      <trkpt lat="45.9111" lon="4.77731">
        <ele>178</ele>
        <time>2018-09-18T09:44:55Z</time>
      </trkpt>
      <trkpt lat="45.91102" lon="4.77733">
        <ele>178</ele>
        <time>2018-09-18T09:44:57Z</time>
      </trkpt>
      <trkpt lat="45.91097" lon="4.77737">
        <ele>178</ele>
        <time>2018-09-18T09:44:58Z</time>
      </trkpt>
      <trkpt lat="45.9109" lon="4.77741">
        <ele>178</ele>
        <time>2018-09-18T09:45:00Z</time>
      </trkpt>
      <trkpt lat="45.91087" lon="4.77745">
        <ele>179</ele>
        <time>2018-09-18T09:45:01Z</time>
      </trkpt>
      <trkpt lat="45.91083" lon="4.77748">
        <ele>179</ele>
        <time>2018-09-18T09:45:02Z</time>
      </trkpt>
      <trkpt lat="45.91078" lon="4.7775">
        <ele>179</ele>
        <time>2018-09-18T09:45:03Z</time>
      </trkpt>
      <trkpt lat="45.91072" lon="4.77755">
        <ele>179</ele>
        <time>2018-09-18T09:45:05Z</time>
      </trkpt>
      <trkpt lat="45.91069" lon="4.77754">
        <ele>179</ele>
        <time>2018-09-18T09:45:06Z</time>
      </trkpt>
      <trkpt lat="45.91061" lon="4.7776">
        <ele>178</ele>
        <time>2018-09-18T09:45:08Z</time>
      </trkpt>
      <trkpt lat="45.91056" lon="4.77762">
        <ele>178</ele>
        <time>2018-09-18T09:45:09Z</time>
      </trkpt>
      <trkpt lat="45.91048" lon="4.77767">
        <ele>178</ele>
        <time>2018-09-18T09:45:11Z</time>
      </trkpt>
      <trkpt lat="45.91044" lon="4.77769">
        <ele>178</ele>
        <time>2018-09-18T09:45:12Z</time>
      </trkpt>
      <trkpt lat="45.91039" lon="4.7777">
        <ele>178</ele>
        <time>2018-09-18T09:45:13Z</time>
      </trkpt>
      <trkpt lat="45.91035" lon="4.77772">
        <ele>178</ele>
        <time>2018-09-18T09:45:14Z</time>
      </trkpt>
      <trkpt lat="45.91026" lon="4.77773">
        <ele>178</ele>
        <time>2018-09-18T09:45:16Z</time>
      </trkpt>
      <trkpt lat="45.91021" lon="4.77775">
        <ele>178</ele>
        <time>2018-09-18T09:45:17Z</time>
      </trkpt>
      <trkpt lat="45.91016" lon="4.77776">
        <ele>178</ele>
        <time>2018-09-18T09:45:18Z</time>
      </trkpt>
      <trkpt lat="45.9101" lon="4.77776">
        <ele>178</ele>
        <time>2018-09-18T09:45:19Z</time>
      </trkpt>
      <trkpt lat="45.91003" lon="4.7778">
        <ele>178</ele>
        <time>2018-09-18T09:45:21Z</time>
      </trkpt>
      <trkpt lat="45.90999" lon="4.77781">
        <ele>177</ele>
        <time>2018-09-18T09:45:22Z</time>
      </trkpt>
      <trkpt lat="45.9099" lon="4.77783">
        <ele>177</ele>
        <time>2018-09-18T09:45:24Z</time>
      </trkpt>
      <trkpt lat="45.90986" lon="4.77781">
        <ele>177</ele>
        <time>2018-09-18T09:45:25Z</time>
      </trkpt>
      <trkpt lat="45.90978" lon="4.77785">
        <ele>177</ele>
        <time>2018-09-18T09:45:28Z</time>
      </trkpt>
      <trkpt lat="45.90973" lon="4.77786">
        <ele>177</ele>
        <time>2018-09-18T09:45:29Z</time>
      </trkpt>
      <trkpt lat="45.90964" lon="4.77785">
        <ele>177</ele>
        <time>2018-09-18T09:45:31Z</time>
      </trkpt>
      <trkpt lat="45.9096" lon="4.77784">
        <ele>177</ele>
        <time>2018-09-18T09:45:32Z</time>
      </trkpt>
      <trkpt lat="45.90956" lon="4.77781">
        <ele>177</ele>
        <time>2018-09-18T09:45:33Z</time>
      </trkpt>
      <trkpt lat="45.90952" lon="4.77769">
        <ele>177</ele>
        <time>2018-09-18T09:45:34Z</time>
      </trkpt>
      <trkpt lat="45.90943" lon="4.77768">
        <ele>177</ele>
        <time>2018-09-18T09:45:36Z</time>
      </trkpt>
      <trkpt lat="45.9094" lon="4.77768">
        <ele>177</ele>
        <time>2018-09-18T09:45:37Z</time>
      </trkpt>
      <trkpt lat="45.90933" lon="4.77764">
        <ele>177</ele>
        <time>2018-09-18T09:45:39Z</time>
      </trkpt>
      <trkpt lat="45.90929" lon="4.77761">
        <ele>177</ele>
        <time>2018-09-18T09:45:40Z</time>
      </trkpt>
      <trkpt lat="45.90925" lon="4.77758">
        <ele>176</ele>
        <time>2018-09-18T09:45:41Z</time>
      </trkpt>
      <trkpt lat="45.9092" lon="4.77754">
        <ele>176</ele>
        <time>2018-09-18T09:45:42Z</time>
      </trkpt>
      <trkpt lat="45.90917" lon="4.77748">
        <ele>176</ele>
        <time>2018-09-18T09:45:43Z</time>
      </trkpt>
      <trkpt lat="45.90914" lon="4.77743">
        <ele>176</ele>
        <time>2018-09-18T09:45:44Z</time>
      </trkpt>
      <trkpt lat="45.90908" lon="4.77735">
        <ele>177</ele>
        <time>2018-09-18T09:45:46Z</time>
      </trkpt>
      <trkpt lat="45.90906" lon="4.77734">
        <ele>177</ele>
        <time>2018-09-18T09:45:47Z</time>
      </trkpt>
      <trkpt lat="45.90902" lon="4.77724">
        <ele>177</ele>
        <time>2018-09-18T09:45:49Z</time>
      </trkpt>
      <trkpt lat="45.909" lon="4.77721">
        <ele>177</ele>
        <time>2018-09-18T09:45:50Z</time>
      </trkpt>
      <trkpt lat="45.90893" lon="4.77715">
        <ele>177</ele>
        <time>2018-09-18T09:45:53Z</time>
      </trkpt>
      <trkpt lat="45.90891" lon="4.77713">
        <ele>177</ele>
        <time>2018-09-18T09:45:54Z</time>
      </trkpt>
      <trkpt lat="45.90886" lon="4.77707">
        <ele>177</ele>
        <time>2018-09-18T09:45:56Z</time>
      </trkpt>
      <trkpt lat="45.90879" lon="4.77698">
        <ele>177</ele>
        <time>2018-09-18T09:45:57Z</time>
      </trkpt>
      <trkpt lat="45.90872" lon="4.77691">
        <ele>178</ele>
        <time>2018-09-18T09:46:01Z</time>
      </trkpt>
      <trkpt lat="45.9087" lon="4.77689">
        <ele>178</ele>
        <time>2018-09-18T09:46:02Z</time>
      </trkpt>
      <trkpt lat="45.90863" lon="4.77683">
        <ele>178</ele>
        <time>2018-09-18T09:46:05Z</time>
      </trkpt>
      <trkpt lat="45.9086" lon="4.77682">
        <ele>178</ele>
        <time>2018-09-18T09:46:06Z</time>
      </trkpt>
      <trkpt lat="45.90851" lon="4.77676">
        <ele>178</ele>
        <time>2018-09-18T09:46:07Z</time>
      </trkpt>
      <trkpt lat="45.90844" lon="4.77672">
        <ele>178</ele>
        <time>2018-09-18T09:46:11Z</time>
      </trkpt>
      <trkpt lat="45.90842" lon="4.77671">
        <ele>179</ele>
        <time>2018-09-18T09:46:12Z</time>
      </trkpt>
      <trkpt lat="45.90835" lon="4.77667">
        <ele>179</ele>
        <time>2018-09-18T09:46:15Z</time>
      </trkpt>
      <trkpt lat="45.90827" lon="4.77664">
        <ele>179</ele>
        <time>2018-09-18T09:46:16Z</time>
      </trkpt>
      <trkpt lat="45.9082" lon="4.77661">
        <ele>179</ele>
        <time>2018-09-18T09:46:20Z</time>
      </trkpt>
      <trkpt lat="45.90813" lon="4.7766">
        <ele>179</ele>
        <time>2018-09-18T09:46:21Z</time>
      </trkpt>
      <trkpt lat="45.90805" lon="4.77663">
        <ele>179</ele>
        <time>2018-09-18T09:46:23Z</time>
      </trkpt>
      <trkpt lat="45.90804" lon="4.77663">
        <ele>179</ele>
        <time>2018-09-18T09:46:24Z</time>
      </trkpt>
      <trkpt lat="45.90795" lon="4.77661">
        <ele>179</ele>
        <time>2018-09-18T09:46:27Z</time>
      </trkpt>
      <trkpt lat="45.90792" lon="4.7766">
        <ele>179</ele>
        <time>2018-09-18T09:46:28Z</time>
      </trkpt>
      <trkpt lat="45.90783" lon="4.77658">
        <ele>179</ele>
        <time>2018-09-18T09:46:29Z</time>
      </trkpt>
      <trkpt lat="45.90775" lon="4.77657">
        <ele>180</ele>
        <time>2018-09-18T09:46:31Z</time>
      </trkpt>
      <trkpt lat="45.90771" lon="4.77656">
        <ele>180</ele>
        <time>2018-09-18T09:46:32Z</time>
      </trkpt>
      <trkpt lat="45.90765" lon="4.7765">
        <ele>180</ele>
        <time>2018-09-18T09:46:34Z</time>
      </trkpt>
      <trkpt lat="45.90762" lon="4.77645">
        <ele>180</ele>
        <time>2018-09-18T09:46:35Z</time>
      </trkpt>
      <trkpt lat="45.90761" lon="4.77635">
        <ele>179</ele>
        <time>2018-09-18T09:46:37Z</time>
      </trkpt>
      <trkpt lat="45.90762" lon="4.77632">
        <ele>179</ele>
        <time>2018-09-18T09:46:38Z</time>
      </trkpt>
      <trkpt lat="45.90764" lon="4.77629">
        <ele>179</ele>
        <time>2018-09-18T09:46:39Z</time>
      </trkpt>
      <trkpt lat="45.90768" lon="4.7762">
        <ele>179</ele>
        <time>2018-09-18T09:46:40Z</time>
      </trkpt>
      <trkpt lat="45.90774" lon="4.77611">
        <ele>179</ele>
        <time>2018-09-18T09:46:42Z</time>
      </trkpt>
      <trkpt lat="45.90778" lon="4.77606">
        <ele>179</ele>
        <time>2018-09-18T09:46:43Z</time>
      </trkpt>
      <trkpt lat="45.90784" lon="4.77598">
        <ele>179</ele>
        <time>2018-09-18T09:46:45Z</time>
      </trkpt>
      <trkpt lat="45.90788" lon="4.77595">
        <ele>179</ele>
        <time>2018-09-18T09:46:46Z</time>
      </trkpt>
      <trkpt lat="45.90792" lon="4.77589">
        <ele>179</ele>
        <time>2018-09-18T09:46:47Z</time>
      </trkpt>
      <trkpt lat="45.90796" lon="4.77584">
        <ele>179</ele>
        <time>2018-09-18T09:46:48Z</time>
      </trkpt>
      <trkpt lat="45.908" lon="4.7758">
        <ele>178</ele>
        <time>2018-09-18T09:46:49Z</time>
      </trkpt>
      <trkpt lat="45.90804" lon="4.77575">
        <ele>178</ele>
        <time>2018-09-18T09:46:50Z</time>
      </trkpt>
      <trkpt lat="45.90809" lon="4.77565">
        <ele>178</ele>
        <time>2018-09-18T09:46:52Z</time>
      </trkpt>
      <trkpt lat="45.90814" lon="4.77559">
        <ele>178</ele>
        <time>2018-09-18T09:46:53Z</time>
      </trkpt>
      <trkpt lat="45.90817" lon="4.77554">
        <ele>178</ele>
        <time>2018-09-18T09:46:54Z</time>
      </trkpt>
      <trkpt lat="45.9082" lon="4.77548">
        <ele>178</ele>
        <time>2018-09-18T09:46:55Z</time>
      </trkpt>
      <trkpt lat="45.90824" lon="4.77543">
        <ele>178</ele>
        <time>2018-09-18T09:46:56Z</time>
      </trkpt>
      <trkpt lat="45.90827" lon="4.77537">
        <ele>178</ele>
        <time>2018-09-18T09:46:57Z</time>
      </trkpt>
      <trkpt lat="45.90831" lon="4.77532">
        <ele>178</ele>
        <time>2018-09-18T09:46:58Z</time>
      </trkpt>
      <trkpt lat="45.90834" lon="4.77526">
        <ele>178</ele>
        <time>2018-09-18T09:46:59Z</time>
      </trkpt>
      <trkpt lat="45.90837" lon="4.77519">
        <ele>178</ele>
        <time>2018-09-18T09:47:00Z</time>
      </trkpt>
      <trkpt lat="45.90841" lon="4.77514">
        <ele>179</ele>
        <time>2018-09-18T09:47:01Z</time>
      </trkpt>
      <trkpt lat="45.90844" lon="4.77506">
        <ele>179</ele>
        <time>2018-09-18T09:47:02Z</time>
      </trkpt>
      <trkpt lat="45.90848" lon="4.77499">
        <ele>178</ele>
        <time>2018-09-18T09:47:03Z</time>
      </trkpt>
      <trkpt lat="45.90853" lon="4.77492">
        <ele>178</ele>
        <time>2018-09-18T09:47:04Z</time>
      </trkpt>
      <trkpt lat="45.90857" lon="4.77488">
        <ele>178</ele>
        <time>2018-09-18T09:47:05Z</time>
      </trkpt>
      <trkpt lat="45.9086" lon="4.77482">
        <ele>178</ele>
        <time>2018-09-18T09:47:06Z</time>
      </trkpt>
      <trkpt lat="45.90864" lon="4.77475">
        <ele>178</ele>
        <time>2018-09-18T09:47:07Z</time>
      </trkpt>
      <trkpt lat="45.90868" lon="4.77467">
        <ele>178</ele>
        <time>2018-09-18T09:47:08Z</time>
      </trkpt>
      <trkpt lat="45.90871" lon="4.77459">
        <ele>178</ele>
        <time>2018-09-18T09:47:09Z</time>
      </trkpt>
      <trkpt lat="45.90877" lon="4.77453">
        <ele>178</ele>
        <time>2018-09-18T09:47:10Z</time>
      </trkpt>
      <trkpt lat="45.90881" lon="4.77446">
        <ele>178</ele>
        <time>2018-09-18T09:47:11Z</time>
      </trkpt>
      <trkpt lat="45.90885" lon="4.77438">
        <ele>177</ele>
        <time>2018-09-18T09:47:12Z</time>
      </trkpt>
      <trkpt lat="45.90889" lon="4.77431">
        <ele>177</ele>
        <time>2018-09-18T09:47:13Z</time>
      </trkpt>
      <trkpt lat="45.90893" lon="4.77424">
        <ele>177</ele>
        <time>2018-09-18T09:47:14Z</time>
      </trkpt>
      <trkpt lat="45.90897" lon="4.77418">
        <ele>177</ele>
        <time>2018-09-18T09:47:15Z</time>
      </trkpt>
      <trkpt lat="45.909" lon="4.7741">
        <ele>177</ele>
        <time>2018-09-18T09:47:16Z</time>
      </trkpt>
      <trkpt lat="45.90904" lon="4.77403">
        <ele>177</ele>
        <time>2018-09-18T09:47:17Z</time>
      </trkpt>
      <trkpt lat="45.90908" lon="4.77396">
        <ele>177</ele>
        <time>2018-09-18T09:47:18Z</time>
      </trkpt>
      <trkpt lat="45.90913" lon="4.7739">
        <ele>177</ele>
        <time>2018-09-18T09:47:19Z</time>
      </trkpt>
      <trkpt lat="45.90918" lon="4.77383">
        <ele>176</ele>
        <time>2018-09-18T09:47:20Z</time>
      </trkpt>
      <trkpt lat="45.90921" lon="4.77377">
        <ele>176</ele>
        <time>2018-09-18T09:47:21Z</time>
      </trkpt>
      <trkpt lat="45.90926" lon="4.7737">
        <ele>177</ele>
        <time>2018-09-18T09:47:22Z</time>
      </trkpt>
      <trkpt lat="45.90929" lon="4.77363">
        <ele>177</ele>
        <time>2018-09-18T09:47:23Z</time>
      </trkpt>
      <trkpt lat="45.90932" lon="4.77355">
        <ele>177</ele>
        <time>2018-09-18T09:47:24Z</time>
      </trkpt>
      <trkpt lat="45.90935" lon="4.77348">
        <ele>177</ele>
        <time>2018-09-18T09:47:25Z</time>
      </trkpt>
      <trkpt lat="45.90939" lon="4.77342">
        <ele>177</ele>
        <time>2018-09-18T09:47:26Z</time>
      </trkpt>
      <trkpt lat="45.90942" lon="4.77335">
        <ele>177</ele>
        <time>2018-09-18T09:47:27Z</time>
      </trkpt>
      <trkpt lat="45.90944" lon="4.77329">
        <ele>178</ele>
        <time>2018-09-18T09:47:28Z</time>
      </trkpt>
      <trkpt lat="45.90948" lon="4.77322">
        <ele>178</ele>
        <time>2018-09-18T09:47:29Z</time>
      </trkpt>
      <trkpt lat="45.90951" lon="4.77315">
        <ele>178</ele>
        <time>2018-09-18T09:47:30Z</time>
      </trkpt>
      <trkpt lat="45.90955" lon="4.77308">
        <ele>178</ele>
        <time>2018-09-18T09:47:31Z</time>
      </trkpt>
      <trkpt lat="45.90958" lon="4.77302">
        <ele>178</ele>
        <time>2018-09-18T09:47:32Z</time>
      </trkpt>
      <trkpt lat="45.90962" lon="4.77296">
        <ele>178</ele>
        <time>2018-09-18T09:47:33Z</time>
      </trkpt>
      <trkpt lat="45.90965" lon="4.7729">
        <ele>178</ele>
        <time>2018-09-18T09:47:34Z</time>
      </trkpt>
      <trkpt lat="45.90969" lon="4.77283">
        <ele>178</ele>
        <time>2018-09-18T09:47:35Z</time>
      </trkpt>
      <trkpt lat="45.90972" lon="4.77276">
        <ele>178</ele>
        <time>2018-09-18T09:47:36Z</time>
      </trkpt>
      <trkpt lat="45.90976" lon="4.7727">
        <ele>178</ele>
        <time>2018-09-18T09:47:37Z</time>
      </trkpt>
      <trkpt lat="45.90976" lon="4.77261">
        <ele>178</ele>
        <time>2018-09-18T09:47:38Z</time>
      </trkpt>
      <trkpt lat="45.90976" lon="4.7725">
        <ele>178</ele>
        <time>2018-09-18T09:47:39Z</time>
      </trkpt>
      <trkpt lat="45.90975" lon="4.77242">
        <ele>178</ele>
        <time>2018-09-18T09:47:40Z</time>
      </trkpt>
      <trkpt lat="45.90973" lon="4.77235">
        <ele>177</ele>
        <time>2018-09-18T09:47:41Z</time>
      </trkpt>
      <trkpt lat="45.90971" lon="4.77227">
        <ele>177</ele>
        <time>2018-09-18T09:47:42Z</time>
      </trkpt>
      <trkpt lat="45.90967" lon="4.77221">
        <ele>177</ele>
        <time>2018-09-18T09:47:43Z</time>
      </trkpt>
      <trkpt lat="45.90965" lon="4.77214">
        <ele>177</ele>
        <time>2018-09-18T09:47:44Z</time>
      </trkpt>
      <trkpt lat="45.90962" lon="4.77207">
        <ele>177</ele>
        <time>2018-09-18T09:47:45Z</time>
      </trkpt>
      <trkpt lat="45.90958" lon="4.77201">
        <ele>177</ele>
        <time>2018-09-18T09:47:46Z</time>
      </trkpt>
      <trkpt lat="45.90955" lon="4.77196">
        <ele>177</ele>
        <time>2018-09-18T09:47:47Z</time>
      </trkpt>
      <trkpt lat="45.90951" lon="4.77191">
        <ele>176</ele>
        <time>2018-09-18T09:47:48Z</time>
      </trkpt>
      <trkpt lat="45.90948" lon="4.77186">
        <ele>176</ele>
        <time>2018-09-18T09:47:49Z</time>
      </trkpt>
      <trkpt lat="45.90945" lon="4.77181">
        <ele>176</ele>
        <time>2018-09-18T09:47:50Z</time>
      </trkpt>
      <trkpt lat="45.90942" lon="4.77176">
        <ele>176</ele>
        <time>2018-09-18T09:47:51Z</time>
      </trkpt>
      <trkpt lat="45.90939" lon="4.77171">
        <ele>176</ele>
        <time>2018-09-18T09:47:52Z</time>
      </trkpt>
      <trkpt lat="45.90936" lon="4.77166">
        <ele>176</ele>
        <time>2018-09-18T09:47:53Z</time>
      </trkpt>
      <trkpt lat="45.90932" lon="4.77161">
        <ele>176</ele>
        <time>2018-09-18T09:47:54Z</time>
      </trkpt>
      <trkpt lat="45.90929" lon="4.77156">
        <ele>176</ele>
        <time>2018-09-18T09:47:55Z</time>
      </trkpt>
      <trkpt lat="45.90925" lon="4.77151">
        <ele>176</ele>
        <time>2018-09-18T09:47:56Z</time>
      </trkpt>
      <trkpt lat="45.90922" lon="4.77146">
        <ele>176</ele>
        <time>2018-09-18T09:47:57Z</time>
      </trkpt>
      <trkpt lat="45.90919" lon="4.77142">
        <ele>176</ele>
        <time>2018-09-18T09:47:58Z</time>
      </trkpt>
      <trkpt lat="45.90916" lon="4.77137">
        <ele>176</ele>
        <time>2018-09-18T09:47:59Z</time>
      </trkpt>
      <trkpt lat="45.9091" lon="4.77128">
        <ele>176</ele>
        <time>2018-09-18T09:48:01Z</time>
      </trkpt>
      <trkpt lat="45.90908" lon="4.77124">
        <ele>176</ele>
        <time>2018-09-18T09:48:02Z</time>
      </trkpt>
      <trkpt lat="45.90901" lon="4.77117">
        <ele>176</ele>
        <time>2018-09-18T09:48:04Z</time>
      </trkpt>
      <trkpt lat="45.90897" lon="4.77113">
        <ele>176</ele>
        <time>2018-09-18T09:48:05Z</time>
      </trkpt>
      <trkpt lat="45.90894" lon="4.77107">
        <ele>176</ele>
        <time>2018-09-18T09:48:06Z</time>
      </trkpt>
      <trkpt lat="45.90891" lon="4.77104">
        <ele>176</ele>
        <time>2018-09-18T09:48:07Z</time>
      </trkpt>
      <trkpt lat="45.90887" lon="4.771">
        <ele>176</ele>
        <time>2018-09-18T09:48:08Z</time>
      </trkpt>
      <trkpt lat="45.90883" lon="4.77096">
        <ele>176</ele>
        <time>2018-09-18T09:48:09Z</time>
      </trkpt>
      <trkpt lat="45.90879" lon="4.77092">
        <ele>176</ele>
        <time>2018-09-18T09:48:10Z</time>
      </trkpt>
      <trkpt lat="45.90876" lon="4.77088">
        <ele>176</ele>
        <time>2018-09-18T09:48:11Z</time>
      </trkpt>
      <trkpt lat="45.90872" lon="4.77084">
        <ele>176</ele>
        <time>2018-09-18T09:48:12Z</time>
      </trkpt>
      <trkpt lat="45.90868" lon="4.7708">
        <ele>177</ele>
        <time>2018-09-18T09:48:13Z</time>
      </trkpt>
      <trkpt lat="45.90863" lon="4.77077">
        <ele>177</ele>
        <time>2018-09-18T09:48:14Z</time>
      </trkpt>
      <trkpt lat="45.9086" lon="4.77073">
        <ele>177</ele>
        <time>2018-09-18T09:48:15Z</time>
      </trkpt>
      <trkpt lat="45.90856" lon="4.7707">
        <ele>177</ele>
        <time>2018-09-18T09:48:16Z</time>
      </trkpt>
      <trkpt lat="45.90852" lon="4.77066">
        <ele>177</ele>
        <time>2018-09-18T09:48:17Z</time>
      </trkpt>
      <trkpt lat="45.90849" lon="4.77062">
        <ele>177</ele>
        <time>2018-09-18T09:48:18Z</time>
      </trkpt>
      <trkpt lat="45.90845" lon="4.77058">
        <ele>177</ele>
        <time>2018-09-18T09:48:19Z</time>
      </trkpt>
      <trkpt lat="45.90837" lon="4.77052">
        <ele>177</ele>
        <time>2018-09-18T09:48:21Z</time>
      </trkpt>
      <trkpt lat="45.90833" lon="4.77048">
        <ele>177</ele>
        <time>2018-09-18T09:48:22Z</time>
      </trkpt>
      <trkpt lat="45.90829" lon="4.77044">
        <ele>177</ele>
        <time>2018-09-18T09:48:23Z</time>
      </trkpt>
      <trkpt lat="45.90824" lon="4.77041">
        <ele>177</ele>
        <time>2018-09-18T09:48:24Z</time>
      </trkpt>
      <trkpt lat="45.9082" lon="4.77038">
        <ele>177</ele>
        <time>2018-09-18T09:48:25Z</time>
      </trkpt>
      <trkpt lat="45.90816" lon="4.77033">
        <ele>177</ele>
        <time>2018-09-18T09:48:26Z</time>
      </trkpt>
      <trkpt lat="45.90809" lon="4.77025">
        <ele>177</ele>
        <time>2018-09-18T09:48:28Z</time>
      </trkpt>
      <trkpt lat="45.90806" lon="4.77021">
        <ele>177</ele>
        <time>2018-09-18T09:48:29Z</time>
      </trkpt>
      <trkpt lat="45.90802" lon="4.77017">
        <ele>177</ele>
        <time>2018-09-18T09:48:30Z</time>
      </trkpt>
      <trkpt lat="45.90798" lon="4.77014">
        <ele>177</ele>
        <time>2018-09-18T09:48:31Z</time>
      </trkpt>
      <trkpt lat="45.90791" lon="4.77006">
        <ele>178</ele>
        <time>2018-09-18T09:48:33Z</time>
      </trkpt>
      <trkpt lat="45.90787" lon="4.77002">
        <ele>178</ele>
        <time>2018-09-18T09:48:34Z</time>
      </trkpt>
      <trkpt lat="45.90783" lon="4.76999">
        <ele>178</ele>
        <time>2018-09-18T09:48:35Z</time>
      </trkpt>
      <trkpt lat="45.9078" lon="4.76994">
        <ele>178</ele>
        <time>2018-09-18T09:48:36Z</time>
      </trkpt>
      <trkpt lat="45.90773" lon="4.76986">
        <ele>178</ele>
        <time>2018-09-18T09:48:38Z</time>
      </trkpt>
      <trkpt lat="45.90769" lon="4.76984">
        <ele>178</ele>
        <time>2018-09-18T09:48:39Z</time>
      </trkpt>
      <trkpt lat="45.90761" lon="4.76979">
        <ele>178</ele>
        <time>2018-09-18T09:48:41Z</time>
      </trkpt>
      <trkpt lat="45.90759" lon="4.76979">
        <ele>178</ele>
        <time>2018-09-18T09:48:42Z</time>
      </trkpt>
      <trkpt lat="45.90753" lon="4.76976">
        <ele>178</ele>
        <time>2018-09-18T09:48:45Z</time>
      </trkpt>
      <trkpt lat="45.90746" lon="4.76973">
        <ele>179</ele>
        <time>2018-09-18T09:48:46Z</time>
      </trkpt>
      <trkpt lat="45.90738" lon="4.7697">
        <ele>179</ele>
        <time>2018-09-18T09:48:48Z</time>
      </trkpt>
      <trkpt lat="45.90735" lon="4.7697">
        <ele>179</ele>
        <time>2018-09-18T09:48:49Z</time>
      </trkpt>
      <trkpt lat="45.90727" lon="4.76967">
        <ele>179</ele>
        <time>2018-09-18T09:48:51Z</time>
      </trkpt>
      <trkpt lat="45.90725" lon="4.76966">
        <ele>179</ele>
        <time>2018-09-18T09:48:52Z</time>
      </trkpt>
      <trkpt lat="45.90717" lon="4.76961">
        <ele>179</ele>
        <time>2018-09-18T09:48:54Z</time>
      </trkpt>
      <trkpt lat="45.90713" lon="4.76959">
        <ele>179</ele>
        <time>2018-09-18T09:48:55Z</time>
      </trkpt>
      <trkpt lat="45.90706" lon="4.76954">
        <ele>179</ele>
        <time>2018-09-18T09:48:57Z</time>
      </trkpt>
      <trkpt lat="45.90702" lon="4.76952">
        <ele>179</ele>
        <time>2018-09-18T09:48:58Z</time>
      </trkpt>
      <trkpt lat="45.90694" lon="4.76947">
        <ele>179</ele>
        <time>2018-09-18T09:49:00Z</time>
      </trkpt>
      <trkpt lat="45.90688" lon="4.76943">
        <ele>179</ele>
        <time>2018-09-18T09:49:01Z</time>
      </trkpt>
      <trkpt lat="45.90681" lon="4.76939">
        <ele>179</ele>
        <time>2018-09-18T09:49:03Z</time>
      </trkpt>
      <trkpt lat="45.90677" lon="4.76937">
        <ele>179</ele>
        <time>2018-09-18T09:49:04Z</time>
      </trkpt>
      <trkpt lat="45.90671" lon="4.76935">
        <ele>179</ele>
        <time>2018-09-18T09:49:07Z</time>
      </trkpt>
      <trkpt lat="45.90663" lon="4.76931">
        <ele>179</ele>
        <time>2018-09-18T09:49:08Z</time>
      </trkpt>
      <trkpt lat="45.90656" lon="4.76928">
        <ele>179</ele>
        <time>2018-09-18T09:49:10Z</time>
      </trkpt>
      <trkpt lat="45.90652" lon="4.76927">
        <ele>179</ele>
        <time>2018-09-18T09:49:11Z</time>
      </trkpt>
      <trkpt lat="45.90647" lon="4.76924">
        <ele>179</ele>
        <time>2018-09-18T09:49:13Z</time>
      </trkpt>
      <trkpt lat="45.90642" lon="4.76923">
        <ele>180</ele>
        <time>2018-09-18T09:49:14Z</time>
      </trkpt>
      <trkpt lat="45.90634" lon="4.7692">
        <ele>180</ele>
        <time>2018-09-18T09:49:16Z</time>
      </trkpt>
      <trkpt lat="45.90629" lon="4.76918">
        <ele>180</ele>
        <time>2018-09-18T09:49:17Z</time>
      </trkpt>
      <trkpt lat="45.90623" lon="4.76916">
        <ele>179</ele>
        <time>2018-09-18T09:49:20Z</time>
      </trkpt>
      <trkpt lat="45.9062" lon="4.76915">
        <ele>179</ele>
        <time>2018-09-18T09:49:21Z</time>
      </trkpt>
      <trkpt lat="45.90612" lon="4.76912">
        <ele>179</ele>
        <time>2018-09-18T09:49:24Z</time>
      </trkpt>
      <trkpt lat="45.90602" lon="4.76909">
        <ele>179</ele>
        <time>2018-09-18T09:49:25Z</time>
      </trkpt>
      <trkpt lat="45.90594" lon="4.76906">
        <ele>180</ele>
        <time>2018-09-18T09:49:27Z</time>
      </trkpt>
      <trkpt lat="45.9059" lon="4.76904">
        <ele>180</ele>
        <time>2018-09-18T09:49:28Z</time>
      </trkpt>
      <trkpt lat="45.90584" lon="4.769">
        <ele>180</ele>
        <time>2018-09-18T09:49:30Z</time>
      </trkpt>
      <trkpt lat="45.9058" lon="4.76899">
        <ele>180</ele>
        <time>2018-09-18T09:49:31Z</time>
      </trkpt>
      <trkpt lat="45.90573" lon="4.76897">
        <ele>180</ele>
        <time>2018-09-18T09:49:33Z</time>
      </trkpt>
      <trkpt lat="45.90569" lon="4.76896">
        <ele>180</ele>
        <time>2018-09-18T09:49:34Z</time>
      </trkpt>
      <trkpt lat="45.90561" lon="4.76894">
        <ele>180</ele>
        <time>2018-09-18T09:49:36Z</time>
      </trkpt>
      <trkpt lat="45.90557" lon="4.76893">
        <ele>180</ele>
        <time>2018-09-18T09:49:37Z</time>
      </trkpt>
      <trkpt lat="45.9055" lon="4.76891">
        <ele>180</ele>
        <time>2018-09-18T09:49:39Z</time>
      </trkpt>
      <trkpt lat="45.90546" lon="4.7689">
        <ele>180</ele>
        <time>2018-09-18T09:49:40Z</time>
      </trkpt>
      <trkpt lat="45.90539" lon="4.76888">
        <ele>180</ele>
        <time>2018-09-18T09:49:42Z</time>
      </trkpt>
      <trkpt lat="45.90535" lon="4.76887">
        <ele>180</ele>
        <time>2018-09-18T09:49:43Z</time>
      </trkpt>
      <trkpt lat="45.90527" lon="4.76885">
        <ele>180</ele>
        <time>2018-09-18T09:49:45Z</time>
      </trkpt>
      <trkpt lat="45.90523" lon="4.76884">
        <ele>180</ele>
        <time>2018-09-18T09:49:46Z</time>
      </trkpt>
      <trkpt lat="45.90515" lon="4.76882">
        <ele>180</ele>
        <time>2018-09-18T09:49:48Z</time>
      </trkpt>
      <trkpt lat="45.90511" lon="4.76881">
        <ele>180</ele>
        <time>2018-09-18T09:49:49Z</time>
      </trkpt>
      <trkpt lat="45.90502" lon="4.76877">
        <ele>180</ele>
        <time>2018-09-18T09:49:51Z</time>
      </trkpt>
      <trkpt lat="45.905" lon="4.76877">
        <ele>181</ele>
        <time>2018-09-18T09:49:52Z</time>
      </trkpt>
      <trkpt lat="45.90495" lon="4.76876">
        <ele>181</ele>
        <time>2018-09-18T09:49:54Z</time>
      </trkpt>
      <trkpt lat="45.90487" lon="4.76873">
        <ele>181</ele>
        <time>2018-09-18T09:49:55Z</time>
      </trkpt>
      <trkpt lat="45.90479" lon="4.76871">
        <ele>181</ele>
        <time>2018-09-18T09:49:57Z</time>
      </trkpt>
      <trkpt lat="45.90475" lon="4.7687">
        <ele>181</ele>
        <time>2018-09-18T09:49:58Z</time>
      </trkpt>
      <trkpt lat="45.90467" lon="4.76868">
        <ele>181</ele>
        <time>2018-09-18T09:50:00Z</time>
      </trkpt>
      <trkpt lat="45.90463" lon="4.76868">
        <ele>181</ele>
        <time>2018-09-18T09:50:01Z</time>
      </trkpt>
      <trkpt lat="45.90454" lon="4.76867">
        <ele>181</ele>
        <time>2018-09-18T09:50:03Z</time>
      </trkpt>
      <trkpt lat="45.9045" lon="4.76866">
        <ele>181</ele>
        <time>2018-09-18T09:50:04Z</time>
      </trkpt>
      <trkpt lat="45.90442" lon="4.76865">
        <ele>181</ele>
        <time>2018-09-18T09:50:06Z</time>
      </trkpt>
      <trkpt lat="45.90438" lon="4.76865">
        <ele>181</ele>
        <time>2018-09-18T09:50:07Z</time>
      </trkpt>
      <trkpt lat="45.90429" lon="4.76864">
        <ele>181</ele>
        <time>2018-09-18T09:50:09Z</time>
      </trkpt>
      <trkpt lat="45.90425" lon="4.76864">
        <ele>181</ele>
        <time>2018-09-18T09:50:10Z</time>
      </trkpt>
      <trkpt lat="45.90418" lon="4.76863">
        <ele>181</ele>
        <time>2018-09-18T09:50:12Z</time>
      </trkpt>
      <trkpt lat="45.90416" lon="4.76862">
        <ele>182</ele>
        <time>2018-09-18T09:50:13Z</time>
      </trkpt>
      <trkpt lat="45.9041" lon="4.76862">
        <ele>182</ele>
        <time>2018-09-18T09:50:14Z</time>
      </trkpt>
      <trkpt lat="45.90406" lon="4.76862">
        <ele>182</ele>
        <time>2018-09-18T09:50:15Z</time>
      </trkpt>
      <trkpt lat="45.90398" lon="4.76861">
        <ele>182</ele>
        <time>2018-09-18T09:50:17Z</time>
      </trkpt>
      <trkpt lat="45.90395" lon="4.76861">
        <ele>182</ele>
        <time>2018-09-18T09:50:18Z</time>
      </trkpt>
      <trkpt lat="45.90388" lon="4.76861">
        <ele>182</ele>
        <time>2018-09-18T09:50:21Z</time>
      </trkpt>
      <trkpt lat="45.90382" lon="4.76861">
        <ele>182</ele>
        <time>2018-09-18T09:50:22Z</time>
      </trkpt>
      <trkpt lat="45.90375" lon="4.7686">
        <ele>182</ele>
        <time>2018-09-18T09:50:24Z</time>
      </trkpt>
      <trkpt lat="45.90371" lon="4.7686">
        <ele>182</ele>
        <time>2018-09-18T09:50:25Z</time>
      </trkpt>
      <trkpt lat="45.90364" lon="4.76859">
        <ele>182</ele>
        <time>2018-09-18T09:50:27Z</time>
      </trkpt>
      <trkpt lat="45.9036" lon="4.76859">
        <ele>182</ele>
        <time>2018-09-18T09:50:28Z</time>
      </trkpt>
      <trkpt lat="45.90352" lon="4.76858">
        <ele>182</ele>
        <time>2018-09-18T09:50:31Z</time>
      </trkpt>
      <trkpt lat="45.90345" lon="4.76858">
        <ele>182</ele>
        <time>2018-09-18T09:50:32Z</time>
      </trkpt>
      <trkpt lat="45.90342" lon="4.76856">
        <ele>182</ele>
        <time>2018-09-18T09:50:34Z</time>
      </trkpt>
      <trkpt lat="45.90337" lon="4.7685">
        <ele>182</ele>
        <time>2018-09-18T09:50:35Z</time>
      </trkpt>
      <trkpt lat="45.90336" lon="4.76838">
        <ele>182</ele>
        <time>2018-09-18T09:50:37Z</time>
      </trkpt>
      <trkpt lat="45.90336" lon="4.76832">
        <ele>182</ele>
        <time>2018-09-18T09:50:38Z</time>
      </trkpt>
      <trkpt lat="45.90337" lon="4.76821">
        <ele>182</ele>
        <time>2018-09-18T09:50:41Z</time>
      </trkpt>
      <trkpt lat="45.90337" lon="4.76816">
        <ele>182</ele>
        <time>2018-09-18T09:50:42Z</time>
      </trkpt>
      <trkpt lat="45.90338" lon="4.76807">
        <ele>182</ele>
        <time>2018-09-18T09:50:44Z</time>
      </trkpt>
      <trkpt lat="45.90339" lon="4.76793">
        <ele>182</ele>
        <time>2018-09-18T09:50:45Z</time>
      </trkpt>
      <trkpt lat="45.9034" lon="4.76782">
        <ele>182</ele>
        <time>2018-09-18T09:50:47Z</time>
      </trkpt>
      <trkpt lat="45.9034" lon="4.76776">
        <ele>182</ele>
        <time>2018-09-18T09:50:48Z</time>
      </trkpt>
      <trkpt lat="45.9034" lon="4.76765">
        <ele>182</ele>
        <time>2018-09-18T09:50:50Z</time>
      </trkpt>
      <trkpt lat="45.9034" lon="4.76762">
        <ele>182</ele>
        <time>2018-09-18T09:50:51Z</time>
      </trkpt>
      <trkpt lat="45.90341" lon="4.76756">
        <ele>183</ele>
        <time>2018-09-18T09:50:53Z</time>
      </trkpt>
      <trkpt lat="45.90341" lon="4.76746">
        <ele>183</ele>
        <time>2018-09-18T09:50:54Z</time>
      </trkpt>
      <trkpt lat="45.90341" lon="4.76734">
        <ele>183</ele>
        <time>2018-09-18T09:50:56Z</time>
      </trkpt>
      <trkpt lat="45.90341" lon="4.76728">
        <ele>183</ele>
        <time>2018-09-18T09:50:57Z</time>
      </trkpt>
      <trkpt lat="45.90341" lon="4.76719">
        <ele>183</ele>
        <time>2018-09-18T09:51:00Z</time>
      </trkpt>
      <trkpt lat="45.9034" lon="4.76715">
        <ele>183</ele>
        <time>2018-09-18T09:51:01Z</time>
      </trkpt>
      <trkpt lat="45.9034" lon="4.76707">
        <ele>183</ele>
        <time>2018-09-18T09:51:03Z</time>
      </trkpt>
      <trkpt lat="45.90339" lon="4.76695">
        <ele>183</ele>
        <time>2018-09-18T09:51:04Z</time>
      </trkpt>
      <trkpt lat="45.90339" lon="4.76683">
        <ele>183</ele>
        <time>2018-09-18T09:51:06Z</time>
      </trkpt>
      <trkpt lat="45.90339" lon="4.76678">
        <ele>183</ele>
        <time>2018-09-18T09:51:07Z</time>
      </trkpt>
      <trkpt lat="45.90339" lon="4.76666">
        <ele>184</ele>
        <time>2018-09-18T09:51:09Z</time>
      </trkpt>
      <trkpt lat="45.90339" lon="4.76663">
        <ele>184</ele>
        <time>2018-09-18T09:51:10Z</time>
      </trkpt>
      <trkpt lat="45.90339" lon="4.7665">
        <ele>184</ele>
        <time>2018-09-18T09:51:12Z</time>
      </trkpt>
      <trkpt lat="45.90339" lon="4.76648">
        <ele>184</ele>
        <time>2018-09-18T09:51:13Z</time>
      </trkpt>
      <trkpt lat="45.90339" lon="4.76637">
        <ele>184</ele>
        <time>2018-09-18T09:51:16Z</time>
      </trkpt>
      <trkpt lat="45.90339" lon="4.76633">
        <ele>184</ele>
        <time>2018-09-18T09:51:17Z</time>
      </trkpt>
      <trkpt lat="45.90339" lon="4.76623">
        <ele>184</ele>
        <time>2018-09-18T09:51:20Z</time>
      </trkpt>
      <trkpt lat="45.90339" lon="4.7662">
        <ele>184</ele>
        <time>2018-09-18T09:51:21Z</time>
      </trkpt>
      <trkpt lat="45.90339" lon="4.76608">
        <ele>184</ele>
        <time>2018-09-18T09:51:25Z</time>
      </trkpt>
      <trkpt lat="45.90338" lon="4.76605">
        <ele>184</ele>
        <time>2018-09-18T09:51:26Z</time>
      </trkpt>
      <trkpt lat="45.90338" lon="4.76593">
        <ele>184</ele>
        <time>2018-09-18T09:51:30Z</time>
      </trkpt>
      <trkpt lat="45.90338" lon="4.7659">
        <ele>185</ele>
        <time>2018-09-18T09:51:31Z</time>
      </trkpt>
      <trkpt lat="45.90337" lon="4.7658">
        <ele>185</ele>
        <time>2018-09-18T09:51:34Z</time>
      </trkpt>
      <trkpt lat="45.90337" lon="4.76577">
        <ele>185</ele>
        <time>2018-09-18T09:51:35Z</time>
      </trkpt>
      <trkpt lat="45.90338" lon="4.76564">
        <ele>185</ele>
        <time>2018-09-18T09:51:39Z</time>
      </trkpt>
      <trkpt lat="45.90338" lon="4.76562">
        <ele>185</ele>
        <time>2018-09-18T09:51:40Z</time>
      </trkpt>
      <trkpt lat="45.90337" lon="4.76552">
        <ele>185</ele>
        <time>2018-09-18T09:51:43Z</time>
      </trkpt>
      <trkpt lat="45.90337" lon="4.76548">
        <ele>186</ele>
        <time>2018-09-18T09:51:44Z</time>
      </trkpt>
      <trkpt lat="45.90337" lon="4.76538">
        <ele>186</ele>
        <time>2018-09-18T09:51:47Z</time>
      </trkpt>
      <trkpt lat="45.90337" lon="4.76534">
        <ele>186</ele>
        <time>2018-09-18T09:51:48Z</time>
      </trkpt>
      <trkpt lat="45.90338" lon="4.76525">
        <ele>186</ele>
        <time>2018-09-18T09:51:50Z</time>
      </trkpt>
      <trkpt lat="45.90338" lon="4.76521">
        <ele>186</ele>
        <time>2018-09-18T09:51:51Z</time>
      </trkpt>
      <trkpt lat="45.90341" lon="4.76511">
        <ele>187</ele>
        <time>2018-09-18T09:51:53Z</time>
      </trkpt>
      <trkpt lat="45.90342" lon="4.76508">
        <ele>187</ele>
        <time>2018-09-18T09:51:54Z</time>
      </trkpt>
      <trkpt lat="45.90348" lon="4.76499">
        <ele>188</ele>
        <time>2018-09-18T09:51:57Z</time>
      </trkpt>
      <trkpt lat="45.9035" lon="4.76496">
        <ele>188</ele>
        <time>2018-09-18T09:51:58Z</time>
      </trkpt>
      <trkpt lat="45.90352" lon="4.76493">
        <ele>188</ele>
        <time>2018-09-18T09:51:59Z</time>
      </trkpt>
      <trkpt lat="45.90359" lon="4.76484">
        <ele>188</ele>
        <time>2018-09-18T09:52:00Z</time>
      </trkpt>
      <trkpt lat="45.90365" lon="4.76478">
        <ele>188</ele>
        <time>2018-09-18T09:52:03Z</time>
      </trkpt>
      <trkpt lat="45.90368" lon="4.76477">
        <ele>188</ele>
        <time>2018-09-18T09:52:04Z</time>
      </trkpt>
      <trkpt lat="45.90377" lon="4.76475">
        <ele>188</ele>
        <time>2018-09-18T09:52:07Z</time>
      </trkpt>
      <trkpt lat="45.9038" lon="4.76475">
        <ele>188</ele>
        <time>2018-09-18T09:52:08Z</time>
      </trkpt>
      <trkpt lat="45.90385" lon="4.76476">
        <ele>188</ele>
        <time>2018-09-18T09:52:10Z</time>
      </trkpt>
      <trkpt lat="45.90389" lon="4.76477">
        <ele>188</ele>
        <time>2018-09-18T09:52:11Z</time>
      </trkpt>
      <trkpt lat="45.90392" lon="4.76477">
        <ele>188</ele>
        <time>2018-09-18T09:52:12Z</time>
      </trkpt>
      <trkpt lat="45.90402" lon="4.76478">
        <ele>188</ele>
        <time>2018-09-18T09:52:13Z</time>
      </trkpt>
      <trkpt lat="45.90409" lon="4.76475">
        <ele>187</ele>
        <time>2018-09-18T09:52:16Z</time>
      </trkpt>
      <trkpt lat="45.90411" lon="4.76474">
        <ele>188</ele>
        <time>2018-09-18T09:52:17Z</time>
      </trkpt>
      <trkpt lat="45.90417" lon="4.76466">
        <ele>186</ele>
        <time>2018-09-18T09:52:20Z</time>
      </trkpt>
      <trkpt lat="45.90419" lon="4.76462">
        <ele>186</ele>
        <time>2018-09-18T09:52:21Z</time>
      </trkpt>
      <trkpt lat="45.90424" lon="4.76449">
        <ele>186</ele>
        <time>2018-09-18T09:52:22Z</time>
      </trkpt>
      <trkpt lat="45.90426" lon="4.76443">
        <ele>187</ele>
        <time>2018-09-18T09:52:23Z</time>
      </trkpt>
      <trkpt lat="45.90428" lon="4.76437">
        <ele>187</ele>
        <time>2018-09-18T09:52:24Z</time>
      </trkpt>
      <trkpt lat="45.90432" lon="4.76426">
        <ele>187</ele>
        <time>2018-09-18T09:52:26Z</time>
      </trkpt>
      <trkpt lat="45.90433" lon="4.7642">
        <ele>187</ele>
        <time>2018-09-18T09:52:27Z</time>
      </trkpt>
      <trkpt lat="45.90437" lon="4.7641">
        <ele>187</ele>
        <time>2018-09-18T09:52:29Z</time>
      </trkpt>
      <trkpt lat="45.90438" lon="4.76407">
        <ele>187</ele>
        <time>2018-09-18T09:52:30Z</time>
      </trkpt>
      <trkpt lat="45.9044" lon="4.764">
        <ele>187</ele>
        <time>2018-09-18T09:52:31Z</time>
      </trkpt>
      <trkpt lat="45.90442" lon="4.76395">
        <ele>187</ele>
        <time>2018-09-18T09:52:32Z</time>
      </trkpt>
      <trkpt lat="45.90446" lon="4.76385">
        <ele>187</ele>
        <time>2018-09-18T09:52:34Z</time>
      </trkpt>
      <trkpt lat="45.90448" lon="4.7638">
        <ele>187</ele>
        <time>2018-09-18T09:52:35Z</time>
      </trkpt>
      <trkpt lat="45.90451" lon="4.76372">
        <ele>186</ele>
        <time>2018-09-18T09:52:38Z</time>
      </trkpt>
      <trkpt lat="45.90452" lon="4.76368">
        <ele>186</ele>
        <time>2018-09-18T09:52:39Z</time>
      </trkpt>
      <trkpt lat="45.90455" lon="4.76358">
        <ele>186</ele>
        <time>2018-09-18T09:52:42Z</time>
      </trkpt>
      <trkpt lat="45.90456" lon="4.76355">
        <ele>186</ele>
        <time>2018-09-18T09:52:43Z</time>
      </trkpt>
      <trkpt lat="45.90457" lon="4.76352">
        <ele>186</ele>
        <time>2018-09-18T09:52:44Z</time>
      </trkpt>
      <trkpt lat="45.90461" lon="4.7634">
        <ele>186</ele>
        <time>2018-09-18T09:52:45Z</time>
      </trkpt>
      <trkpt lat="45.90464" lon="4.76328">
        <ele>186</ele>
        <time>2018-09-18T09:52:47Z</time>
      </trkpt>
      <trkpt lat="45.90466" lon="4.76322">
        <ele>186</ele>
        <time>2018-09-18T09:52:48Z</time>
      </trkpt>
      <trkpt lat="45.90469" lon="4.76311">
        <ele>186</ele>
        <time>2018-09-18T09:52:50Z</time>
      </trkpt>
      <trkpt lat="45.90471" lon="4.76306">
        <ele>186</ele>
        <time>2018-09-18T09:52:51Z</time>
      </trkpt>
      <trkpt lat="45.90472" lon="4.76299">
        <ele>186</ele>
        <time>2018-09-18T09:52:52Z</time>
      </trkpt>
      <trkpt lat="45.90473" lon="4.76292">
        <ele>186</ele>
        <time>2018-09-18T09:52:53Z</time>
      </trkpt>
      <trkpt lat="45.90476" lon="4.7628">
        <ele>186</ele>
        <time>2018-09-18T09:52:55Z</time>
      </trkpt>
      <trkpt lat="45.90478" lon="4.76275">
        <ele>186</ele>
        <time>2018-09-18T09:52:56Z</time>
      </trkpt>
      <trkpt lat="45.90481" lon="4.76264">
        <ele>186</ele>
        <time>2018-09-18T09:52:58Z</time>
      </trkpt>
      <trkpt lat="45.90483" lon="4.76259">
        <ele>186</ele>
        <time>2018-09-18T09:52:59Z</time>
      </trkpt>
      <trkpt lat="45.90485" lon="4.76247">
        <ele>185</ele>
        <time>2018-09-18T09:53:02Z</time>
      </trkpt>
      <trkpt lat="45.90484" lon="4.76238">
        <ele>185</ele>
        <time>2018-09-18T09:53:03Z</time>
      </trkpt>
      <trkpt lat="45.90479" lon="4.76229">
        <ele>185</ele>
        <time>2018-09-18T09:53:05Z</time>
      </trkpt>
      <trkpt lat="45.90475" lon="4.76227">
        <ele>185</ele>
        <time>2018-09-18T09:53:06Z</time>
      </trkpt>
      <trkpt lat="45.90468" lon="4.76223">
        <ele>185</ele>
        <time>2018-09-18T09:53:08Z</time>
      </trkpt>
      <trkpt lat="45.90465" lon="4.76221">
        <ele>185</ele>
        <time>2018-09-18T09:53:09Z</time>
      </trkpt>
      <trkpt lat="45.90457" lon="4.76216">
        <ele>186</ele>
        <time>2018-09-18T09:53:11Z</time>
      </trkpt>
      <trkpt lat="45.90453" lon="4.76213">
        <ele>186</ele>
        <time>2018-09-18T09:53:12Z</time>
      </trkpt>
      <trkpt lat="45.90445" lon="4.76208">
        <ele>186</ele>
        <time>2018-09-18T09:53:14Z</time>
      </trkpt>
      <trkpt lat="45.90442" lon="4.76206">
        <ele>186</ele>
        <time>2018-09-18T09:53:15Z</time>
      </trkpt>
      <trkpt lat="45.90438" lon="4.76204">
        <ele>186</ele>
        <time>2018-09-18T09:53:17Z</time>
      </trkpt>
      <trkpt lat="45.90432" lon="4.762">
        <ele>186</ele>
        <time>2018-09-18T09:53:18Z</time>
      </trkpt>
      <trkpt lat="45.90425" lon="4.76195">
        <ele>186</ele>
        <time>2018-09-18T09:53:20Z</time>
      </trkpt>
      <trkpt lat="45.90423" lon="4.76194">
        <ele>186</ele>
        <time>2018-09-18T09:53:21Z</time>
      </trkpt>
      <trkpt lat="45.90418" lon="4.7619">
        <ele>186</ele>
        <time>2018-09-18T09:53:22Z</time>
      </trkpt>
      <trkpt lat="45.90414" lon="4.76187">
        <ele>186</ele>
        <time>2018-09-18T09:53:23Z</time>
      </trkpt>
      <trkpt lat="45.90412" lon="4.76182">
        <ele>186</ele>
        <time>2018-09-18T09:53:24Z</time>
      </trkpt>
      <trkpt lat="45.90419" lon="4.76175">
        <ele>186</ele>
        <time>2018-09-18T09:53:25Z</time>
      </trkpt>
      <trkpt lat="45.90425" lon="4.76168">
        <ele>186</ele>
        <time>2018-09-18T09:53:27Z</time>
      </trkpt>
      <trkpt lat="45.90429" lon="4.76164">
        <ele>186</ele>
        <time>2018-09-18T09:53:28Z</time>
      </trkpt>
      <trkpt lat="45.90433" lon="4.76159">
        <ele>186</ele>
        <time>2018-09-18T09:53:29Z</time>
      </trkpt>
      <trkpt lat="45.90438" lon="4.76155">
        <ele>186</ele>
        <time>2018-09-18T09:53:30Z</time>
      </trkpt>
      <trkpt lat="45.90441" lon="4.76152">
        <ele>186</ele>
        <time>2018-09-18T09:53:31Z</time>
      </trkpt>
      <trkpt lat="45.90447" lon="4.76141">
        <ele>186</ele>
        <time>2018-09-18T09:53:32Z</time>
      </trkpt>
      <trkpt lat="45.9045" lon="4.76137">
        <ele>186</ele>
        <time>2018-09-18T09:53:33Z</time>
      </trkpt>
      <trkpt lat="45.90455" lon="4.76131">
        <ele>186</ele>
        <time>2018-09-18T09:53:34Z</time>
      </trkpt>
      <trkpt lat="45.90461" lon="4.76124">
        <ele>185</ele>
        <time>2018-09-18T09:53:36Z</time>
      </trkpt>
      <trkpt lat="45.90464" lon="4.76121">
        <ele>185</ele>
        <time>2018-09-18T09:53:37Z</time>
      </trkpt>
      <trkpt lat="45.9047" lon="4.76112">
        <ele>185</ele>
        <time>2018-09-18T09:53:39Z</time>
      </trkpt>
      <trkpt lat="45.90472" lon="4.76108">
        <ele>185</ele>
        <time>2018-09-18T09:53:40Z</time>
      </trkpt>
      <trkpt lat="45.90477" lon="4.761">
        <ele>185</ele>
        <time>2018-09-18T09:53:42Z</time>
      </trkpt>
      <trkpt lat="45.9048" lon="4.76096">
        <ele>185</ele>
        <time>2018-09-18T09:53:43Z</time>
      </trkpt>
      <trkpt lat="45.90485" lon="4.76086">
        <ele>185</ele>
        <time>2018-09-18T09:53:45Z</time>
      </trkpt>
      <trkpt lat="45.90486" lon="4.76084">
        <ele>185</ele>
        <time>2018-09-18T09:53:46Z</time>
      </trkpt>
      <trkpt lat="45.90493" lon="4.76074">
        <ele>185</ele>
        <time>2018-09-18T09:53:47Z</time>
      </trkpt>
      <trkpt lat="45.90498" lon="4.76064">
        <ele>185</ele>
        <time>2018-09-18T09:53:49Z</time>
      </trkpt>
      <trkpt lat="45.905" lon="4.76058">
        <ele>185</ele>
        <time>2018-09-18T09:53:50Z</time>
      </trkpt>
      <trkpt lat="45.90505" lon="4.76048">
        <ele>185</ele>
        <time>2018-09-18T09:53:52Z</time>
      </trkpt>
      <trkpt lat="45.90507" lon="4.76042">
        <ele>185</ele>
        <time>2018-09-18T09:53:53Z</time>
      </trkpt>
      <trkpt lat="45.9051" lon="4.76032">
        <ele>185</ele>
        <time>2018-09-18T09:53:55Z</time>
      </trkpt>
      <trkpt lat="45.90512" lon="4.76025">
        <ele>185</ele>
        <time>2018-09-18T09:53:56Z</time>
      </trkpt>
      <trkpt lat="45.90514" lon="4.76014">
        <ele>186</ele>
        <time>2018-09-18T09:53:58Z</time>
      </trkpt>
      <trkpt lat="45.90516" lon="4.76007">
        <ele>186</ele>
        <time>2018-09-18T09:53:59Z</time>
      </trkpt>
      <trkpt lat="45.90518" lon="4.75998">
        <ele>186</ele>
        <time>2018-09-18T09:54:01Z</time>
      </trkpt>
      <trkpt lat="45.90519" lon="4.7599">
        <ele>186</ele>
        <time>2018-09-18T09:54:02Z</time>
      </trkpt>
      <trkpt lat="45.90522" lon="4.75978">
        <ele>186</ele>
        <time>2018-09-18T09:54:04Z</time>
      </trkpt>
      <trkpt lat="45.90525" lon="4.75975">
        <ele>186</ele>
        <time>2018-09-18T09:54:05Z</time>
      </trkpt>
      <trkpt lat="45.90532" lon="4.75969">
        <ele>186</ele>
        <time>2018-09-18T09:54:07Z</time>
      </trkpt>
      <trkpt lat="45.90535" lon="4.75964">
        <ele>186</ele>
        <time>2018-09-18T09:54:08Z</time>
      </trkpt>
      <trkpt lat="45.90542" lon="4.75957">
        <ele>186</ele>
        <time>2018-09-18T09:54:10Z</time>
      </trkpt>
      <trkpt lat="45.90544" lon="4.75956">
        <ele>186</ele>
        <time>2018-09-18T09:54:11Z</time>
      </trkpt>
      <trkpt lat="45.90546" lon="4.75955">
        <ele>186</ele>
        <time>2018-09-18T09:54:12Z</time>
      </trkpt>
      <trkpt lat="45.90553" lon="4.75954">
        <ele>186</ele>
        <time>2018-09-18T09:54:13Z</time>
      </trkpt>
      <trkpt lat="45.90558" lon="4.75957">
        <ele>186</ele>
        <time>2018-09-18T09:54:14Z</time>
      </trkpt>
      <trkpt lat="45.90563" lon="4.75959">
        <ele>186</ele>
        <time>2018-09-18T09:54:15Z</time>
      </trkpt>
      <trkpt lat="45.90567" lon="4.75961">
        <ele>186</ele>
        <time>2018-09-18T09:54:16Z</time>
      </trkpt>
      <trkpt lat="45.90571" lon="4.75965">
        <ele>186</ele>
        <time>2018-09-18T09:54:17Z</time>
      </trkpt>
      <trkpt lat="45.90575" lon="4.7597">
        <ele>186</ele>
        <time>2018-09-18T09:54:19Z</time>
      </trkpt>
      <trkpt lat="45.90581" lon="4.75975">
        <ele>186</ele>
        <time>2018-09-18T09:54:20Z</time>
      </trkpt>
      <trkpt lat="45.90586" lon="4.75982">
        <ele>186</ele>
        <time>2018-09-18T09:54:24Z</time>
      </trkpt>
      <trkpt lat="45.90589" lon="4.75984">
        <ele>186</ele>
        <time>2018-09-18T09:54:25Z</time>
      </trkpt>
      <trkpt lat="45.90594" lon="4.75985">
        <ele>186</ele>
        <time>2018-09-18T09:54:27Z</time>
      </trkpt>
      <trkpt lat="45.90602" lon="4.75983">
        <ele>186</ele>
        <time>2018-09-18T09:54:28Z</time>
      </trkpt>
      <trkpt lat="45.90607" lon="4.75977">
        <ele>186</ele>
        <time>2018-09-18T09:54:29Z</time>
      </trkpt>
      <trkpt lat="45.90611" lon="4.75972">
        <ele>186</ele>
        <time>2018-09-18T09:54:30Z</time>
      </trkpt>
      <trkpt lat="45.90615" lon="4.75967">
        <ele>186</ele>
        <time>2018-09-18T09:54:31Z</time>
      </trkpt>
      <trkpt lat="45.90618" lon="4.75961">
        <ele>186</ele>
        <time>2018-09-18T09:54:32Z</time>
      </trkpt>
      <trkpt lat="45.90621" lon="4.75956">
        <ele>186</ele>
        <time>2018-09-18T09:54:33Z</time>
      </trkpt>
      <trkpt lat="45.90624" lon="4.7595">
        <ele>186</ele>
        <time>2018-09-18T09:54:34Z</time>
      </trkpt>
      <trkpt lat="45.90628" lon="4.75944">
        <ele>186</ele>
        <time>2018-09-18T09:54:35Z</time>
      </trkpt>
      <trkpt lat="45.90631" lon="4.75939">
        <ele>186</ele>
        <time>2018-09-18T09:54:36Z</time>
      </trkpt>
      <trkpt lat="45.90635" lon="4.75934">
        <ele>186</ele>
        <time>2018-09-18T09:54:37Z</time>
      </trkpt>
      <trkpt lat="45.90637" lon="4.75929">
        <ele>186</ele>
        <time>2018-09-18T09:54:38Z</time>
      </trkpt>
      <trkpt lat="45.9064" lon="4.75923">
        <ele>186</ele>
        <time>2018-09-18T09:54:39Z</time>
      </trkpt>
      <trkpt lat="45.90643" lon="4.75918">
        <ele>187</ele>
        <time>2018-09-18T09:54:40Z</time>
      </trkpt>
      <trkpt lat="45.90648" lon="4.75909">
        <ele>187</ele>
        <time>2018-09-18T09:54:42Z</time>
      </trkpt>
      <trkpt lat="45.90649" lon="4.75907">
        <ele>187</ele>
        <time>2018-09-18T09:54:43Z</time>
      </trkpt>
      <trkpt lat="45.90653" lon="4.759">
        <ele>187</ele>
        <time>2018-09-18T09:54:44Z</time>
      </trkpt>
      <trkpt lat="45.90656" lon="4.75896">
        <ele>187</ele>
        <time>2018-09-18T09:54:45Z</time>
      </trkpt>
      <trkpt lat="45.90661" lon="4.75887">
        <ele>187</ele>
        <time>2018-09-18T09:54:47Z</time>
      </trkpt>
      <trkpt lat="45.90664" lon="4.75883">
        <ele>187</ele>
        <time>2018-09-18T09:54:48Z</time>
      </trkpt>
      <trkpt lat="45.90668" lon="4.75877">
        <ele>187</ele>
        <time>2018-09-18T09:54:50Z</time>
      </trkpt>
      <trkpt lat="45.90674" lon="4.75874">
        <ele>187</ele>
        <time>2018-09-18T09:54:51Z</time>
      </trkpt>
      <trkpt lat="45.90682" lon="4.75868">
        <ele>187</ele>
        <time>2018-09-18T09:54:56Z</time>
      </trkpt>
      <trkpt lat="45.90683" lon="4.75868">
        <ele>187</ele>
        <time>2018-09-18T09:54:57Z</time>
      </trkpt>
      <trkpt lat="45.90688" lon="4.75868">
        <ele>187</ele>
        <time>2018-09-18T09:56:02Z</time>
      </trkpt>
      <trkpt lat="45.90696" lon="4.75866">
        <ele>187</ele>
        <time>2018-09-18T09:56:03Z</time>
      </trkpt>
      <trkpt lat="45.90704" lon="4.75863">
        <ele>187</ele>
        <time>2018-09-18T09:56:05Z</time>
      </trkpt>
      <trkpt lat="45.90708" lon="4.75862">
        <ele>187</ele>
        <time>2018-09-18T09:56:06Z</time>
      </trkpt>
      <trkpt lat="45.90713" lon="4.75861">
        <ele>187</ele>
        <time>2018-09-18T09:56:07Z</time>
      </trkpt>
      <trkpt lat="45.90718" lon="4.75861">
        <ele>186</ele>
        <time>2018-09-18T09:56:08Z</time>
      </trkpt>
      <trkpt lat="45.90722" lon="4.7586">
        <ele>186</ele>
        <time>2018-09-18T09:56:09Z</time>
      </trkpt>
      <trkpt lat="45.90727" lon="4.7586">
        <ele>186</ele>
        <time>2018-09-18T09:56:10Z</time>
      </trkpt>
      <trkpt lat="45.90734" lon="4.7586">
        <ele>186</ele>
        <time>2018-09-18T09:56:11Z</time>
      </trkpt>
      <trkpt lat="45.90738" lon="4.7586">
        <ele>186</ele>
        <time>2018-09-18T09:56:12Z</time>
      </trkpt>
      <trkpt lat="45.90744" lon="4.75859">
        <ele>186</ele>
        <time>2018-09-18T09:56:13Z</time>
      </trkpt>
      <trkpt lat="45.90749" lon="4.75859">
        <ele>186</ele>
        <time>2018-09-18T09:56:14Z</time>
      </trkpt>
      <trkpt lat="45.90753" lon="4.75859">
        <ele>186</ele>
        <time>2018-09-18T09:56:15Z</time>
      </trkpt>
      <trkpt lat="45.90758" lon="4.7586">
        <ele>185</ele>
        <time>2018-09-18T09:56:16Z</time>
      </trkpt>
      <trkpt lat="45.90763" lon="4.75861">
        <ele>185</ele>
        <time>2018-09-18T09:56:17Z</time>
      </trkpt>
      <trkpt lat="45.90768" lon="4.75862">
        <ele>185</ele>
        <time>2018-09-18T09:56:18Z</time>
      </trkpt>
      <trkpt lat="45.90776" lon="4.75861">
        <ele>185</ele>
        <time>2018-09-18T09:56:20Z</time>
      </trkpt>
      <trkpt lat="45.9078" lon="4.75862">
        <ele>185</ele>
        <time>2018-09-18T09:56:21Z</time>
      </trkpt>
      <trkpt lat="45.90785" lon="4.75862">
        <ele>185</ele>
        <time>2018-09-18T09:56:22Z</time>
      </trkpt>
      <trkpt lat="45.9079" lon="4.75861">
        <ele>185</ele>
        <time>2018-09-18T09:56:23Z</time>
      </trkpt>
      <trkpt lat="45.90794" lon="4.75861">
        <ele>185</ele>
        <time>2018-09-18T09:56:24Z</time>
      </trkpt>
      <trkpt lat="45.90799" lon="4.75862">
        <ele>185</ele>
        <time>2018-09-18T09:56:25Z</time>
      </trkpt>
      <trkpt lat="45.90804" lon="4.75863">
        <ele>185</ele>
        <time>2018-09-18T09:56:26Z</time>
      </trkpt>
      <trkpt lat="45.9081" lon="4.75862">
        <ele>185</ele>
        <time>2018-09-18T09:56:27Z</time>
      </trkpt>
      <trkpt lat="45.90815" lon="4.75862">
        <ele>185</ele>
        <time>2018-09-18T09:56:28Z</time>
      </trkpt>
      <trkpt lat="45.90821" lon="4.75863">
        <ele>185</ele>
        <time>2018-09-18T09:56:29Z</time>
      </trkpt>
      <trkpt lat="45.90826" lon="4.75864">
        <ele>185</ele>
        <time>2018-09-18T09:56:30Z</time>
      </trkpt>
      <trkpt lat="45.9083" lon="4.75866">
        <ele>185</ele>
        <time>2018-09-18T09:56:31Z</time>
      </trkpt>
      <trkpt lat="45.90835" lon="4.75867">
        <ele>184</ele>
        <time>2018-09-18T09:56:32Z</time>
      </trkpt>
      <trkpt lat="45.9084" lon="4.75867">
        <ele>184</ele>
        <time>2018-09-18T09:56:33Z</time>
      </trkpt>
      <trkpt lat="45.90848" lon="4.75869">
        <ele>184</ele>
        <time>2018-09-18T09:56:35Z</time>
      </trkpt>
      <trkpt lat="45.90853" lon="4.7587">
        <ele>184</ele>
        <time>2018-09-18T09:56:36Z</time>
      </trkpt>
      <trkpt lat="45.90857" lon="4.75872">
        <ele>184</ele>
        <time>2018-09-18T09:56:37Z</time>
      </trkpt>
      <trkpt lat="45.90863" lon="4.7587">
        <ele>184</ele>
        <time>2018-09-18T09:56:38Z</time>
      </trkpt>
      <trkpt lat="45.9087" lon="4.7587">
        <ele>184</ele>
        <time>2018-09-18T09:56:40Z</time>
      </trkpt>
      <trkpt lat="45.90875" lon="4.75872">
        <ele>184</ele>
        <time>2018-09-18T09:56:41Z</time>
      </trkpt>
      <trkpt lat="45.90883" lon="4.7587">
        <ele>184</ele>
        <time>2018-09-18T09:56:44Z</time>
      </trkpt>
      <trkpt lat="45.90886" lon="4.7587">
        <ele>184</ele>
        <time>2018-09-18T09:56:45Z</time>
      </trkpt>
      <trkpt lat="45.9089" lon="4.7586">
        <ele>184</ele>
        <time>2018-09-18T09:56:48Z</time>
      </trkpt>
      <trkpt lat="45.9089" lon="4.75856">
        <ele>184</ele>
        <time>2018-09-18T09:56:49Z</time>
      </trkpt>
      <trkpt lat="45.90891" lon="4.75845">
        <ele>184</ele>
        <time>2018-09-18T09:56:52Z</time>
      </trkpt>
      <trkpt lat="45.90892" lon="4.75841">
        <ele>184</ele>
        <time>2018-09-18T09:56:53Z</time>
      </trkpt>
      <trkpt lat="45.90893" lon="4.7583">
        <ele>184</ele>
        <time>2018-09-18T09:56:56Z</time>
      </trkpt>
      <trkpt lat="45.90894" lon="4.75826">
        <ele>184</ele>
        <time>2018-09-18T09:56:57Z</time>
      </trkpt>
      <trkpt lat="45.90894" lon="4.75815">
        <ele>184</ele>
        <time>2018-09-18T09:57:00Z</time>
      </trkpt>
      <trkpt lat="45.90895" lon="4.7581">
        <ele>184</ele>
        <time>2018-09-18T09:57:01Z</time>
      </trkpt>
      <trkpt lat="45.90895" lon="4.75802">
        <ele>184</ele>
        <time>2018-09-18T09:57:03Z</time>
      </trkpt>
      <trkpt lat="45.90895" lon="4.75797">
        <ele>184</ele>
        <time>2018-09-18T09:57:04Z</time>
      </trkpt>
      <trkpt lat="45.90895" lon="4.75792">
        <ele>184</ele>
        <time>2018-09-18T09:57:05Z</time>
      </trkpt>
      <trkpt lat="45.90896" lon="4.75777">
        <ele>185</ele>
        <time>2018-09-18T09:57:06Z</time>
      </trkpt>
      <trkpt lat="45.90897" lon="4.75766">
        <ele>184</ele>
        <time>2018-09-18T09:57:08Z</time>
      </trkpt>
      <trkpt lat="45.90897" lon="4.75761">
        <ele>184</ele>
        <time>2018-09-18T09:57:09Z</time>
      </trkpt>
      <trkpt lat="45.90897" lon="4.75749">
        <ele>184</ele>
        <time>2018-09-18T09:57:11Z</time>
      </trkpt>
      <trkpt lat="45.90897" lon="4.75743">
        <ele>184</ele>
        <time>2018-09-18T09:57:12Z</time>
      </trkpt>
      <trkpt lat="45.90897" lon="4.75732">
        <ele>184</ele>
        <time>2018-09-18T09:57:14Z</time>
      </trkpt>
      <trkpt lat="45.90897" lon="4.75726">
        <ele>184</ele>
        <time>2018-09-18T09:57:15Z</time>
      </trkpt>
      <trkpt lat="45.90896" lon="4.75715">
        <ele>184</ele>
        <time>2018-09-18T09:57:19Z</time>
      </trkpt>
      <trkpt lat="45.90896" lon="4.75712">
        <ele>184</ele>
        <time>2018-09-18T09:57:20Z</time>
      </trkpt>
      <trkpt lat="45.90896" lon="4.75701">
        <ele>184</ele>
        <time>2018-09-18T09:57:23Z</time>
      </trkpt>
      <trkpt lat="45.90897" lon="4.75689">
        <ele>184</ele>
        <time>2018-09-18T09:57:24Z</time>
      </trkpt>
      <trkpt lat="45.90898" lon="4.75679">
        <ele>184</ele>
        <time>2018-09-18T09:57:26Z</time>
      </trkpt>
      <trkpt lat="45.90898" lon="4.75677">
        <ele>184</ele>
        <time>2018-09-18T09:57:27Z</time>
      </trkpt>
      <trkpt lat="45.90899" lon="4.75667">
        <ele>184</ele>
        <time>2018-09-18T09:57:30Z</time>
      </trkpt>
      <trkpt lat="45.90899" lon="4.75663">
        <ele>184</ele>
        <time>2018-09-18T09:57:31Z</time>
      </trkpt>
      <trkpt lat="45.90899" lon="4.75651">
        <ele>184</ele>
        <time>2018-09-18T09:57:32Z</time>
      </trkpt>
      <trkpt lat="45.90899" lon="4.75649">
        <ele>184</ele>
        <time>2018-09-18T09:57:33Z</time>
      </trkpt>
      <trkpt lat="45.90899" lon="4.75639">
        <ele>185</ele>
        <time>2018-09-18T09:57:36Z</time>
      </trkpt>
      <trkpt lat="45.90898" lon="4.75636">
        <ele>185</ele>
        <time>2018-09-18T09:57:37Z</time>
      </trkpt>
      <trkpt lat="45.90898" lon="4.75624">
        <ele>185</ele>
        <time>2018-09-18T09:57:38Z</time>
      </trkpt>
      <trkpt lat="45.90898" lon="4.75618">
        <ele>185</ele>
        <time>2018-09-18T09:57:39Z</time>
      </trkpt>
      <trkpt lat="45.90899" lon="4.75607">
        <ele>185</ele>
        <time>2018-09-18T09:57:42Z</time>
      </trkpt>
      <trkpt lat="45.90899" lon="4.75604">
        <ele>185</ele>
        <time>2018-09-18T09:57:43Z</time>
      </trkpt>
      <trkpt lat="45.90901" lon="4.75591">
        <ele>185</ele>
        <time>2018-09-18T09:57:46Z</time>
      </trkpt>
      <trkpt lat="45.90903" lon="4.75578">
        <ele>185</ele>
        <time>2018-09-18T09:57:47Z</time>
      </trkpt>
      <trkpt lat="45.90905" lon="4.75566">
        <ele>186</ele>
        <time>2018-09-18T09:57:49Z</time>
      </trkpt>
      <trkpt lat="45.90905" lon="4.75564">
        <ele>186</ele>
        <time>2018-09-18T09:57:50Z</time>
      </trkpt>
      <trkpt lat="45.90905" lon="4.75557">
        <ele>186</ele>
        <time>2018-09-18T09:57:52Z</time>
      </trkpt>
      <trkpt lat="45.90906" lon="4.75548">
        <ele>186</ele>
        <time>2018-09-18T09:57:53Z</time>
      </trkpt>
      <trkpt lat="45.90906" lon="4.75542">
        <ele>186</ele>
        <time>2018-09-18T09:57:55Z</time>
      </trkpt>
      <trkpt lat="45.90907" lon="4.75533">
        <ele>186</ele>
        <time>2018-09-18T09:57:56Z</time>
      </trkpt>
      <trkpt lat="45.90907" lon="4.75521">
        <ele>186</ele>
        <time>2018-09-18T09:57:59Z</time>
      </trkpt>
      <trkpt lat="45.90907" lon="4.75518">
        <ele>186</ele>
        <time>2018-09-18T09:58:00Z</time>
      </trkpt>
      <trkpt lat="45.90908" lon="4.75508">
        <ele>186</ele>
        <time>2018-09-18T09:58:03Z</time>
      </trkpt>
      <trkpt lat="45.90909" lon="4.75504">
        <ele>186</ele>
        <time>2018-09-18T09:58:04Z</time>
      </trkpt>
      <trkpt lat="45.9091" lon="4.75496">
        <ele>186</ele>
        <time>2018-09-18T09:58:06Z</time>
      </trkpt>
      <trkpt lat="45.9091" lon="4.75491">
        <ele>186</ele>
        <time>2018-09-18T09:58:07Z</time>
      </trkpt>
      <trkpt lat="45.90912" lon="4.75482">
        <ele>186</ele>
        <time>2018-09-18T09:58:09Z</time>
      </trkpt>
      <trkpt lat="45.90913" lon="4.75477">
        <ele>186</ele>
        <time>2018-09-18T09:58:10Z</time>
      </trkpt>
      <trkpt lat="45.90914" lon="4.75468">
        <ele>186</ele>
        <time>2018-09-18T09:58:12Z</time>
      </trkpt>
      <trkpt lat="45.90915" lon="4.75464">
        <ele>186</ele>
        <time>2018-09-18T09:58:13Z</time>
      </trkpt>
      <trkpt lat="45.90916" lon="4.75455">
        <ele>186</ele>
        <time>2018-09-18T09:58:15Z</time>
      </trkpt>
      <trkpt lat="45.90916" lon="4.7545">
        <ele>186</ele>
        <time>2018-09-18T09:58:16Z</time>
      </trkpt>
      <trkpt lat="45.90917" lon="4.75441">
        <ele>185</ele>
        <time>2018-09-18T09:58:18Z</time>
      </trkpt>
      <trkpt lat="45.90917" lon="4.75437">
        <ele>185</ele>
        <time>2018-09-18T09:58:19Z</time>
      </trkpt>
      <trkpt lat="45.90919" lon="4.75424">
        <ele>185</ele>
        <time>2018-09-18T09:58:22Z</time>
      </trkpt>
      <trkpt lat="45.9092" lon="4.75412">
        <ele>185</ele>
        <time>2018-09-18T09:58:23Z</time>
      </trkpt>
      <trkpt lat="45.90921" lon="4.754">
        <ele>185</ele>
        <time>2018-09-18T09:58:27Z</time>
      </trkpt>
      <trkpt lat="45.90921" lon="4.75396">
        <ele>185</ele>
        <time>2018-09-18T09:58:28Z</time>
      </trkpt>
      <trkpt lat="45.90922" lon="4.75384">
        <ele>185</ele>
        <time>2018-09-18T09:58:31Z</time>
      </trkpt>
      <trkpt lat="45.90922" lon="4.7538">
        <ele>185</ele>
        <time>2018-09-18T09:58:32Z</time>
      </trkpt>
      <trkpt lat="45.90923" lon="4.75368">
        <ele>185</ele>
        <time>2018-09-18T09:58:35Z</time>
      </trkpt>
      <trkpt lat="45.90924" lon="4.75363">
        <ele>185</ele>
        <time>2018-09-18T09:58:36Z</time>
      </trkpt>
      <trkpt lat="45.90924" lon="4.75354">
        <ele>185</ele>
        <time>2018-09-18T09:58:38Z</time>
      </trkpt>
      <trkpt lat="45.90924" lon="4.75349">
        <ele>185</ele>
        <time>2018-09-18T09:58:39Z</time>
      </trkpt>
      <trkpt lat="45.90925" lon="4.7534">
        <ele>186</ele>
        <time>2018-09-18T09:58:41Z</time>
      </trkpt>
      <trkpt lat="45.90925" lon="4.75336">
        <ele>186</ele>
        <time>2018-09-18T09:58:42Z</time>
      </trkpt>
      <trkpt lat="45.90926" lon="4.75326">
        <ele>186</ele>
        <time>2018-09-18T09:58:44Z</time>
      </trkpt>
      <trkpt lat="45.90926" lon="4.75322">
        <ele>185</ele>
        <time>2018-09-18T09:58:45Z</time>
      </trkpt>
      <trkpt lat="45.90927" lon="4.75312">
        <ele>185</ele>
        <time>2018-09-18T09:58:47Z</time>
      </trkpt>
      <trkpt lat="45.90928" lon="4.75308">
        <ele>185</ele>
        <time>2018-09-18T09:58:48Z</time>
      </trkpt>
      <trkpt lat="45.90928" lon="4.75298">
        <ele>185</ele>
        <time>2018-09-18T09:58:50Z</time>
      </trkpt>
      <trkpt lat="45.90929" lon="4.75293">
        <ele>185</ele>
        <time>2018-09-18T09:58:51Z</time>
      </trkpt>
      <trkpt lat="45.9093" lon="4.75284">
        <ele>185</ele>
        <time>2018-09-18T09:58:53Z</time>
      </trkpt>
      <trkpt lat="45.90932" lon="4.75269">
        <ele>185</ele>
        <time>2018-09-18T09:58:54Z</time>
      </trkpt>
      <trkpt lat="45.90933" lon="4.75258">
        <ele>185</ele>
        <time>2018-09-18T09:58:56Z</time>
      </trkpt>
      <trkpt lat="45.90934" lon="4.75253">
        <ele>185</ele>
        <time>2018-09-18T09:58:57Z</time>
      </trkpt>
      <trkpt lat="45.90935" lon="4.75242">
        <ele>184</ele>
        <time>2018-09-18T09:58:59Z</time>
      </trkpt>
      <trkpt lat="45.90936" lon="4.75237">
        <ele>184</ele>
        <time>2018-09-18T09:59:00Z</time>
      </trkpt>
      <trkpt lat="45.90937" lon="4.75226">
        <ele>184</ele>
        <time>2018-09-18T09:59:02Z</time>
      </trkpt>
      <trkpt lat="45.90937" lon="4.75221">
        <ele>184</ele>
        <time>2018-09-18T09:59:03Z</time>
      </trkpt>
      <trkpt lat="45.90938" lon="4.7521">
        <ele>184</ele>
        <time>2018-09-18T09:59:05Z</time>
      </trkpt>
      <trkpt lat="45.90939" lon="4.75207">
        <ele>184</ele>
        <time>2018-09-18T09:59:06Z</time>
      </trkpt>
      <trkpt lat="45.90939" lon="4.75197">
        <ele>183</ele>
        <time>2018-09-18T09:59:08Z</time>
      </trkpt>
      <trkpt lat="45.9094" lon="4.75189">
        <ele>183</ele>
        <time>2018-09-18T09:59:09Z</time>
      </trkpt>
      <trkpt lat="45.9094" lon="4.75179">
        <ele>183</ele>
        <time>2018-09-18T09:59:11Z</time>
      </trkpt>
      <trkpt lat="45.90941" lon="4.75174">
        <ele>183</ele>
        <time>2018-09-18T09:59:12Z</time>
      </trkpt>
      <trkpt lat="45.90942" lon="4.75163">
        <ele>182</ele>
        <time>2018-09-18T09:59:14Z</time>
      </trkpt>
      <trkpt lat="45.90942" lon="4.75158">
        <ele>182</ele>
        <time>2018-09-18T09:59:15Z</time>
      </trkpt>
      <trkpt lat="45.90944" lon="4.75147">
        <ele>182</ele>
        <time>2018-09-18T09:59:17Z</time>
      </trkpt>
      <trkpt lat="45.90944" lon="4.75142">
        <ele>182</ele>
        <time>2018-09-18T09:59:18Z</time>
      </trkpt>
      <trkpt lat="45.90946" lon="4.75131">
        <ele>181</ele>
        <time>2018-09-18T09:59:20Z</time>
      </trkpt>
      <trkpt lat="45.90946" lon="4.75126">
        <ele>181</ele>
        <time>2018-09-18T09:59:21Z</time>
      </trkpt>
      <trkpt lat="45.90948" lon="4.75115">
        <ele>181</ele>
        <time>2018-09-18T09:59:23Z</time>
      </trkpt>
      <trkpt lat="45.90948" lon="4.75109">
        <ele>181</ele>
        <time>2018-09-18T09:59:24Z</time>
      </trkpt>
      <trkpt lat="45.9095" lon="4.75098">
        <ele>181</ele>
        <time>2018-09-18T09:59:26Z</time>
      </trkpt>
      <trkpt lat="45.90951" lon="4.75092">
        <ele>181</ele>
        <time>2018-09-18T09:59:27Z</time>
      </trkpt>
      <trkpt lat="45.90952" lon="4.7508">
        <ele>179</ele>
        <time>2018-09-18T09:59:30Z</time>
      </trkpt>
      <trkpt lat="45.90953" lon="4.7507">
        <ele>179</ele>
        <time>2018-09-18T09:59:31Z</time>
      </trkpt>
      <trkpt lat="45.90955" lon="4.75058">
        <ele>179</ele>
        <time>2018-09-18T09:59:34Z</time>
      </trkpt>
      <trkpt lat="45.90956" lon="4.75055">
        <ele>179</ele>
        <time>2018-09-18T09:59:35Z</time>
      </trkpt>
      <trkpt lat="45.90957" lon="4.75043">
        <ele>179</ele>
        <time>2018-09-18T09:59:38Z</time>
      </trkpt>
      <trkpt lat="45.90958" lon="4.75039">
        <ele>179</ele>
        <time>2018-09-18T09:59:39Z</time>
      </trkpt>
      <trkpt lat="45.90959" lon="4.75034">
        <ele>179</ele>
        <time>2018-09-18T09:59:41Z</time>
      </trkpt>
      <trkpt lat="45.90959" lon="4.75032">
        <ele>179</ele>
        <time>2018-09-18T09:59:42Z</time>
      </trkpt>
      <trkpt lat="45.90958" lon="4.75031">
        <ele>179</ele>
        <time>2018-09-18T10:01:47Z</time>
      </trkpt>
      <trkpt lat="45.90958" lon="4.75031">
        <ele>179</ele>
        <time>2018-09-18T10:01:48Z</time>
      </trkpt>
      <trkpt lat="45.90966" lon="4.75026">
        <ele>178</ele>
        <time>2018-09-18T10:01:55Z</time>
      </trkpt>
      <trkpt lat="45.90969" lon="4.75027">
        <ele>178</ele>
        <time>2018-09-18T10:01:56Z</time>
      </trkpt>
      <trkpt lat="45.90975" lon="4.75029">
        <ele>178</ele>
        <time>2018-09-18T10:01:58Z</time>
      </trkpt>
      <trkpt lat="45.90978" lon="4.75031">
        <ele>178</ele>
        <time>2018-09-18T10:01:59Z</time>
      </trkpt>
      <trkpt lat="45.90983" lon="4.75035">
        <ele>178</ele>
        <time>2018-09-18T10:02:01Z</time>
      </trkpt>
      <trkpt lat="45.90992" lon="4.7504">
        <ele>178</ele>
        <time>2018-09-18T10:02:02Z</time>
      </trkpt>
      <trkpt lat="45.90999" lon="4.75043">
        <ele>178</ele>
        <time>2018-09-18T10:02:05Z</time>
      </trkpt>
      <trkpt lat="45.91005" lon="4.75045">
        <ele>178</ele>
        <time>2018-09-18T10:02:06Z</time>
      </trkpt>
      <trkpt lat="45.91013" lon="4.75049">
        <ele>178</ele>
        <time>2018-09-18T10:02:08Z</time>
      </trkpt>
      <trkpt lat="45.91017" lon="4.75051">
        <ele>179</ele>
        <time>2018-09-18T10:02:09Z</time>
      </trkpt>
      <trkpt lat="45.91025" lon="4.75054">
        <ele>179</ele>
        <time>2018-09-18T10:02:11Z</time>
      </trkpt>
      <trkpt lat="45.91029" lon="4.75055">
        <ele>179</ele>
        <time>2018-09-18T10:02:12Z</time>
      </trkpt>
      <trkpt lat="45.91036" lon="4.75059">
        <ele>179</ele>
        <time>2018-09-18T10:02:14Z</time>
      </trkpt>
      <trkpt lat="45.9104" lon="4.7506">
        <ele>179</ele>
        <time>2018-09-18T10:02:15Z</time>
      </trkpt>
      <trkpt lat="45.91048" lon="4.75063">
        <ele>179</ele>
        <time>2018-09-18T10:02:17Z</time>
      </trkpt>
      <trkpt lat="45.91052" lon="4.75065">
        <ele>179</ele>
        <time>2018-09-18T10:02:18Z</time>
      </trkpt>
      <trkpt lat="45.9106" lon="4.75068">
        <ele>179</ele>
        <time>2018-09-18T10:02:20Z</time>
      </trkpt>
      <trkpt lat="45.91065" lon="4.7507">
        <ele>179</ele>
        <time>2018-09-18T10:02:21Z</time>
      </trkpt>
      <trkpt lat="45.91069" lon="4.75071">
        <ele>179</ele>
        <time>2018-09-18T10:02:22Z</time>
      </trkpt>
      <trkpt lat="45.91074" lon="4.75072">
        <ele>179</ele>
        <time>2018-09-18T10:02:23Z</time>
      </trkpt>
      <trkpt lat="45.91079" lon="4.75074">
        <ele>179</ele>
        <time>2018-09-18T10:02:24Z</time>
      </trkpt>
      <trkpt lat="45.91083" lon="4.75075">
        <ele>180</ele>
        <time>2018-09-18T10:02:25Z</time>
      </trkpt>
      <trkpt lat="45.91088" lon="4.75077">
        <ele>180</ele>
        <time>2018-09-18T10:02:26Z</time>
      </trkpt>
      <trkpt lat="45.91092" lon="4.75079">
        <ele>179</ele>
        <time>2018-09-18T10:02:27Z</time>
      </trkpt>
      <trkpt lat="45.91097" lon="4.75081">
        <ele>179</ele>
        <time>2018-09-18T10:02:28Z</time>
      </trkpt>
      <trkpt lat="45.91102" lon="4.75085">
        <ele>180</ele>
        <time>2018-09-18T10:02:29Z</time>
      </trkpt>
      <trkpt lat="45.91107" lon="4.75088">
        <ele>180</ele>
        <time>2018-09-18T10:02:30Z</time>
      </trkpt>
      <trkpt lat="45.91112" lon="4.7509">
        <ele>179</ele>
        <time>2018-09-18T10:02:31Z</time>
      </trkpt>
      <trkpt lat="45.91117" lon="4.75086">
        <ele>179</ele>
        <time>2018-09-18T10:02:32Z</time>
      </trkpt>
      <trkpt lat="45.91122" lon="4.75088">
        <ele>179</ele>
        <time>2018-09-18T10:02:33Z</time>
      </trkpt>
      <trkpt lat="45.91127" lon="4.75091">
        <ele>179</ele>
        <time>2018-09-18T10:02:34Z</time>
      </trkpt>
      <trkpt lat="45.91132" lon="4.75093">
        <ele>179</ele>
        <time>2018-09-18T10:02:35Z</time>
      </trkpt>
      <trkpt lat="45.91138" lon="4.75093">
        <ele>179</ele>
        <time>2018-09-18T10:02:36Z</time>
      </trkpt>
      <trkpt lat="45.91143" lon="4.75095">
        <ele>179</ele>
        <time>2018-09-18T10:02:37Z</time>
      </trkpt>
      <trkpt lat="45.91148" lon="4.75098">
        <ele>179</ele>
        <time>2018-09-18T10:02:38Z</time>
      </trkpt>
      <trkpt lat="45.91152" lon="4.751">
        <ele>179</ele>
        <time>2018-09-18T10:02:39Z</time>
      </trkpt>
      <trkpt lat="45.91156" lon="4.75103">
        <ele>179</ele>
        <time>2018-09-18T10:02:40Z</time>
      </trkpt>
      <trkpt lat="45.91161" lon="4.75105">
        <ele>179</ele>
        <time>2018-09-18T10:02:41Z</time>
      </trkpt>
      <trkpt lat="45.91166" lon="4.75106">
        <ele>179</ele>
        <time>2018-09-18T10:02:42Z</time>
      </trkpt>
      <trkpt lat="45.9117" lon="4.75108">
        <ele>178</ele>
        <time>2018-09-18T10:02:43Z</time>
      </trkpt>
      <trkpt lat="45.91175" lon="4.75109">
        <ele>178</ele>
        <time>2018-09-18T10:02:44Z</time>
      </trkpt>
      <trkpt lat="45.9118" lon="4.75111">
        <ele>178</ele>
        <time>2018-09-18T10:02:45Z</time>
      </trkpt>
      <trkpt lat="45.91186" lon="4.75109">
        <ele>178</ele>
        <time>2018-09-18T10:02:46Z</time>
      </trkpt>
      <trkpt lat="45.91192" lon="4.7511">
        <ele>178</ele>
        <time>2018-09-18T10:02:47Z</time>
      </trkpt>
      <trkpt lat="45.91197" lon="4.7511">
        <ele>178</ele>
        <time>2018-09-18T10:02:48Z</time>
      </trkpt>
      <trkpt lat="45.91202" lon="4.75112">
        <ele>178</ele>
        <time>2018-09-18T10:02:49Z</time>
      </trkpt>
      <trkpt lat="45.91211" lon="4.75113">
        <ele>177</ele>
        <time>2018-09-18T10:02:51Z</time>
      </trkpt>
      <trkpt lat="45.91216" lon="4.75114">
        <ele>177</ele>
        <time>2018-09-18T10:02:52Z</time>
      </trkpt>
      <trkpt lat="45.9122" lon="4.75116">
        <ele>177</ele>
        <time>2018-09-18T10:02:53Z</time>
      </trkpt>
      <trkpt lat="45.91225" lon="4.75117">
        <ele>177</ele>
        <time>2018-09-18T10:02:54Z</time>
      </trkpt>
      <trkpt lat="45.91229" lon="4.75119">
        <ele>177</ele>
        <time>2018-09-18T10:02:55Z</time>
      </trkpt>
      <trkpt lat="45.91233" lon="4.75122">
        <ele>177</ele>
        <time>2018-09-18T10:02:56Z</time>
      </trkpt>
      <trkpt lat="45.91238" lon="4.75124">
        <ele>177</ele>
        <time>2018-09-18T10:02:57Z</time>
      </trkpt>
      <trkpt lat="45.91242" lon="4.75126">
        <ele>177</ele>
        <time>2018-09-18T10:02:58Z</time>
      </trkpt>
      <trkpt lat="45.9125" lon="4.7513">
        <ele>177</ele>
        <time>2018-09-18T10:03:00Z</time>
      </trkpt>
      <trkpt lat="45.91255" lon="4.75131">
        <ele>177</ele>
        <time>2018-09-18T10:03:01Z</time>
      </trkpt>
      <trkpt lat="45.91262" lon="4.75135">
        <ele>177</ele>
        <time>2018-09-18T10:03:03Z</time>
      </trkpt>
      <trkpt lat="45.91266" lon="4.75137">
        <ele>177</ele>
        <time>2018-09-18T10:03:04Z</time>
      </trkpt>
      <trkpt lat="45.91273" lon="4.75141">
        <ele>177</ele>
        <time>2018-09-18T10:03:06Z</time>
      </trkpt>
      <trkpt lat="45.91275" lon="4.75142">
        <ele>177</ele>
        <time>2018-09-18T10:03:07Z</time>
      </trkpt>
      <trkpt lat="45.91283" lon="4.75146">
        <ele>177</ele>
        <time>2018-09-18T10:03:09Z</time>
      </trkpt>
      <trkpt lat="45.91287" lon="4.75149">
        <ele>177</ele>
        <time>2018-09-18T10:03:10Z</time>
      </trkpt>
      <trkpt lat="45.91295" lon="4.75153">
        <ele>177</ele>
        <time>2018-09-18T10:03:13Z</time>
      </trkpt>
      <trkpt lat="45.91297" lon="4.75154">
        <ele>177</ele>
        <time>2018-09-18T10:03:14Z</time>
      </trkpt>
      <trkpt lat="45.91305" lon="4.75157">
        <ele>177</ele>
        <time>2018-09-18T10:03:23Z</time>
      </trkpt>
      <trkpt lat="45.91306" lon="4.75155">
        <ele>177</ele>
        <time>2018-09-18T10:03:24Z</time>
      </trkpt>
      <trkpt lat="45.91308" lon="4.75146">
        <ele>177</ele>
        <time>2018-09-18T10:03:27Z</time>
      </trkpt>
      <trkpt lat="45.91309" lon="4.75135">
        <ele>177</ele>
        <time>2018-09-18T10:03:28Z</time>
      </trkpt>
      <trkpt lat="45.91307" lon="4.75124">
        <ele>177</ele>
        <time>2018-09-18T10:03:30Z</time>
      </trkpt>
      <trkpt lat="45.91307" lon="4.75118">
        <ele>177</ele>
        <time>2018-09-18T10:03:31Z</time>
      </trkpt>
      <trkpt lat="45.91305" lon="4.75106">
        <ele>177</ele>
        <time>2018-09-18T10:03:33Z</time>
      </trkpt>
      <trkpt lat="45.91305" lon="4.751">
        <ele>177</ele>
        <time>2018-09-18T10:03:34Z</time>
      </trkpt>
      <trkpt lat="45.91306" lon="4.75091">
        <ele>177</ele>
        <time>2018-09-18T10:03:35Z</time>
      </trkpt>
      <trkpt lat="45.91305" lon="4.75085">
        <ele>177</ele>
        <time>2018-09-18T10:03:36Z</time>
      </trkpt>
      <trkpt lat="45.91305" lon="4.75077">
        <ele>177</ele>
        <time>2018-09-18T10:03:37Z</time>
      </trkpt>
      <trkpt lat="45.91305" lon="4.7507">
        <ele>177</ele>
        <time>2018-09-18T10:03:38Z</time>
      </trkpt>
      <trkpt lat="45.91305" lon="4.75064">
        <ele>177</ele>
        <time>2018-09-18T10:03:39Z</time>
      </trkpt>
      <trkpt lat="45.91305" lon="4.75057">
        <ele>177</ele>
        <time>2018-09-18T10:03:40Z</time>
      </trkpt>
      <trkpt lat="45.91306" lon="4.75046">
        <ele>177</ele>
        <time>2018-09-18T10:03:42Z</time>
      </trkpt>
      <trkpt lat="45.91306" lon="4.7504">
        <ele>177</ele>
        <time>2018-09-18T10:03:43Z</time>
      </trkpt>
      <trkpt lat="45.91305" lon="4.75028">
        <ele>177</ele>
        <time>2018-09-18T10:03:45Z</time>
      </trkpt>
      <trkpt lat="45.91303" lon="4.75022">
        <ele>177</ele>
        <time>2018-09-18T10:03:46Z</time>
      </trkpt>
      <trkpt lat="45.91303" lon="4.75011">
        <ele>177</ele>
        <time>2018-09-18T10:03:48Z</time>
      </trkpt>
      <trkpt lat="45.91304" lon="4.75005">
        <ele>177</ele>
        <time>2018-09-18T10:03:49Z</time>
      </trkpt>
      <trkpt lat="45.91304" lon="4.74998">
        <ele>177</ele>
        <time>2018-09-18T10:03:50Z</time>
      </trkpt>
      <trkpt lat="45.91304" lon="4.74991">
        <ele>177</ele>
        <time>2018-09-18T10:03:51Z</time>
      </trkpt>
      <trkpt lat="45.91304" lon="4.74978">
        <ele>177</ele>
        <time>2018-09-18T10:03:53Z</time>
      </trkpt>
      <trkpt lat="45.91305" lon="4.74969">
        <ele>177</ele>
        <time>2018-09-18T10:03:54Z</time>
      </trkpt>
      <trkpt lat="45.91305" lon="4.74962">
        <ele>177</ele>
        <time>2018-09-18T10:03:55Z</time>
      </trkpt>
      <trkpt lat="45.91305" lon="4.74955">
        <ele>177</ele>
        <time>2018-09-18T10:03:56Z</time>
      </trkpt>
      <trkpt lat="45.91306" lon="4.74945">
        <ele>177</ele>
        <time>2018-09-18T10:03:58Z</time>
      </trkpt>
      <trkpt lat="45.91307" lon="4.74942">
        <ele>177</ele>
        <time>2018-09-18T10:03:59Z</time>
      </trkpt>
      <trkpt lat="45.91308" lon="4.74929">
        <ele>177</ele>
        <time>2018-09-18T10:04:01Z</time>
      </trkpt>
      <trkpt lat="45.91308" lon="4.74922">
        <ele>177</ele>
        <time>2018-09-18T10:04:02Z</time>
      </trkpt>
      <trkpt lat="45.91309" lon="4.7491">
        <ele>176</ele>
        <time>2018-09-18T10:04:04Z</time>
      </trkpt>
      <trkpt lat="45.9131" lon="4.74904">
        <ele>176</ele>
        <time>2018-09-18T10:04:05Z</time>
      </trkpt>
      <trkpt lat="45.9131" lon="4.74895">
        <ele>176</ele>
        <time>2018-09-18T10:04:06Z</time>
      </trkpt>
      <trkpt lat="45.91312" lon="4.74889">
        <ele>176</ele>
        <time>2018-09-18T10:04:07Z</time>
      </trkpt>
      <trkpt lat="45.91314" lon="4.74878">
        <ele>176</ele>
        <time>2018-09-18T10:04:09Z</time>
      </trkpt>
      <trkpt lat="45.91315" lon="4.74871">
        <ele>176</ele>
        <time>2018-09-18T10:04:10Z</time>
      </trkpt>
      <trkpt lat="45.91315" lon="4.74865">
        <ele>176</ele>
        <time>2018-09-18T10:04:11Z</time>
      </trkpt>
      <trkpt lat="45.91314" lon="4.74858">
        <ele>176</ele>
        <time>2018-09-18T10:04:12Z</time>
      </trkpt>
      <trkpt lat="45.91313" lon="4.7485">
        <ele>176</ele>
        <time>2018-09-18T10:04:13Z</time>
      </trkpt>
      <trkpt lat="45.91315" lon="4.74844">
        <ele>176</ele>
        <time>2018-09-18T10:04:14Z</time>
      </trkpt>
      <trkpt lat="45.91314" lon="4.74835">
        <ele>176</ele>
        <time>2018-09-18T10:04:15Z</time>
      </trkpt>
      <trkpt lat="45.91315" lon="4.74828">
        <ele>175</ele>
        <time>2018-09-18T10:04:16Z</time>
      </trkpt>
      <trkpt lat="45.91316" lon="4.74819">
        <ele>175</ele>
        <time>2018-09-18T10:04:17Z</time>
      </trkpt>
      <trkpt lat="45.91317" lon="4.74812">
        <ele>175</ele>
        <time>2018-09-18T10:04:18Z</time>
      </trkpt>
      <trkpt lat="45.91317" lon="4.74804">
        <ele>175</ele>
        <time>2018-09-18T10:04:19Z</time>
      </trkpt>
      <trkpt lat="45.91318" lon="4.74797">
        <ele>174</ele>
        <time>2018-09-18T10:04:20Z</time>
      </trkpt>
      <trkpt lat="45.91319" lon="4.74789">
        <ele>174</ele>
        <time>2018-09-18T10:04:21Z</time>
      </trkpt>
      <trkpt lat="45.91319" lon="4.74781">
        <ele>174</ele>
        <time>2018-09-18T10:04:22Z</time>
      </trkpt>
      <trkpt lat="45.9132" lon="4.74775">
        <ele>174</ele>
        <time>2018-09-18T10:04:23Z</time>
      </trkpt>
      <trkpt lat="45.91322" lon="4.74769">
        <ele>174</ele>
        <time>2018-09-18T10:04:24Z</time>
      </trkpt>
      <trkpt lat="45.91324" lon="4.74762">
        <ele>174</ele>
        <time>2018-09-18T10:04:25Z</time>
      </trkpt>
      <trkpt lat="45.91326" lon="4.74756">
        <ele>173</ele>
        <time>2018-09-18T10:04:26Z</time>
      </trkpt>
      <trkpt lat="45.91327" lon="4.74744">
        <ele>173</ele>
        <time>2018-09-18T10:04:28Z</time>
      </trkpt>
      <trkpt lat="45.91329" lon="4.74737">
        <ele>173</ele>
        <time>2018-09-18T10:04:29Z</time>
      </trkpt>
      <trkpt lat="45.9133" lon="4.74731">
        <ele>173</ele>
        <time>2018-09-18T10:04:30Z</time>
      </trkpt>
      <trkpt lat="45.91331" lon="4.74724">
        <ele>173</ele>
        <time>2018-09-18T10:04:31Z</time>
      </trkpt>
      <trkpt lat="45.91333" lon="4.74712">
        <ele>173</ele>
        <time>2018-09-18T10:04:33Z</time>
      </trkpt>
      <trkpt lat="45.91333" lon="4.74706">
        <ele>173</ele>
        <time>2018-09-18T10:04:34Z</time>
      </trkpt>
      <trkpt lat="45.91332" lon="4.74695">
        <ele>173</ele>
        <time>2018-09-18T10:04:36Z</time>
      </trkpt>
      <trkpt lat="45.91332" lon="4.74689">
        <ele>173</ele>
        <time>2018-09-18T10:04:37Z</time>
      </trkpt>
      <trkpt lat="45.91328" lon="4.74677">
        <ele>173</ele>
        <time>2018-09-18T10:04:39Z</time>
      </trkpt>
      <trkpt lat="45.91326" lon="4.7467">
        <ele>173</ele>
        <time>2018-09-18T10:04:40Z</time>
      </trkpt>
      <trkpt lat="45.91325" lon="4.74664">
        <ele>173</ele>
        <time>2018-09-18T10:04:41Z</time>
      </trkpt>
      <trkpt lat="45.91322" lon="4.74658">
        <ele>173</ele>
        <time>2018-09-18T10:04:42Z</time>
      </trkpt>
      <trkpt lat="45.91318" lon="4.74648">
        <ele>173</ele>
        <time>2018-09-18T10:04:44Z</time>
      </trkpt>
      <trkpt lat="45.91317" lon="4.74642">
        <ele>173</ele>
        <time>2018-09-18T10:04:45Z</time>
      </trkpt>
      <trkpt lat="45.91313" lon="4.74631">
        <ele>173</ele>
        <time>2018-09-18T10:04:47Z</time>
      </trkpt>
      <trkpt lat="45.91311" lon="4.74625">
        <ele>173</ele>
        <time>2018-09-18T10:04:48Z</time>
      </trkpt>
      <trkpt lat="45.91307" lon="4.74619">
        <ele>173</ele>
        <time>2018-09-18T10:04:49Z</time>
      </trkpt>
      <trkpt lat="45.91304" lon="4.74613">
        <ele>173</ele>
        <time>2018-09-18T10:04:50Z</time>
      </trkpt>
      <trkpt lat="45.91302" lon="4.74607">
        <ele>173</ele>
        <time>2018-09-18T10:04:51Z</time>
      </trkpt>
      <trkpt lat="45.913" lon="4.74601">
        <ele>173</ele>
        <time>2018-09-18T10:04:52Z</time>
      </trkpt>
      <trkpt lat="45.91297" lon="4.74595">
        <ele>173</ele>
        <time>2018-09-18T10:04:53Z</time>
      </trkpt>
      <trkpt lat="45.91295" lon="4.74588">
        <ele>173</ele>
        <time>2018-09-18T10:04:54Z</time>
      </trkpt>
      <trkpt lat="45.91291" lon="4.74582">
        <ele>173</ele>
        <time>2018-09-18T10:04:55Z</time>
      </trkpt>
      <trkpt lat="45.91286" lon="4.74576">
        <ele>173</ele>
        <time>2018-09-18T10:04:56Z</time>
      </trkpt>
      <trkpt lat="45.91284" lon="4.7457">
        <ele>173</ele>
        <time>2018-09-18T10:04:57Z</time>
      </trkpt>
      <trkpt lat="45.91282" lon="4.74563">
        <ele>173</ele>
        <time>2018-09-18T10:04:58Z</time>
      </trkpt>
      <trkpt lat="45.9128" lon="4.74556">
        <ele>173</ele>
        <time>2018-09-18T10:04:59Z</time>
      </trkpt>
      <trkpt lat="45.91277" lon="4.74548">
        <ele>173</ele>
        <time>2018-09-18T10:05:00Z</time>
      </trkpt>
      <trkpt lat="45.91275" lon="4.74541">
        <ele>173</ele>
        <time>2018-09-18T10:05:01Z</time>
      </trkpt>
      <trkpt lat="45.91271" lon="4.74534">
        <ele>173</ele>
        <time>2018-09-18T10:05:02Z</time>
      </trkpt>
      <trkpt lat="45.91267" lon="4.74527">
        <ele>173</ele>
        <time>2018-09-18T10:05:03Z</time>
      </trkpt>
      <trkpt lat="45.91264" lon="4.7452">
        <ele>174</ele>
        <time>2018-09-18T10:05:04Z</time>
      </trkpt>
      <trkpt lat="45.91262" lon="4.74512">
        <ele>174</ele>
        <time>2018-09-18T10:05:05Z</time>
      </trkpt>
      <trkpt lat="45.9126" lon="4.74505">
        <ele>174</ele>
        <time>2018-09-18T10:05:06Z</time>
      </trkpt>
      <trkpt lat="45.91257" lon="4.74498">
        <ele>174</ele>
        <time>2018-09-18T10:05:07Z</time>
      </trkpt>
      <trkpt lat="45.91256" lon="4.74491">
        <ele>174</ele>
        <time>2018-09-18T10:05:08Z</time>
      </trkpt>
      <trkpt lat="45.91254" lon="4.74484">
        <ele>174</ele>
        <time>2018-09-18T10:05:09Z</time>
      </trkpt>
      <trkpt lat="45.91253" lon="4.74477">
        <ele>173</ele>
        <time>2018-09-18T10:05:10Z</time>
      </trkpt>
      <trkpt lat="45.9125" lon="4.7447">
        <ele>173</ele>
        <time>2018-09-18T10:05:11Z</time>
      </trkpt>
      <trkpt lat="45.91248" lon="4.74462">
        <ele>174</ele>
        <time>2018-09-18T10:05:12Z</time>
      </trkpt>
      <trkpt lat="45.91246" lon="4.74455">
        <ele>174</ele>
        <time>2018-09-18T10:05:13Z</time>
      </trkpt>
      <trkpt lat="45.91245" lon="4.74447">
        <ele>174</ele>
        <time>2018-09-18T10:05:14Z</time>
      </trkpt>
      <trkpt lat="45.91243" lon="4.74439">
        <ele>174</ele>
        <time>2018-09-18T10:05:15Z</time>
      </trkpt>
      <trkpt lat="45.91241" lon="4.74432">
        <ele>174</ele>
        <time>2018-09-18T10:05:16Z</time>
      </trkpt>
      <trkpt lat="45.91239" lon="4.74425">
        <ele>174</ele>
        <time>2018-09-18T10:05:17Z</time>
      </trkpt>
      <trkpt lat="45.91237" lon="4.74417">
        <ele>174</ele>
        <time>2018-09-18T10:05:18Z</time>
      </trkpt>
      <trkpt lat="45.91234" lon="4.7441">
        <ele>174</ele>
        <time>2018-09-18T10:05:19Z</time>
      </trkpt>
      <trkpt lat="45.91233" lon="4.74403">
        <ele>174</ele>
        <time>2018-09-18T10:05:20Z</time>
      </trkpt>
      <trkpt lat="45.91231" lon="4.74393">
        <ele>174</ele>
        <time>2018-09-18T10:05:21Z</time>
      </trkpt>
      <trkpt lat="45.91229" lon="4.74386">
        <ele>174</ele>
        <time>2018-09-18T10:05:22Z</time>
      </trkpt>
      <trkpt lat="45.91227" lon="4.74379">
        <ele>174</ele>
        <time>2018-09-18T10:05:23Z</time>
      </trkpt>
      <trkpt lat="45.91225" lon="4.74372">
        <ele>174</ele>
        <time>2018-09-18T10:05:24Z</time>
      </trkpt>
      <trkpt lat="45.91223" lon="4.74364">
        <ele>174</ele>
        <time>2018-09-18T10:05:25Z</time>
      </trkpt>
      <trkpt lat="45.91222" lon="4.74357">
        <ele>174</ele>
        <time>2018-09-18T10:05:26Z</time>
      </trkpt>
      <trkpt lat="45.9122" lon="4.7435">
        <ele>174</ele>
        <time>2018-09-18T10:05:27Z</time>
      </trkpt>
      <trkpt lat="45.91218" lon="4.74344">
        <ele>175</ele>
        <time>2018-09-18T10:05:28Z</time>
      </trkpt>
      <trkpt lat="45.91217" lon="4.74337">
        <ele>175</ele>
        <time>2018-09-18T10:05:29Z</time>
      </trkpt>
      <trkpt lat="45.91215" lon="4.74331">
        <ele>175</ele>
        <time>2018-09-18T10:05:30Z</time>
      </trkpt>
      <trkpt lat="45.91212" lon="4.7432">
        <ele>175</ele>
        <time>2018-09-18T10:05:32Z</time>
      </trkpt>
      <trkpt lat="45.91211" lon="4.74313">
        <ele>175</ele>
        <time>2018-09-18T10:05:33Z</time>
      </trkpt>
      <trkpt lat="45.91206" lon="4.74308">
        <ele>175</ele>
        <time>2018-09-18T10:05:34Z</time>
      </trkpt>
      <trkpt lat="45.91205" lon="4.74301">
        <ele>175</ele>
        <time>2018-09-18T10:05:35Z</time>
      </trkpt>
      <trkpt lat="45.91204" lon="4.74295">
        <ele>175</ele>
        <time>2018-09-18T10:05:36Z</time>
      </trkpt>
      <trkpt lat="45.912" lon="4.74289">
        <ele>175</ele>
        <time>2018-09-18T10:05:37Z</time>
      </trkpt>
      <trkpt lat="45.91197" lon="4.74277">
        <ele>175</ele>
        <time>2018-09-18T10:05:39Z</time>
      </trkpt>
      <trkpt lat="45.91196" lon="4.74271">
        <ele>175</ele>
        <time>2018-09-18T10:05:40Z</time>
      </trkpt>
      <trkpt lat="45.91193" lon="4.7426">
        <ele>175</ele>
        <time>2018-09-18T10:05:42Z</time>
      </trkpt>
      <trkpt lat="45.91192" lon="4.74255">
        <ele>175</ele>
        <time>2018-09-18T10:05:43Z</time>
      </trkpt>
      <trkpt lat="45.9119" lon="4.74244">
        <ele>175</ele>
        <time>2018-09-18T10:05:45Z</time>
      </trkpt>
      <trkpt lat="45.91189" lon="4.74239">
        <ele>175</ele>
        <time>2018-09-18T10:05:46Z</time>
      </trkpt>
      <trkpt lat="45.91188" lon="4.74229">
        <ele>175</ele>
        <time>2018-09-18T10:05:49Z</time>
      </trkpt>
      <trkpt lat="45.91188" lon="4.7422">
        <ele>175</ele>
        <time>2018-09-18T10:05:50Z</time>
      </trkpt>
      <trkpt lat="45.91187" lon="4.74207">
        <ele>175</ele>
        <time>2018-09-18T10:05:53Z</time>
      </trkpt>
      <trkpt lat="45.91187" lon="4.742">
        <ele>175</ele>
        <time>2018-09-18T10:05:54Z</time>
      </trkpt>
      <trkpt lat="45.91187" lon="4.74187">
        <ele>174</ele>
        <time>2018-09-18T10:05:58Z</time>
      </trkpt>
      <trkpt lat="45.91188" lon="4.74176">
        <ele>174</ele>
        <time>2018-09-18T10:05:59Z</time>
      </trkpt>
      <trkpt lat="45.91189" lon="4.7417">
        <ele>174</ele>
        <time>2018-09-18T10:06:01Z</time>
      </trkpt>
      <trkpt lat="45.9119" lon="4.74161">
        <ele>174</ele>
        <time>2018-09-18T10:06:02Z</time>
      </trkpt>
      <trkpt lat="45.91191" lon="4.74151">
        <ele>174</ele>
        <time>2018-09-18T10:06:04Z</time>
      </trkpt>
      <trkpt lat="45.91192" lon="4.74146">
        <ele>174</ele>
        <time>2018-09-18T10:06:05Z</time>
      </trkpt>
      <trkpt lat="45.91194" lon="4.74135">
        <ele>174</ele>
        <time>2018-09-18T10:06:07Z</time>
      </trkpt>
      <trkpt lat="45.91196" lon="4.7413">
        <ele>174</ele>
        <time>2018-09-18T10:06:08Z</time>
      </trkpt>
      <trkpt lat="45.91197" lon="4.7412">
        <ele>174</ele>
        <time>2018-09-18T10:06:10Z</time>
      </trkpt>
      <trkpt lat="45.91198" lon="4.74115">
        <ele>174</ele>
        <time>2018-09-18T10:06:11Z</time>
      </trkpt>
      <trkpt lat="45.912" lon="4.74105">
        <ele>173</ele>
        <time>2018-09-18T10:06:13Z</time>
      </trkpt>
      <trkpt lat="45.91201" lon="4.74099">
        <ele>173</ele>
        <time>2018-09-18T10:06:14Z</time>
      </trkpt>
      <trkpt lat="45.91203" lon="4.74088">
        <ele>173</ele>
        <time>2018-09-18T10:06:16Z</time>
      </trkpt>
      <trkpt lat="45.91204" lon="4.74081">
        <ele>173</ele>
        <time>2018-09-18T10:06:17Z</time>
      </trkpt>
      <trkpt lat="45.91207" lon="4.74069">
        <ele>173</ele>
        <time>2018-09-18T10:06:19Z</time>
      </trkpt>
      <trkpt lat="45.91208" lon="4.74062">
        <ele>173</ele>
        <time>2018-09-18T10:06:20Z</time>
      </trkpt>
      <trkpt lat="45.9121" lon="4.74051">
        <ele>173</ele>
        <time>2018-09-18T10:06:22Z</time>
      </trkpt>
      <trkpt lat="45.91211" lon="4.74045">
        <ele>173</ele>
        <time>2018-09-18T10:06:23Z</time>
      </trkpt>
      <trkpt lat="45.91213" lon="4.74034">
        <ele>173</ele>
        <time>2018-09-18T10:06:25Z</time>
      </trkpt>
      <trkpt lat="45.91215" lon="4.74028">
        <ele>173</ele>
        <time>2018-09-18T10:06:26Z</time>
      </trkpt>
      <trkpt lat="45.91218" lon="4.74017">
        <ele>173</ele>
        <time>2018-09-18T10:06:28Z</time>
      </trkpt>
      <trkpt lat="45.91219" lon="4.74012">
        <ele>173</ele>
        <time>2018-09-18T10:06:29Z</time>
      </trkpt>
      <trkpt lat="45.91222" lon="4.73999">
        <ele>173</ele>
        <time>2018-09-18T10:06:31Z</time>
      </trkpt>
      <trkpt lat="45.91223" lon="4.73993">
        <ele>173</ele>
        <time>2018-09-18T10:06:32Z</time>
      </trkpt>
      <trkpt lat="45.91225" lon="4.73981">
        <ele>173</ele>
        <time>2018-09-18T10:06:34Z</time>
      </trkpt>
      <trkpt lat="45.91226" lon="4.73975">
        <ele>173</ele>
        <time>2018-09-18T10:06:35Z</time>
      </trkpt>
      <trkpt lat="45.91227" lon="4.73962">
        <ele>173</ele>
        <time>2018-09-18T10:06:37Z</time>
      </trkpt>
      <trkpt lat="45.91227" lon="4.73955">
        <ele>173</ele>
        <time>2018-09-18T10:06:38Z</time>
      </trkpt>
      <trkpt lat="45.91228" lon="4.73947">
        <ele>173</ele>
        <time>2018-09-18T10:06:39Z</time>
      </trkpt>
      <trkpt lat="45.91228" lon="4.73939">
        <ele>173</ele>
        <time>2018-09-18T10:06:40Z</time>
      </trkpt>
      <trkpt lat="45.91228" lon="4.73931">
        <ele>173</ele>
        <time>2018-09-18T10:06:41Z</time>
      </trkpt>
      <trkpt lat="45.91228" lon="4.73923">
        <ele>173</ele>
        <time>2018-09-18T10:06:42Z</time>
      </trkpt>
      <trkpt lat="45.91227" lon="4.73915">
        <ele>174</ele>
        <time>2018-09-18T10:06:43Z</time>
      </trkpt>
      <trkpt lat="45.91227" lon="4.73908">
        <ele>174</ele>
        <time>2018-09-18T10:06:44Z</time>
      </trkpt>
      <trkpt lat="45.91225" lon="4.739">
        <ele>174</ele>
        <time>2018-09-18T10:06:45Z</time>
      </trkpt>
      <trkpt lat="45.91224" lon="4.73892">
        <ele>174</ele>
        <time>2018-09-18T10:06:46Z</time>
      </trkpt>
      <trkpt lat="45.91223" lon="4.73884">
        <ele>174</ele>
        <time>2018-09-18T10:06:47Z</time>
      </trkpt>
      <trkpt lat="45.91221" lon="4.73877">
        <ele>174</ele>
        <time>2018-09-18T10:06:48Z</time>
      </trkpt>
      <trkpt lat="45.91219" lon="4.73868">
        <ele>174</ele>
        <time>2018-09-18T10:06:49Z</time>
      </trkpt>
      <trkpt lat="45.91217" lon="4.7386">
        <ele>174</ele>
        <time>2018-09-18T10:06:50Z</time>
      </trkpt>
      <trkpt lat="45.91213" lon="4.73851">
        <ele>174</ele>
        <time>2018-09-18T10:06:51Z</time>
      </trkpt>
      <trkpt lat="45.9121" lon="4.73842">
        <ele>174</ele>
        <time>2018-09-18T10:06:52Z</time>
      </trkpt>
      <trkpt lat="45.91206" lon="4.73834">
        <ele>174</ele>
        <time>2018-09-18T10:06:53Z</time>
      </trkpt>
      <trkpt lat="45.91203" lon="4.73826">
        <ele>175</ele>
        <time>2018-09-18T10:06:54Z</time>
      </trkpt>
      <trkpt lat="45.91199" lon="4.73818">
        <ele>175</ele>
        <time>2018-09-18T10:06:55Z</time>
      </trkpt>
      <trkpt lat="45.91196" lon="4.7381">
        <ele>175</ele>
        <time>2018-09-18T10:06:56Z</time>
      </trkpt>
      <trkpt lat="45.91192" lon="4.73801">
        <ele>175</ele>
        <time>2018-09-18T10:06:57Z</time>
      </trkpt>
      <trkpt lat="45.91189" lon="4.73793">
        <ele>175</ele>
        <time>2018-09-18T10:06:58Z</time>
      </trkpt>
      <trkpt lat="45.91185" lon="4.73786">
        <ele>175</ele>
        <time>2018-09-18T10:06:59Z</time>
      </trkpt>
      <trkpt lat="45.91182" lon="4.73778">
        <ele>175</ele>
        <time>2018-09-18T10:07:00Z</time>
      </trkpt>
      <trkpt lat="45.91178" lon="4.73772">
        <ele>175</ele>
        <time>2018-09-18T10:07:01Z</time>
      </trkpt>
      <trkpt lat="45.91175" lon="4.73765">
        <ele>175</ele>
        <time>2018-09-18T10:07:02Z</time>
      </trkpt>
      <trkpt lat="45.91171" lon="4.73758">
        <ele>175</ele>
        <time>2018-09-18T10:07:03Z</time>
      </trkpt>
      <trkpt lat="45.91169" lon="4.73753">
        <ele>175</ele>
        <time>2018-09-18T10:07:04Z</time>
      </trkpt>
      <trkpt lat="45.91167" lon="4.73746">
        <ele>175</ele>
        <time>2018-09-18T10:07:05Z</time>
      </trkpt>
      <trkpt lat="45.91166" lon="4.7374">
        <ele>175</ele>
        <time>2018-09-18T10:07:06Z</time>
      </trkpt>
      <trkpt lat="45.91171" lon="4.7373">
        <ele>175</ele>
        <time>2018-09-18T10:07:08Z</time>
      </trkpt>
      <trkpt lat="45.91175" lon="4.73729">
        <ele>175</ele>
        <time>2018-09-18T10:07:09Z</time>
      </trkpt>
      <trkpt lat="45.91182" lon="4.73731">
        <ele>175</ele>
        <time>2018-09-18T10:07:11Z</time>
      </trkpt>
      <trkpt lat="45.91185" lon="4.73732">
        <ele>175</ele>
        <time>2018-09-18T10:07:12Z</time>
      </trkpt>
      <trkpt lat="45.91189" lon="4.73736">
        <ele>175</ele>
        <time>2018-09-18T10:07:13Z</time>
      </trkpt>
      <trkpt lat="45.91193" lon="4.73738">
        <ele>175</ele>
        <time>2018-09-18T10:07:14Z</time>
      </trkpt>
      <trkpt lat="45.91198" lon="4.73739">
        <ele>175</ele>
        <time>2018-09-18T10:07:15Z</time>
      </trkpt>
      <trkpt lat="45.91203" lon="4.7374">
        <ele>175</ele>
        <time>2018-09-18T10:07:16Z</time>
      </trkpt>
      <trkpt lat="45.91207" lon="4.7374">
        <ele>175</ele>
        <time>2018-09-18T10:07:17Z</time>
      </trkpt>
      <trkpt lat="45.91213" lon="4.73741">
        <ele>175</ele>
        <time>2018-09-18T10:07:18Z</time>
      </trkpt>
      <trkpt lat="45.91218" lon="4.73743">
        <ele>175</ele>
        <time>2018-09-18T10:07:19Z</time>
      </trkpt>
      <trkpt lat="45.91223" lon="4.73743">
        <ele>175</ele>
        <time>2018-09-18T10:07:20Z</time>
      </trkpt>
      <trkpt lat="45.91228" lon="4.73743">
        <ele>175</ele>
        <time>2018-09-18T10:07:21Z</time>
      </trkpt>
      <trkpt lat="45.91234" lon="4.73743">
        <ele>175</ele>
        <time>2018-09-18T10:07:22Z</time>
      </trkpt>
      <trkpt lat="45.91238" lon="4.73743">
        <ele>175</ele>
        <time>2018-09-18T10:07:23Z</time>
      </trkpt>
      <trkpt lat="45.91243" lon="4.73743">
        <ele>175</ele>
        <time>2018-09-18T10:07:24Z</time>
      </trkpt>
      <trkpt lat="45.91248" lon="4.73743">
        <ele>175</ele>
        <time>2018-09-18T10:07:25Z</time>
      </trkpt>
      <trkpt lat="45.91253" lon="4.73743">
        <ele>175</ele>
        <time>2018-09-18T10:07:26Z</time>
      </trkpt>
      <trkpt lat="45.91258" lon="4.73743">
        <ele>175</ele>
        <time>2018-09-18T10:07:27Z</time>
      </trkpt>
      <trkpt lat="45.91264" lon="4.73744">
        <ele>175</ele>
        <time>2018-09-18T10:07:28Z</time>
      </trkpt>
      <trkpt lat="45.9127" lon="4.73745">
        <ele>174</ele>
        <time>2018-09-18T10:07:29Z</time>
      </trkpt>
      <trkpt lat="45.91275" lon="4.73745">
        <ele>174</ele>
        <time>2018-09-18T10:07:30Z</time>
      </trkpt>
      <trkpt lat="45.91279" lon="4.73746">
        <ele>174</ele>
        <time>2018-09-18T10:07:31Z</time>
      </trkpt>
      <trkpt lat="45.91284" lon="4.73746">
        <ele>174</ele>
        <time>2018-09-18T10:07:32Z</time>
      </trkpt>
      <trkpt lat="45.91293" lon="4.73746">
        <ele>174</ele>
        <time>2018-09-18T10:07:34Z</time>
      </trkpt>
      <trkpt lat="45.91297" lon="4.73746">
        <ele>174</ele>
        <time>2018-09-18T10:07:35Z</time>
      </trkpt>
      <trkpt lat="45.91305" lon="4.73746">
        <ele>174</ele>
        <time>2018-09-18T10:07:37Z</time>
      </trkpt>
      <trkpt lat="45.91309" lon="4.73746">
        <ele>174</ele>
        <time>2018-09-18T10:07:38Z</time>
      </trkpt>
      <trkpt lat="45.91317" lon="4.73746">
        <ele>174</ele>
        <time>2018-09-18T10:07:40Z</time>
      </trkpt>
      <trkpt lat="45.91322" lon="4.73746">
        <ele>173</ele>
        <time>2018-09-18T10:07:41Z</time>
      </trkpt>
      <trkpt lat="45.91329" lon="4.73747">
        <ele>173</ele>
        <time>2018-09-18T10:07:44Z</time>
      </trkpt>
      <trkpt lat="45.91331" lon="4.73748">
        <ele>173</ele>
        <time>2018-09-18T10:07:45Z</time>
      </trkpt>
      <trkpt lat="45.91337" lon="4.73748">
        <ele>173</ele>
        <time>2018-09-18T10:07:47Z</time>
      </trkpt>
      <trkpt lat="45.91346" lon="4.73748">
        <ele>173</ele>
        <time>2018-09-18T10:07:48Z</time>
      </trkpt>
      <trkpt lat="45.9135" lon="4.73748">
        <ele>173</ele>
        <time>2018-09-18T10:07:49Z</time>
      </trkpt>
      <trkpt lat="45.91355" lon="4.73746">
        <ele>173</ele>
        <time>2018-09-18T10:07:50Z</time>
      </trkpt>
      <trkpt lat="45.91363" lon="4.73745">
        <ele>173</ele>
        <time>2018-09-18T10:07:52Z</time>
      </trkpt>
      <trkpt lat="45.91368" lon="4.73747">
        <ele>173</ele>
        <time>2018-09-18T10:07:53Z</time>
      </trkpt>
      <trkpt lat="45.91375" lon="4.73748">
        <ele>173</ele>
        <time>2018-09-18T10:07:55Z</time>
      </trkpt>
      <trkpt lat="45.91379" lon="4.73748">
        <ele>173</ele>
        <time>2018-09-18T10:07:56Z</time>
      </trkpt>
      <trkpt lat="45.91387" lon="4.73748">
        <ele>173</ele>
        <time>2018-09-18T10:07:58Z</time>
      </trkpt>
      <trkpt lat="45.91393" lon="4.73746">
        <ele>173</ele>
        <time>2018-09-18T10:07:59Z</time>
      </trkpt>
      <trkpt lat="45.91399" lon="4.73745">
        <ele>173</ele>
        <time>2018-09-18T10:08:00Z</time>
      </trkpt>
      <trkpt lat="45.91403" lon="4.73745">
        <ele>173</ele>
        <time>2018-09-18T10:08:01Z</time>
      </trkpt>
      <trkpt lat="45.91407" lon="4.73745">
        <ele>172</ele>
        <time>2018-09-18T10:08:03Z</time>
      </trkpt>
      <trkpt lat="45.91412" lon="4.73746">
        <ele>172</ele>
        <time>2018-09-18T10:08:04Z</time>
      </trkpt>
      <trkpt lat="45.91419" lon="4.73748">
        <ele>172</ele>
        <time>2018-09-18T10:08:07Z</time>
      </trkpt>
      <trkpt lat="45.91422" lon="4.73748">
        <ele>172</ele>
        <time>2018-09-18T10:08:08Z</time>
      </trkpt>
      <trkpt lat="45.9143" lon="4.73749">
        <ele>173</ele>
        <time>2018-09-18T10:08:11Z</time>
      </trkpt>
      <trkpt lat="45.91438" lon="4.73748">
        <ele>173</ele>
        <time>2018-09-18T10:08:12Z</time>
      </trkpt>
      <trkpt lat="45.91446" lon="4.73748">
        <ele>173</ele>
        <time>2018-09-18T10:08:14Z</time>
      </trkpt>
      <trkpt lat="45.91449" lon="4.73748">
        <ele>173</ele>
        <time>2018-09-18T10:08:15Z</time>
      </trkpt>
      <trkpt lat="45.91456" lon="4.73748">
        <ele>173</ele>
        <time>2018-09-18T10:08:18Z</time>
      </trkpt>
      <trkpt lat="45.91458" lon="4.73748">
        <ele>173</ele>
        <time>2018-09-18T10:08:19Z</time>
      </trkpt>
      <trkpt lat="45.91463" lon="4.73738">
        <ele>174</ele>
        <time>2018-09-18T10:08:22Z</time>
      </trkpt>
      <trkpt lat="45.91464" lon="4.73733">
        <ele>174</ele>
        <time>2018-09-18T10:08:23Z</time>
      </trkpt>
      <trkpt lat="45.91464" lon="4.73721">
        <ele>174</ele>
        <time>2018-09-18T10:08:25Z</time>
      </trkpt>
      <trkpt lat="45.91463" lon="4.73715">
        <ele>174</ele>
        <time>2018-09-18T10:08:26Z</time>
      </trkpt>
      <trkpt lat="45.91461" lon="4.73704">
        <ele>174</ele>
        <time>2018-09-18T10:08:28Z</time>
      </trkpt>
      <trkpt lat="45.9146" lon="4.737">
        <ele>174</ele>
        <time>2018-09-18T10:08:29Z</time>
      </trkpt>
      <trkpt lat="45.91457" lon="4.73691">
        <ele>174</ele>
        <time>2018-09-18T10:08:31Z</time>
      </trkpt>
      <trkpt lat="45.91456" lon="4.73687">
        <ele>174</ele>
        <time>2018-09-18T10:08:32Z</time>
      </trkpt>
      <trkpt lat="45.91454" lon="4.73683">
        <ele>174</ele>
        <time>2018-09-18T10:08:33Z</time>
      </trkpt>
      <trkpt lat="45.9145" lon="4.73671">
        <ele>174</ele>
        <time>2018-09-18T10:08:34Z</time>
      </trkpt>
      <trkpt lat="45.91446" lon="4.73661">
        <ele>174</ele>
        <time>2018-09-18T10:08:36Z</time>
      </trkpt>
      <trkpt lat="45.91445" lon="4.73656">
        <ele>174</ele>
        <time>2018-09-18T10:08:37Z</time>
      </trkpt>
      <trkpt lat="45.91441" lon="4.73649">
        <ele>174</ele>
        <time>2018-09-18T10:08:39Z</time>
      </trkpt>
      <trkpt lat="45.91438" lon="4.73642">
        <ele>174</ele>
        <time>2018-09-18T10:08:40Z</time>
      </trkpt>
      <trkpt lat="45.91436" lon="4.73635">
        <ele>174</ele>
        <time>2018-09-18T10:08:43Z</time>
      </trkpt>
      <trkpt lat="45.91435" lon="4.73626">
        <ele>174</ele>
        <time>2018-09-18T10:08:44Z</time>
      </trkpt>
      <trkpt lat="45.91435" lon="4.73614">
        <ele>175</ele>
        <time>2018-09-18T10:08:47Z</time>
      </trkpt>
      <trkpt lat="45.91435" lon="4.7361">
        <ele>175</ele>
        <time>2018-09-18T10:08:48Z</time>
      </trkpt>
      <trkpt lat="45.91435" lon="4.73606">
        <ele>175</ele>
        <time>2018-09-18T10:08:49Z</time>
      </trkpt>
      <trkpt lat="45.91433" lon="4.73595">
        <ele>175</ele>
        <time>2018-09-18T10:08:50Z</time>
      </trkpt>
      <trkpt lat="45.91431" lon="4.73584">
        <ele>175</ele>
        <time>2018-09-18T10:08:52Z</time>
      </trkpt>
      <trkpt lat="45.9143" lon="4.73581">
        <ele>175</ele>
        <time>2018-09-18T10:08:53Z</time>
      </trkpt>
      <trkpt lat="45.9143" lon="4.73573">
        <ele>175</ele>
        <time>2018-09-18T10:08:54Z</time>
      </trkpt>
      <trkpt lat="45.9143" lon="4.73567">
        <ele>175</ele>
        <time>2018-09-18T10:08:55Z</time>
      </trkpt>
      <trkpt lat="45.9143" lon="4.73556">
        <ele>174</ele>
        <time>2018-09-18T10:08:57Z</time>
      </trkpt>
      <trkpt lat="45.91431" lon="4.7355">
        <ele>174</ele>
        <time>2018-09-18T10:08:58Z</time>
      </trkpt>
      <trkpt lat="45.91431" lon="4.73538">
        <ele>174</ele>
        <time>2018-09-18T10:09:02Z</time>
      </trkpt>
      <trkpt lat="45.91432" lon="4.73534">
        <ele>174</ele>
        <time>2018-09-18T10:09:03Z</time>
      </trkpt>
      <trkpt lat="45.91432" lon="4.73522">
        <ele>174</ele>
        <time>2018-09-18T10:09:04Z</time>
      </trkpt>
      <trkpt lat="45.91431" lon="4.73516">
        <ele>174</ele>
        <time>2018-09-18T10:09:05Z</time>
      </trkpt>
      <trkpt lat="45.91431" lon="4.73503">
        <ele>174</ele>
        <time>2018-09-18T10:09:07Z</time>
      </trkpt>
      <trkpt lat="45.9143" lon="4.73498">
        <ele>174</ele>
        <time>2018-09-18T10:09:08Z</time>
      </trkpt>
      <trkpt lat="45.91429" lon="4.73487">
        <ele>174</ele>
        <time>2018-09-18T10:09:10Z</time>
      </trkpt>
      <trkpt lat="45.91429" lon="4.73484">
        <ele>174</ele>
        <time>2018-09-18T10:09:11Z</time>
      </trkpt>
      <trkpt lat="45.91429" lon="4.73474">
        <ele>174</ele>
        <time>2018-09-18T10:09:14Z</time>
      </trkpt>
      <trkpt lat="45.91429" lon="4.7347">
        <ele>174</ele>
        <time>2018-09-18T10:09:15Z</time>
      </trkpt>
      <trkpt lat="45.91428" lon="4.73462">
        <ele>174</ele>
        <time>2018-09-18T10:09:17Z</time>
      </trkpt>
      <trkpt lat="45.91426" lon="4.73449">
        <ele>174</ele>
        <time>2018-09-18T10:09:18Z</time>
      </trkpt>
      <trkpt lat="45.91425" lon="4.73437">
        <ele>174</ele>
        <time>2018-09-18T10:09:20Z</time>
      </trkpt>
      <trkpt lat="45.91425" lon="4.73435">
        <ele>174</ele>
        <time>2018-09-18T10:09:21Z</time>
      </trkpt>
      <trkpt lat="45.91425" lon="4.73424">
        <ele>174</ele>
        <time>2018-09-18T10:09:25Z</time>
      </trkpt>
      <trkpt lat="45.91424" lon="4.73421">
        <ele>174</ele>
        <time>2018-09-18T10:09:26Z</time>
      </trkpt>
      <trkpt lat="45.91424" lon="4.7341">
        <ele>174</ele>
        <time>2018-09-18T10:09:29Z</time>
      </trkpt>
      <trkpt lat="45.91424" lon="4.73406">
        <ele>174</ele>
        <time>2018-09-18T10:09:30Z</time>
      </trkpt>
      <trkpt lat="45.91424" lon="4.73394">
        <ele>174</ele>
        <time>2018-09-18T10:09:33Z</time>
      </trkpt>
      <trkpt lat="45.91425" lon="4.7339">
        <ele>174</ele>
        <time>2018-09-18T10:09:34Z</time>
      </trkpt>
      <trkpt lat="45.91429" lon="4.7338">
        <ele>174</ele>
        <time>2018-09-18T10:09:37Z</time>
      </trkpt>
      <trkpt lat="45.91431" lon="4.73378">
        <ele>174</ele>
        <time>2018-09-18T10:09:38Z</time>
      </trkpt>
      <trkpt lat="45.91437" lon="4.73375">
        <ele>174</ele>
        <time>2018-09-18T10:09:40Z</time>
      </trkpt>
      <trkpt lat="45.9144" lon="4.73374">
        <ele>174</ele>
        <time>2018-09-18T10:09:41Z</time>
      </trkpt>
      <trkpt lat="45.91449" lon="4.73373">
        <ele>174</ele>
        <time>2018-09-18T10:09:44Z</time>
      </trkpt>
      <trkpt lat="45.91452" lon="4.73373">
        <ele>174</ele>
        <time>2018-09-18T10:09:45Z</time>
      </trkpt>
      <trkpt lat="45.91461" lon="4.73373">
        <ele>174</ele>
        <time>2018-09-18T10:09:46Z</time>
      </trkpt>
      <trkpt lat="45.9147" lon="4.73372">
        <ele>174</ele>
        <time>2018-09-18T10:09:51Z</time>
      </trkpt>
      <trkpt lat="45.91472" lon="4.73372">
        <ele>174</ele>
        <time>2018-09-18T10:09:52Z</time>
      </trkpt>
      <trkpt lat="45.91481" lon="4.73371">
        <ele>174</ele>
        <time>2018-09-18T10:09:55Z</time>
      </trkpt>
      <trkpt lat="45.91484" lon="4.73371">
        <ele>174</ele>
        <time>2018-09-18T10:09:56Z</time>
      </trkpt>
      <trkpt lat="45.91492" lon="4.73369">
        <ele>174</ele>
        <time>2018-09-18T10:09:59Z</time>
      </trkpt>
      <trkpt lat="45.91502" lon="4.73366">
        <ele>174</ele>
        <time>2018-09-18T10:10:00Z</time>
      </trkpt>
      <trkpt lat="45.91511" lon="4.73363">
        <ele>174</ele>
        <time>2018-09-18T10:10:03Z</time>
      </trkpt>
      <trkpt lat="45.91513" lon="4.73362">
        <ele>174</ele>
        <time>2018-09-18T10:10:04Z</time>
      </trkpt>
      <trkpt lat="45.91521" lon="4.73365">
        <ele>174</ele>
        <time>2018-09-18T10:10:08Z</time>
      </trkpt>
      <trkpt lat="45.91522" lon="4.73367">
        <ele>174</ele>
        <time>2018-09-18T10:10:09Z</time>
      </trkpt>
      <trkpt lat="45.91526" lon="4.73376">
        <ele>174</ele>
        <time>2018-09-18T10:10:13Z</time>
      </trkpt>
      <trkpt lat="45.91528" lon="4.73379">
        <ele>174</ele>
        <time>2018-09-18T10:10:14Z</time>
      </trkpt>
      <trkpt lat="45.91534" lon="4.73386">
        <ele>174</ele>
        <time>2018-09-18T10:10:18Z</time>
      </trkpt>
      <trkpt lat="45.91536" lon="4.73387">
        <ele>174</ele>
        <time>2018-09-18T10:10:19Z</time>
      </trkpt>
      <trkpt lat="45.91544" lon="4.73386">
        <ele>174</ele>
        <time>2018-09-18T10:10:23Z</time>
      </trkpt>
      <trkpt lat="45.91545" lon="4.73386">
        <ele>174</ele>
        <time>2018-09-18T10:10:24Z</time>
      </trkpt>
      <trkpt lat="45.91552" lon="4.73384">
        <ele>174</ele>
        <time>2018-09-18T10:10:27Z</time>
      </trkpt>
      <trkpt lat="45.91555" lon="4.73384">
        <ele>174</ele>
        <time>2018-09-18T10:10:28Z</time>
      </trkpt>
      <trkpt lat="45.91561" lon="4.73384">
        <ele>174</ele>
        <time>2018-09-18T10:10:30Z</time>
      </trkpt>
      <trkpt lat="45.91564" lon="4.73383">
        <ele>174</ele>
        <time>2018-09-18T10:10:31Z</time>
      </trkpt>
      <trkpt lat="45.9157" lon="4.73382">
        <ele>174</ele>
        <time>2018-09-18T10:10:33Z</time>
      </trkpt>
      <trkpt lat="45.91573" lon="4.73381">
        <ele>174</ele>
        <time>2018-09-18T10:10:34Z</time>
      </trkpt>
      <trkpt lat="45.91581" lon="4.7338">
        <ele>174</ele>
        <time>2018-09-18T10:10:37Z</time>
      </trkpt>
      <trkpt lat="45.91583" lon="4.7338">
        <ele>174</ele>
        <time>2018-09-18T10:10:38Z</time>
      </trkpt>
      <trkpt lat="45.91591" lon="4.73379">
        <ele>173</ele>
        <time>2018-09-18T10:10:39Z</time>
      </trkpt>
      <trkpt lat="45.91593" lon="4.73379">
        <ele>173</ele>
        <time>2018-09-18T10:10:40Z</time>
      </trkpt>
      <trkpt lat="45.91601" lon="4.73379">
        <ele>173</ele>
        <time>2018-09-18T10:10:42Z</time>
      </trkpt>
      <trkpt lat="45.91603" lon="4.73379">
        <ele>173</ele>
        <time>2018-09-18T10:10:43Z</time>
      </trkpt>
      <trkpt lat="45.91611" lon="4.73379">
        <ele>173</ele>
        <time>2018-09-18T10:10:47Z</time>
      </trkpt>
      <trkpt lat="45.91613" lon="4.73379">
        <ele>173</ele>
        <time>2018-09-18T10:10:48Z</time>
      </trkpt>
      <trkpt lat="45.91621" lon="4.73379">
        <ele>173</ele>
        <time>2018-09-18T10:10:51Z</time>
      </trkpt>
      <trkpt lat="45.91624" lon="4.73379">
        <ele>173</ele>
        <time>2018-09-18T10:10:52Z</time>
      </trkpt>
      <trkpt lat="45.91632" lon="4.73378">
        <ele>173</ele>
        <time>2018-09-18T10:10:55Z</time>
      </trkpt>
      <trkpt lat="45.91635" lon="4.73378">
        <ele>173</ele>
        <time>2018-09-18T10:10:56Z</time>
      </trkpt>
      <trkpt lat="45.91643" lon="4.73379">
        <ele>173</ele>
        <time>2018-09-18T10:11:02Z</time>
      </trkpt>
      <trkpt lat="45.91644" lon="4.7338">
        <ele>173</ele>
        <time>2018-09-18T10:11:03Z</time>
      </trkpt>
      <trkpt lat="45.91652" lon="4.73383">
        <ele>173</ele>
        <time>2018-09-18T10:11:49Z</time>
      </trkpt>
      <trkpt lat="45.91653" lon="4.73384">
        <ele>173</ele>
        <time>2018-09-18T10:11:50Z</time>
      </trkpt>
      <trkpt lat="45.91658" lon="4.73392">
        <ele>173</ele>
        <time>2018-09-18T10:11:57Z</time>
      </trkpt>
      <trkpt lat="45.91659" lon="4.73394">
        <ele>173</ele>
        <time>2018-09-18T10:11:58Z</time>
      </trkpt>
      <trkpt lat="45.91664" lon="4.73401">
        <ele>173</ele>
        <time>2018-09-18T10:12:01Z</time>
      </trkpt>
      <trkpt lat="45.91666" lon="4.73403">
        <ele>173</ele>
        <time>2018-09-18T10:12:02Z</time>
      </trkpt>
      <trkpt lat="45.91671" lon="4.73411">
        <ele>173</ele>
        <time>2018-09-18T10:12:05Z</time>
      </trkpt>
      <trkpt lat="45.91672" lon="4.73413">
        <ele>173</ele>
        <time>2018-09-18T10:12:06Z</time>
      </trkpt>
      <trkpt lat="45.91677" lon="4.73422">
        <ele>173</ele>
        <time>2018-09-18T10:12:09Z</time>
      </trkpt>
      <trkpt lat="45.91678" lon="4.73425">
        <ele>173</ele>
        <time>2018-09-18T10:12:10Z</time>
      </trkpt>
      <trkpt lat="45.91681" lon="4.73434">
        <ele>173</ele>
        <time>2018-09-18T10:12:13Z</time>
      </trkpt>
      <trkpt lat="45.91682" lon="4.73438">
        <ele>173</ele>
        <time>2018-09-18T10:12:14Z</time>
      </trkpt>
      <trkpt lat="45.91684" lon="4.73448">
        <ele>173</ele>
        <time>2018-09-18T10:12:17Z</time>
      </trkpt>
      <trkpt lat="45.91685" lon="4.73451">
        <ele>173</ele>
        <time>2018-09-18T10:12:18Z</time>
      </trkpt>
      <trkpt lat="45.91689" lon="4.73459">
        <ele>173</ele>
        <time>2018-09-18T10:12:21Z</time>
      </trkpt>
      <trkpt lat="45.91691" lon="4.73461">
        <ele>173</ele>
        <time>2018-09-18T10:12:22Z</time>
      </trkpt>
      <trkpt lat="45.91698" lon="4.73461">
        <ele>173</ele>
        <time>2018-09-18T10:12:25Z</time>
      </trkpt>
      <trkpt lat="45.91701" lon="4.7346">
        <ele>173</ele>
        <time>2018-09-18T10:12:26Z</time>
      </trkpt>
      <trkpt lat="45.91707" lon="4.73453">
        <ele>173</ele>
        <time>2018-09-18T10:12:29Z</time>
      </trkpt>
      <trkpt lat="45.91709" lon="4.73451">
        <ele>174</ele>
        <time>2018-09-18T10:12:30Z</time>
      </trkpt>
      <trkpt lat="45.91714" lon="4.73446">
        <ele>174</ele>
        <time>2018-09-18T10:12:32Z</time>
      </trkpt>
      <trkpt lat="45.91717" lon="4.73444">
        <ele>174</ele>
        <time>2018-09-18T10:12:33Z</time>
      </trkpt>
      <trkpt lat="45.91725" lon="4.73439">
        <ele>174</ele>
        <time>2018-09-18T10:12:36Z</time>
      </trkpt>
      <trkpt lat="45.91727" lon="4.73437">
        <ele>174</ele>
        <time>2018-09-18T10:12:37Z</time>
      </trkpt>
      <trkpt lat="45.91734" lon="4.73434">
        <ele>174</ele>
        <time>2018-09-18T10:12:39Z</time>
      </trkpt>
      <trkpt lat="45.91737" lon="4.73433">
        <ele>174</ele>
        <time>2018-09-18T10:12:40Z</time>
      </trkpt>
      <trkpt lat="45.91744" lon="4.73433">
        <ele>174</ele>
        <time>2018-09-18T10:12:43Z</time>
      </trkpt>
      <trkpt lat="45.91746" lon="4.73433">
        <ele>174</ele>
        <time>2018-09-18T10:12:44Z</time>
      </trkpt>
      <trkpt lat="45.91753" lon="4.73433">
        <ele>174</ele>
        <time>2018-09-18T10:12:47Z</time>
      </trkpt>
      <trkpt lat="45.91756" lon="4.73433">
        <ele>174</ele>
        <time>2018-09-18T10:12:48Z</time>
      </trkpt>
      <trkpt lat="45.91763" lon="4.73432">
        <ele>174</ele>
        <time>2018-09-18T10:12:51Z</time>
      </trkpt>
      <trkpt lat="45.91766" lon="4.73431">
        <ele>174</ele>
        <time>2018-09-18T10:12:52Z</time>
      </trkpt>
      <trkpt lat="45.91774" lon="4.73427">
        <ele>174</ele>
        <time>2018-09-18T10:12:56Z</time>
      </trkpt>
      <trkpt lat="45.91776" lon="4.73426">
        <ele>174</ele>
        <time>2018-09-18T10:12:57Z</time>
      </trkpt>
      <trkpt lat="45.91783" lon="4.73422">
        <ele>174</ele>
        <time>2018-09-18T10:13:00Z</time>
      </trkpt>
      <trkpt lat="45.91786" lon="4.73421">
        <ele>174</ele>
        <time>2018-09-18T10:13:01Z</time>
      </trkpt>
      <trkpt lat="45.91794" lon="4.73417">
        <ele>173</ele>
        <time>2018-09-18T10:13:05Z</time>
      </trkpt>
      <trkpt lat="45.91795" lon="4.73415">
        <ele>173</ele>
        <time>2018-09-18T10:13:06Z</time>
      </trkpt>
      <trkpt lat="45.91797" lon="4.73403">
        <ele>173</ele>
        <time>2018-09-18T10:13:09Z</time>
      </trkpt>
      <trkpt lat="45.91797" lon="4.73399">
        <ele>173</ele>
        <time>2018-09-18T10:13:10Z</time>
      </trkpt>
      <trkpt lat="45.91797" lon="4.73389">
        <ele>173</ele>
        <time>2018-09-18T10:13:12Z</time>
      </trkpt>
      <trkpt lat="45.91796" lon="4.73384">
        <ele>173</ele>
        <time>2018-09-18T10:13:13Z</time>
      </trkpt>
      <trkpt lat="45.91795" lon="4.73375">
        <ele>173</ele>
        <time>2018-09-18T10:13:15Z</time>
      </trkpt>
      <trkpt lat="45.91795" lon="4.73371">
        <ele>172</ele>
        <time>2018-09-18T10:13:16Z</time>
      </trkpt>
      <trkpt lat="45.91794" lon="4.73358">
        <ele>172</ele>
        <time>2018-09-18T10:13:19Z</time>
      </trkpt>
      <trkpt lat="45.91794" lon="4.73354">
        <ele>172</ele>
        <time>2018-09-18T10:13:20Z</time>
      </trkpt>
      <trkpt lat="45.91795" lon="4.73342">
        <ele>172</ele>
        <time>2018-09-18T10:13:25Z</time>
      </trkpt>
      <trkpt lat="45.91796" lon="4.73342">
        <ele>172</ele>
        <time>2018-09-18T10:13:26Z</time>
      </trkpt>
      <trkpt lat="45.91803" lon="4.7334">
        <ele>172</ele>
        <time>2018-09-18T10:13:31Z</time>
      </trkpt>
      <trkpt lat="45.9181" lon="4.73338">
        <ele>172</ele>
        <time>2018-09-18T10:13:32Z</time>
      </trkpt>
      <trkpt lat="45.91818" lon="4.73335">
        <ele>172</ele>
        <time>2018-09-18T10:13:36Z</time>
      </trkpt>
      <trkpt lat="45.9182" lon="4.73334">
        <ele>172</ele>
        <time>2018-09-18T10:13:37Z</time>
      </trkpt>
      <trkpt lat="45.91829" lon="4.73332">
        <ele>172</ele>
        <time>2018-09-18T10:13:41Z</time>
      </trkpt>
      <trkpt lat="45.91831" lon="4.73332">
        <ele>172</ele>
        <time>2018-09-18T10:13:42Z</time>
      </trkpt>
      <trkpt lat="45.91836" lon="4.7333">
        <ele>172</ele>
        <time>2018-09-18T10:13:44Z</time>
      </trkpt>
      <trkpt lat="45.91845" lon="4.73327">
        <ele>172</ele>
        <time>2018-09-18T10:13:45Z</time>
      </trkpt>
      <trkpt lat="45.91853" lon="4.73324">
        <ele>171</ele>
        <time>2018-09-18T10:13:47Z</time>
      </trkpt>
      <trkpt lat="45.91857" lon="4.73323">
        <ele>171</ele>
        <time>2018-09-18T10:13:48Z</time>
      </trkpt>
      <trkpt lat="45.91864" lon="4.73319">
        <ele>171</ele>
        <time>2018-09-18T10:13:51Z</time>
      </trkpt>
      <trkpt lat="45.91866" lon="4.73318">
        <ele>171</ele>
        <time>2018-09-18T10:13:52Z</time>
      </trkpt>
      <trkpt lat="45.91868" lon="4.73318">
        <ele>171</ele>
        <time>2018-09-18T10:13:53Z</time>
      </trkpt>
      <trkpt lat="45.91876" lon="4.73316">
        <ele>171</ele>
        <time>2018-09-18T10:13:54Z</time>
      </trkpt>
      <trkpt lat="45.91884" lon="4.73314">
        <ele>171</ele>
        <time>2018-09-18T10:13:57Z</time>
      </trkpt>
      <trkpt lat="45.91886" lon="4.73314">
        <ele>171</ele>
        <time>2018-09-18T10:13:58Z</time>
      </trkpt>
      <trkpt lat="45.91893" lon="4.73311">
        <ele>171</ele>
        <time>2018-09-18T10:14:01Z</time>
      </trkpt>
      <trkpt lat="45.91896" lon="4.7331">
        <ele>171</ele>
        <time>2018-09-18T10:14:02Z</time>
      </trkpt>
      <trkpt lat="45.91904" lon="4.73307">
        <ele>171</ele>
        <time>2018-09-18T10:14:03Z</time>
      </trkpt>
      <trkpt lat="45.91906" lon="4.73307">
        <ele>171</ele>
        <time>2018-09-18T10:14:04Z</time>
      </trkpt>
      <trkpt lat="45.91914" lon="4.73305">
        <ele>171</ele>
        <time>2018-09-18T10:14:08Z</time>
      </trkpt>
      <trkpt lat="45.91916" lon="4.73304">
        <ele>171</ele>
        <time>2018-09-18T10:14:09Z</time>
      </trkpt>
      <trkpt lat="45.91923" lon="4.73303">
        <ele>171</ele>
        <time>2018-09-18T10:14:12Z</time>
      </trkpt>
      <trkpt lat="45.91932" lon="4.73302">
        <ele>171</ele>
        <time>2018-09-18T10:14:13Z</time>
      </trkpt>
      <trkpt lat="45.91939" lon="4.733">
        <ele>171</ele>
        <time>2018-09-18T10:14:15Z</time>
      </trkpt>
      <trkpt lat="45.91941" lon="4.73299">
        <ele>171</ele>
        <time>2018-09-18T10:14:16Z</time>
      </trkpt>
      <trkpt lat="45.91947" lon="4.73296">
        <ele>171</ele>
        <time>2018-09-18T10:14:19Z</time>
      </trkpt>
      <trkpt lat="45.9195" lon="4.73295">
        <ele>171</ele>
        <time>2018-09-18T10:14:20Z</time>
      </trkpt>
      <trkpt lat="45.91958" lon="4.73291">
        <ele>171</ele>
        <time>2018-09-18T10:14:21Z</time>
      </trkpt>
      <trkpt lat="45.91962" lon="4.73289">
        <ele>171</ele>
        <time>2018-09-18T10:14:22Z</time>
      </trkpt>
      <trkpt lat="45.91969" lon="4.73287">
        <ele>171</ele>
        <time>2018-09-18T10:14:24Z</time>
      </trkpt>
      <trkpt lat="45.91973" lon="4.73285">
        <ele>171</ele>
        <time>2018-09-18T10:14:25Z</time>
      </trkpt>
      <trkpt lat="45.9198" lon="4.73282">
        <ele>171</ele>
        <time>2018-09-18T10:14:28Z</time>
      </trkpt>
      <trkpt lat="45.91982" lon="4.73281">
        <ele>171</ele>
        <time>2018-09-18T10:14:29Z</time>
      </trkpt>
      <trkpt lat="45.91987" lon="4.73279">
        <ele>171</ele>
        <time>2018-09-18T10:14:31Z</time>
      </trkpt>
      <trkpt lat="45.91996" lon="4.73277">
        <ele>171</ele>
        <time>2018-09-18T10:14:32Z</time>
      </trkpt>
      <trkpt lat="45.92" lon="4.73276">
        <ele>171</ele>
        <time>2018-09-18T10:14:33Z</time>
      </trkpt>
      <trkpt lat="45.92005" lon="4.73272">
        <ele>171</ele>
        <time>2018-09-18T10:14:34Z</time>
      </trkpt>
      <trkpt lat="45.92009" lon="4.7327">
        <ele>171</ele>
        <time>2018-09-18T10:14:35Z</time>
      </trkpt>
      <trkpt lat="45.92013" lon="4.73267">
        <ele>171</ele>
        <time>2018-09-18T10:14:36Z</time>
      </trkpt>
      <trkpt lat="45.92021" lon="4.73263">
        <ele>171</ele>
        <time>2018-09-18T10:14:38Z</time>
      </trkpt>
      <trkpt lat="45.92025" lon="4.73261">
        <ele>171</ele>
        <time>2018-09-18T10:14:39Z</time>
      </trkpt>
      <trkpt lat="45.92031" lon="4.73258">
        <ele>171</ele>
        <time>2018-09-18T10:14:42Z</time>
      </trkpt>
      <trkpt lat="45.92034" lon="4.73257">
        <ele>171</ele>
        <time>2018-09-18T10:14:43Z</time>
      </trkpt>
      <trkpt lat="45.92039" lon="4.73253">
        <ele>171</ele>
        <time>2018-09-18T10:14:45Z</time>
      </trkpt>
      <trkpt lat="45.92047" lon="4.73249">
        <ele>171</ele>
        <time>2018-09-18T10:14:46Z</time>
      </trkpt>
      <trkpt lat="45.92055" lon="4.73245">
        <ele>171</ele>
        <time>2018-09-18T10:14:48Z</time>
      </trkpt>
      <trkpt lat="45.92059" lon="4.73243">
        <ele>171</ele>
        <time>2018-09-18T10:14:49Z</time>
      </trkpt>
      <trkpt lat="45.92066" lon="4.7324">
        <ele>171</ele>
        <time>2018-09-18T10:14:51Z</time>
      </trkpt>
      <trkpt lat="45.92068" lon="4.73239">
        <ele>171</ele>
        <time>2018-09-18T10:14:52Z</time>
      </trkpt>
      <trkpt lat="45.9207" lon="4.73238">
        <ele>171</ele>
        <time>2018-09-18T10:14:53Z</time>
      </trkpt>
      <trkpt lat="45.92077" lon="4.73235">
        <ele>171</ele>
        <time>2018-09-18T10:14:54Z</time>
      </trkpt>
      <trkpt lat="45.92086" lon="4.73232">
        <ele>171</ele>
        <time>2018-09-18T10:14:56Z</time>
      </trkpt>
      <trkpt lat="45.9209" lon="4.7323">
        <ele>171</ele>
        <time>2018-09-18T10:14:57Z</time>
      </trkpt>
      <trkpt lat="45.92098" lon="4.73227">
        <ele>171</ele>
        <time>2018-09-18T10:14:59Z</time>
      </trkpt>
      <trkpt lat="45.92101" lon="4.73226">
        <ele>171</ele>
        <time>2018-09-18T10:15:00Z</time>
      </trkpt>
      <trkpt lat="45.9211" lon="4.73222">
        <ele>171</ele>
        <time>2018-09-18T10:15:04Z</time>
      </trkpt>
      <trkpt lat="45.92112" lon="4.73221">
        <ele>171</ele>
        <time>2018-09-18T10:15:05Z</time>
      </trkpt>
      <trkpt lat="45.92114" lon="4.73221">
        <ele>171</ele>
        <time>2018-09-18T10:15:06Z</time>
      </trkpt>
      <trkpt lat="45.92121" lon="4.73218">
        <ele>171</ele>
        <time>2018-09-18T10:15:07Z</time>
      </trkpt>
      <trkpt lat="45.92128" lon="4.73216">
        <ele>171</ele>
        <time>2018-09-18T10:15:09Z</time>
      </trkpt>
      <trkpt lat="45.92131" lon="4.73217">
        <ele>171</ele>
        <time>2018-09-18T10:15:10Z</time>
      </trkpt>
      <trkpt lat="45.92136" lon="4.73218">
        <ele>171</ele>
        <time>2018-09-18T10:15:11Z</time>
      </trkpt>
      <trkpt lat="45.9214" lon="4.7322">
        <ele>171</ele>
        <time>2018-09-18T10:15:12Z</time>
      </trkpt>
      <trkpt lat="45.92146" lon="4.73212">
        <ele>171</ele>
        <time>2018-09-18T10:15:13Z</time>
      </trkpt>
      <trkpt lat="45.92149" lon="4.73211">
        <ele>171</ele>
        <time>2018-09-18T10:15:14Z</time>
      </trkpt>
      <trkpt lat="45.92154" lon="4.73208">
        <ele>171</ele>
        <time>2018-09-18T10:15:15Z</time>
      </trkpt>
      <trkpt lat="45.92158" lon="4.73204">
        <ele>171</ele>
        <time>2018-09-18T10:15:16Z</time>
      </trkpt>
      <trkpt lat="45.92162" lon="4.73204">
        <ele>171</ele>
        <time>2018-09-18T10:15:18Z</time>
      </trkpt>
      <trkpt lat="45.92168" lon="4.73202">
        <ele>171</ele>
        <time>2018-09-18T10:15:19Z</time>
      </trkpt>
      <trkpt lat="45.92176" lon="4.732">
        <ele>171</ele>
        <time>2018-09-18T10:15:21Z</time>
      </trkpt>
      <trkpt lat="45.9218" lon="4.73199">
        <ele>171</ele>
        <time>2018-09-18T10:15:22Z</time>
      </trkpt>
      <trkpt lat="45.92188" lon="4.73196">
        <ele>171</ele>
        <time>2018-09-18T10:15:24Z</time>
      </trkpt>
      <trkpt lat="45.92192" lon="4.73195">
        <ele>171</ele>
        <time>2018-09-18T10:15:25Z</time>
      </trkpt>
      <trkpt lat="45.92199" lon="4.73194">
        <ele>171</ele>
        <time>2018-09-18T10:15:28Z</time>
      </trkpt>
      <trkpt lat="45.92202" lon="4.73193">
        <ele>171</ele>
        <time>2018-09-18T10:15:29Z</time>
      </trkpt>
      <trkpt lat="45.92209" lon="4.73191">
        <ele>171</ele>
        <time>2018-09-18T10:15:32Z</time>
      </trkpt>
      <trkpt lat="45.92217" lon="4.73188">
        <ele>171</ele>
        <time>2018-09-18T10:15:33Z</time>
      </trkpt>
      <trkpt lat="45.92224" lon="4.73185">
        <ele>171</ele>
        <time>2018-09-18T10:15:35Z</time>
      </trkpt>
      <trkpt lat="45.92228" lon="4.73184">
        <ele>171</ele>
        <time>2018-09-18T10:15:36Z</time>
      </trkpt>
      <trkpt lat="45.92233" lon="4.73182">
        <ele>171</ele>
        <time>2018-09-18T10:15:38Z</time>
      </trkpt>
      <trkpt lat="45.92238" lon="4.7318">
        <ele>171</ele>
        <time>2018-09-18T10:15:39Z</time>
      </trkpt>
      <trkpt lat="45.92245" lon="4.73178">
        <ele>171</ele>
        <time>2018-09-18T10:15:41Z</time>
      </trkpt>
      <trkpt lat="45.92249" lon="4.73177">
        <ele>171</ele>
        <time>2018-09-18T10:15:42Z</time>
      </trkpt>
      <trkpt lat="45.92257" lon="4.73175">
        <ele>171</ele>
        <time>2018-09-18T10:15:45Z</time>
      </trkpt>
      <trkpt lat="45.92259" lon="4.73174">
        <ele>171</ele>
        <time>2018-09-18T10:15:46Z</time>
      </trkpt>
      <trkpt lat="45.92267" lon="4.73172">
        <ele>171</ele>
        <time>2018-09-18T10:15:49Z</time>
      </trkpt>
      <trkpt lat="45.92269" lon="4.73171">
        <ele>171</ele>
        <time>2018-09-18T10:15:50Z</time>
      </trkpt>
      <trkpt lat="45.92278" lon="4.73168">
        <ele>172</ele>
        <time>2018-09-18T10:15:59Z</time>
      </trkpt>
      <trkpt lat="45.92278" lon="4.73168">
        <ele>172</ele>
        <time>2018-09-18T10:16:00Z</time>
      </trkpt>
      <trkpt lat="45.92286" lon="4.73167">
        <ele>172</ele>
        <time>2018-09-18T10:16:37Z</time>
      </trkpt>
      <trkpt lat="45.92288" lon="4.73167">
        <ele>171</ele>
        <time>2018-09-18T10:16:38Z</time>
      </trkpt>
      <trkpt lat="45.92297" lon="4.73164">
        <ele>171</ele>
        <time>2018-09-18T10:16:41Z</time>
      </trkpt>
      <trkpt lat="45.92299" lon="4.73163">
        <ele>171</ele>
        <time>2018-09-18T10:16:42Z</time>
      </trkpt>
      <trkpt lat="45.92305" lon="4.7316">
        <ele>171</ele>
        <time>2018-09-18T10:16:44Z</time>
      </trkpt>
      <trkpt lat="45.92308" lon="4.73159">
        <ele>171</ele>
        <time>2018-09-18T10:16:45Z</time>
      </trkpt>
      <trkpt lat="45.92311" lon="4.73157">
        <ele>172</ele>
        <time>2018-09-18T10:16:46Z</time>
      </trkpt>
      <trkpt lat="45.9232" lon="4.73152">
        <ele>172</ele>
        <time>2018-09-18T10:16:47Z</time>
      </trkpt>
      <trkpt lat="45.92327" lon="4.73148">
        <ele>172</ele>
        <time>2018-09-18T10:16:51Z</time>
      </trkpt>
      <trkpt lat="45.92335" lon="4.73146">
        <ele>171</ele>
        <time>2018-09-18T10:16:52Z</time>
      </trkpt>
      <trkpt lat="45.92342" lon="4.73142">
        <ele>171</ele>
        <time>2018-09-18T10:16:55Z</time>
      </trkpt>
      <trkpt lat="45.92345" lon="4.73141">
        <ele>171</ele>
        <time>2018-09-18T10:16:56Z</time>
      </trkpt>
      <trkpt lat="45.92352" lon="4.73137">
        <ele>171</ele>
        <time>2018-09-18T10:16:59Z</time>
      </trkpt>
      <trkpt lat="45.92354" lon="4.73135">
        <ele>171</ele>
        <time>2018-09-18T10:17:00Z</time>
      </trkpt>
      <trkpt lat="45.92362" lon="4.73132">
        <ele>171</ele>
        <time>2018-09-18T10:17:03Z</time>
      </trkpt>
      <trkpt lat="45.92365" lon="4.73131">
        <ele>171</ele>
        <time>2018-09-18T10:17:04Z</time>
      </trkpt>
      <trkpt lat="45.92371" lon="4.73129">
        <ele>171</ele>
        <time>2018-09-18T10:17:06Z</time>
      </trkpt>
      <trkpt lat="45.92374" lon="4.73128">
        <ele>171</ele>
        <time>2018-09-18T10:17:07Z</time>
      </trkpt>
      <trkpt lat="45.92377" lon="4.73126">
        <ele>171</ele>
        <time>2018-09-18T10:17:08Z</time>
      </trkpt>
      <trkpt lat="45.92386" lon="4.73122">
        <ele>171</ele>
        <time>2018-09-18T10:17:09Z</time>
      </trkpt>
      <trkpt lat="45.92393" lon="4.7312">
        <ele>171</ele>
        <time>2018-09-18T10:17:12Z</time>
      </trkpt>
      <trkpt lat="45.92395" lon="4.73119">
        <ele>171</ele>
        <time>2018-09-18T10:17:13Z</time>
      </trkpt>
      <trkpt lat="45.92401" lon="4.73117">
        <ele>171</ele>
        <time>2018-09-18T10:17:15Z</time>
      </trkpt>
      <trkpt lat="45.92409" lon="4.73119">
        <ele>171</ele>
        <time>2018-09-18T10:17:16Z</time>
      </trkpt>
      <trkpt lat="45.92411" lon="4.73131">
        <ele>171</ele>
        <time>2018-09-18T10:17:19Z</time>
      </trkpt>
      <trkpt lat="45.92411" lon="4.73136">
        <ele>171</ele>
        <time>2018-09-18T10:17:20Z</time>
      </trkpt>
      <trkpt lat="45.92411" lon="4.73151">
        <ele>171</ele>
        <time>2018-09-18T10:17:21Z</time>
      </trkpt>
      <trkpt lat="45.92411" lon="4.73158">
        <ele>170</ele>
        <time>2018-09-18T10:17:22Z</time>
      </trkpt>
      <trkpt lat="45.92411" lon="4.73165">
        <ele>170</ele>
        <time>2018-09-18T10:17:23Z</time>
      </trkpt>
      <trkpt lat="45.9241" lon="4.73177">
        <ele>170</ele>
        <time>2018-09-18T10:17:25Z</time>
      </trkpt>
      <trkpt lat="45.9241" lon="4.73184">
        <ele>171</ele>
        <time>2018-09-18T10:17:26Z</time>
      </trkpt>
      <trkpt lat="45.92411" lon="4.7319">
        <ele>171</ele>
        <time>2018-09-18T10:17:27Z</time>
      </trkpt>
      <trkpt lat="45.92411" lon="4.73201">
        <ele>171</ele>
        <time>2018-09-18T10:17:28Z</time>
      </trkpt>
      <trkpt lat="45.92411" lon="4.73208">
        <ele>171</ele>
        <time>2018-09-18T10:17:29Z</time>
      </trkpt>
      <trkpt lat="45.92412" lon="4.73215">
        <ele>171</ele>
        <time>2018-09-18T10:17:30Z</time>
      </trkpt>
      <trkpt lat="45.92412" lon="4.73222">
        <ele>171</ele>
        <time>2018-09-18T10:17:31Z</time>
      </trkpt>
      <trkpt lat="45.92413" lon="4.73231">
        <ele>171</ele>
        <time>2018-09-18T10:17:32Z</time>
      </trkpt>
      <trkpt lat="45.92413" lon="4.73238">
        <ele>171</ele>
        <time>2018-09-18T10:17:33Z</time>
      </trkpt>
      <trkpt lat="45.92413" lon="4.73247">
        <ele>171</ele>
        <time>2018-09-18T10:17:34Z</time>
      </trkpt>
      <trkpt lat="45.92413" lon="4.73254">
        <ele>171</ele>
        <time>2018-09-18T10:17:35Z</time>
      </trkpt>
      <trkpt lat="45.92413" lon="4.73261">
        <ele>171</ele>
        <time>2018-09-18T10:17:36Z</time>
      </trkpt>
      <trkpt lat="45.92414" lon="4.73274">
        <ele>171</ele>
        <time>2018-09-18T10:17:38Z</time>
      </trkpt>
      <trkpt lat="45.92415" lon="4.73279">
        <ele>171</ele>
        <time>2018-09-18T10:17:39Z</time>
      </trkpt>
      <trkpt lat="45.92416" lon="4.73291">
        <ele>171</ele>
        <time>2018-09-18T10:17:41Z</time>
      </trkpt>
      <trkpt lat="45.92417" lon="4.73297">
        <ele>171</ele>
        <time>2018-09-18T10:17:42Z</time>
      </trkpt>
      <trkpt lat="45.92419" lon="4.73309">
        <ele>171</ele>
        <time>2018-09-18T10:17:44Z</time>
      </trkpt>
      <trkpt lat="45.9242" lon="4.73316">
        <ele>171</ele>
        <time>2018-09-18T10:17:45Z</time>
      </trkpt>
      <trkpt lat="45.92421" lon="4.73323">
        <ele>171</ele>
        <time>2018-09-18T10:17:46Z</time>
      </trkpt>
      <trkpt lat="45.92422" lon="4.7333">
        <ele>171</ele>
        <time>2018-09-18T10:17:47Z</time>
      </trkpt>
      <trkpt lat="45.92423" lon="4.73336">
        <ele>171</ele>
        <time>2018-09-18T10:17:48Z</time>
      </trkpt>
      <trkpt lat="45.92423" lon="4.73343">
        <ele>171</ele>
        <time>2018-09-18T10:17:49Z</time>
      </trkpt>
      <trkpt lat="45.92425" lon="4.73353">
        <ele>171</ele>
        <time>2018-09-18T10:17:51Z</time>
      </trkpt>
      <trkpt lat="45.92425" lon="4.73356">
        <ele>171</ele>
        <time>2018-09-18T10:17:52Z</time>
      </trkpt>
      <trkpt lat="45.92426" lon="4.73363">
        <ele>172</ele>
        <time>2018-09-18T10:17:53Z</time>
      </trkpt>
      <trkpt lat="45.92427" lon="4.73369">
        <ele>172</ele>
        <time>2018-09-18T10:17:54Z</time>
      </trkpt>
      <trkpt lat="45.92428" lon="4.73381">
        <ele>172</ele>
        <time>2018-09-18T10:17:56Z</time>
      </trkpt>
      <trkpt lat="45.92429" lon="4.73386">
        <ele>172</ele>
        <time>2018-09-18T10:17:57Z</time>
      </trkpt>
      <trkpt lat="45.92431" lon="4.73397">
        <ele>172</ele>
        <time>2018-09-18T10:17:59Z</time>
      </trkpt>
      <trkpt lat="45.92433" lon="4.73402">
        <ele>172</ele>
        <time>2018-09-18T10:18:00Z</time>
      </trkpt>
      <trkpt lat="45.92435" lon="4.73407">
        <ele>172</ele>
        <time>2018-09-18T10:18:02Z</time>
      </trkpt>
      <trkpt lat="45.92438" lon="4.73415">
        <ele>172</ele>
        <time>2018-09-18T10:18:03Z</time>
      </trkpt>
      <trkpt lat="45.92445" lon="4.73422">
        <ele>173</ele>
        <time>2018-09-18T10:18:05Z</time>
      </trkpt>
      <trkpt lat="45.92449" lon="4.73424">
        <ele>173</ele>
        <time>2018-09-18T10:18:06Z</time>
      </trkpt>
      <trkpt lat="45.92457" lon="4.73428">
        <ele>173</ele>
        <time>2018-09-18T10:18:10Z</time>
      </trkpt>
      <trkpt lat="45.92463" lon="4.73436">
        <ele>173</ele>
        <time>2018-09-18T10:18:11Z</time>
      </trkpt>
      <trkpt lat="45.92467" lon="4.73447">
        <ele>173</ele>
        <time>2018-09-18T10:18:13Z</time>
      </trkpt>
      <trkpt lat="45.92468" lon="4.73453">
        <ele>173</ele>
        <time>2018-09-18T10:18:14Z</time>
      </trkpt>
      <trkpt lat="45.9247" lon="4.73462">
        <ele>173</ele>
        <time>2018-09-18T10:18:16Z</time>
      </trkpt>
      <trkpt lat="45.9247" lon="4.73465">
        <ele>173</ele>
        <time>2018-09-18T10:18:17Z</time>
      </trkpt>
      <trkpt lat="45.92471" lon="4.73477">
        <ele>173</ele>
        <time>2018-09-18T10:18:20Z</time>
      </trkpt>
      <trkpt lat="45.92471" lon="4.73489">
        <ele>173</ele>
        <time>2018-09-18T10:18:21Z</time>
      </trkpt>
      <trkpt lat="45.92472" lon="4.73499">
        <ele>173</ele>
        <time>2018-09-18T10:18:23Z</time>
      </trkpt>
      <trkpt lat="45.92471" lon="4.73504">
        <ele>174</ele>
        <time>2018-09-18T10:18:24Z</time>
      </trkpt>
      <trkpt lat="45.92472" lon="4.7351">
        <ele>174</ele>
        <time>2018-09-18T10:18:25Z</time>
      </trkpt>
      <trkpt lat="45.92473" lon="4.73517">
        <ele>174</ele>
        <time>2018-09-18T10:18:26Z</time>
      </trkpt>
      <trkpt lat="45.92472" lon="4.73528">
        <ele>174</ele>
        <time>2018-09-18T10:18:28Z</time>
      </trkpt>
      <trkpt lat="45.92472" lon="4.73535">
        <ele>174</ele>
        <time>2018-09-18T10:18:29Z</time>
      </trkpt>
      <trkpt lat="45.92471" lon="4.73545">
        <ele>173</ele>
        <time>2018-09-18T10:18:33Z</time>
      </trkpt>
      <trkpt lat="45.9247" lon="4.73548">
        <ele>173</ele>
        <time>2018-09-18T10:18:34Z</time>
      </trkpt>
      <trkpt lat="45.9247" lon="4.73552">
        <ele>173</ele>
        <time>2018-09-18T10:18:35Z</time>
      </trkpt>
      <trkpt lat="45.92469" lon="4.73563">
        <ele>173</ele>
        <time>2018-09-18T10:18:36Z</time>
      </trkpt>
      <trkpt lat="45.92471" lon="4.73572">
        <ele>173</ele>
        <time>2018-09-18T10:18:37Z</time>
      </trkpt>
      <trkpt lat="45.92471" lon="4.7358">
        <ele>173</ele>
        <time>2018-09-18T10:18:38Z</time>
      </trkpt>
      <trkpt lat="45.92472" lon="4.73592">
        <ele>174</ele>
        <time>2018-09-18T10:18:40Z</time>
      </trkpt>
      <trkpt lat="45.92472" lon="4.73599">
        <ele>174</ele>
        <time>2018-09-18T10:18:41Z</time>
      </trkpt>
      <trkpt lat="45.92473" lon="4.7361">
        <ele>174</ele>
        <time>2018-09-18T10:18:43Z</time>
      </trkpt>
      <trkpt lat="45.92473" lon="4.73616">
        <ele>174</ele>
        <time>2018-09-18T10:18:44Z</time>
      </trkpt>
      <trkpt lat="45.92472" lon="4.73627">
        <ele>174</ele>
        <time>2018-09-18T10:18:46Z</time>
      </trkpt>
      <trkpt lat="45.92473" lon="4.73632">
        <ele>174</ele>
        <time>2018-09-18T10:18:47Z</time>
      </trkpt>
      <trkpt lat="45.92473" lon="4.73638">
        <ele>174</ele>
        <time>2018-09-18T10:18:48Z</time>
      </trkpt>
      <trkpt lat="45.92473" lon="4.73645">
        <ele>174</ele>
        <time>2018-09-18T10:18:49Z</time>
      </trkpt>
      <trkpt lat="45.92473" lon="4.73656">
        <ele>174</ele>
        <time>2018-09-18T10:18:51Z</time>
      </trkpt>
      <trkpt lat="45.92472" lon="4.73658">
        <ele>174</ele>
        <time>2018-09-18T10:18:52Z</time>
      </trkpt>
      <trkpt lat="45.9247" lon="4.73667">
        <ele>174</ele>
        <time>2018-09-18T10:18:55Z</time>
      </trkpt>
      <trkpt lat="45.9247" lon="4.73672">
        <ele>174</ele>
        <time>2018-09-18T10:18:56Z</time>
      </trkpt>
      <trkpt lat="45.9247" lon="4.7368">
        <ele>174</ele>
        <time>2018-09-18T10:18:58Z</time>
      </trkpt>
      <trkpt lat="45.9247" lon="4.73685">
        <ele>174</ele>
        <time>2018-09-18T10:18:59Z</time>
      </trkpt>
      <trkpt lat="45.92469" lon="4.73694">
        <ele>174</ele>
        <time>2018-09-18T10:19:01Z</time>
      </trkpt>
      <trkpt lat="45.92469" lon="4.73698">
        <ele>174</ele>
        <time>2018-09-18T10:19:02Z</time>
      </trkpt>
      <trkpt lat="45.92464" lon="4.73709">
        <ele>174</ele>
        <time>2018-09-18T10:19:13Z</time>
      </trkpt>
      <trkpt lat="45.92464" lon="4.7371">
        <ele>174</ele>
        <time>2018-09-18T10:19:14Z</time>
      </trkpt>
      <trkpt lat="45.92461" lon="4.73712">
        <ele>174</ele>
        <time>2018-09-18T10:19:30.927Z</time>
      </trkpt>
    </trkseg>
  </trk>
</gpx>